<?xml version="1.0" encoding="UTF-8" standalone="no" ?>
<gpx xmlns="http://www.topografix.com/GPX/1/1" xmlns:xsi="http://www.w3.org/2001/XMLSchema-instance" xsi:schemaLocation="http://www.topografix.com/GPX/1/1 http://www.topografix.com/GPX/1/1/gpx.xsd" version="1.1" creator="VisuGPX - https://www.visugpx.com">
  <metadata>
    <name>Vélo bleu - Circuit 28</name>
    <desc><![CDATA[Petit patrimoine sur ce circuit :
- Chapelle de la Trinité à Chateauvillain, Chapelle funéraire dans le cimetière de Latrecey, Chapelle saint-Roch à Coupray, Chapelle Sainte-Anne à Arc-en-Barrois.
- Lavoirs de Dinteville, Ormoy-sur-Aube, Latrecey, Coupray, Cour-l'Evêque.
- Châteaux de Dinteville, de Villars-en-Azois.]]></desc>
  </metadata>
  <trk>
    <name><![CDATA[44]]></name>
    <trkseg>
      <trkpt lat="48.02234" lon="5.05966">
        <ele>344.02</ele>
        <time>2025-02-02T10:50:13.000Z</time>
      </trkpt>
      <trkpt lat="48.02235" lon="5.05965">
        <ele>344.01</ele>
        <time>2025-02-02T10:50:13.000Z</time>
      </trkpt>
      <trkpt lat="48.02219" lon="5.05965">
        <ele>344.01</ele>
        <time>2025-02-02T10:50:13.003Z</time>
      </trkpt>
      <trkpt lat="48.02218" lon="5.05948">
        <ele>343.94</ele>
        <time>2025-02-02T10:50:13.008Z</time>
      </trkpt>
      <trkpt lat="48.02215" lon="5.05946">
        <ele>343.89</ele>
        <time>2025-02-02T10:50:13.013Z</time>
      </trkpt>
      <trkpt lat="48.0221" lon="5.05944">
        <ele>343.85</ele>
        <time>2025-02-02T10:50:13.019Z</time>
      </trkpt>
      <trkpt lat="48.0221" lon="5.05943">
        <ele>343.81</ele>
        <time>2025-02-02T10:50:13.025Z</time>
      </trkpt>
      <trkpt lat="48.02209" lon="5.05943">
        <ele>343.78</ele>
        <time>2025-02-02T10:50:13.031Z</time>
      </trkpt>
      <trkpt lat="48.02204" lon="5.05939">
        <ele>343.77</ele>
        <time>2025-02-02T10:50:13.038Z</time>
      </trkpt>
      <trkpt lat="48.0219" lon="5.05921">
        <ele>343.74</ele>
        <time>2025-02-02T10:50:13.048Z</time>
      </trkpt>
      <trkpt lat="48.02173" lon="5.05892">
        <ele>343.69</ele>
        <time>2025-02-02T10:50:13.062Z</time>
      </trkpt>
      <trkpt lat="48.02162" lon="5.05876">
        <ele>343.67</ele>
        <time>2025-02-02T10:50:13.079Z</time>
      </trkpt>
      <trkpt lat="48.0215" lon="5.0586">
        <ele>343.65</ele>
        <time>2025-02-02T10:50:13.098Z</time>
      </trkpt>
      <trkpt lat="48.02138" lon="5.05843">
        <ele>343.63</ele>
        <time>2025-02-02T10:50:13.120Z</time>
      </trkpt>
      <trkpt lat="48.02125" lon="5.05827">
        <ele>343.61</ele>
        <time>2025-02-02T10:50:13.145Z</time>
      </trkpt>
      <trkpt lat="48.02113" lon="5.0581">
        <ele>343.63</ele>
        <time>2025-02-02T10:50:13.172Z</time>
      </trkpt>
      <trkpt lat="48.02109" lon="5.05798">
        <ele>343.67</ele>
        <time>2025-02-02T10:50:13.201Z</time>
      </trkpt>
      <trkpt lat="48.0211" lon="5.05784">
        <ele>343.68</ele>
        <time>2025-02-02T10:50:13.231Z</time>
      </trkpt>
      <trkpt lat="48.0211" lon="5.05769">
        <ele>343.64</ele>
        <time>2025-02-02T10:50:13.263Z</time>
      </trkpt>
      <trkpt lat="48.02111" lon="5.05753">
        <ele>343.59</ele>
        <time>2025-02-02T10:50:13.297Z</time>
      </trkpt>
      <trkpt lat="48.02111" lon="5.05727">
        <ele>343.5</ele>
        <time>2025-02-02T10:50:13.333Z</time>
      </trkpt>
      <trkpt lat="48.02111" lon="5.05719">
        <ele>343.38</ele>
        <time>2025-02-02T10:50:13.370Z</time>
      </trkpt>
      <trkpt lat="48.0211" lon="5.0569">
        <ele>343.24</ele>
        <time>2025-02-02T10:50:13.410Z</time>
      </trkpt>
      <trkpt lat="48.0211" lon="5.05667">
        <ele>343.11</ele>
        <time>2025-02-02T10:50:13.453Z</time>
      </trkpt>
      <trkpt lat="48.02109" lon="5.05643">
        <ele>342.94</ele>
        <time>2025-02-02T10:50:13.498Z</time>
      </trkpt>
      <trkpt lat="48.02106" lon="5.05629">
        <ele>342.75</ele>
        <time>2025-02-02T10:50:13.545Z</time>
      </trkpt>
      <trkpt lat="48.02099" lon="5.056">
        <ele>342.51</ele>
        <time>2025-02-02T10:50:13.595Z</time>
      </trkpt>
      <trkpt lat="48.02094" lon="5.05579">
        <ele>342.31</ele>
        <time>2025-02-02T10:50:13.648Z</time>
      </trkpt>
      <trkpt lat="48.02089" lon="5.05558">
        <ele>342.13</ele>
        <time>2025-02-02T10:50:13.703Z</time>
      </trkpt>
      <trkpt lat="48.02088" lon="5.05552">
        <ele>341.94</ele>
        <time>2025-02-02T10:50:13.759Z</time>
      </trkpt>
      <trkpt lat="48.02084" lon="5.05521">
        <ele>341.78</ele>
        <time>2025-02-02T10:50:13.818Z</time>
      </trkpt>
      <trkpt lat="48.02083" lon="5.05515">
        <ele>341.61</ele>
        <time>2025-02-02T10:50:13.878Z</time>
      </trkpt>
      <trkpt lat="48.02079" lon="5.05486">
        <ele>341.5</ele>
        <time>2025-02-02T10:50:13.941Z</time>
      </trkpt>
      <trkpt lat="48.02078" lon="5.05462">
        <ele>341.38</ele>
        <time>2025-02-02T10:50:14.007Z</time>
      </trkpt>
      <trkpt lat="48.02078" lon="5.05438">
        <ele>341.15</ele>
        <time>2025-02-02T10:50:14.075Z</time>
      </trkpt>
      <trkpt lat="48.02077" lon="5.05415">
        <ele>340.87</ele>
        <time>2025-02-02T10:50:14.146Z</time>
      </trkpt>
      <trkpt lat="48.02078" lon="5.05407">
        <ele>340.6</ele>
        <time>2025-02-02T10:50:14.218Z</time>
      </trkpt>
      <trkpt lat="48.02081" lon="5.054">
        <ele>340.31</ele>
        <time>2025-02-02T10:50:14.290Z</time>
      </trkpt>
      <trkpt lat="48.02094" lon="5.05381">
        <ele>339.92</ele>
        <time>2025-02-02T10:50:14.365Z</time>
      </trkpt>
      <trkpt lat="48.02114" lon="5.05356">
        <ele>339.52</ele>
        <time>2025-02-02T10:50:14.444Z</time>
      </trkpt>
      <trkpt lat="48.02134" lon="5.05331">
        <ele>339.14</ele>
        <time>2025-02-02T10:50:14.528Z</time>
      </trkpt>
      <trkpt lat="48.02154" lon="5.05306">
        <ele>338.79</ele>
        <time>2025-02-02T10:50:14.616Z</time>
      </trkpt>
      <trkpt lat="48.02174" lon="5.05281">
        <ele>338.45</ele>
        <time>2025-02-02T10:50:14.708Z</time>
      </trkpt>
      <trkpt lat="48.02185" lon="5.05258">
        <ele>338.1</ele>
        <time>2025-02-02T10:50:14.803Z</time>
      </trkpt>
      <trkpt lat="48.02191" lon="5.05242">
        <ele>337.72</ele>
        <time>2025-02-02T10:50:14.900Z</time>
      </trkpt>
      <trkpt lat="48.02196" lon="5.05213">
        <ele>337.36</ele>
        <time>2025-02-02T10:50:15.000Z</time>
      </trkpt>
      <trkpt lat="48.022" lon="5.05184">
        <ele>336.99</ele>
        <time>2025-02-02T10:50:15.103Z</time>
      </trkpt>
      <trkpt lat="48.02203" lon="5.05146">
        <ele>336.7</ele>
        <time>2025-02-02T10:50:15.211Z</time>
      </trkpt>
      <trkpt lat="48.02206" lon="5.05108">
        <ele>336.5</ele>
        <time>2025-02-02T10:50:15.323Z</time>
      </trkpt>
      <trkpt lat="48.02206" lon="5.05066">
        <ele>336.27</ele>
        <time>2025-02-02T10:50:15.439Z</time>
      </trkpt>
      <trkpt lat="48.02206" lon="5.05025">
        <ele>336.02</ele>
        <time>2025-02-02T10:50:15.560Z</time>
      </trkpt>
      <trkpt lat="48.02202" lon="5.04998">
        <ele>335.86</ele>
        <time>2025-02-02T10:50:15.684Z</time>
      </trkpt>
      <trkpt lat="48.02197" lon="5.0497">
        <ele>335.73</ele>
        <time>2025-02-02T10:50:15.811Z</time>
      </trkpt>
      <trkpt lat="48.02191" lon="5.04934">
        <ele>335.63</ele>
        <time>2025-02-02T10:50:15.942Z</time>
      </trkpt>
      <trkpt lat="48.02184" lon="5.04897">
        <ele>335.54</ele>
        <time>2025-02-02T10:50:16.077Z</time>
      </trkpt>
      <trkpt lat="48.02186" lon="5.04863">
        <ele>335.41</ele>
        <time>2025-02-02T10:50:16.215Z</time>
      </trkpt>
      <trkpt lat="48.02188" lon="5.04828">
        <ele>335.33</ele>
        <time>2025-02-02T10:50:16.357Z</time>
      </trkpt>
      <trkpt lat="48.0219" lon="5.04784">
        <ele>335.3</ele>
        <time>2025-02-02T10:50:16.504Z</time>
      </trkpt>
      <trkpt lat="48.02192" lon="5.0474">
        <ele>335.34</ele>
        <time>2025-02-02T10:50:16.656Z</time>
      </trkpt>
      <trkpt lat="48.02193" lon="5.0473">
        <ele>335.38</ele>
        <time>2025-02-02T10:50:16.809Z</time>
      </trkpt>
      <trkpt lat="48.02195" lon="5.04692">
        <ele>335.47</ele>
        <time>2025-02-02T10:50:16.966Z</time>
      </trkpt>
      <trkpt lat="48.02197" lon="5.04655">
        <ele>335.51</ele>
        <time>2025-02-02T10:50:17.127Z</time>
      </trkpt>
      <trkpt lat="48.02198" lon="5.04627">
        <ele>335.56</ele>
        <time>2025-02-02T10:50:17.291Z</time>
      </trkpt>
      <trkpt lat="48.022" lon="5.046">
        <ele>335.69</ele>
        <time>2025-02-02T10:50:17.458Z</time>
      </trkpt>
      <trkpt lat="48.02201" lon="5.04569">
        <ele>335.81</ele>
        <time>2025-02-02T10:50:17.628Z</time>
      </trkpt>
      <trkpt lat="48.02203" lon="5.04537">
        <ele>335.93</ele>
        <time>2025-02-02T10:50:17.802Z</time>
      </trkpt>
      <trkpt lat="48.0221" lon="5.04513">
        <ele>336.06</ele>
        <time>2025-02-02T10:50:17.978Z</time>
      </trkpt>
      <trkpt lat="48.02217" lon="5.04489">
        <ele>336.21</ele>
        <time>2025-02-02T10:50:18.157Z</time>
      </trkpt>
      <trkpt lat="48.02228" lon="5.0446">
        <ele>336.35</ele>
        <time>2025-02-02T10:50:18.340Z</time>
      </trkpt>
      <trkpt lat="48.02238" lon="5.04431">
        <ele>336.5</ele>
        <time>2025-02-02T10:50:18.526Z</time>
      </trkpt>
      <trkpt lat="48.02249" lon="5.04403">
        <ele>336.68</ele>
        <time>2025-02-02T10:50:18.716Z</time>
      </trkpt>
      <trkpt lat="48.02259" lon="5.04375">
        <ele>336.87</ele>
        <time>2025-02-02T10:50:18.909Z</time>
      </trkpt>
      <trkpt lat="48.02261" lon="5.0435">
        <ele>336.98</ele>
        <time>2025-02-02T10:50:19.105Z</time>
      </trkpt>
      <trkpt lat="48.02261" lon="5.04341">
        <ele>337.13</ele>
        <time>2025-02-02T10:50:19.302Z</time>
      </trkpt>
      <trkpt lat="48.02259" lon="5.04332">
        <ele>337.27</ele>
        <time>2025-02-02T10:50:19.500Z</time>
      </trkpt>
      <trkpt lat="48.02256" lon="5.04313">
        <ele>337.43</ele>
        <time>2025-02-02T10:50:19.700Z</time>
      </trkpt>
      <trkpt lat="48.02254" lon="5.04303">
        <ele>337.57</ele>
        <time>2025-02-02T10:50:19.901Z</time>
      </trkpt>
      <trkpt lat="48.02252" lon="5.04293">
        <ele>337.71</ele>
        <time>2025-02-02T10:50:20.103Z</time>
      </trkpt>
      <trkpt lat="48.02249" lon="5.04273">
        <ele>337.82</ele>
        <time>2025-02-02T10:50:20.307Z</time>
      </trkpt>
      <trkpt lat="48.02245" lon="5.04253">
        <ele>337.88</ele>
        <time>2025-02-02T10:50:20.514Z</time>
      </trkpt>
      <trkpt lat="48.0224" lon="5.04222">
        <ele>337.96</ele>
        <time>2025-02-02T10:50:20.724Z</time>
      </trkpt>
      <trkpt lat="48.02235" lon="5.04192">
        <ele>338.05</ele>
        <time>2025-02-02T10:50:20.937Z</time>
      </trkpt>
      <trkpt lat="48.02233" lon="5.04182">
        <ele>338.11</ele>
        <time>2025-02-02T10:50:21.151Z</time>
      </trkpt>
      <trkpt lat="48.02226" lon="5.04143">
        <ele>338.12</ele>
        <time>2025-02-02T10:50:21.370Z</time>
      </trkpt>
      <trkpt lat="48.02223" lon="5.04122">
        <ele>338.13</ele>
        <time>2025-02-02T10:50:21.591Z</time>
      </trkpt>
      <trkpt lat="48.02217" lon="5.04089">
        <ele>338.05</ele>
        <time>2025-02-02T10:50:21.816Z</time>
      </trkpt>
      <trkpt lat="48.02212" lon="5.04057">
        <ele>337.96</ele>
        <time>2025-02-02T10:50:22.044Z</time>
      </trkpt>
      <trkpt lat="48.02208" lon="5.04036">
        <ele>337.87</ele>
        <time>2025-02-02T10:50:22.275Z</time>
      </trkpt>
      <trkpt lat="48.02203" lon="5.04005">
        <ele>337.78</ele>
        <time>2025-02-02T10:50:22.509Z</time>
      </trkpt>
      <trkpt lat="48.02199" lon="5.03981">
        <ele>337.68</ele>
        <time>2025-02-02T10:50:22.746Z</time>
      </trkpt>
      <trkpt lat="48.02195" lon="5.03958">
        <ele>337.58</ele>
        <time>2025-02-02T10:50:22.985Z</time>
      </trkpt>
      <trkpt lat="48.02191" lon="5.03934">
        <ele>337.41</ele>
        <time>2025-02-02T10:50:23.227Z</time>
      </trkpt>
      <trkpt lat="48.02186" lon="5.03911">
        <ele>337.24</ele>
        <time>2025-02-02T10:50:23.472Z</time>
      </trkpt>
      <trkpt lat="48.02185" lon="5.03901">
        <ele>337.07</ele>
        <time>2025-02-02T10:50:23.718Z</time>
      </trkpt>
      <trkpt lat="48.02178" lon="5.03862">
        <ele>336.85</ele>
        <time>2025-02-02T10:50:23.968Z</time>
      </trkpt>
      <trkpt lat="48.02173" lon="5.0383">
        <ele>336.69</ele>
        <time>2025-02-02T10:50:24.222Z</time>
      </trkpt>
      <trkpt lat="48.02167" lon="5.03797">
        <ele>336.51</ele>
        <time>2025-02-02T10:50:24.479Z</time>
      </trkpt>
      <trkpt lat="48.02163" lon="5.03773">
        <ele>336.34</ele>
        <time>2025-02-02T10:50:24.739Z</time>
      </trkpt>
      <trkpt lat="48.02158" lon="5.03748">
        <ele>336.14</ele>
        <time>2025-02-02T10:50:25.002Z</time>
      </trkpt>
      <trkpt lat="48.02153" lon="5.03718">
        <ele>335.94</ele>
        <time>2025-02-02T10:50:25.268Z</time>
      </trkpt>
      <trkpt lat="48.02148" lon="5.03688">
        <ele>335.79</ele>
        <time>2025-02-02T10:50:25.537Z</time>
      </trkpt>
      <trkpt lat="48.02143" lon="5.03659">
        <ele>335.68</ele>
        <time>2025-02-02T10:50:25.810Z</time>
      </trkpt>
      <trkpt lat="48.02138" lon="5.0363">
        <ele>335.58</ele>
        <time>2025-02-02T10:50:26.086Z</time>
      </trkpt>
      <trkpt lat="48.02135" lon="5.0361">
        <ele>335.52</ele>
        <time>2025-02-02T10:50:26.364Z</time>
      </trkpt>
      <trkpt lat="48.02131" lon="5.03591">
        <ele>335.47</ele>
        <time>2025-02-02T10:50:26.644Z</time>
      </trkpt>
      <trkpt lat="48.02129" lon="5.03582">
        <ele>335.45</ele>
        <time>2025-02-02T10:50:26.925Z</time>
      </trkpt>
      <trkpt lat="48.02124" lon="5.03552">
        <ele>335.46</ele>
        <time>2025-02-02T10:50:27.209Z</time>
      </trkpt>
      <trkpt lat="48.02119" lon="5.03522">
        <ele>335.5</ele>
        <time>2025-02-02T10:50:27.497Z</time>
      </trkpt>
      <trkpt lat="48.02113" lon="5.03492">
        <ele>335.52</ele>
        <time>2025-02-02T10:50:27.788Z</time>
      </trkpt>
      <trkpt lat="48.02108" lon="5.03461">
        <ele>335.65</ele>
        <time>2025-02-02T10:50:28.082Z</time>
      </trkpt>
      <trkpt lat="48.02103" lon="5.03437">
        <ele>335.82</ele>
        <time>2025-02-02T10:50:28.379Z</time>
      </trkpt>
      <trkpt lat="48.02099" lon="5.03413">
        <ele>336.02</ele>
        <time>2025-02-02T10:50:28.679Z</time>
      </trkpt>
      <trkpt lat="48.02094" lon="5.03386">
        <ele>336.24</ele>
        <time>2025-02-02T10:50:28.982Z</time>
      </trkpt>
      <trkpt lat="48.02092" lon="5.03376">
        <ele>336.45</ele>
        <time>2025-02-02T10:50:29.286Z</time>
      </trkpt>
      <trkpt lat="48.02087" lon="5.0335">
        <ele>336.65</ele>
        <time>2025-02-02T10:50:29.593Z</time>
      </trkpt>
      <trkpt lat="48.02084" lon="5.03332">
        <ele>336.88</ele>
        <time>2025-02-02T10:50:29.902Z</time>
      </trkpt>
      <trkpt lat="48.02083" lon="5.03324">
        <ele>337.13</ele>
        <time>2025-02-02T10:50:30.212Z</time>
      </trkpt>
      <trkpt lat="48.02078" lon="5.033">
        <ele>337.41</ele>
        <time>2025-02-02T10:50:30.524Z</time>
      </trkpt>
      <trkpt lat="48.02077" lon="5.03292">
        <ele>337.69</ele>
        <time>2025-02-02T10:50:30.837Z</time>
      </trkpt>
      <trkpt lat="48.02073" lon="5.03271">
        <ele>337.99</ele>
        <time>2025-02-02T10:50:31.153Z</time>
      </trkpt>
      <trkpt lat="48.02072" lon="5.03264">
        <ele>338.27</ele>
        <time>2025-02-02T10:50:31.469Z</time>
      </trkpt>
      <trkpt lat="48.0207" lon="5.03257">
        <ele>338.55</ele>
        <time>2025-02-02T10:50:31.786Z</time>
      </trkpt>
      <trkpt lat="48.02066" lon="5.03235">
        <ele>338.84</ele>
        <time>2025-02-02T10:50:32.106Z</time>
      </trkpt>
      <trkpt lat="48.02063" lon="5.03221">
        <ele>339.15</ele>
        <time>2025-02-02T10:50:32.427Z</time>
      </trkpt>
      <trkpt lat="48.02059" lon="5.032">
        <ele>339.46</ele>
        <time>2025-02-02T10:50:32.751Z</time>
      </trkpt>
      <trkpt lat="48.02057" lon="5.03187">
        <ele>339.74</ele>
        <time>2025-02-02T10:50:33.076Z</time>
      </trkpt>
      <trkpt lat="48.02054" lon="5.03171">
        <ele>340.05</ele>
        <time>2025-02-02T10:50:33.403Z</time>
      </trkpt>
      <trkpt lat="48.02052" lon="5.03163">
        <ele>340.34</ele>
        <time>2025-02-02T10:50:33.731Z</time>
      </trkpt>
      <trkpt lat="48.02049" lon="5.03145">
        <ele>340.67</ele>
        <time>2025-02-02T10:50:34.061Z</time>
      </trkpt>
      <trkpt lat="48.02047" lon="5.03136">
        <ele>340.98</ele>
        <time>2025-02-02T10:50:34.392Z</time>
      </trkpt>
      <trkpt lat="48.02041" lon="5.03102">
        <ele>341.27</ele>
        <time>2025-02-02T10:50:34.727Z</time>
      </trkpt>
      <trkpt lat="48.02034" lon="5.03067">
        <ele>341.52</ele>
        <time>2025-02-02T10:50:35.065Z</time>
      </trkpt>
      <trkpt lat="48.02029" lon="5.03037">
        <ele>341.76</ele>
        <time>2025-02-02T10:50:35.407Z</time>
      </trkpt>
      <trkpt lat="48.02023" lon="5.03008">
        <ele>342.01</ele>
        <time>2025-02-02T10:50:35.752Z</time>
      </trkpt>
      <trkpt lat="48.02017" lon="5.02979">
        <ele>342.25</ele>
        <time>2025-02-02T10:50:36.100Z</time>
      </trkpt>
      <trkpt lat="48.02012" lon="5.02949">
        <ele>342.45</ele>
        <time>2025-02-02T10:50:36.452Z</time>
      </trkpt>
      <trkpt lat="48.02008" lon="5.02927">
        <ele>342.65</ele>
        <time>2025-02-02T10:50:36.806Z</time>
      </trkpt>
      <trkpt lat="48.02005" lon="5.02913">
        <ele>342.83</ele>
        <time>2025-02-02T10:50:37.162Z</time>
      </trkpt>
      <trkpt lat="48.02004" lon="5.02907">
        <ele>343.01</ele>
        <time>2025-02-02T10:50:37.518Z</time>
      </trkpt>
      <trkpt lat="48.02002" lon="5.02893">
        <ele>343.19</ele>
        <time>2025-02-02T10:50:37.876Z</time>
      </trkpt>
      <trkpt lat="48.02001" lon="5.02879">
        <ele>343.34</ele>
        <time>2025-02-02T10:50:38.235Z</time>
      </trkpt>
      <trkpt lat="48.01998" lon="5.02854">
        <ele>343.52</ele>
        <time>2025-02-02T10:50:38.597Z</time>
      </trkpt>
      <trkpt lat="48.01999" lon="5.0284">
        <ele>343.65</ele>
        <time>2025-02-02T10:50:38.961Z</time>
      </trkpt>
      <trkpt lat="48.02002" lon="5.02824">
        <ele>343.76</ele>
        <time>2025-02-02T10:50:39.326Z</time>
      </trkpt>
      <trkpt lat="48.02006" lon="5.02801">
        <ele>343.86</ele>
        <time>2025-02-02T10:50:39.694Z</time>
      </trkpt>
      <trkpt lat="48.02015" lon="5.02779">
        <ele>343.95</ele>
        <time>2025-02-02T10:50:40.065Z</time>
      </trkpt>
      <trkpt lat="48.02024" lon="5.02756">
        <ele>343.98</ele>
        <time>2025-02-02T10:50:40.438Z</time>
      </trkpt>
      <trkpt lat="48.0203" lon="5.02742">
        <ele>343.99</ele>
        <time>2025-02-02T10:50:40.813Z</time>
      </trkpt>
      <trkpt lat="48.02035" lon="5.02728">
        <ele>344.02</ele>
        <time>2025-02-02T10:50:41.190Z</time>
      </trkpt>
      <trkpt lat="48.02038" lon="5.02721">
        <ele>344.01</ele>
        <time>2025-02-02T10:50:41.568Z</time>
      </trkpt>
      <trkpt lat="48.02047" lon="5.02696">
        <ele>344</ele>
        <time>2025-02-02T10:50:41.949Z</time>
      </trkpt>
      <trkpt lat="48.02057" lon="5.02672">
        <ele>343.97</ele>
        <time>2025-02-02T10:50:42.333Z</time>
      </trkpt>
      <trkpt lat="48.02066" lon="5.02648">
        <ele>343.96</ele>
        <time>2025-02-02T10:50:42.720Z</time>
      </trkpt>
      <trkpt lat="48.02081" lon="5.02609">
        <ele>343.93</ele>
        <time>2025-02-02T10:50:43.112Z</time>
      </trkpt>
      <trkpt lat="48.02084" lon="5.02602">
        <ele>343.84</ele>
        <time>2025-02-02T10:50:43.505Z</time>
      </trkpt>
      <trkpt lat="48.02096" lon="5.0257">
        <ele>343.79</ele>
        <time>2025-02-02T10:50:43.902Z</time>
      </trkpt>
      <trkpt lat="48.02102" lon="5.02555">
        <ele>343.7</ele>
        <time>2025-02-02T10:50:44.301Z</time>
      </trkpt>
      <trkpt lat="48.02114" lon="5.02523">
        <ele>343.54</ele>
        <time>2025-02-02T10:50:44.703Z</time>
      </trkpt>
      <trkpt lat="48.02121" lon="5.02507">
        <ele>343.36</ele>
        <time>2025-02-02T10:50:45.107Z</time>
      </trkpt>
      <trkpt lat="48.02132" lon="5.02477">
        <ele>343.18</ele>
        <time>2025-02-02T10:50:45.515Z</time>
      </trkpt>
      <trkpt lat="48.02144" lon="5.02447">
        <ele>342.92</ele>
        <time>2025-02-02T10:50:45.927Z</time>
      </trkpt>
      <trkpt lat="48.02159" lon="5.02408">
        <ele>342.61</ele>
        <time>2025-02-02T10:50:46.344Z</time>
      </trkpt>
      <trkpt lat="48.02168" lon="5.02385">
        <ele>342.36</ele>
        <time>2025-02-02T10:50:46.764Z</time>
      </trkpt>
      <trkpt lat="48.02174" lon="5.0237">
        <ele>342.08</ele>
        <time>2025-02-02T10:50:47.185Z</time>
      </trkpt>
      <trkpt lat="48.02177" lon="5.02362">
        <ele>341.81</ele>
        <time>2025-02-02T10:50:47.607Z</time>
      </trkpt>
      <trkpt lat="48.02182" lon="5.02347">
        <ele>341.53</ele>
        <time>2025-02-02T10:50:48.031Z</time>
      </trkpt>
      <trkpt lat="48.02191" lon="5.02326">
        <ele>341.25</ele>
        <time>2025-02-02T10:50:48.458Z</time>
      </trkpt>
      <trkpt lat="48.02199" lon="5.02304">
        <ele>341.02</ele>
        <time>2025-02-02T10:50:48.888Z</time>
      </trkpt>
      <trkpt lat="48.0221" lon="5.02276">
        <ele>340.81</ele>
        <time>2025-02-02T10:50:49.321Z</time>
      </trkpt>
      <trkpt lat="48.02221" lon="5.02247">
        <ele>340.6</ele>
        <time>2025-02-02T10:50:49.758Z</time>
      </trkpt>
      <trkpt lat="48.02234" lon="5.02217">
        <ele>340.32</ele>
        <time>2025-02-02T10:50:50.198Z</time>
      </trkpt>
      <trkpt lat="48.02246" lon="5.02186">
        <ele>340.06</ele>
        <time>2025-02-02T10:50:50.642Z</time>
      </trkpt>
      <trkpt lat="48.02255" lon="5.02164">
        <ele>339.87</ele>
        <time>2025-02-02T10:50:51.089Z</time>
      </trkpt>
      <trkpt lat="48.02264" lon="5.02142">
        <ele>339.75</ele>
        <time>2025-02-02T10:50:51.539Z</time>
      </trkpt>
      <trkpt lat="48.02268" lon="5.02133">
        <ele>339.68</ele>
        <time>2025-02-02T10:50:51.990Z</time>
      </trkpt>
      <trkpt lat="48.02271" lon="5.02125">
        <ele>339.62</ele>
        <time>2025-02-02T10:50:52.442Z</time>
      </trkpt>
      <trkpt lat="48.02285" lon="5.02091">
        <ele>339.64</ele>
        <time>2025-02-02T10:50:52.898Z</time>
      </trkpt>
      <trkpt lat="48.02292" lon="5.02074">
        <ele>339.63</ele>
        <time>2025-02-02T10:50:53.356Z</time>
      </trkpt>
      <trkpt lat="48.02299" lon="5.02057">
        <ele>339.63</ele>
        <time>2025-02-02T10:50:53.817Z</time>
      </trkpt>
      <trkpt lat="48.02302" lon="5.02049">
        <ele>339.64</ele>
        <time>2025-02-02T10:50:54.279Z</time>
      </trkpt>
      <trkpt lat="48.02309" lon="5.02032">
        <ele>339.67</ele>
        <time>2025-02-02T10:50:54.743Z</time>
      </trkpt>
      <trkpt lat="48.02316" lon="5.02015">
        <ele>339.72</ele>
        <time>2025-02-02T10:50:55.209Z</time>
      </trkpt>
      <trkpt lat="48.0232" lon="5.02006">
        <ele>339.76</ele>
        <time>2025-02-02T10:50:55.676Z</time>
      </trkpt>
      <trkpt lat="48.02336" lon="5.01966">
        <ele>339.81</ele>
        <time>2025-02-02T10:50:56.148Z</time>
      </trkpt>
      <trkpt lat="48.02345" lon="5.01945">
        <ele>339.82</ele>
        <time>2025-02-02T10:50:56.623Z</time>
      </trkpt>
      <trkpt lat="48.02351" lon="5.0193">
        <ele>339.82</ele>
        <time>2025-02-02T10:50:57.100Z</time>
      </trkpt>
      <trkpt lat="48.02364" lon="5.01898">
        <ele>339.78</ele>
        <time>2025-02-02T10:50:57.581Z</time>
      </trkpt>
      <trkpt lat="48.02377" lon="5.01867">
        <ele>339.8</ele>
        <time>2025-02-02T10:50:58.065Z</time>
      </trkpt>
      <trkpt lat="48.0239" lon="5.01833">
        <ele>339.96</ele>
        <time>2025-02-02T10:50:58.554Z</time>
      </trkpt>
      <trkpt lat="48.02404" lon="5.01799">
        <ele>340</ele>
        <time>2025-02-02T10:50:59.047Z</time>
      </trkpt>
      <trkpt lat="48.02412" lon="5.01775">
        <ele>340.01</ele>
        <time>2025-02-02T10:50:59.543Z</time>
      </trkpt>
      <trkpt lat="48.0242" lon="5.01751">
        <ele>339.99</ele>
        <time>2025-02-02T10:51:00.042Z</time>
      </trkpt>
      <trkpt lat="48.02428" lon="5.01725">
        <ele>339.89</ele>
        <time>2025-02-02T10:51:00.544Z</time>
      </trkpt>
      <trkpt lat="48.02435" lon="5.01698">
        <ele>339.78</ele>
        <time>2025-02-02T10:51:01.049Z</time>
      </trkpt>
      <trkpt lat="48.02442" lon="5.01676">
        <ele>339.6</ele>
        <time>2025-02-02T10:51:01.556Z</time>
      </trkpt>
      <trkpt lat="48.02448" lon="5.01654">
        <ele>339.42</ele>
        <time>2025-02-02T10:51:02.066Z</time>
      </trkpt>
      <trkpt lat="48.02456" lon="5.01627">
        <ele>339.21</ele>
        <time>2025-02-02T10:51:02.579Z</time>
      </trkpt>
      <trkpt lat="48.02458" lon="5.01619">
        <ele>339</ele>
        <time>2025-02-02T10:51:03.093Z</time>
      </trkpt>
      <trkpt lat="48.02461" lon="5.01611">
        <ele>338.76</ele>
        <time>2025-02-02T10:51:03.608Z</time>
      </trkpt>
      <trkpt lat="48.02468" lon="5.01586">
        <ele>338.49</ele>
        <time>2025-02-02T10:51:04.126Z</time>
      </trkpt>
      <trkpt lat="48.02471" lon="5.01576">
        <ele>338.18</ele>
        <time>2025-02-02T10:51:04.645Z</time>
      </trkpt>
      <trkpt lat="48.02478" lon="5.01549">
        <ele>337.82</ele>
        <time>2025-02-02T10:51:05.167Z</time>
      </trkpt>
      <trkpt lat="48.02481" lon="5.0154">
        <ele>337.44</ele>
        <time>2025-02-02T10:51:05.690Z</time>
      </trkpt>
      <trkpt lat="48.02488" lon="5.01516">
        <ele>337.03</ele>
        <time>2025-02-02T10:51:06.216Z</time>
      </trkpt>
      <trkpt lat="48.02495" lon="5.01493">
        <ele>336.6</ele>
        <time>2025-02-02T10:51:06.745Z</time>
      </trkpt>
      <trkpt lat="48.02503" lon="5.01466">
        <ele>336.13</ele>
        <time>2025-02-02T10:51:07.277Z</time>
      </trkpt>
      <trkpt lat="48.02511" lon="5.01437">
        <ele>335.62</ele>
        <time>2025-02-02T10:51:07.812Z</time>
      </trkpt>
      <trkpt lat="48.0252" lon="5.01407">
        <ele>335.09</ele>
        <time>2025-02-02T10:51:08.351Z</time>
      </trkpt>
      <trkpt lat="48.02528" lon="5.01377">
        <ele>334.49</ele>
        <time>2025-02-02T10:51:08.893Z</time>
      </trkpt>
      <trkpt lat="48.02539" lon="5.0134">
        <ele>333.85</ele>
        <time>2025-02-02T10:51:09.440Z</time>
      </trkpt>
      <trkpt lat="48.0255" lon="5.01303">
        <ele>333.24</ele>
        <time>2025-02-02T10:51:09.991Z</time>
      </trkpt>
      <trkpt lat="48.02556" lon="5.01277">
        <ele>332.63</ele>
        <time>2025-02-02T10:51:10.545Z</time>
      </trkpt>
      <trkpt lat="48.02562" lon="5.01251">
        <ele>332.05</ele>
        <time>2025-02-02T10:51:11.102Z</time>
      </trkpt>
      <trkpt lat="48.02563" lon="5.01241">
        <ele>331.46</ele>
        <time>2025-02-02T10:51:11.660Z</time>
      </trkpt>
      <trkpt lat="48.02566" lon="5.01209">
        <ele>330.82</ele>
        <time>2025-02-02T10:51:12.222Z</time>
      </trkpt>
      <trkpt lat="48.0257" lon="5.01177">
        <ele>330.16</ele>
        <time>2025-02-02T10:51:12.787Z</time>
      </trkpt>
      <trkpt lat="48.02573" lon="5.01148">
        <ele>329.52</ele>
        <time>2025-02-02T10:51:13.355Z</time>
      </trkpt>
      <trkpt lat="48.02577" lon="5.01118">
        <ele>328.92</ele>
        <time>2025-02-02T10:51:13.927Z</time>
      </trkpt>
      <trkpt lat="48.02582" lon="5.01078">
        <ele>328.27</ele>
        <time>2025-02-02T10:51:14.503Z</time>
      </trkpt>
      <trkpt lat="48.02586" lon="5.01038">
        <ele>327.61</ele>
        <time>2025-02-02T10:51:15.083Z</time>
      </trkpt>
      <trkpt lat="48.02593" lon="5.01008">
        <ele>327.07</ele>
        <time>2025-02-02T10:51:15.667Z</time>
      </trkpt>
      <trkpt lat="48.026" lon="5.00978">
        <ele>326.51</ele>
        <time>2025-02-02T10:51:16.254Z</time>
      </trkpt>
      <trkpt lat="48.02607" lon="5.00946">
        <ele>326.02</ele>
        <time>2025-02-02T10:51:16.845Z</time>
      </trkpt>
      <trkpt lat="48.02614" lon="5.00914">
        <ele>325.48</ele>
        <time>2025-02-02T10:51:17.439Z</time>
      </trkpt>
      <trkpt lat="48.02622" lon="5.00877">
        <ele>324.92</ele>
        <time>2025-02-02T10:51:18.037Z</time>
      </trkpt>
      <trkpt lat="48.02629" lon="5.0084">
        <ele>324.42</ele>
        <time>2025-02-02T10:51:18.640Z</time>
      </trkpt>
      <trkpt lat="48.02635" lon="5.00807">
        <ele>324</ele>
        <time>2025-02-02T10:51:19.246Z</time>
      </trkpt>
      <trkpt lat="48.0264" lon="5.00774">
        <ele>323.61</ele>
        <time>2025-02-02T10:51:19.856Z</time>
      </trkpt>
      <trkpt lat="48.02645" lon="5.00739">
        <ele>323.21</ele>
        <time>2025-02-02T10:51:20.470Z</time>
      </trkpt>
      <trkpt lat="48.02649" lon="5.00704">
        <ele>322.82</ele>
        <time>2025-02-02T10:51:21.088Z</time>
      </trkpt>
      <trkpt lat="48.02653" lon="5.00681">
        <ele>322.45</ele>
        <time>2025-02-02T10:51:21.708Z</time>
      </trkpt>
      <trkpt lat="48.02656" lon="5.00657">
        <ele>322.1</ele>
        <time>2025-02-02T10:51:22.331Z</time>
      </trkpt>
      <trkpt lat="48.02661" lon="5.00616">
        <ele>321.75</ele>
        <time>2025-02-02T10:51:22.958Z</time>
      </trkpt>
      <trkpt lat="48.02667" lon="5.00574">
        <ele>321.42</ele>
        <time>2025-02-02T10:51:23.590Z</time>
      </trkpt>
      <trkpt lat="48.02668" lon="5.00563">
        <ele>321.18</ele>
        <time>2025-02-02T10:51:24.223Z</time>
      </trkpt>
      <trkpt lat="48.02674" lon="5.00519">
        <ele>321.01</ele>
        <time>2025-02-02T10:51:24.861Z</time>
      </trkpt>
      <trkpt lat="48.0268" lon="5.00475">
        <ele>320.89</ele>
        <time>2025-02-02T10:51:25.504Z</time>
      </trkpt>
      <trkpt lat="48.02684" lon="5.00447">
        <ele>320.76</ele>
        <time>2025-02-02T10:51:26.150Z</time>
      </trkpt>
      <trkpt lat="48.02687" lon="5.0042">
        <ele>320.59</ele>
        <time>2025-02-02T10:51:26.799Z</time>
      </trkpt>
      <trkpt lat="48.02693" lon="5.00374">
        <ele>320.44</ele>
        <time>2025-02-02T10:51:27.453Z</time>
      </trkpt>
      <trkpt lat="48.02699" lon="5.00329">
        <ele>320.37</ele>
        <time>2025-02-02T10:51:28.112Z</time>
      </trkpt>
      <trkpt lat="48.02704" lon="5.00292">
        <ele>320.33</ele>
        <time>2025-02-02T10:51:28.775Z</time>
      </trkpt>
      <trkpt lat="48.02709" lon="5.00254">
        <ele>320.33</ele>
        <time>2025-02-02T10:51:29.442Z</time>
      </trkpt>
      <trkpt lat="48.02714" lon="5.00222">
        <ele>320.35</ele>
        <time>2025-02-02T10:51:30.112Z</time>
      </trkpt>
      <trkpt lat="48.02718" lon="5.00191">
        <ele>320.36</ele>
        <time>2025-02-02T10:51:30.786Z</time>
      </trkpt>
      <trkpt lat="48.02723" lon="5.0015">
        <ele>320.35</ele>
        <time>2025-02-02T10:51:31.464Z</time>
      </trkpt>
      <trkpt lat="48.02729" lon="5.00109">
        <ele>320.39</ele>
        <time>2025-02-02T10:51:32.147Z</time>
      </trkpt>
      <trkpt lat="48.02732" lon="5.00081">
        <ele>320.45</ele>
        <time>2025-02-02T10:51:32.833Z</time>
      </trkpt>
      <trkpt lat="48.02736" lon="5.00053">
        <ele>320.53</ele>
        <time>2025-02-02T10:51:33.522Z</time>
      </trkpt>
      <trkpt lat="48.02741" lon="5.0002">
        <ele>320.58</ele>
        <time>2025-02-02T10:51:34.215Z</time>
      </trkpt>
      <trkpt lat="48.02745" lon="4.99986">
        <ele>320.62</ele>
        <time>2025-02-02T10:51:34.911Z</time>
      </trkpt>
      <trkpt lat="48.02748" lon="4.99962">
        <ele>320.65</ele>
        <time>2025-02-02T10:51:35.610Z</time>
      </trkpt>
      <trkpt lat="48.02751" lon="4.99938">
        <ele>320.69</ele>
        <time>2025-02-02T10:51:36.311Z</time>
      </trkpt>
      <trkpt lat="48.02756" lon="4.99906">
        <ele>320.69</ele>
        <time>2025-02-02T10:51:37.016Z</time>
      </trkpt>
      <trkpt lat="48.0276" lon="4.99873">
        <ele>320.61</ele>
        <time>2025-02-02T10:51:37.725Z</time>
      </trkpt>
      <trkpt lat="48.02764" lon="4.99844">
        <ele>320.52</ele>
        <time>2025-02-02T10:51:38.437Z</time>
      </trkpt>
      <trkpt lat="48.02768" lon="4.99814">
        <ele>320.43</ele>
        <time>2025-02-02T10:51:39.152Z</time>
      </trkpt>
      <trkpt lat="48.02772" lon="4.99783">
        <ele>320.34</ele>
        <time>2025-02-02T10:51:39.870Z</time>
      </trkpt>
      <trkpt lat="48.02776" lon="4.99752">
        <ele>320.28</ele>
        <time>2025-02-02T10:51:40.592Z</time>
      </trkpt>
      <trkpt lat="48.02781" lon="4.9972">
        <ele>320.22</ele>
        <time>2025-02-02T10:51:41.317Z</time>
      </trkpt>
      <trkpt lat="48.02786" lon="4.99678">
        <ele>320.16</ele>
        <time>2025-02-02T10:51:42.047Z</time>
      </trkpt>
      <trkpt lat="48.02789" lon="4.99654">
        <ele>319.98</ele>
        <time>2025-02-02T10:51:42.780Z</time>
      </trkpt>
      <trkpt lat="48.02792" lon="4.9963">
        <ele>319.82</ele>
        <time>2025-02-02T10:51:43.515Z</time>
      </trkpt>
      <trkpt lat="48.02794" lon="4.99621">
        <ele>319.65</ele>
        <time>2025-02-02T10:51:44.251Z</time>
      </trkpt>
      <trkpt lat="48.02798" lon="4.99589">
        <ele>319.43</ele>
        <time>2025-02-02T10:51:44.991Z</time>
      </trkpt>
      <trkpt lat="48.02802" lon="4.99557">
        <ele>319.24</ele>
        <time>2025-02-02T10:51:45.734Z</time>
      </trkpt>
      <trkpt lat="48.02806" lon="4.9953">
        <ele>319.05</ele>
        <time>2025-02-02T10:51:46.480Z</time>
      </trkpt>
      <trkpt lat="48.02809" lon="4.99503">
        <ele>318.85</ele>
        <time>2025-02-02T10:51:47.229Z</time>
      </trkpt>
      <trkpt lat="48.02812" lon="4.99485">
        <ele>318.63</ele>
        <time>2025-02-02T10:51:47.980Z</time>
      </trkpt>
      <trkpt lat="48.02815" lon="4.99459">
        <ele>318.39</ele>
        <time>2025-02-02T10:51:48.734Z</time>
      </trkpt>
      <trkpt lat="48.0282" lon="4.99427">
        <ele>318.14</ele>
        <time>2025-02-02T10:51:49.491Z</time>
      </trkpt>
      <trkpt lat="48.02824" lon="4.99396">
        <ele>317.99</ele>
        <time>2025-02-02T10:51:50.252Z</time>
      </trkpt>
      <trkpt lat="48.02828" lon="4.99357">
        <ele>317.77</ele>
        <time>2025-02-02T10:51:51.017Z</time>
      </trkpt>
      <trkpt lat="48.02833" lon="4.99319">
        <ele>317.54</ele>
        <time>2025-02-02T10:51:51.786Z</time>
      </trkpt>
      <trkpt lat="48.02838" lon="4.99276">
        <ele>317.2</ele>
        <time>2025-02-02T10:51:52.560Z</time>
      </trkpt>
      <trkpt lat="48.02842" lon="4.99233">
        <ele>316.91</ele>
        <time>2025-02-02T10:51:53.339Z</time>
      </trkpt>
      <trkpt lat="48.02847" lon="4.99194">
        <ele>316.64</ele>
        <time>2025-02-02T10:51:54.122Z</time>
      </trkpt>
      <trkpt lat="48.02851" lon="4.99154">
        <ele>316.4</ele>
        <time>2025-02-02T10:51:54.909Z</time>
      </trkpt>
      <trkpt lat="48.02854" lon="4.99128">
        <ele>316.19</ele>
        <time>2025-02-02T10:51:55.699Z</time>
      </trkpt>
      <trkpt lat="48.02857" lon="4.99102">
        <ele>315.93</ele>
        <time>2025-02-02T10:51:56.492Z</time>
      </trkpt>
      <trkpt lat="48.02862" lon="4.9906">
        <ele>315.68</ele>
        <time>2025-02-02T10:51:57.289Z</time>
      </trkpt>
      <trkpt lat="48.02866" lon="4.9902">
        <ele>315.44</ele>
        <time>2025-02-02T10:51:58.091Z</time>
      </trkpt>
      <trkpt lat="48.02867" lon="4.99008">
        <ele>315.25</ele>
        <time>2025-02-02T10:51:58.894Z</time>
      </trkpt>
      <trkpt lat="48.02872" lon="4.98968">
        <ele>315.1</ele>
        <time>2025-02-02T10:51:59.701Z</time>
      </trkpt>
      <trkpt lat="48.02876" lon="4.98929">
        <ele>314.95</ele>
        <time>2025-02-02T10:52:00.513Z</time>
      </trkpt>
      <trkpt lat="48.0288" lon="4.98898">
        <ele>314.84</ele>
        <time>2025-02-02T10:52:01.328Z</time>
      </trkpt>
      <trkpt lat="48.02883" lon="4.98868">
        <ele>314.68</ele>
        <time>2025-02-02T10:52:02.146Z</time>
      </trkpt>
      <trkpt lat="48.02888" lon="4.98831">
        <ele>314.52</ele>
        <time>2025-02-02T10:52:02.968Z</time>
      </trkpt>
      <trkpt lat="48.02892" lon="4.98794">
        <ele>314.37</ele>
        <time>2025-02-02T10:52:03.794Z</time>
      </trkpt>
      <trkpt lat="48.02897" lon="4.98756">
        <ele>314.24</ele>
        <time>2025-02-02T10:52:04.625Z</time>
      </trkpt>
      <trkpt lat="48.02901" lon="4.98718">
        <ele>314.1</ele>
        <time>2025-02-02T10:52:05.460Z</time>
      </trkpt>
      <trkpt lat="48.02906" lon="4.98676">
        <ele>313.97</ele>
        <time>2025-02-02T10:52:06.299Z</time>
      </trkpt>
      <trkpt lat="48.02911" lon="4.98635">
        <ele>313.85</ele>
        <time>2025-02-02T10:52:07.143Z</time>
      </trkpt>
      <trkpt lat="48.02913" lon="4.98614">
        <ele>313.77</ele>
        <time>2025-02-02T10:52:07.989Z</time>
      </trkpt>
      <trkpt lat="48.02918" lon="4.98578">
        <ele>313.69</ele>
        <time>2025-02-02T10:52:08.839Z</time>
      </trkpt>
      <trkpt lat="48.02922" lon="4.98542">
        <ele>313.66</ele>
        <time>2025-02-02T10:52:09.693Z</time>
      </trkpt>
      <trkpt lat="48.02927" lon="4.98498">
        <ele>313.63</ele>
        <time>2025-02-02T10:52:10.552Z</time>
      </trkpt>
      <trkpt lat="48.02932" lon="4.98455">
        <ele>313.57</ele>
        <time>2025-02-02T10:52:11.415Z</time>
      </trkpt>
      <trkpt lat="48.02937" lon="4.98414">
        <ele>313.42</ele>
        <time>2025-02-02T10:52:12.283Z</time>
      </trkpt>
      <trkpt lat="48.02942" lon="4.98372">
        <ele>313.27</ele>
        <time>2025-02-02T10:52:13.155Z</time>
      </trkpt>
      <trkpt lat="48.02947" lon="4.98328">
        <ele>313.2</ele>
        <time>2025-02-02T10:52:14.032Z</time>
      </trkpt>
      <trkpt lat="48.02952" lon="4.98283">
        <ele>313.22</ele>
        <time>2025-02-02T10:52:14.914Z</time>
      </trkpt>
      <trkpt lat="48.02956" lon="4.98247">
        <ele>313.18</ele>
        <time>2025-02-02T10:52:15.800Z</time>
      </trkpt>
      <trkpt lat="48.02961" lon="4.98211">
        <ele>313.2</ele>
        <time>2025-02-02T10:52:16.690Z</time>
      </trkpt>
      <trkpt lat="48.02964" lon="4.98179">
        <ele>313.37</ele>
        <time>2025-02-02T10:52:17.583Z</time>
      </trkpt>
      <trkpt lat="48.02968" lon="4.98147">
        <ele>313.57</ele>
        <time>2025-02-02T10:52:18.480Z</time>
      </trkpt>
      <trkpt lat="48.02972" lon="4.98113">
        <ele>313.71</ele>
        <time>2025-02-02T10:52:19.381Z</time>
      </trkpt>
      <trkpt lat="48.02976" lon="4.98079">
        <ele>313.79</ele>
        <time>2025-02-02T10:52:20.285Z</time>
      </trkpt>
      <trkpt lat="48.02981" lon="4.9804">
        <ele>313.86</ele>
        <time>2025-02-02T10:52:21.194Z</time>
      </trkpt>
      <trkpt lat="48.02985" lon="4.98001">
        <ele>313.92</ele>
        <time>2025-02-02T10:52:22.107Z</time>
      </trkpt>
      <trkpt lat="48.02989" lon="4.97968">
        <ele>314</ele>
        <time>2025-02-02T10:52:23.024Z</time>
      </trkpt>
      <trkpt lat="48.02993" lon="4.97934">
        <ele>314.17</ele>
        <time>2025-02-02T10:52:23.944Z</time>
      </trkpt>
      <trkpt lat="48.02998" lon="4.97892">
        <ele>314.31</ele>
        <time>2025-02-02T10:52:24.869Z</time>
      </trkpt>
      <trkpt lat="48.03003" lon="4.9785">
        <ele>314.36</ele>
        <time>2025-02-02T10:52:25.798Z</time>
      </trkpt>
      <trkpt lat="48.03007" lon="4.97812">
        <ele>314.35</ele>
        <time>2025-02-02T10:52:26.731Z</time>
      </trkpt>
      <trkpt lat="48.03011" lon="4.97774">
        <ele>314.35</ele>
        <time>2025-02-02T10:52:27.669Z</time>
      </trkpt>
      <trkpt lat="48.03014" lon="4.97747">
        <ele>314.3</ele>
        <time>2025-02-02T10:52:28.609Z</time>
      </trkpt>
      <trkpt lat="48.03017" lon="4.97721">
        <ele>314.23</ele>
        <time>2025-02-02T10:52:29.552Z</time>
      </trkpt>
      <trkpt lat="48.0302" lon="4.97689">
        <ele>314.12</ele>
        <time>2025-02-02T10:52:30.499Z</time>
      </trkpt>
      <trkpt lat="48.03023" lon="4.97658">
        <ele>313.96</ele>
        <time>2025-02-02T10:52:31.449Z</time>
      </trkpt>
      <trkpt lat="48.03027" lon="4.97617">
        <ele>313.72</ele>
        <time>2025-02-02T10:52:32.404Z</time>
      </trkpt>
      <trkpt lat="48.03031" lon="4.97577">
        <ele>313.45</ele>
        <time>2025-02-02T10:52:33.363Z</time>
      </trkpt>
      <trkpt lat="48.03036" lon="4.97534">
        <ele>313.15</ele>
        <time>2025-02-02T10:52:34.327Z</time>
      </trkpt>
      <trkpt lat="48.0304" lon="4.97492">
        <ele>312.87</ele>
        <time>2025-02-02T10:52:35.295Z</time>
      </trkpt>
      <trkpt lat="48.03043" lon="4.9747">
        <ele>312.57</ele>
        <time>2025-02-02T10:52:36.266Z</time>
      </trkpt>
      <trkpt lat="48.03046" lon="4.97431">
        <ele>312.22</ele>
        <time>2025-02-02T10:52:37.241Z</time>
      </trkpt>
      <trkpt lat="48.0305" lon="4.97392">
        <ele>311.74</ele>
        <time>2025-02-02T10:52:38.220Z</time>
      </trkpt>
      <trkpt lat="48.03054" lon="4.97351">
        <ele>311.18</ele>
        <time>2025-02-02T10:52:39.204Z</time>
      </trkpt>
      <trkpt lat="48.03058" lon="4.97309">
        <ele>310.65</ele>
        <time>2025-02-02T10:52:40.192Z</time>
      </trkpt>
      <trkpt lat="48.03062" lon="4.97266">
        <ele>310.11</ele>
        <time>2025-02-02T10:52:41.185Z</time>
      </trkpt>
      <trkpt lat="48.03066" lon="4.97222">
        <ele>309.61</ele>
        <time>2025-02-02T10:52:42.183Z</time>
      </trkpt>
      <trkpt lat="48.03069" lon="4.97186">
        <ele>309.03</ele>
        <time>2025-02-02T10:52:43.184Z</time>
      </trkpt>
      <trkpt lat="48.03072" lon="4.9715">
        <ele>308.4</ele>
        <time>2025-02-02T10:52:44.189Z</time>
      </trkpt>
      <trkpt lat="48.03076" lon="4.97106">
        <ele>307.8</ele>
        <time>2025-02-02T10:52:45.199Z</time>
      </trkpt>
      <trkpt lat="48.0308" lon="4.97062">
        <ele>307.25</ele>
        <time>2025-02-02T10:52:46.214Z</time>
      </trkpt>
      <trkpt lat="48.03083" lon="4.9703">
        <ele>306.66</ele>
        <time>2025-02-02T10:52:47.232Z</time>
      </trkpt>
      <trkpt lat="48.03086" lon="4.96998">
        <ele>305.97</ele>
        <time>2025-02-02T10:52:48.254Z</time>
      </trkpt>
      <trkpt lat="48.0309" lon="4.96958">
        <ele>305.28</ele>
        <time>2025-02-02T10:52:49.280Z</time>
      </trkpt>
      <trkpt lat="48.03094" lon="4.96917">
        <ele>304.61</ele>
        <time>2025-02-02T10:52:50.311Z</time>
      </trkpt>
      <trkpt lat="48.03094" lon="4.96906">
        <ele>303.89</ele>
        <time>2025-02-02T10:52:51.343Z</time>
      </trkpt>
      <trkpt lat="48.03097" lon="4.96876">
        <ele>303.15</ele>
        <time>2025-02-02T10:52:52.378Z</time>
      </trkpt>
      <trkpt lat="48.031" lon="4.96845">
        <ele>302.4</ele>
        <time>2025-02-02T10:52:53.416Z</time>
      </trkpt>
      <trkpt lat="48.03104" lon="4.96804">
        <ele>301.56</ele>
        <time>2025-02-02T10:52:54.459Z</time>
      </trkpt>
      <trkpt lat="48.03108" lon="4.96763">
        <ele>300.7</ele>
        <time>2025-02-02T10:52:55.506Z</time>
      </trkpt>
      <trkpt lat="48.03111" lon="4.96731">
        <ele>299.83</ele>
        <time>2025-02-02T10:52:56.557Z</time>
      </trkpt>
      <trkpt lat="48.03113" lon="4.96699">
        <ele>298.93</ele>
        <time>2025-02-02T10:52:57.611Z</time>
      </trkpt>
      <trkpt lat="48.03117" lon="4.96658">
        <ele>298.02</ele>
        <time>2025-02-02T10:52:58.670Z</time>
      </trkpt>
      <trkpt lat="48.03121" lon="4.96616">
        <ele>297.25</ele>
        <time>2025-02-02T10:52:59.733Z</time>
      </trkpt>
      <trkpt lat="48.03124" lon="4.96583">
        <ele>296.47</ele>
        <time>2025-02-02T10:53:00.800Z</time>
      </trkpt>
      <trkpt lat="48.03127" lon="4.9655">
        <ele>295.71</ele>
        <time>2025-02-02T10:53:01.870Z</time>
      </trkpt>
      <trkpt lat="48.03131" lon="4.96508">
        <ele>294.92</ele>
        <time>2025-02-02T10:53:02.945Z</time>
      </trkpt>
      <trkpt lat="48.03135" lon="4.96467">
        <ele>294.21</ele>
        <time>2025-02-02T10:53:04.024Z</time>
      </trkpt>
      <trkpt lat="48.03136" lon="4.96455">
        <ele>293.56</ele>
        <time>2025-02-02T10:53:05.105Z</time>
      </trkpt>
      <trkpt lat="48.0314" lon="4.96412">
        <ele>292.94</ele>
        <time>2025-02-02T10:53:06.190Z</time>
      </trkpt>
      <trkpt lat="48.03144" lon="4.96369">
        <ele>292.29</ele>
        <time>2025-02-02T10:53:07.280Z</time>
      </trkpt>
      <trkpt lat="48.03148" lon="4.96326">
        <ele>291.66</ele>
        <time>2025-02-02T10:53:08.375Z</time>
      </trkpt>
      <trkpt lat="48.03152" lon="4.96283">
        <ele>291.06</ele>
        <time>2025-02-02T10:53:09.474Z</time>
      </trkpt>
      <trkpt lat="48.03153" lon="4.96272">
        <ele>290.58</ele>
        <time>2025-02-02T10:53:10.574Z</time>
      </trkpt>
      <trkpt lat="48.03157" lon="4.96227">
        <ele>290.14</ele>
        <time>2025-02-02T10:53:11.679Z</time>
      </trkpt>
      <trkpt lat="48.03161" lon="4.96182">
        <ele>289.73</ele>
        <time>2025-02-02T10:53:12.789Z</time>
      </trkpt>
      <trkpt lat="48.03165" lon="4.96137">
        <ele>289.36</ele>
        <time>2025-02-02T10:53:13.904Z</time>
      </trkpt>
      <trkpt lat="48.03169" lon="4.96093">
        <ele>289</ele>
        <time>2025-02-02T10:53:15.024Z</time>
      </trkpt>
      <trkpt lat="48.0317" lon="4.96081">
        <ele>288.69</ele>
        <time>2025-02-02T10:53:16.145Z</time>
      </trkpt>
      <trkpt lat="48.03174" lon="4.96046">
        <ele>288.39</ele>
        <time>2025-02-02T10:53:17.270Z</time>
      </trkpt>
      <trkpt lat="48.03178" lon="4.9601">
        <ele>288.18</ele>
        <time>2025-02-02T10:53:18.399Z</time>
      </trkpt>
      <trkpt lat="48.03182" lon="4.95978">
        <ele>288</ele>
        <time>2025-02-02T10:53:19.531Z</time>
      </trkpt>
      <trkpt lat="48.03186" lon="4.95946">
        <ele>287.8</ele>
        <time>2025-02-02T10:53:20.667Z</time>
      </trkpt>
      <trkpt lat="48.0319" lon="4.95913">
        <ele>287.6</ele>
        <time>2025-02-02T10:53:21.806Z</time>
      </trkpt>
      <trkpt lat="48.03194" lon="4.9588">
        <ele>287.39</ele>
        <time>2025-02-02T10:53:22.949Z</time>
      </trkpt>
      <trkpt lat="48.03199" lon="4.95834">
        <ele>287.11</ele>
        <time>2025-02-02T10:53:24.097Z</time>
      </trkpt>
      <trkpt lat="48.03203" lon="4.958">
        <ele>286.85</ele>
        <time>2025-02-02T10:53:25.249Z</time>
      </trkpt>
      <trkpt lat="48.03207" lon="4.95766">
        <ele>286.56</ele>
        <time>2025-02-02T10:53:26.405Z</time>
      </trkpt>
      <trkpt lat="48.0321" lon="4.95747">
        <ele>286.25</ele>
        <time>2025-02-02T10:53:27.563Z</time>
      </trkpt>
      <trkpt lat="48.03213" lon="4.9572">
        <ele>285.91</ele>
        <time>2025-02-02T10:53:28.724Z</time>
      </trkpt>
      <trkpt lat="48.03218" lon="4.95677">
        <ele>285.51</ele>
        <time>2025-02-02T10:53:29.889Z</time>
      </trkpt>
      <trkpt lat="48.03223" lon="4.95639">
        <ele>285.07</ele>
        <time>2025-02-02T10:53:31.058Z</time>
      </trkpt>
      <trkpt lat="48.03226" lon="4.95614">
        <ele>284.68</ele>
        <time>2025-02-02T10:53:32.230Z</time>
      </trkpt>
      <trkpt lat="48.03229" lon="4.95589">
        <ele>284.22</ele>
        <time>2025-02-02T10:53:33.405Z</time>
      </trkpt>
      <trkpt lat="48.03231" lon="4.95569">
        <ele>283.77</ele>
        <time>2025-02-02T10:53:34.582Z</time>
      </trkpt>
      <trkpt lat="48.03236" lon="4.95526">
        <ele>283.29</ele>
        <time>2025-02-02T10:53:35.764Z</time>
      </trkpt>
      <trkpt lat="48.03243" lon="4.95486">
        <ele>282.78</ele>
        <time>2025-02-02T10:53:36.950Z</time>
      </trkpt>
      <trkpt lat="48.03249" lon="4.95445">
        <ele>282.18</ele>
        <time>2025-02-02T10:53:38.141Z</time>
      </trkpt>
      <trkpt lat="48.03257" lon="4.95418">
        <ele>281.55</ele>
        <time>2025-02-02T10:53:39.335Z</time>
      </trkpt>
      <trkpt lat="48.03264" lon="4.95391">
        <ele>280.95</ele>
        <time>2025-02-02T10:53:40.532Z</time>
      </trkpt>
      <trkpt lat="48.03272" lon="4.95372">
        <ele>280.35</ele>
        <time>2025-02-02T10:53:41.731Z</time>
      </trkpt>
      <trkpt lat="48.03284" lon="4.95346">
        <ele>279.74</ele>
        <time>2025-02-02T10:53:42.934Z</time>
      </trkpt>
      <trkpt lat="48.03297" lon="4.95321">
        <ele>279.1</ele>
        <time>2025-02-02T10:53:44.140Z</time>
      </trkpt>
      <trkpt lat="48.0331" lon="4.95296">
        <ele>278.38</ele>
        <time>2025-02-02T10:53:45.350Z</time>
      </trkpt>
      <trkpt lat="48.03326" lon="4.95265">
        <ele>277.72</ele>
        <time>2025-02-02T10:53:46.564Z</time>
      </trkpt>
      <trkpt lat="48.03341" lon="4.95235">
        <ele>277.09</ele>
        <time>2025-02-02T10:53:47.782Z</time>
      </trkpt>
      <trkpt lat="48.03357" lon="4.95205">
        <ele>276.43</ele>
        <time>2025-02-02T10:53:49.004Z</time>
      </trkpt>
      <trkpt lat="48.03373" lon="4.95174">
        <ele>275.72</ele>
        <time>2025-02-02T10:53:50.230Z</time>
      </trkpt>
      <trkpt lat="48.0339" lon="4.95142">
        <ele>274.99</ele>
        <time>2025-02-02T10:53:51.460Z</time>
      </trkpt>
      <trkpt lat="48.03406" lon="4.9511">
        <ele>274.32</ele>
        <time>2025-02-02T10:53:52.695Z</time>
      </trkpt>
      <trkpt lat="48.03423" lon="4.95079">
        <ele>273.7</ele>
        <time>2025-02-02T10:53:53.934Z</time>
      </trkpt>
      <trkpt lat="48.03441" lon="4.95048">
        <ele>273.15</ele>
        <time>2025-02-02T10:53:55.177Z</time>
      </trkpt>
      <trkpt lat="48.03446" lon="4.9504">
        <ele>272.67</ele>
        <time>2025-02-02T10:53:56.422Z</time>
      </trkpt>
      <trkpt lat="48.03461" lon="4.95019">
        <ele>272.21</ele>
        <time>2025-02-02T10:53:57.670Z</time>
      </trkpt>
      <trkpt lat="48.03475" lon="4.94999">
        <ele>271.8</ele>
        <time>2025-02-02T10:53:58.921Z</time>
      </trkpt>
      <trkpt lat="48.03497" lon="4.94973">
        <ele>271.43</ele>
        <time>2025-02-02T10:54:00.176Z</time>
      </trkpt>
      <trkpt lat="48.03519" lon="4.94948">
        <ele>271.12</ele>
        <time>2025-02-02T10:54:01.436Z</time>
      </trkpt>
      <trkpt lat="48.03526" lon="4.94928">
        <ele>270.91</ele>
        <time>2025-02-02T10:54:02.698Z</time>
      </trkpt>
      <trkpt lat="48.03533" lon="4.94908">
        <ele>270.8</ele>
        <time>2025-02-02T10:54:03.963Z</time>
      </trkpt>
      <trkpt lat="48.03536" lon="4.94899">
        <ele>270.72</ele>
        <time>2025-02-02T10:54:05.229Z</time>
      </trkpt>
      <trkpt lat="48.03543" lon="4.94859">
        <ele>270.72</ele>
        <time>2025-02-02T10:54:06.499Z</time>
      </trkpt>
      <trkpt lat="48.0355" lon="4.94824">
        <ele>270.78</ele>
        <time>2025-02-02T10:54:07.773Z</time>
      </trkpt>
      <trkpt lat="48.03557" lon="4.94789">
        <ele>270.86</ele>
        <time>2025-02-02T10:54:09.051Z</time>
      </trkpt>
      <trkpt lat="48.03569" lon="4.94756">
        <ele>271</ele>
        <time>2025-02-02T10:54:10.333Z</time>
      </trkpt>
      <trkpt lat="48.03581" lon="4.94723">
        <ele>271.17</ele>
        <time>2025-02-02T10:54:11.619Z</time>
      </trkpt>
      <trkpt lat="48.03595" lon="4.94686">
        <ele>271.37</ele>
        <time>2025-02-02T10:54:12.910Z</time>
      </trkpt>
      <trkpt lat="48.03608" lon="4.94648">
        <ele>271.57</ele>
        <time>2025-02-02T10:54:14.205Z</time>
      </trkpt>
      <trkpt lat="48.03621" lon="4.94613">
        <ele>271.82</ele>
        <time>2025-02-02T10:54:15.505Z</time>
      </trkpt>
      <trkpt lat="48.03633" lon="4.94579">
        <ele>272.01</ele>
        <time>2025-02-02T10:54:16.809Z</time>
      </trkpt>
      <trkpt lat="48.03648" lon="4.94553">
        <ele>272.2</ele>
        <time>2025-02-02T10:54:18.116Z</time>
      </trkpt>
      <trkpt lat="48.03663" lon="4.94527">
        <ele>272.43</ele>
        <time>2025-02-02T10:54:19.427Z</time>
      </trkpt>
      <trkpt lat="48.03682" lon="4.94498">
        <ele>272.64</ele>
        <time>2025-02-02T10:54:20.742Z</time>
      </trkpt>
      <trkpt lat="48.037" lon="4.94469">
        <ele>272.8</ele>
        <time>2025-02-02T10:54:22.062Z</time>
      </trkpt>
      <trkpt lat="48.03718" lon="4.9444">
        <ele>272.99</ele>
        <time>2025-02-02T10:54:23.386Z</time>
      </trkpt>
      <trkpt lat="48.03736" lon="4.94412">
        <ele>273.06</ele>
        <time>2025-02-02T10:54:24.714Z</time>
      </trkpt>
      <trkpt lat="48.03743" lon="4.94401">
        <ele>273.11</ele>
        <time>2025-02-02T10:54:26.044Z</time>
      </trkpt>
      <trkpt lat="48.03748" lon="4.94379">
        <ele>273.08</ele>
        <time>2025-02-02T10:54:27.376Z</time>
      </trkpt>
      <trkpt lat="48.03754" lon="4.94347">
        <ele>273.03</ele>
        <time>2025-02-02T10:54:28.712Z</time>
      </trkpt>
      <trkpt lat="48.0376" lon="4.94314">
        <ele>272.95</ele>
        <time>2025-02-02T10:54:30.051Z</time>
      </trkpt>
      <trkpt lat="48.03766" lon="4.9428">
        <ele>272.82</ele>
        <time>2025-02-02T10:54:31.394Z</time>
      </trkpt>
      <trkpt lat="48.03766" lon="4.9428">
        <ele>272.66</ele>
        <time>2025-02-02T10:54:32.737Z</time>
      </trkpt>
      <trkpt lat="48.03766" lon="4.9428">
        <ele>272.46</ele>
        <time>2025-02-02T10:54:34.080Z</time>
      </trkpt>
      <trkpt lat="48.03766" lon="4.9428">
        <ele>272.22</ele>
        <time>2025-02-02T10:54:35.423Z</time>
      </trkpt>
      <trkpt lat="48.03772" lon="4.94246">
        <ele>271.95</ele>
        <time>2025-02-02T10:54:36.770Z</time>
      </trkpt>
      <trkpt lat="48.0378" lon="4.94205">
        <ele>271.65</ele>
        <time>2025-02-02T10:54:38.122Z</time>
      </trkpt>
      <trkpt lat="48.03787" lon="4.94165">
        <ele>271.28</ele>
        <time>2025-02-02T10:54:39.478Z</time>
      </trkpt>
      <trkpt lat="48.03797" lon="4.94125">
        <ele>270.81</ele>
        <time>2025-02-02T10:54:40.839Z</time>
      </trkpt>
      <trkpt lat="48.03806" lon="4.94084">
        <ele>270.28</ele>
        <time>2025-02-02T10:54:42.204Z</time>
      </trkpt>
      <trkpt lat="48.03809" lon="4.94074">
        <ele>269.81</ele>
        <time>2025-02-02T10:54:43.570Z</time>
      </trkpt>
      <trkpt lat="48.03821" lon="4.94034">
        <ele>269.19</ele>
        <time>2025-02-02T10:54:44.941Z</time>
      </trkpt>
      <trkpt lat="48.03832" lon="4.93993">
        <ele>268.66</ele>
        <time>2025-02-02T10:54:46.317Z</time>
      </trkpt>
      <trkpt lat="48.03844" lon="4.93953">
        <ele>268.18</ele>
        <time>2025-02-02T10:54:47.698Z</time>
      </trkpt>
      <trkpt lat="48.03856" lon="4.93912">
        <ele>267.75</ele>
        <time>2025-02-02T10:54:49.083Z</time>
      </trkpt>
      <trkpt lat="48.03862" lon="4.93877">
        <ele>267.36</ele>
        <time>2025-02-02T10:54:50.472Z</time>
      </trkpt>
      <trkpt lat="48.03868" lon="4.93842">
        <ele>266.91</ele>
        <time>2025-02-02T10:54:51.865Z</time>
      </trkpt>
      <trkpt lat="48.03875" lon="4.93798">
        <ele>266.47</ele>
        <time>2025-02-02T10:54:53.263Z</time>
      </trkpt>
      <trkpt lat="48.03881" lon="4.93755">
        <ele>266.13</ele>
        <time>2025-02-02T10:54:54.666Z</time>
      </trkpt>
      <trkpt lat="48.03885" lon="4.93716">
        <ele>265.74</ele>
        <time>2025-02-02T10:54:56.073Z</time>
      </trkpt>
      <trkpt lat="48.03889" lon="4.93678">
        <ele>265.33</ele>
        <time>2025-02-02T10:54:57.484Z</time>
      </trkpt>
      <trkpt lat="48.03896" lon="4.93639">
        <ele>264.96</ele>
        <time>2025-02-02T10:54:58.899Z</time>
      </trkpt>
      <trkpt lat="48.03901" lon="4.93599">
        <ele>264.6</ele>
        <time>2025-02-02T10:55:00.319Z</time>
      </trkpt>
      <trkpt lat="48.03909" lon="4.93562">
        <ele>264.28</ele>
        <time>2025-02-02T10:55:01.743Z</time>
      </trkpt>
      <trkpt lat="48.03916" lon="4.93524">
        <ele>263.96</ele>
        <time>2025-02-02T10:55:03.171Z</time>
      </trkpt>
      <trkpt lat="48.03922" lon="4.93483">
        <ele>263.63</ele>
        <time>2025-02-02T10:55:04.604Z</time>
      </trkpt>
      <trkpt lat="48.03928" lon="4.93442">
        <ele>263.4</ele>
        <time>2025-02-02T10:55:06.041Z</time>
      </trkpt>
      <trkpt lat="48.03929" lon="4.93432">
        <ele>263.15</ele>
        <time>2025-02-02T10:55:07.479Z</time>
      </trkpt>
      <trkpt lat="48.03929" lon="4.93408">
        <ele>262.94</ele>
        <time>2025-02-02T10:55:08.920Z</time>
      </trkpt>
      <trkpt lat="48.03928" lon="4.93384">
        <ele>262.72</ele>
        <time>2025-02-02T10:55:10.363Z</time>
      </trkpt>
      <trkpt lat="48.03926" lon="4.93365">
        <ele>262.43</ele>
        <time>2025-02-02T10:55:11.808Z</time>
      </trkpt>
      <trkpt lat="48.03923" lon="4.93347">
        <ele>262.08</ele>
        <time>2025-02-02T10:55:13.255Z</time>
      </trkpt>
      <trkpt lat="48.0392" lon="4.93331">
        <ele>261.76</ele>
        <time>2025-02-02T10:55:14.704Z</time>
      </trkpt>
      <trkpt lat="48.03916" lon="4.93299">
        <ele>261.37</ele>
        <time>2025-02-02T10:55:16.157Z</time>
      </trkpt>
      <trkpt lat="48.03911" lon="4.93267">
        <ele>260.92</ele>
        <time>2025-02-02T10:55:17.613Z</time>
      </trkpt>
      <trkpt lat="48.03905" lon="4.93227">
        <ele>260.43</ele>
        <time>2025-02-02T10:55:19.074Z</time>
      </trkpt>
      <trkpt lat="48.039" lon="4.93187">
        <ele>259.93</ele>
        <time>2025-02-02T10:55:20.539Z</time>
      </trkpt>
      <trkpt lat="48.03897" lon="4.93146">
        <ele>259.48</ele>
        <time>2025-02-02T10:55:22.009Z</time>
      </trkpt>
      <trkpt lat="48.03895" lon="4.93105">
        <ele>258.92</ele>
        <time>2025-02-02T10:55:23.483Z</time>
      </trkpt>
      <trkpt lat="48.03893" lon="4.93072">
        <ele>258.32</ele>
        <time>2025-02-02T10:55:24.960Z</time>
      </trkpt>
      <trkpt lat="48.03891" lon="4.9304">
        <ele>257.66</ele>
        <time>2025-02-02T10:55:26.441Z</time>
      </trkpt>
      <trkpt lat="48.03889" lon="4.93007">
        <ele>257.01</ele>
        <time>2025-02-02T10:55:27.926Z</time>
      </trkpt>
      <trkpt lat="48.03887" lon="4.92975">
        <ele>256.33</ele>
        <time>2025-02-02T10:55:29.414Z</time>
      </trkpt>
      <trkpt lat="48.03887" lon="4.92934">
        <ele>255.56</ele>
        <time>2025-02-02T10:55:30.906Z</time>
      </trkpt>
      <trkpt lat="48.03888" lon="4.92894">
        <ele>254.75</ele>
        <time>2025-02-02T10:55:32.403Z</time>
      </trkpt>
      <trkpt lat="48.03892" lon="4.92858">
        <ele>253.89</ele>
        <time>2025-02-02T10:55:33.904Z</time>
      </trkpt>
      <trkpt lat="48.03895" lon="4.92822">
        <ele>253</ele>
        <time>2025-02-02T10:55:35.408Z</time>
      </trkpt>
      <trkpt lat="48.03899" lon="4.92792">
        <ele>252.11</ele>
        <time>2025-02-02T10:55:36.916Z</time>
      </trkpt>
      <trkpt lat="48.03903" lon="4.9275">
        <ele>251.14</ele>
        <time>2025-02-02T10:55:38.428Z</time>
      </trkpt>
      <trkpt lat="48.03907" lon="4.92707">
        <ele>250.27</ele>
        <time>2025-02-02T10:55:39.945Z</time>
      </trkpt>
      <trkpt lat="48.03911" lon="4.92664">
        <ele>249.43</ele>
        <time>2025-02-02T10:55:41.467Z</time>
      </trkpt>
      <trkpt lat="48.03916" lon="4.92624">
        <ele>248.59</ele>
        <time>2025-02-02T10:55:42.993Z</time>
      </trkpt>
      <trkpt lat="48.03919" lon="4.92585">
        <ele>247.68</ele>
        <time>2025-02-02T10:55:44.523Z</time>
      </trkpt>
      <trkpt lat="48.03923" lon="4.92542">
        <ele>246.79</ele>
        <time>2025-02-02T10:55:46.058Z</time>
      </trkpt>
      <trkpt lat="48.03927" lon="4.925">
        <ele>245.99</ele>
        <time>2025-02-02T10:55:47.597Z</time>
      </trkpt>
      <trkpt lat="48.03929" lon="4.92455">
        <ele>245.18</ele>
        <time>2025-02-02T10:55:49.141Z</time>
      </trkpt>
      <trkpt lat="48.03932" lon="4.92411">
        <ele>244.41</ele>
        <time>2025-02-02T10:55:50.690Z</time>
      </trkpt>
      <trkpt lat="48.03932" lon="4.92398">
        <ele>243.75</ele>
        <time>2025-02-02T10:55:52.240Z</time>
      </trkpt>
      <trkpt lat="48.03933" lon="4.92356">
        <ele>243.16</ele>
        <time>2025-02-02T10:55:53.795Z</time>
      </trkpt>
      <trkpt lat="48.03933" lon="4.92314">
        <ele>242.62</ele>
        <time>2025-02-02T10:55:55.354Z</time>
      </trkpt>
      <trkpt lat="48.03932" lon="4.92288">
        <ele>242.12</ele>
        <time>2025-02-02T10:55:56.916Z</time>
      </trkpt>
      <trkpt lat="48.03932" lon="4.92262">
        <ele>241.68</ele>
        <time>2025-02-02T10:55:58.481Z</time>
      </trkpt>
      <trkpt lat="48.03929" lon="4.92252">
        <ele>241.28</ele>
        <time>2025-02-02T10:56:00.047Z</time>
      </trkpt>
      <trkpt lat="48.03927" lon="4.92243">
        <ele>240.93</ele>
        <time>2025-02-02T10:56:01.614Z</time>
      </trkpt>
      <trkpt lat="48.03921" lon="4.9222">
        <ele>240.61</ele>
        <time>2025-02-02T10:56:03.184Z</time>
      </trkpt>
      <trkpt lat="48.03915" lon="4.92197">
        <ele>240.34</ele>
        <time>2025-02-02T10:56:04.756Z</time>
      </trkpt>
      <trkpt lat="48.03907" lon="4.92165">
        <ele>240.11</ele>
        <time>2025-02-02T10:56:06.332Z</time>
      </trkpt>
      <trkpt lat="48.03899" lon="4.92133">
        <ele>239.93</ele>
        <time>2025-02-02T10:56:07.912Z</time>
      </trkpt>
      <trkpt lat="48.03891" lon="4.92104">
        <ele>239.79</ele>
        <time>2025-02-02T10:56:09.495Z</time>
      </trkpt>
      <trkpt lat="48.03883" lon="4.92074">
        <ele>239.68</ele>
        <time>2025-02-02T10:56:11.082Z</time>
      </trkpt>
      <trkpt lat="48.03876" lon="4.92047">
        <ele>239.59</ele>
        <time>2025-02-02T10:56:12.672Z</time>
      </trkpt>
      <trkpt lat="48.03869" lon="4.92021">
        <ele>239.54</ele>
        <time>2025-02-02T10:56:14.265Z</time>
      </trkpt>
      <trkpt lat="48.03867" lon="4.92005">
        <ele>239.5</ele>
        <time>2025-02-02T10:56:15.859Z</time>
      </trkpt>
      <trkpt lat="48.03867" lon="4.92006">
        <ele>239.47</ele>
        <time>2025-02-02T10:56:17.453Z</time>
      </trkpt>
      <trkpt lat="48.03867" lon="4.92008">
        <ele>239.45</ele>
        <time>2025-02-02T10:56:19.048Z</time>
      </trkpt>
      <trkpt lat="48.03868" lon="4.9201">
        <ele>239.43</ele>
        <time>2025-02-02T10:56:20.643Z</time>
      </trkpt>
      <trkpt lat="48.0387" lon="4.92025">
        <ele>239.4</ele>
        <time>2025-02-02T10:56:22.240Z</time>
      </trkpt>
      <trkpt lat="48.03876" lon="4.92054">
        <ele>239.37</ele>
        <time>2025-02-02T10:56:23.840Z</time>
      </trkpt>
      <trkpt lat="48.03881" lon="4.9207">
        <ele>239.33</ele>
        <time>2025-02-02T10:56:25.442Z</time>
      </trkpt>
      <trkpt lat="48.03889" lon="4.92088">
        <ele>239.28</ele>
        <time>2025-02-02T10:56:27.046Z</time>
      </trkpt>
      <trkpt lat="48.03881" lon="4.92069">
        <ele>239.22</ele>
        <time>2025-02-02T10:56:28.652Z</time>
      </trkpt>
      <trkpt lat="48.0388" lon="4.92066">
        <ele>239.13</ele>
        <time>2025-02-02T10:56:30.259Z</time>
      </trkpt>
      <trkpt lat="48.03879" lon="4.92063">
        <ele>239.02</ele>
        <time>2025-02-02T10:56:31.866Z</time>
      </trkpt>
      <trkpt lat="48.03871" lon="4.92033">
        <ele>238.89</ele>
        <time>2025-02-02T10:56:33.477Z</time>
      </trkpt>
      <trkpt lat="48.0387" lon="4.92026">
        <ele>238.73</ele>
        <time>2025-02-02T10:56:35.088Z</time>
      </trkpt>
      <trkpt lat="48.03866" lon="4.91994">
        <ele>238.53</ele>
        <time>2025-02-02T10:56:36.703Z</time>
      </trkpt>
      <trkpt lat="48.03864" lon="4.91953">
        <ele>238.3</ele>
        <time>2025-02-02T10:56:38.322Z</time>
      </trkpt>
      <trkpt lat="48.03862" lon="4.91912">
        <ele>238.02</ele>
        <time>2025-02-02T10:56:39.946Z</time>
      </trkpt>
      <trkpt lat="48.0386" lon="4.91876">
        <ele>237.7</ele>
        <time>2025-02-02T10:56:41.574Z</time>
      </trkpt>
      <trkpt lat="48.0386" lon="4.91865">
        <ele>237.37</ele>
        <time>2025-02-02T10:56:43.203Z</time>
      </trkpt>
      <trkpt lat="48.03859" lon="4.91851">
        <ele>237.01</ele>
        <time>2025-02-02T10:56:44.833Z</time>
      </trkpt>
      <trkpt lat="48.03856" lon="4.91818">
        <ele>236.61</ele>
        <time>2025-02-02T10:56:46.467Z</time>
      </trkpt>
      <trkpt lat="48.03854" lon="4.9178">
        <ele>236.14</ele>
        <time>2025-02-02T10:56:48.105Z</time>
      </trkpt>
      <trkpt lat="48.03851" lon="4.91749">
        <ele>235.67</ele>
        <time>2025-02-02T10:56:49.746Z</time>
      </trkpt>
      <trkpt lat="48.03849" lon="4.91718">
        <ele>235.18</ele>
        <time>2025-02-02T10:56:51.391Z</time>
      </trkpt>
      <trkpt lat="48.03843" lon="4.91673">
        <ele>234.62</ele>
        <time>2025-02-02T10:56:53.041Z</time>
      </trkpt>
      <trkpt lat="48.0384" lon="4.91665">
        <ele>234.14</ele>
        <time>2025-02-02T10:56:54.692Z</time>
      </trkpt>
      <trkpt lat="48.0383" lon="4.91643">
        <ele>233.63</ele>
        <time>2025-02-02T10:56:56.345Z</time>
      </trkpt>
      <trkpt lat="48.03821" lon="4.91621">
        <ele>233.12</ele>
        <time>2025-02-02T10:56:58.001Z</time>
      </trkpt>
      <trkpt lat="48.03812" lon="4.91601">
        <ele>232.6</ele>
        <time>2025-02-02T10:56:59.660Z</time>
      </trkpt>
      <trkpt lat="48.03803" lon="4.9158">
        <ele>232.09</ele>
        <time>2025-02-02T10:57:01.321Z</time>
      </trkpt>
      <trkpt lat="48.03787" lon="4.91546">
        <ele>231.57</ele>
        <time>2025-02-02T10:57:02.987Z</time>
      </trkpt>
      <trkpt lat="48.03791" lon="4.91528">
        <ele>231.13</ele>
        <time>2025-02-02T10:57:04.655Z</time>
      </trkpt>
      <trkpt lat="48.03801" lon="4.91517">
        <ele>230.76</ele>
        <time>2025-02-02T10:57:06.325Z</time>
      </trkpt>
      <trkpt lat="48.03804" lon="4.91509">
        <ele>230.42</ele>
        <time>2025-02-02T10:57:07.996Z</time>
      </trkpt>
      <trkpt lat="48.03802" lon="4.91506">
        <ele>230.08</ele>
        <time>2025-02-02T10:57:09.667Z</time>
      </trkpt>
      <trkpt lat="48.03787" lon="4.91489">
        <ele>229.71</ele>
        <time>2025-02-02T10:57:11.341Z</time>
      </trkpt>
      <trkpt lat="48.03772" lon="4.91473">
        <ele>229.42</ele>
        <time>2025-02-02T10:57:13.018Z</time>
      </trkpt>
      <trkpt lat="48.03758" lon="4.91457">
        <ele>229.18</ele>
        <time>2025-02-02T10:57:14.698Z</time>
      </trkpt>
      <trkpt lat="48.03739" lon="4.91437">
        <ele>228.98</ele>
        <time>2025-02-02T10:57:16.382Z</time>
      </trkpt>
      <trkpt lat="48.0372" lon="4.91417">
        <ele>228.85</ele>
        <time>2025-02-02T10:57:18.070Z</time>
      </trkpt>
      <trkpt lat="48.03704" lon="4.914">
        <ele>228.75</ele>
        <time>2025-02-02T10:57:19.761Z</time>
      </trkpt>
      <trkpt lat="48.03688" lon="4.91383">
        <ele>228.7</ele>
        <time>2025-02-02T10:57:21.455Z</time>
      </trkpt>
      <trkpt lat="48.03685" lon="4.91379">
        <ele>228.63</ele>
        <time>2025-02-02T10:57:23.150Z</time>
      </trkpt>
      <trkpt lat="48.03674" lon="4.91368">
        <ele>228.61</ele>
        <time>2025-02-02T10:57:24.847Z</time>
      </trkpt>
      <trkpt lat="48.03675" lon="4.91344">
        <ele>228.56</ele>
        <time>2025-02-02T10:57:26.546Z</time>
      </trkpt>
      <trkpt lat="48.03679" lon="4.91338">
        <ele>228.54</ele>
        <time>2025-02-02T10:57:28.246Z</time>
      </trkpt>
      <trkpt lat="48.03689" lon="4.91324">
        <ele>228.54</ele>
        <time>2025-02-02T10:57:29.948Z</time>
      </trkpt>
      <trkpt lat="48.03691" lon="4.91322">
        <ele>228.53</ele>
        <time>2025-02-02T10:57:31.651Z</time>
      </trkpt>
      <trkpt lat="48.03691" lon="4.91321">
        <ele>228.53</ele>
        <time>2025-02-02T10:57:33.354Z</time>
      </trkpt>
      <trkpt lat="48.03681" lon="4.91283">
        <ele>228.59</ele>
        <time>2025-02-02T10:57:35.061Z</time>
      </trkpt>
      <trkpt lat="48.03685" lon="4.91285">
        <ele>228.59</ele>
        <time>2025-02-02T10:57:36.769Z</time>
      </trkpt>
      <trkpt lat="48.03701" lon="4.91295">
        <ele>228.54</ele>
        <time>2025-02-02T10:57:38.480Z</time>
      </trkpt>
      <trkpt lat="48.03705" lon="4.913">
        <ele>228.54</ele>
        <time>2025-02-02T10:57:40.192Z</time>
      </trkpt>
      <trkpt lat="48.03709" lon="4.91296">
        <ele>228.55</ele>
        <time>2025-02-02T10:57:41.904Z</time>
      </trkpt>
      <trkpt lat="48.03712" lon="4.91291">
        <ele>228.57</ele>
        <time>2025-02-02T10:57:43.617Z</time>
      </trkpt>
      <trkpt lat="48.03728" lon="4.9127">
        <ele>228.54</ele>
        <time>2025-02-02T10:57:45.334Z</time>
      </trkpt>
      <trkpt lat="48.03735" lon="4.91261">
        <ele>228.56</ele>
        <time>2025-02-02T10:57:47.052Z</time>
      </trkpt>
      <trkpt lat="48.03746" lon="4.91247">
        <ele>228.62</ele>
        <time>2025-02-02T10:57:48.772Z</time>
      </trkpt>
      <trkpt lat="48.03761" lon="4.91229">
        <ele>228.69</ele>
        <time>2025-02-02T10:57:50.495Z</time>
      </trkpt>
      <trkpt lat="48.03775" lon="4.9121">
        <ele>228.74</ele>
        <time>2025-02-02T10:57:52.221Z</time>
      </trkpt>
      <trkpt lat="48.03787" lon="4.91194">
        <ele>228.76</ele>
        <time>2025-02-02T10:57:53.950Z</time>
      </trkpt>
      <trkpt lat="48.038" lon="4.91179">
        <ele>228.73</ele>
        <time>2025-02-02T10:57:55.682Z</time>
      </trkpt>
      <trkpt lat="48.03806" lon="4.91171">
        <ele>228.69</ele>
        <time>2025-02-02T10:57:57.415Z</time>
      </trkpt>
      <trkpt lat="48.03791" lon="4.91161">
        <ele>228.7</ele>
        <time>2025-02-02T10:57:59.151Z</time>
      </trkpt>
      <trkpt lat="48.0379" lon="4.91155">
        <ele>228.68</ele>
        <time>2025-02-02T10:58:00.887Z</time>
      </trkpt>
      <trkpt lat="48.0379" lon="4.91136">
        <ele>228.62</ele>
        <time>2025-02-02T10:58:02.625Z</time>
      </trkpt>
      <trkpt lat="48.03789" lon="4.91092">
        <ele>228.57</ele>
        <time>2025-02-02T10:58:04.368Z</time>
      </trkpt>
      <trkpt lat="48.03787" lon="4.91076">
        <ele>228.52</ele>
        <time>2025-02-02T10:58:06.113Z</time>
      </trkpt>
      <trkpt lat="48.03783" lon="4.91044">
        <ele>228.42</ele>
        <time>2025-02-02T10:58:07.861Z</time>
      </trkpt>
      <trkpt lat="48.03777" lon="4.9102">
        <ele>228.36</ele>
        <time>2025-02-02T10:58:09.612Z</time>
      </trkpt>
      <trkpt lat="48.0377" lon="4.90996">
        <ele>228.32</ele>
        <time>2025-02-02T10:58:11.366Z</time>
      </trkpt>
      <trkpt lat="48.0376" lon="4.90966">
        <ele>228.34</ele>
        <time>2025-02-02T10:58:13.123Z</time>
      </trkpt>
      <trkpt lat="48.03752" lon="4.90945">
        <ele>228.39</ele>
        <time>2025-02-02T10:58:14.883Z</time>
      </trkpt>
      <trkpt lat="48.03741" lon="4.9091">
        <ele>228.52</ele>
        <time>2025-02-02T10:58:16.647Z</time>
      </trkpt>
      <trkpt lat="48.03738" lon="4.90895">
        <ele>228.58</ele>
        <time>2025-02-02T10:58:18.413Z</time>
      </trkpt>
      <trkpt lat="48.03736" lon="4.90877">
        <ele>228.64</ele>
        <time>2025-02-02T10:58:20.181Z</time>
      </trkpt>
      <trkpt lat="48.03738" lon="4.90869">
        <ele>228.68</ele>
        <time>2025-02-02T10:58:21.950Z</time>
      </trkpt>
      <trkpt lat="48.0374" lon="4.90862">
        <ele>228.71</ele>
        <time>2025-02-02T10:58:23.719Z</time>
      </trkpt>
      <trkpt lat="48.03743" lon="4.90845">
        <ele>228.76</ele>
        <time>2025-02-02T10:58:25.490Z</time>
      </trkpt>
      <trkpt lat="48.03746" lon="4.90838">
        <ele>228.79</ele>
        <time>2025-02-02T10:58:27.262Z</time>
      </trkpt>
      <trkpt lat="48.03758" lon="4.90815">
        <ele>228.79</ele>
        <time>2025-02-02T10:58:29.037Z</time>
      </trkpt>
      <trkpt lat="48.0377" lon="4.90793">
        <ele>228.79</ele>
        <time>2025-02-02T10:58:30.815Z</time>
      </trkpt>
      <trkpt lat="48.03782" lon="4.90771">
        <ele>228.8</ele>
        <time>2025-02-02T10:58:32.596Z</time>
      </trkpt>
      <trkpt lat="48.03793" lon="4.90749">
        <ele>228.81</ele>
        <time>2025-02-02T10:58:34.380Z</time>
      </trkpt>
      <trkpt lat="48.038" lon="4.90737">
        <ele>228.82</ele>
        <time>2025-02-02T10:58:36.166Z</time>
      </trkpt>
      <trkpt lat="48.0381" lon="4.90718">
        <ele>228.83</ele>
        <time>2025-02-02T10:58:37.955Z</time>
      </trkpt>
      <trkpt lat="48.03824" lon="4.90692">
        <ele>228.86</ele>
        <time>2025-02-02T10:58:39.747Z</time>
      </trkpt>
      <trkpt lat="48.03837" lon="4.90667">
        <ele>228.89</ele>
        <time>2025-02-02T10:58:41.543Z</time>
      </trkpt>
      <trkpt lat="48.03848" lon="4.90644">
        <ele>229</ele>
        <time>2025-02-02T10:58:43.342Z</time>
      </trkpt>
      <trkpt lat="48.03858" lon="4.90621">
        <ele>229.12</ele>
        <time>2025-02-02T10:58:45.144Z</time>
      </trkpt>
      <trkpt lat="48.0386" lon="4.90614">
        <ele>229.18</ele>
        <time>2025-02-02T10:58:46.946Z</time>
      </trkpt>
      <trkpt lat="48.03862" lon="4.90607">
        <ele>229.25</ele>
        <time>2025-02-02T10:58:48.749Z</time>
      </trkpt>
      <trkpt lat="48.03861" lon="4.90592">
        <ele>229.35</ele>
        <time>2025-02-02T10:58:50.554Z</time>
      </trkpt>
      <trkpt lat="48.0386" lon="4.90584">
        <ele>229.43</ele>
        <time>2025-02-02T10:58:52.360Z</time>
      </trkpt>
      <trkpt lat="48.03847" lon="4.90549">
        <ele>229.55</ele>
        <time>2025-02-02T10:58:54.170Z</time>
      </trkpt>
      <trkpt lat="48.03842" lon="4.90544">
        <ele>229.63</ele>
        <time>2025-02-02T10:58:55.981Z</time>
      </trkpt>
      <trkpt lat="48.03838" lon="4.90539">
        <ele>229.72</ele>
        <time>2025-02-02T10:58:57.793Z</time>
      </trkpt>
      <trkpt lat="48.03829" lon="4.9053">
        <ele>229.8</ele>
        <time>2025-02-02T10:58:59.607Z</time>
      </trkpt>
      <trkpt lat="48.0382" lon="4.90522">
        <ele>229.88</ele>
        <time>2025-02-02T10:59:01.422Z</time>
      </trkpt>
      <trkpt lat="48.03803" lon="4.90505">
        <ele>229.99</ele>
        <time>2025-02-02T10:59:03.241Z</time>
      </trkpt>
      <trkpt lat="48.03785" lon="4.90488">
        <ele>230.11</ele>
        <time>2025-02-02T10:59:05.063Z</time>
      </trkpt>
      <trkpt lat="48.03781" lon="4.90481">
        <ele>230.23</ele>
        <time>2025-02-02T10:59:06.886Z</time>
      </trkpt>
      <trkpt lat="48.03773" lon="4.90469">
        <ele>230.36</ele>
        <time>2025-02-02T10:59:08.711Z</time>
      </trkpt>
      <trkpt lat="48.03768" lon="4.90455">
        <ele>230.51</ele>
        <time>2025-02-02T10:59:10.537Z</time>
      </trkpt>
      <trkpt lat="48.03757" lon="4.90424">
        <ele>230.64</ele>
        <time>2025-02-02T10:59:12.367Z</time>
      </trkpt>
      <trkpt lat="48.03745" lon="4.90393">
        <ele>230.77</ele>
        <time>2025-02-02T10:59:14.201Z</time>
      </trkpt>
      <trkpt lat="48.03739" lon="4.90361">
        <ele>230.93</ele>
        <time>2025-02-02T10:59:16.039Z</time>
      </trkpt>
      <trkpt lat="48.03732" lon="4.90328">
        <ele>231.1</ele>
        <time>2025-02-02T10:59:17.880Z</time>
      </trkpt>
      <trkpt lat="48.03727" lon="4.90296">
        <ele>231.25</ele>
        <time>2025-02-02T10:59:19.725Z</time>
      </trkpt>
      <trkpt lat="48.03723" lon="4.90263">
        <ele>231.37</ele>
        <time>2025-02-02T10:59:21.573Z</time>
      </trkpt>
      <trkpt lat="48.03717" lon="4.90227">
        <ele>231.55</ele>
        <time>2025-02-02T10:59:23.425Z</time>
      </trkpt>
      <trkpt lat="48.03712" lon="4.90191">
        <ele>231.75</ele>
        <time>2025-02-02T10:59:25.281Z</time>
      </trkpt>
      <trkpt lat="48.03707" lon="4.90159">
        <ele>231.94</ele>
        <time>2025-02-02T10:59:27.141Z</time>
      </trkpt>
      <trkpt lat="48.03702" lon="4.90128">
        <ele>232.17</ele>
        <time>2025-02-02T10:59:29.004Z</time>
      </trkpt>
      <trkpt lat="48.03697" lon="4.90094">
        <ele>232.37</ele>
        <time>2025-02-02T10:59:30.871Z</time>
      </trkpt>
      <trkpt lat="48.03692" lon="4.9006">
        <ele>232.56</ele>
        <time>2025-02-02T10:59:32.742Z</time>
      </trkpt>
      <trkpt lat="48.03689" lon="4.90037">
        <ele>232.77</ele>
        <time>2025-02-02T10:59:34.615Z</time>
      </trkpt>
      <trkpt lat="48.03684" lon="4.90005">
        <ele>232.98</ele>
        <time>2025-02-02T10:59:36.492Z</time>
      </trkpt>
      <trkpt lat="48.03679" lon="4.89973">
        <ele>233.23</ele>
        <time>2025-02-02T10:59:38.372Z</time>
      </trkpt>
      <trkpt lat="48.03674" lon="4.89942">
        <ele>233.48</ele>
        <time>2025-02-02T10:59:40.256Z</time>
      </trkpt>
      <trkpt lat="48.03671" lon="4.89916">
        <ele>233.76</ele>
        <time>2025-02-02T10:59:42.143Z</time>
      </trkpt>
      <trkpt lat="48.03667" lon="4.8989">
        <ele>234.04</ele>
        <time>2025-02-02T10:59:44.032Z</time>
      </trkpt>
      <trkpt lat="48.03666" lon="4.89883">
        <ele>234.28</ele>
        <time>2025-02-02T10:59:45.922Z</time>
      </trkpt>
      <trkpt lat="48.03661" lon="4.89851">
        <ele>234.54</ele>
        <time>2025-02-02T10:59:47.816Z</time>
      </trkpt>
      <trkpt lat="48.03656" lon="4.89819">
        <ele>234.83</ele>
        <time>2025-02-02T10:59:49.713Z</time>
      </trkpt>
      <trkpt lat="48.03653" lon="4.89796">
        <ele>235.08</ele>
        <time>2025-02-02T10:59:51.613Z</time>
      </trkpt>
      <trkpt lat="48.03649" lon="4.89772">
        <ele>235.39</ele>
        <time>2025-02-02T10:59:53.515Z</time>
      </trkpt>
      <trkpt lat="48.03647" lon="4.89741">
        <ele>235.69</ele>
        <time>2025-02-02T10:59:55.421Z</time>
      </trkpt>
      <trkpt lat="48.03646" lon="4.8971">
        <ele>235.99</ele>
        <time>2025-02-02T10:59:57.330Z</time>
      </trkpt>
      <trkpt lat="48.03646" lon="4.89675">
        <ele>236.29</ele>
        <time>2025-02-02T10:59:59.243Z</time>
      </trkpt>
      <trkpt lat="48.03647" lon="4.89641">
        <ele>236.56</ele>
        <time>2025-02-02T11:00:01.160Z</time>
      </trkpt>
      <trkpt lat="48.03647" lon="4.89613">
        <ele>236.87</ele>
        <time>2025-02-02T11:00:03.080Z</time>
      </trkpt>
      <trkpt lat="48.03648" lon="4.89585">
        <ele>237.24</ele>
        <time>2025-02-02T11:00:05.003Z</time>
      </trkpt>
      <trkpt lat="48.03648" lon="4.89547">
        <ele>237.63</ele>
        <time>2025-02-02T11:00:06.930Z</time>
      </trkpt>
      <trkpt lat="48.03649" lon="4.89509">
        <ele>238.1</ele>
        <time>2025-02-02T11:00:08.861Z</time>
      </trkpt>
      <trkpt lat="48.03649" lon="4.89477">
        <ele>238.57</ele>
        <time>2025-02-02T11:00:10.795Z</time>
      </trkpt>
      <trkpt lat="48.0365" lon="4.89445">
        <ele>239.17</ele>
        <time>2025-02-02T11:00:12.733Z</time>
      </trkpt>
      <trkpt lat="48.0365" lon="4.89413">
        <ele>239.89</ele>
        <time>2025-02-02T11:00:14.674Z</time>
      </trkpt>
      <trkpt lat="48.03651" lon="4.89382">
        <ele>240.71</ele>
        <time>2025-02-02T11:00:16.618Z</time>
      </trkpt>
      <trkpt lat="48.03651" lon="4.89347">
        <ele>241.52</ele>
        <time>2025-02-02T11:00:18.566Z</time>
      </trkpt>
      <trkpt lat="48.03652" lon="4.89312">
        <ele>242.36</ele>
        <time>2025-02-02T11:00:20.518Z</time>
      </trkpt>
      <trkpt lat="48.03646" lon="4.8927">
        <ele>243.26</ele>
        <time>2025-02-02T11:00:22.475Z</time>
      </trkpt>
      <trkpt lat="48.0364" lon="4.89247">
        <ele>244.26</ele>
        <time>2025-02-02T11:00:24.434Z</time>
      </trkpt>
      <trkpt lat="48.03634" lon="4.89224">
        <ele>245.33</ele>
        <time>2025-02-02T11:00:26.396Z</time>
      </trkpt>
      <trkpt lat="48.03621" lon="4.89183">
        <ele>246.49</ele>
        <time>2025-02-02T11:00:28.363Z</time>
      </trkpt>
      <trkpt lat="48.03613" lon="4.89158">
        <ele>247.72</ele>
        <time>2025-02-02T11:00:30.333Z</time>
      </trkpt>
      <trkpt lat="48.03605" lon="4.89133">
        <ele>249.03</ele>
        <time>2025-02-02T11:00:32.306Z</time>
      </trkpt>
      <trkpt lat="48.03596" lon="4.89104">
        <ele>250.41</ele>
        <time>2025-02-02T11:00:34.282Z</time>
      </trkpt>
      <trkpt lat="48.03589" lon="4.89063">
        <ele>251.95</ele>
        <time>2025-02-02T11:00:36.263Z</time>
      </trkpt>
      <trkpt lat="48.03586" lon="4.89029">
        <ele>253.62</ele>
        <time>2025-02-02T11:00:38.247Z</time>
      </trkpt>
      <trkpt lat="48.03593" lon="4.88998">
        <ele>255.3</ele>
        <time>2025-02-02T11:00:40.235Z</time>
      </trkpt>
      <trkpt lat="48.03607" lon="4.88971">
        <ele>257</ele>
        <time>2025-02-02T11:00:42.226Z</time>
      </trkpt>
      <trkpt lat="48.03621" lon="4.88956">
        <ele>258.6</ele>
        <time>2025-02-02T11:00:44.220Z</time>
      </trkpt>
      <trkpt lat="48.03635" lon="4.88945">
        <ele>260.17</ele>
        <time>2025-02-02T11:00:46.217Z</time>
      </trkpt>
      <trkpt lat="48.03651" lon="4.88931">
        <ele>261.75</ele>
        <time>2025-02-02T11:00:48.217Z</time>
      </trkpt>
      <trkpt lat="48.03665" lon="4.88919">
        <ele>263.37</ele>
        <time>2025-02-02T11:00:50.219Z</time>
      </trkpt>
      <trkpt lat="48.03679" lon="4.88907">
        <ele>264.96</ele>
        <time>2025-02-02T11:00:52.224Z</time>
      </trkpt>
      <trkpt lat="48.03692" lon="4.88891">
        <ele>266.56</ele>
        <time>2025-02-02T11:00:54.232Z</time>
      </trkpt>
      <trkpt lat="48.03703" lon="4.88877">
        <ele>268.13</ele>
        <time>2025-02-02T11:00:56.242Z</time>
      </trkpt>
      <trkpt lat="48.0371" lon="4.88855">
        <ele>269.72</ele>
        <time>2025-02-02T11:00:58.255Z</time>
      </trkpt>
      <trkpt lat="48.03714" lon="4.88831">
        <ele>271.25</ele>
        <time>2025-02-02T11:01:00.270Z</time>
      </trkpt>
      <trkpt lat="48.03713" lon="4.88816">
        <ele>272.71</ele>
        <time>2025-02-02T11:01:02.287Z</time>
      </trkpt>
      <trkpt lat="48.03713" lon="4.88797">
        <ele>274.24</ele>
        <time>2025-02-02T11:01:04.306Z</time>
      </trkpt>
      <trkpt lat="48.03713" lon="4.88781">
        <ele>275.7</ele>
        <time>2025-02-02T11:01:06.327Z</time>
      </trkpt>
      <trkpt lat="48.03712" lon="4.88764">
        <ele>277.14</ele>
        <time>2025-02-02T11:01:08.349Z</time>
      </trkpt>
      <trkpt lat="48.03712" lon="4.88746">
        <ele>278.53</ele>
        <time>2025-02-02T11:01:10.373Z</time>
      </trkpt>
      <trkpt lat="48.03712" lon="4.88733">
        <ele>279.89</ele>
        <time>2025-02-02T11:01:12.399Z</time>
      </trkpt>
      <trkpt lat="48.03711" lon="4.8871">
        <ele>281.21</ele>
        <time>2025-02-02T11:01:14.427Z</time>
      </trkpt>
      <trkpt lat="48.03711" lon="4.88693">
        <ele>282.51</ele>
        <time>2025-02-02T11:01:16.457Z</time>
      </trkpt>
      <trkpt lat="48.0371" lon="4.88673">
        <ele>283.81</ele>
        <time>2025-02-02T11:01:18.489Z</time>
      </trkpt>
      <trkpt lat="48.03709" lon="4.88647">
        <ele>285.14</ele>
        <time>2025-02-02T11:01:20.524Z</time>
      </trkpt>
      <trkpt lat="48.03707" lon="4.88631">
        <ele>286.47</ele>
        <time>2025-02-02T11:01:22.561Z</time>
      </trkpt>
      <trkpt lat="48.03705" lon="4.88613">
        <ele>287.81</ele>
        <time>2025-02-02T11:01:24.600Z</time>
      </trkpt>
      <trkpt lat="48.03702" lon="4.88587">
        <ele>289.21</ele>
        <time>2025-02-02T11:01:26.641Z</time>
      </trkpt>
      <trkpt lat="48.03699" lon="4.88559">
        <ele>290.59</ele>
        <time>2025-02-02T11:01:28.686Z</time>
      </trkpt>
      <trkpt lat="48.03697" lon="4.88536">
        <ele>291.94</ele>
        <time>2025-02-02T11:01:30.733Z</time>
      </trkpt>
      <trkpt lat="48.03693" lon="4.88505">
        <ele>293.2</ele>
        <time>2025-02-02T11:01:32.783Z</time>
      </trkpt>
      <trkpt lat="48.03689" lon="4.88471">
        <ele>294.43</ele>
        <time>2025-02-02T11:01:34.837Z</time>
      </trkpt>
      <trkpt lat="48.03685" lon="4.88437">
        <ele>295.65</ele>
        <time>2025-02-02T11:01:36.895Z</time>
      </trkpt>
      <trkpt lat="48.03681" lon="4.88397">
        <ele>296.95</ele>
        <time>2025-02-02T11:01:38.957Z</time>
      </trkpt>
      <trkpt lat="48.03677" lon="4.88365">
        <ele>298.23</ele>
        <time>2025-02-02T11:01:41.023Z</time>
      </trkpt>
      <trkpt lat="48.03675" lon="4.8834">
        <ele>299.57</ele>
        <time>2025-02-02T11:01:43.091Z</time>
      </trkpt>
      <trkpt lat="48.03674" lon="4.88317">
        <ele>300.87</ele>
        <time>2025-02-02T11:01:45.162Z</time>
      </trkpt>
      <trkpt lat="48.03675" lon="4.8829">
        <ele>302.2</ele>
        <time>2025-02-02T11:01:47.236Z</time>
      </trkpt>
      <trkpt lat="48.03683" lon="4.88265">
        <ele>303.47</ele>
        <time>2025-02-02T11:01:49.313Z</time>
      </trkpt>
      <trkpt lat="48.03694" lon="4.88241">
        <ele>304.69</ele>
        <time>2025-02-02T11:01:51.393Z</time>
      </trkpt>
      <trkpt lat="48.03707" lon="4.8822">
        <ele>305.86</ele>
        <time>2025-02-02T11:01:53.476Z</time>
      </trkpt>
      <trkpt lat="48.03714" lon="4.88211">
        <ele>307.05</ele>
        <time>2025-02-02T11:01:55.560Z</time>
      </trkpt>
      <trkpt lat="48.03732" lon="4.88192">
        <ele>308.27</ele>
        <time>2025-02-02T11:01:57.648Z</time>
      </trkpt>
      <trkpt lat="48.03755" lon="4.8817">
        <ele>309.49</ele>
        <time>2025-02-02T11:01:59.740Z</time>
      </trkpt>
      <trkpt lat="48.03774" lon="4.88157">
        <ele>310.67</ele>
        <time>2025-02-02T11:02:01.836Z</time>
      </trkpt>
      <trkpt lat="48.03792" lon="4.88138">
        <ele>311.78</ele>
        <time>2025-02-02T11:02:03.935Z</time>
      </trkpt>
      <trkpt lat="48.03804" lon="4.8812">
        <ele>312.9</ele>
        <time>2025-02-02T11:02:06.037Z</time>
      </trkpt>
      <trkpt lat="48.03808" lon="4.88097">
        <ele>314.01</ele>
        <time>2025-02-02T11:02:08.141Z</time>
      </trkpt>
      <trkpt lat="48.0381" lon="4.88072">
        <ele>315.1</ele>
        <time>2025-02-02T11:02:10.248Z</time>
      </trkpt>
      <trkpt lat="48.03803" lon="4.88054">
        <ele>316.17</ele>
        <time>2025-02-02T11:02:12.357Z</time>
      </trkpt>
      <trkpt lat="48.03796" lon="4.88035">
        <ele>317.2</ele>
        <time>2025-02-02T11:02:14.469Z</time>
      </trkpt>
      <trkpt lat="48.03785" lon="4.88007">
        <ele>318.19</ele>
        <time>2025-02-02T11:02:16.584Z</time>
      </trkpt>
      <trkpt lat="48.03776" lon="4.87983">
        <ele>319.19</ele>
        <time>2025-02-02T11:02:18.702Z</time>
      </trkpt>
      <trkpt lat="48.03767" lon="4.8796">
        <ele>320.12</ele>
        <time>2025-02-02T11:02:20.823Z</time>
      </trkpt>
      <trkpt lat="48.03757" lon="4.87934">
        <ele>320.98</ele>
        <time>2025-02-02T11:02:22.947Z</time>
      </trkpt>
      <trkpt lat="48.0374" lon="4.87896">
        <ele>321.82</ele>
        <time>2025-02-02T11:02:25.076Z</time>
      </trkpt>
      <trkpt lat="48.03729" lon="4.87872">
        <ele>322.65</ele>
        <time>2025-02-02T11:02:27.208Z</time>
      </trkpt>
      <trkpt lat="48.03718" lon="4.87849">
        <ele>323.46</ele>
        <time>2025-02-02T11:02:29.343Z</time>
      </trkpt>
      <trkpt lat="48.03706" lon="4.87823">
        <ele>324.21</ele>
        <time>2025-02-02T11:02:31.482Z</time>
      </trkpt>
      <trkpt lat="48.03695" lon="4.87798">
        <ele>324.95</ele>
        <time>2025-02-02T11:02:33.624Z</time>
      </trkpt>
      <trkpt lat="48.03682" lon="4.8777">
        <ele>325.66</ele>
        <time>2025-02-02T11:02:35.769Z</time>
      </trkpt>
      <trkpt lat="48.03669" lon="4.87743">
        <ele>326.32</ele>
        <time>2025-02-02T11:02:37.918Z</time>
      </trkpt>
      <trkpt lat="48.03656" lon="4.87713">
        <ele>326.94</ele>
        <time>2025-02-02T11:02:40.071Z</time>
      </trkpt>
      <trkpt lat="48.03653" lon="4.87708">
        <ele>327.55</ele>
        <time>2025-02-02T11:02:42.225Z</time>
      </trkpt>
      <trkpt lat="48.03641" lon="4.87682">
        <ele>328.16</ele>
        <time>2025-02-02T11:02:44.382Z</time>
      </trkpt>
      <trkpt lat="48.03632" lon="4.87662">
        <ele>328.8</ele>
        <time>2025-02-02T11:02:46.542Z</time>
      </trkpt>
      <trkpt lat="48.03623" lon="4.87642">
        <ele>329.43</ele>
        <time>2025-02-02T11:02:48.704Z</time>
      </trkpt>
      <trkpt lat="48.03608" lon="4.8761">
        <ele>330.09</ele>
        <time>2025-02-02T11:02:50.870Z</time>
      </trkpt>
      <trkpt lat="48.03591" lon="4.87573">
        <ele>330.75</ele>
        <time>2025-02-02T11:02:53.041Z</time>
      </trkpt>
      <trkpt lat="48.03587" lon="4.87562">
        <ele>331.34</ele>
        <time>2025-02-02T11:02:55.213Z</time>
      </trkpt>
      <trkpt lat="48.03584" lon="4.87552">
        <ele>331.93</ele>
        <time>2025-02-02T11:02:57.387Z</time>
      </trkpt>
      <trkpt lat="48.0358" lon="4.8754">
        <ele>332.55</ele>
        <time>2025-02-02T11:02:59.562Z</time>
      </trkpt>
      <trkpt lat="48.03575" lon="4.87522">
        <ele>333.15</ele>
        <time>2025-02-02T11:03:01.739Z</time>
      </trkpt>
      <trkpt lat="48.03574" lon="4.8751">
        <ele>333.77</ele>
        <time>2025-02-02T11:03:03.917Z</time>
      </trkpt>
      <trkpt lat="48.0357" lon="4.87486">
        <ele>334.39</ele>
        <time>2025-02-02T11:03:06.098Z</time>
      </trkpt>
      <trkpt lat="48.0357" lon="4.87473">
        <ele>335.04</ele>
        <time>2025-02-02T11:03:08.281Z</time>
      </trkpt>
      <trkpt lat="48.03572" lon="4.8745">
        <ele>335.7</ele>
        <time>2025-02-02T11:03:10.466Z</time>
      </trkpt>
      <trkpt lat="48.03573" lon="4.87426">
        <ele>336.42</ele>
        <time>2025-02-02T11:03:12.654Z</time>
      </trkpt>
      <trkpt lat="48.03582" lon="4.87389">
        <ele>337.14</ele>
        <time>2025-02-02T11:03:14.846Z</time>
      </trkpt>
      <trkpt lat="48.03588" lon="4.87362">
        <ele>337.92</ele>
        <time>2025-02-02T11:03:17.041Z</time>
      </trkpt>
      <trkpt lat="48.03597" lon="4.87323">
        <ele>338.75</ele>
        <time>2025-02-02T11:03:19.240Z</time>
      </trkpt>
      <trkpt lat="48.03602" lon="4.87302">
        <ele>339.53</ele>
        <time>2025-02-02T11:03:21.442Z</time>
      </trkpt>
      <trkpt lat="48.03609" lon="4.87271">
        <ele>340.32</ele>
        <time>2025-02-02T11:03:23.647Z</time>
      </trkpt>
      <trkpt lat="48.03617" lon="4.87237">
        <ele>341.09</ele>
        <time>2025-02-02T11:03:25.856Z</time>
      </trkpt>
      <trkpt lat="48.03625" lon="4.87201">
        <ele>341.78</ele>
        <time>2025-02-02T11:03:28.069Z</time>
      </trkpt>
      <trkpt lat="48.03631" lon="4.87177">
        <ele>342.52</ele>
        <time>2025-02-02T11:03:30.285Z</time>
      </trkpt>
      <trkpt lat="48.03639" lon="4.8714">
        <ele>343.25</ele>
        <time>2025-02-02T11:03:32.505Z</time>
      </trkpt>
      <trkpt lat="48.03647" lon="4.87096">
        <ele>343.98</ele>
        <time>2025-02-02T11:03:34.730Z</time>
      </trkpt>
      <trkpt lat="48.03652" lon="4.87072">
        <ele>344.73</ele>
        <time>2025-02-02T11:03:36.958Z</time>
      </trkpt>
      <trkpt lat="48.03656" lon="4.87048">
        <ele>345.45</ele>
        <time>2025-02-02T11:03:39.188Z</time>
      </trkpt>
      <trkpt lat="48.03664" lon="4.87006">
        <ele>346.17</ele>
        <time>2025-02-02T11:03:41.423Z</time>
      </trkpt>
      <trkpt lat="48.03664" lon="4.86975">
        <ele>346.86</ele>
        <time>2025-02-02T11:03:43.661Z</time>
      </trkpt>
      <trkpt lat="48.03662" lon="4.8693">
        <ele>347.53</ele>
        <time>2025-02-02T11:03:45.904Z</time>
      </trkpt>
      <trkpt lat="48.03661" lon="4.86905">
        <ele>348.07</ele>
        <time>2025-02-02T11:03:48.150Z</time>
      </trkpt>
      <trkpt lat="48.0366" lon="4.8688">
        <ele>348.55</ele>
        <time>2025-02-02T11:03:50.399Z</time>
      </trkpt>
      <trkpt lat="48.03658" lon="4.86856">
        <ele>348.92</ele>
        <time>2025-02-02T11:03:52.650Z</time>
      </trkpt>
      <trkpt lat="48.03657" lon="4.86833">
        <ele>349.2</ele>
        <time>2025-02-02T11:03:54.904Z</time>
      </trkpt>
      <trkpt lat="48.03653" lon="4.86796">
        <ele>349.4</ele>
        <time>2025-02-02T11:03:57.162Z</time>
      </trkpt>
      <trkpt lat="48.0365" lon="4.86765">
        <ele>349.54</ele>
        <time>2025-02-02T11:03:59.423Z</time>
      </trkpt>
      <trkpt lat="48.03645" lon="4.86729">
        <ele>349.59</ele>
        <time>2025-02-02T11:04:01.688Z</time>
      </trkpt>
      <trkpt lat="48.03642" lon="4.86701">
        <ele>349.51</ele>
        <time>2025-02-02T11:04:03.956Z</time>
      </trkpt>
      <trkpt lat="48.03639" lon="4.86675">
        <ele>349.29</ele>
        <time>2025-02-02T11:04:06.227Z</time>
      </trkpt>
      <trkpt lat="48.03638" lon="4.86665">
        <ele>348.92</ele>
        <time>2025-02-02T11:04:08.499Z</time>
      </trkpt>
      <trkpt lat="48.03638" lon="4.86659">
        <ele>348.45</ele>
        <time>2025-02-02T11:04:10.772Z</time>
      </trkpt>
      <trkpt lat="48.03637" lon="4.86614">
        <ele>347.84</ele>
        <time>2025-02-02T11:04:13.049Z</time>
      </trkpt>
      <trkpt lat="48.03643" lon="4.86569">
        <ele>347.09</ele>
        <time>2025-02-02T11:04:15.331Z</time>
      </trkpt>
      <trkpt lat="48.03651" lon="4.86527">
        <ele>346.23</ele>
        <time>2025-02-02T11:04:17.618Z</time>
      </trkpt>
      <trkpt lat="48.03653" lon="4.86519">
        <ele>345.33</ele>
        <time>2025-02-02T11:04:19.906Z</time>
      </trkpt>
      <trkpt lat="48.03655" lon="4.86511">
        <ele>344.33</ele>
        <time>2025-02-02T11:04:22.195Z</time>
      </trkpt>
      <trkpt lat="48.03659" lon="4.86494">
        <ele>343.22</ele>
        <time>2025-02-02T11:04:24.486Z</time>
      </trkpt>
      <trkpt lat="48.03664" lon="4.86469">
        <ele>342.03</ele>
        <time>2025-02-02T11:04:26.780Z</time>
      </trkpt>
      <trkpt lat="48.03669" lon="4.86445">
        <ele>340.79</ele>
        <time>2025-02-02T11:04:29.076Z</time>
      </trkpt>
      <trkpt lat="48.03676" lon="4.86418">
        <ele>339.44</ele>
        <time>2025-02-02T11:04:31.375Z</time>
      </trkpt>
      <trkpt lat="48.03683" lon="4.86391">
        <ele>338.04</ele>
        <time>2025-02-02T11:04:33.678Z</time>
      </trkpt>
      <trkpt lat="48.03694" lon="4.86354">
        <ele>336.46</ele>
        <time>2025-02-02T11:04:35.985Z</time>
      </trkpt>
      <trkpt lat="48.03705" lon="4.86318">
        <ele>334.81</ele>
        <time>2025-02-02T11:04:38.296Z</time>
      </trkpt>
      <trkpt lat="48.03715" lon="4.86284">
        <ele>333.1</ele>
        <time>2025-02-02T11:04:40.611Z</time>
      </trkpt>
      <trkpt lat="48.03725" lon="4.8625">
        <ele>331.55</ele>
        <time>2025-02-02T11:04:42.930Z</time>
      </trkpt>
      <trkpt lat="48.03736" lon="4.86213">
        <ele>330.12</ele>
        <time>2025-02-02T11:04:45.253Z</time>
      </trkpt>
      <trkpt lat="48.03748" lon="4.86176">
        <ele>328.81</ele>
        <time>2025-02-02T11:04:47.581Z</time>
      </trkpt>
      <trkpt lat="48.03755" lon="4.86145">
        <ele>327.57</ele>
        <time>2025-02-02T11:04:49.912Z</time>
      </trkpt>
      <trkpt lat="48.03762" lon="4.86115">
        <ele>326.41</ele>
        <time>2025-02-02T11:04:52.247Z</time>
      </trkpt>
      <trkpt lat="48.03762" lon="4.86084">
        <ele>325.38</ele>
        <time>2025-02-02T11:04:54.585Z</time>
      </trkpt>
      <trkpt lat="48.03763" lon="4.86054">
        <ele>324.46</ele>
        <time>2025-02-02T11:04:56.926Z</time>
      </trkpt>
      <trkpt lat="48.03764" lon="4.86012">
        <ele>323.61</ele>
        <time>2025-02-02T11:04:59.272Z</time>
      </trkpt>
      <trkpt lat="48.03765" lon="4.85971">
        <ele>322.86</ele>
        <time>2025-02-02T11:05:01.622Z</time>
      </trkpt>
      <trkpt lat="48.03765" lon="4.85959">
        <ele>322.3</ele>
        <time>2025-02-02T11:05:03.974Z</time>
      </trkpt>
      <trkpt lat="48.03766" lon="4.85921">
        <ele>321.86</ele>
        <time>2025-02-02T11:05:06.330Z</time>
      </trkpt>
      <trkpt lat="48.03767" lon="4.85883">
        <ele>321.56</ele>
        <time>2025-02-02T11:05:08.690Z</time>
      </trkpt>
      <trkpt lat="48.03767" lon="4.85843">
        <ele>321.38</ele>
        <time>2025-02-02T11:05:11.054Z</time>
      </trkpt>
      <trkpt lat="48.03768" lon="4.85803">
        <ele>321.31</ele>
        <time>2025-02-02T11:05:13.422Z</time>
      </trkpt>
      <trkpt lat="48.03769" lon="4.85768">
        <ele>321.33</ele>
        <time>2025-02-02T11:05:15.794Z</time>
      </trkpt>
      <trkpt lat="48.03769" lon="4.85733">
        <ele>321.47</ele>
        <time>2025-02-02T11:05:18.170Z</time>
      </trkpt>
      <trkpt lat="48.03765" lon="4.8569">
        <ele>321.88</ele>
        <time>2025-02-02T11:05:20.550Z</time>
      </trkpt>
      <trkpt lat="48.0376" lon="4.85648">
        <ele>322.39</ele>
        <time>2025-02-02T11:05:22.935Z</time>
      </trkpt>
      <trkpt lat="48.03757" lon="4.85616">
        <ele>322.91</ele>
        <time>2025-02-02T11:05:25.323Z</time>
      </trkpt>
      <trkpt lat="48.03753" lon="4.85585">
        <ele>323.52</ele>
        <time>2025-02-02T11:05:27.715Z</time>
      </trkpt>
      <trkpt lat="48.03751" lon="4.85559">
        <ele>324.21</ele>
        <time>2025-02-02T11:05:30.110Z</time>
      </trkpt>
      <trkpt lat="48.03748" lon="4.85534">
        <ele>325.06</ele>
        <time>2025-02-02T11:05:32.507Z</time>
      </trkpt>
      <trkpt lat="48.03749" lon="4.85492">
        <ele>326.04</ele>
        <time>2025-02-02T11:05:34.909Z</time>
      </trkpt>
      <trkpt lat="48.03752" lon="4.85455">
        <ele>327.06</ele>
        <time>2025-02-02T11:05:37.315Z</time>
      </trkpt>
      <trkpt lat="48.03756" lon="4.8542">
        <ele>328.14</ele>
        <time>2025-02-02T11:05:39.725Z</time>
      </trkpt>
      <trkpt lat="48.03759" lon="4.85385">
        <ele>329.2</ele>
        <time>2025-02-02T11:05:42.139Z</time>
      </trkpt>
      <trkpt lat="48.03762" lon="4.85358">
        <ele>330.11</ele>
        <time>2025-02-02T11:05:44.555Z</time>
      </trkpt>
      <trkpt lat="48.03761" lon="4.85316">
        <ele>330.9</ele>
        <time>2025-02-02T11:05:46.976Z</time>
      </trkpt>
      <trkpt lat="48.03759" lon="4.8529">
        <ele>331.64</ele>
        <time>2025-02-02T11:05:49.400Z</time>
      </trkpt>
      <trkpt lat="48.03756" lon="4.85264">
        <ele>332.33</ele>
        <time>2025-02-02T11:05:51.827Z</time>
      </trkpt>
      <trkpt lat="48.03752" lon="4.85234">
        <ele>332.96</ele>
        <time>2025-02-02T11:05:54.257Z</time>
      </trkpt>
      <trkpt lat="48.03747" lon="4.85213">
        <ele>333.51</ele>
        <time>2025-02-02T11:05:56.689Z</time>
      </trkpt>
      <trkpt lat="48.03744" lon="4.85198">
        <ele>333.99</ele>
        <time>2025-02-02T11:05:59.123Z</time>
      </trkpt>
      <trkpt lat="48.03738" lon="4.8517">
        <ele>334.36</ele>
        <time>2025-02-02T11:06:01.560Z</time>
      </trkpt>
      <trkpt lat="48.03732" lon="4.85143">
        <ele>334.62</ele>
        <time>2025-02-02T11:06:04.000Z</time>
      </trkpt>
      <trkpt lat="48.03725" lon="4.85109">
        <ele>334.8</ele>
        <time>2025-02-02T11:06:06.444Z</time>
      </trkpt>
      <trkpt lat="48.03718" lon="4.85075">
        <ele>334.89</ele>
        <time>2025-02-02T11:06:08.892Z</time>
      </trkpt>
      <trkpt lat="48.03714" lon="4.85051">
        <ele>334.98</ele>
        <time>2025-02-02T11:06:11.342Z</time>
      </trkpt>
      <trkpt lat="48.03709" lon="4.85027">
        <ele>335</ele>
        <time>2025-02-02T11:06:13.795Z</time>
      </trkpt>
      <trkpt lat="48.03706" lon="4.84991">
        <ele>334.94</ele>
        <time>2025-02-02T11:06:16.252Z</time>
      </trkpt>
      <trkpt lat="48.03704" lon="4.84955">
        <ele>334.86</ele>
        <time>2025-02-02T11:06:18.713Z</time>
      </trkpt>
      <trkpt lat="48.03706" lon="4.84921">
        <ele>334.59</ele>
        <time>2025-02-02T11:06:21.178Z</time>
      </trkpt>
      <trkpt lat="48.03708" lon="4.84887">
        <ele>334.28</ele>
        <time>2025-02-02T11:06:23.646Z</time>
      </trkpt>
      <trkpt lat="48.03711" lon="4.8485">
        <ele>333.87</ele>
        <time>2025-02-02T11:06:26.118Z</time>
      </trkpt>
      <trkpt lat="48.03714" lon="4.84813">
        <ele>333.45</ele>
        <time>2025-02-02T11:06:28.594Z</time>
      </trkpt>
      <trkpt lat="48.03716" lon="4.84785">
        <ele>332.94</ele>
        <time>2025-02-02T11:06:31.073Z</time>
      </trkpt>
      <trkpt lat="48.03718" lon="4.84758">
        <ele>332.43</ele>
        <time>2025-02-02T11:06:33.555Z</time>
      </trkpt>
      <trkpt lat="48.0372" lon="4.84717">
        <ele>331.89</ele>
        <time>2025-02-02T11:06:36.042Z</time>
      </trkpt>
      <trkpt lat="48.03723" lon="4.84676">
        <ele>331.27</ele>
        <time>2025-02-02T11:06:38.533Z</time>
      </trkpt>
      <trkpt lat="48.03726" lon="4.84635">
        <ele>330.49</ele>
        <time>2025-02-02T11:06:41.029Z</time>
      </trkpt>
      <trkpt lat="48.03729" lon="4.84593">
        <ele>329.72</ele>
        <time>2025-02-02T11:06:43.529Z</time>
      </trkpt>
      <trkpt lat="48.03731" lon="4.84563">
        <ele>329.04</ele>
        <time>2025-02-02T11:06:46.032Z</time>
      </trkpt>
      <trkpt lat="48.03733" lon="4.84533">
        <ele>328.3</ele>
        <time>2025-02-02T11:06:48.538Z</time>
      </trkpt>
      <trkpt lat="48.03734" lon="4.84522">
        <ele>327.58</ele>
        <time>2025-02-02T11:06:51.046Z</time>
      </trkpt>
      <trkpt lat="48.03736" lon="4.84493">
        <ele>326.88</ele>
        <time>2025-02-02T11:06:53.557Z</time>
      </trkpt>
      <trkpt lat="48.03738" lon="4.84463">
        <ele>326.15</ele>
        <time>2025-02-02T11:06:56.071Z</time>
      </trkpt>
      <trkpt lat="48.03741" lon="4.84429">
        <ele>325.4</ele>
        <time>2025-02-02T11:06:58.589Z</time>
      </trkpt>
      <trkpt lat="48.03743" lon="4.84394">
        <ele>324.57</ele>
        <time>2025-02-02T11:07:01.110Z</time>
      </trkpt>
      <trkpt lat="48.03745" lon="4.84361">
        <ele>323.76</ele>
        <time>2025-02-02T11:07:03.635Z</time>
      </trkpt>
      <trkpt lat="48.03748" lon="4.84328">
        <ele>322.93</ele>
        <time>2025-02-02T11:07:06.164Z</time>
      </trkpt>
      <trkpt lat="48.0375" lon="4.843">
        <ele>322.13</ele>
        <time>2025-02-02T11:07:08.696Z</time>
      </trkpt>
      <trkpt lat="48.03752" lon="4.84272">
        <ele>321.33</ele>
        <time>2025-02-02T11:07:11.231Z</time>
      </trkpt>
      <trkpt lat="48.03752" lon="4.84261">
        <ele>320.55</ele>
        <time>2025-02-02T11:07:13.767Z</time>
      </trkpt>
      <trkpt lat="48.03756" lon="4.84217">
        <ele>319.73</ele>
        <time>2025-02-02T11:07:16.308Z</time>
      </trkpt>
      <trkpt lat="48.03759" lon="4.84174">
        <ele>318.86</ele>
        <time>2025-02-02T11:07:18.853Z</time>
      </trkpt>
      <trkpt lat="48.03762" lon="4.84128">
        <ele>317.98</ele>
        <time>2025-02-02T11:07:21.403Z</time>
      </trkpt>
      <trkpt lat="48.03765" lon="4.84082">
        <ele>317.1</ele>
        <time>2025-02-02T11:07:23.958Z</time>
      </trkpt>
      <trkpt lat="48.03768" lon="4.84042">
        <ele>316.18</ele>
        <time>2025-02-02T11:07:26.518Z</time>
      </trkpt>
      <trkpt lat="48.03771" lon="4.84001">
        <ele>315.31</ele>
        <time>2025-02-02T11:07:29.082Z</time>
      </trkpt>
      <trkpt lat="48.03773" lon="4.83968">
        <ele>314.49</ele>
        <time>2025-02-02T11:07:31.650Z</time>
      </trkpt>
      <trkpt lat="48.03775" lon="4.83935">
        <ele>313.63</ele>
        <time>2025-02-02T11:07:34.221Z</time>
      </trkpt>
      <trkpt lat="48.03778" lon="4.83895">
        <ele>312.74</ele>
        <time>2025-02-02T11:07:36.796Z</time>
      </trkpt>
      <trkpt lat="48.03781" lon="4.83854">
        <ele>311.91</ele>
        <time>2025-02-02T11:07:39.376Z</time>
      </trkpt>
      <trkpt lat="48.03783" lon="4.83821">
        <ele>311.01</ele>
        <time>2025-02-02T11:07:41.959Z</time>
      </trkpt>
      <trkpt lat="48.03785" lon="4.83788">
        <ele>310.09</ele>
        <time>2025-02-02T11:07:44.546Z</time>
      </trkpt>
      <trkpt lat="48.03785" lon="4.83774">
        <ele>309.11</ele>
        <time>2025-02-02T11:07:47.134Z</time>
      </trkpt>
      <trkpt lat="48.03781" lon="4.83761">
        <ele>308.1</ele>
        <time>2025-02-02T11:07:49.724Z</time>
      </trkpt>
      <trkpt lat="48.03768" lon="4.83725">
        <ele>307</ele>
        <time>2025-02-02T11:07:52.318Z</time>
      </trkpt>
      <trkpt lat="48.03755" lon="4.83691">
        <ele>305.85</ele>
        <time>2025-02-02T11:07:54.917Z</time>
      </trkpt>
      <trkpt lat="48.03742" lon="4.83657">
        <ele>304.62</ele>
        <time>2025-02-02T11:07:57.520Z</time>
      </trkpt>
      <trkpt lat="48.03727" lon="4.83617">
        <ele>303.36</ele>
        <time>2025-02-02T11:08:00.128Z</time>
      </trkpt>
      <trkpt lat="48.03711" lon="4.83578">
        <ele>301.99</ele>
        <time>2025-02-02T11:08:02.741Z</time>
      </trkpt>
      <trkpt lat="48.03697" lon="4.83539">
        <ele>300.42</ele>
        <time>2025-02-02T11:08:05.358Z</time>
      </trkpt>
      <trkpt lat="48.03682" lon="4.83501">
        <ele>298.76</ele>
        <time>2025-02-02T11:08:07.980Z</time>
      </trkpt>
      <trkpt lat="48.03667" lon="4.83463">
        <ele>297.02</ele>
        <time>2025-02-02T11:08:10.607Z</time>
      </trkpt>
      <trkpt lat="48.03653" lon="4.83425">
        <ele>295.18</ele>
        <time>2025-02-02T11:08:13.239Z</time>
      </trkpt>
      <trkpt lat="48.03638" lon="4.83388">
        <ele>293.26</ele>
        <time>2025-02-02T11:08:15.875Z</time>
      </trkpt>
      <trkpt lat="48.03623" lon="4.83351">
        <ele>291.27</ele>
        <time>2025-02-02T11:08:18.516Z</time>
      </trkpt>
      <trkpt lat="48.03619" lon="4.83341">
        <ele>289.29</ele>
        <time>2025-02-02T11:08:21.158Z</time>
      </trkpt>
      <trkpt lat="48.03609" lon="4.83313">
        <ele>287.21</ele>
        <time>2025-02-02T11:08:23.803Z</time>
      </trkpt>
      <trkpt lat="48.036" lon="4.83285">
        <ele>285.06</ele>
        <time>2025-02-02T11:08:26.452Z</time>
      </trkpt>
      <trkpt lat="48.03592" lon="4.83244">
        <ele>282.78</ele>
        <time>2025-02-02T11:08:29.105Z</time>
      </trkpt>
      <trkpt lat="48.03584" lon="4.83204">
        <ele>280.41</ele>
        <time>2025-02-02T11:08:31.763Z</time>
      </trkpt>
      <trkpt lat="48.03579" lon="4.83177">
        <ele>278.05</ele>
        <time>2025-02-02T11:08:34.424Z</time>
      </trkpt>
      <trkpt lat="48.03572" lon="4.83134">
        <ele>275.6</ele>
        <time>2025-02-02T11:08:37.090Z</time>
      </trkpt>
      <trkpt lat="48.03564" lon="4.83092">
        <ele>273.18</ele>
        <time>2025-02-02T11:08:39.760Z</time>
      </trkpt>
      <trkpt lat="48.03559" lon="4.83046">
        <ele>270.77</ele>
        <time>2025-02-02T11:08:42.435Z</time>
      </trkpt>
      <trkpt lat="48.03554" lon="4.83">
        <ele>268.43</ele>
        <time>2025-02-02T11:08:45.115Z</time>
      </trkpt>
      <trkpt lat="48.03551" lon="4.82968">
        <ele>266.16</ele>
        <time>2025-02-02T11:08:47.799Z</time>
      </trkpt>
      <trkpt lat="48.03547" lon="4.82937">
        <ele>263.95</ele>
        <time>2025-02-02T11:08:50.486Z</time>
      </trkpt>
      <trkpt lat="48.03544" lon="4.82906">
        <ele>261.74</ele>
        <time>2025-02-02T11:08:53.177Z</time>
      </trkpt>
      <trkpt lat="48.03544" lon="4.82906">
        <ele>259.74</ele>
        <time>2025-02-02T11:08:55.868Z</time>
      </trkpt>
      <trkpt lat="48.03544" lon="4.82906">
        <ele>257.81</ele>
        <time>2025-02-02T11:08:58.559Z</time>
      </trkpt>
      <trkpt lat="48.03538" lon="4.82864">
        <ele>255.76</ele>
        <time>2025-02-02T11:09:01.254Z</time>
      </trkpt>
      <trkpt lat="48.03532" lon="4.82823">
        <ele>253.87</ele>
        <time>2025-02-02T11:09:03.954Z</time>
      </trkpt>
      <trkpt lat="48.03523" lon="4.82786">
        <ele>252.08</ele>
        <time>2025-02-02T11:09:06.658Z</time>
      </trkpt>
      <trkpt lat="48.03515" lon="4.82748">
        <ele>250.45</ele>
        <time>2025-02-02T11:09:09.366Z</time>
      </trkpt>
      <trkpt lat="48.03507" lon="4.8271">
        <ele>249</ele>
        <time>2025-02-02T11:09:12.078Z</time>
      </trkpt>
      <trkpt lat="48.03499" lon="4.82672">
        <ele>247.66</ele>
        <time>2025-02-02T11:09:14.795Z</time>
      </trkpt>
      <trkpt lat="48.03491" lon="4.82635">
        <ele>246.43</ele>
        <time>2025-02-02T11:09:17.516Z</time>
      </trkpt>
      <trkpt lat="48.03485" lon="4.826">
        <ele>245.3</ele>
        <time>2025-02-02T11:09:20.241Z</time>
      </trkpt>
      <trkpt lat="48.0348" lon="4.82566">
        <ele>244.24</ele>
        <time>2025-02-02T11:09:22.970Z</time>
      </trkpt>
      <trkpt lat="48.0348" lon="4.8253">
        <ele>243.35</ele>
        <time>2025-02-02T11:09:25.702Z</time>
      </trkpt>
      <trkpt lat="48.0348" lon="4.82495">
        <ele>242.51</ele>
        <time>2025-02-02T11:09:28.438Z</time>
      </trkpt>
      <trkpt lat="48.03482" lon="4.82471">
        <ele>241.81</ele>
        <time>2025-02-02T11:09:31.177Z</time>
      </trkpt>
      <trkpt lat="48.03484" lon="4.82448">
        <ele>241.25</ele>
        <time>2025-02-02T11:09:33.918Z</time>
      </trkpt>
      <trkpt lat="48.03489" lon="4.82403">
        <ele>240.82</ele>
        <time>2025-02-02T11:09:36.664Z</time>
      </trkpt>
      <trkpt lat="48.03497" lon="4.82382">
        <ele>240.48</ele>
        <time>2025-02-02T11:09:39.413Z</time>
      </trkpt>
      <trkpt lat="48.03506" lon="4.82362">
        <ele>240.23</ele>
        <time>2025-02-02T11:09:42.164Z</time>
      </trkpt>
      <trkpt lat="48.03506" lon="4.82362">
        <ele>240.16</ele>
        <time>2025-02-02T11:09:44.915Z</time>
      </trkpt>
      <trkpt lat="48.03517" lon="4.82324">
        <ele>240.15</ele>
        <time>2025-02-02T11:09:47.671Z</time>
      </trkpt>
      <trkpt lat="48.03527" lon="4.82287">
        <ele>240.27</ele>
        <time>2025-02-02T11:09:50.431Z</time>
      </trkpt>
      <trkpt lat="48.03532" lon="4.8226">
        <ele>240.46</ele>
        <time>2025-02-02T11:09:53.194Z</time>
      </trkpt>
      <trkpt lat="48.03536" lon="4.82233">
        <ele>240.8</ele>
        <time>2025-02-02T11:09:55.960Z</time>
      </trkpt>
      <trkpt lat="48.03542" lon="4.82192">
        <ele>241.2</ele>
        <time>2025-02-02T11:09:58.731Z</time>
      </trkpt>
      <trkpt lat="48.03548" lon="4.82151">
        <ele>241.67</ele>
        <time>2025-02-02T11:10:01.506Z</time>
      </trkpt>
      <trkpt lat="48.03555" lon="4.82109">
        <ele>242.16</ele>
        <time>2025-02-02T11:10:04.286Z</time>
      </trkpt>
      <trkpt lat="48.03561" lon="4.82068">
        <ele>242.69</ele>
        <time>2025-02-02T11:10:07.070Z</time>
      </trkpt>
      <trkpt lat="48.03567" lon="4.82027">
        <ele>243.29</ele>
        <time>2025-02-02T11:10:09.859Z</time>
      </trkpt>
      <trkpt lat="48.03573" lon="4.81985">
        <ele>243.93</ele>
        <time>2025-02-02T11:10:12.652Z</time>
      </trkpt>
      <trkpt lat="48.03579" lon="4.81944">
        <ele>244.5</ele>
        <time>2025-02-02T11:10:15.450Z</time>
      </trkpt>
      <trkpt lat="48.03586" lon="4.81902">
        <ele>245.17</ele>
        <time>2025-02-02T11:10:18.252Z</time>
      </trkpt>
      <trkpt lat="48.03592" lon="4.81862">
        <ele>245.92</ele>
        <time>2025-02-02T11:10:21.059Z</time>
      </trkpt>
      <trkpt lat="48.03588" lon="4.81816">
        <ele>246.54</ele>
        <time>2025-02-02T11:10:23.871Z</time>
      </trkpt>
      <trkpt lat="48.03585" lon="4.8177">
        <ele>247.14</ele>
        <time>2025-02-02T11:10:26.688Z</time>
      </trkpt>
      <trkpt lat="48.03581" lon="4.81734">
        <ele>247.69</ele>
        <time>2025-02-02T11:10:29.509Z</time>
      </trkpt>
      <trkpt lat="48.03577" lon="4.81699">
        <ele>248.22</ele>
        <time>2025-02-02T11:10:32.334Z</time>
      </trkpt>
      <trkpt lat="48.03572" lon="4.81663">
        <ele>248.69</ele>
        <time>2025-02-02T11:10:35.162Z</time>
      </trkpt>
      <trkpt lat="48.03568" lon="4.81628">
        <ele>249.06</ele>
        <time>2025-02-02T11:10:37.994Z</time>
      </trkpt>
      <trkpt lat="48.03561" lon="4.81591">
        <ele>249.34</ele>
        <time>2025-02-02T11:10:40.830Z</time>
      </trkpt>
      <trkpt lat="48.03553" lon="4.81554">
        <ele>249.57</ele>
        <time>2025-02-02T11:10:43.671Z</time>
      </trkpt>
      <trkpt lat="48.03546" lon="4.81517">
        <ele>249.78</ele>
        <time>2025-02-02T11:10:46.516Z</time>
      </trkpt>
      <trkpt lat="48.03538" lon="4.8148">
        <ele>249.97</ele>
        <time>2025-02-02T11:10:49.365Z</time>
      </trkpt>
      <trkpt lat="48.03525" lon="4.81443">
        <ele>250.04</ele>
        <time>2025-02-02T11:10:52.218Z</time>
      </trkpt>
      <trkpt lat="48.03512" lon="4.81406">
        <ele>250.04</ele>
        <time>2025-02-02T11:10:55.076Z</time>
      </trkpt>
      <trkpt lat="48.03498" lon="4.81369">
        <ele>249.96</ele>
        <time>2025-02-02T11:10:57.938Z</time>
      </trkpt>
      <trkpt lat="48.03485" lon="4.81332">
        <ele>249.69</ele>
        <time>2025-02-02T11:11:00.805Z</time>
      </trkpt>
      <trkpt lat="48.03472" lon="4.81296">
        <ele>249.44</ele>
        <time>2025-02-02T11:11:03.676Z</time>
      </trkpt>
      <trkpt lat="48.03459" lon="4.81259">
        <ele>249.13</ele>
        <time>2025-02-02T11:11:06.552Z</time>
      </trkpt>
      <trkpt lat="48.0345" lon="4.81223">
        <ele>248.73</ele>
        <time>2025-02-02T11:11:09.432Z</time>
      </trkpt>
      <trkpt lat="48.03444" lon="4.81186">
        <ele>248.33</ele>
        <time>2025-02-02T11:11:12.316Z</time>
      </trkpt>
      <trkpt lat="48.03443" lon="4.81146">
        <ele>247.8</ele>
        <time>2025-02-02T11:11:15.204Z</time>
      </trkpt>
      <trkpt lat="48.03442" lon="4.81106">
        <ele>247.2</ele>
        <time>2025-02-02T11:11:18.097Z</time>
      </trkpt>
      <trkpt lat="48.03442" lon="4.81066">
        <ele>246.52</ele>
        <time>2025-02-02T11:11:20.994Z</time>
      </trkpt>
      <trkpt lat="48.0344" lon="4.81027">
        <ele>245.94</ele>
        <time>2025-02-02T11:11:23.895Z</time>
      </trkpt>
      <trkpt lat="48.03439" lon="4.80989">
        <ele>245.28</ele>
        <time>2025-02-02T11:11:26.800Z</time>
      </trkpt>
      <trkpt lat="48.03437" lon="4.8095">
        <ele>244.45</ele>
        <time>2025-02-02T11:11:29.709Z</time>
      </trkpt>
      <trkpt lat="48.03433" lon="4.80924">
        <ele>243.47</ele>
        <time>2025-02-02T11:11:32.621Z</time>
      </trkpt>
      <trkpt lat="48.03433" lon="4.80924">
        <ele>242.48</ele>
        <time>2025-02-02T11:11:35.533Z</time>
      </trkpt>
      <trkpt lat="48.03427" lon="4.80883">
        <ele>241.29</ele>
        <time>2025-02-02T11:11:38.450Z</time>
      </trkpt>
      <trkpt lat="48.03421" lon="4.80843">
        <ele>240.1</ele>
        <time>2025-02-02T11:11:41.371Z</time>
      </trkpt>
      <trkpt lat="48.03416" lon="4.80802">
        <ele>238.87</ele>
        <time>2025-02-02T11:11:44.297Z</time>
      </trkpt>
      <trkpt lat="48.03411" lon="4.80766">
        <ele>237.62</ele>
        <time>2025-02-02T11:11:47.227Z</time>
      </trkpt>
      <trkpt lat="48.03406" lon="4.8073">
        <ele>236.31</ele>
        <time>2025-02-02T11:11:50.160Z</time>
      </trkpt>
      <trkpt lat="48.03401" lon="4.80695">
        <ele>234.98</ele>
        <time>2025-02-02T11:11:53.097Z</time>
      </trkpt>
      <trkpt lat="48.03393" lon="4.80657">
        <ele>233.65</ele>
        <time>2025-02-02T11:11:56.039Z</time>
      </trkpt>
      <trkpt lat="48.03385" lon="4.80618">
        <ele>232.34</ele>
        <time>2025-02-02T11:11:58.985Z</time>
      </trkpt>
      <trkpt lat="48.03377" lon="4.8058">
        <ele>231.18</ele>
        <time>2025-02-02T11:12:01.935Z</time>
      </trkpt>
      <trkpt lat="48.03369" lon="4.80542">
        <ele>230.09</ele>
        <time>2025-02-02T11:12:04.890Z</time>
      </trkpt>
      <trkpt lat="48.03357" lon="4.80507">
        <ele>229.05</ele>
        <time>2025-02-02T11:12:07.849Z</time>
      </trkpt>
      <trkpt lat="48.03346" lon="4.80471">
        <ele>227.99</ele>
        <time>2025-02-02T11:12:10.812Z</time>
      </trkpt>
      <trkpt lat="48.03335" lon="4.80435">
        <ele>226.97</ele>
        <time>2025-02-02T11:12:13.779Z</time>
      </trkpt>
      <trkpt lat="48.03324" lon="4.804">
        <ele>226.06</ele>
        <time>2025-02-02T11:12:16.750Z</time>
      </trkpt>
      <trkpt lat="48.03313" lon="4.80364">
        <ele>225.31</ele>
        <time>2025-02-02T11:12:19.726Z</time>
      </trkpt>
      <trkpt lat="48.03306" lon="4.8033">
        <ele>224.67</ele>
        <time>2025-02-02T11:12:22.705Z</time>
      </trkpt>
      <trkpt lat="48.03302" lon="4.80292">
        <ele>224.08</ele>
        <time>2025-02-02T11:12:25.689Z</time>
      </trkpt>
      <trkpt lat="48.03299" lon="4.80253">
        <ele>223.55</ele>
        <time>2025-02-02T11:12:28.677Z</time>
      </trkpt>
      <trkpt lat="48.03295" lon="4.80215">
        <ele>223.05</ele>
        <time>2025-02-02T11:12:31.669Z</time>
      </trkpt>
      <trkpt lat="48.03291" lon="4.80177">
        <ele>222.63</ele>
        <time>2025-02-02T11:12:34.665Z</time>
      </trkpt>
      <trkpt lat="48.03287" lon="4.80139">
        <ele>222.26</ele>
        <time>2025-02-02T11:12:37.665Z</time>
      </trkpt>
      <trkpt lat="48.03285" lon="4.80109">
        <ele>222.02</ele>
        <time>2025-02-02T11:12:40.668Z</time>
      </trkpt>
      <trkpt lat="48.03274" lon="4.80088">
        <ele>221.84</ele>
        <time>2025-02-02T11:12:43.674Z</time>
      </trkpt>
      <trkpt lat="48.0325" lon="4.80068">
        <ele>221.76</ele>
        <time>2025-02-02T11:12:46.685Z</time>
      </trkpt>
      <trkpt lat="48.03225" lon="4.80049">
        <ele>221.69</ele>
        <time>2025-02-02T11:12:49.700Z</time>
      </trkpt>
      <trkpt lat="48.03201" lon="4.8003">
        <ele>221.67</ele>
        <time>2025-02-02T11:12:52.720Z</time>
      </trkpt>
      <trkpt lat="48.03193" lon="4.80017">
        <ele>221.71</ele>
        <time>2025-02-02T11:12:55.742Z</time>
      </trkpt>
      <trkpt lat="48.03188" lon="4.80019">
        <ele>221.8</ele>
        <time>2025-02-02T11:12:58.764Z</time>
      </trkpt>
      <trkpt lat="48.03184" lon="4.80023">
        <ele>221.94</ele>
        <time>2025-02-02T11:13:01.787Z</time>
      </trkpt>
      <trkpt lat="48.0318" lon="4.80023">
        <ele>222.09</ele>
        <time>2025-02-02T11:13:04.811Z</time>
      </trkpt>
      <trkpt lat="48.03173" lon="4.80025">
        <ele>222.26</ele>
        <time>2025-02-02T11:13:07.836Z</time>
      </trkpt>
      <trkpt lat="48.03167" lon="4.8004">
        <ele>222.47</ele>
        <time>2025-02-02T11:13:10.863Z</time>
      </trkpt>
      <trkpt lat="48.03165" lon="4.80057">
        <ele>222.69</ele>
        <time>2025-02-02T11:13:13.892Z</time>
      </trkpt>
      <trkpt lat="48.0315" lon="4.8009">
        <ele>222.98</ele>
        <time>2025-02-02T11:13:16.925Z</time>
      </trkpt>
      <trkpt lat="48.03142" lon="4.80121">
        <ele>223.29</ele>
        <time>2025-02-02T11:13:19.961Z</time>
      </trkpt>
      <trkpt lat="48.03135" lon="4.80152">
        <ele>223.63</ele>
        <time>2025-02-02T11:13:23.001Z</time>
      </trkpt>
      <trkpt lat="48.03135" lon="4.80152">
        <ele>223.76</ele>
        <time>2025-02-02T11:13:26.041Z</time>
      </trkpt>
      <trkpt lat="48.03135" lon="4.80152">
        <ele>223.85</ele>
        <time>2025-02-02T11:13:29.081Z</time>
      </trkpt>
      <trkpt lat="48.03142" lon="4.80121">
        <ele>223.72</ele>
        <time>2025-02-02T11:13:32.124Z</time>
      </trkpt>
      <trkpt lat="48.0315" lon="4.8009">
        <ele>222.98</ele>
        <time>2025-02-02T11:13:35.171Z</time>
      </trkpt>
      <trkpt lat="48.03165" lon="4.80057">
        <ele>222.69</ele>
        <time>2025-02-02T11:13:38.222Z</time>
      </trkpt>
      <trkpt lat="48.03167" lon="4.8004">
        <ele>223.45</ele>
        <time>2025-02-02T11:13:41.275Z</time>
      </trkpt>
      <trkpt lat="48.03173" lon="4.80025">
        <ele>223.38</ele>
        <time>2025-02-02T11:13:44.330Z</time>
      </trkpt>
      <trkpt lat="48.0318" lon="4.80023">
        <ele>222.09</ele>
        <time>2025-02-02T11:13:47.386Z</time>
      </trkpt>
      <trkpt lat="48.03184" lon="4.80023">
        <ele>221.94</ele>
        <time>2025-02-02T11:13:50.443Z</time>
      </trkpt>
      <trkpt lat="48.03188" lon="4.80019">
        <ele>221.8</ele>
        <time>2025-02-02T11:13:53.501Z</time>
      </trkpt>
      <trkpt lat="48.03193" lon="4.80017">
        <ele>222.93</ele>
        <time>2025-02-02T11:13:56.559Z</time>
      </trkpt>
      <trkpt lat="48.0319" lon="4.79995">
        <ele>222.76</ele>
        <time>2025-02-02T11:13:59.620Z</time>
      </trkpt>
      <trkpt lat="48.03195" lon="4.79952">
        <ele>222.56</ele>
        <time>2025-02-02T11:14:02.685Z</time>
      </trkpt>
      <trkpt lat="48.03201" lon="4.79909">
        <ele>222.39</ele>
        <time>2025-02-02T11:14:05.755Z</time>
      </trkpt>
      <trkpt lat="48.03205" lon="4.79867">
        <ele>222.21</ele>
        <time>2025-02-02T11:14:08.830Z</time>
      </trkpt>
      <trkpt lat="48.03204" lon="4.79832">
        <ele>222.03</ele>
        <time>2025-02-02T11:14:11.908Z</time>
      </trkpt>
      <trkpt lat="48.03203" lon="4.79798">
        <ele>221.84</ele>
        <time>2025-02-02T11:14:14.990Z</time>
      </trkpt>
      <trkpt lat="48.032" lon="4.79766">
        <ele>221.64</ele>
        <time>2025-02-02T11:14:18.076Z</time>
      </trkpt>
      <trkpt lat="48.03198" lon="4.79733">
        <ele>221.46</ele>
        <time>2025-02-02T11:14:21.165Z</time>
      </trkpt>
      <trkpt lat="48.03195" lon="4.79701">
        <ele>221.27</ele>
        <time>2025-02-02T11:14:24.258Z</time>
      </trkpt>
      <trkpt lat="48.03185" lon="4.7968">
        <ele>221.11</ele>
        <time>2025-02-02T11:14:27.353Z</time>
      </trkpt>
      <trkpt lat="48.03175" lon="4.79658">
        <ele>220.95</ele>
        <time>2025-02-02T11:14:30.451Z</time>
      </trkpt>
      <trkpt lat="48.03167" lon="4.79616">
        <ele>220.77</ele>
        <time>2025-02-02T11:14:33.554Z</time>
      </trkpt>
      <trkpt lat="48.03158" lon="4.79575">
        <ele>220.52</ele>
        <time>2025-02-02T11:14:36.661Z</time>
      </trkpt>
      <trkpt lat="48.03152" lon="4.7953">
        <ele>220.24</ele>
        <time>2025-02-02T11:14:39.773Z</time>
      </trkpt>
      <trkpt lat="48.03145" lon="4.79485">
        <ele>219.99</ele>
        <time>2025-02-02T11:14:42.890Z</time>
      </trkpt>
      <trkpt lat="48.03143" lon="4.79453">
        <ele>219.74</ele>
        <time>2025-02-02T11:14:46.011Z</time>
      </trkpt>
      <trkpt lat="48.03141" lon="4.79421">
        <ele>219.52</ele>
        <time>2025-02-02T11:14:49.135Z</time>
      </trkpt>
      <trkpt lat="48.03139" lon="4.7939">
        <ele>219.32</ele>
        <time>2025-02-02T11:14:52.263Z</time>
      </trkpt>
      <trkpt lat="48.03145" lon="4.79371">
        <ele>219.12</ele>
        <time>2025-02-02T11:14:55.393Z</time>
      </trkpt>
      <trkpt lat="48.03158" lon="4.79356">
        <ele>218.95</ele>
        <time>2025-02-02T11:14:58.526Z</time>
      </trkpt>
      <trkpt lat="48.03171" lon="4.79341">
        <ele>218.73</ele>
        <time>2025-02-02T11:15:01.661Z</time>
      </trkpt>
      <trkpt lat="48.03193" lon="4.79311">
        <ele>218.45</ele>
        <time>2025-02-02T11:15:04.801Z</time>
      </trkpt>
      <trkpt lat="48.03213" lon="4.79277">
        <ele>218.18</ele>
        <time>2025-02-02T11:15:07.946Z</time>
      </trkpt>
      <trkpt lat="48.03234" lon="4.79244">
        <ele>217.96</ele>
        <time>2025-02-02T11:15:11.096Z</time>
      </trkpt>
      <trkpt lat="48.03254" lon="4.7921">
        <ele>217.71</ele>
        <time>2025-02-02T11:15:14.250Z</time>
      </trkpt>
      <trkpt lat="48.03275" lon="4.79177">
        <ele>217.48</ele>
        <time>2025-02-02T11:15:17.409Z</time>
      </trkpt>
      <trkpt lat="48.03296" lon="4.79143">
        <ele>217.27</ele>
        <time>2025-02-02T11:15:20.573Z</time>
      </trkpt>
      <trkpt lat="48.03315" lon="4.79115">
        <ele>217.04</ele>
        <time>2025-02-02T11:15:23.742Z</time>
      </trkpt>
      <trkpt lat="48.03329" lon="4.791">
        <ele>216.81</ele>
        <time>2025-02-02T11:15:26.913Z</time>
      </trkpt>
      <trkpt lat="48.03343" lon="4.79085">
        <ele>216.59</ele>
        <time>2025-02-02T11:15:30.087Z</time>
      </trkpt>
      <trkpt lat="48.03366" lon="4.79068">
        <ele>216.4</ele>
        <time>2025-02-02T11:15:33.265Z</time>
      </trkpt>
      <trkpt lat="48.0339" lon="4.7905">
        <ele>216.2</ele>
        <time>2025-02-02T11:15:36.448Z</time>
      </trkpt>
      <trkpt lat="48.03414" lon="4.79032">
        <ele>215.97</ele>
        <time>2025-02-02T11:15:39.635Z</time>
      </trkpt>
      <trkpt lat="48.03437" lon="4.79015">
        <ele>215.69</ele>
        <time>2025-02-02T11:15:42.826Z</time>
      </trkpt>
      <trkpt lat="48.0345" lon="4.79">
        <ele>215.45</ele>
        <time>2025-02-02T11:15:46.020Z</time>
      </trkpt>
      <trkpt lat="48.03463" lon="4.78985">
        <ele>215.19</ele>
        <time>2025-02-02T11:15:49.216Z</time>
      </trkpt>
      <trkpt lat="48.03476" lon="4.78957">
        <ele>214.89</ele>
        <time>2025-02-02T11:15:52.416Z</time>
      </trkpt>
      <trkpt lat="48.03489" lon="4.78929">
        <ele>214.59</ele>
        <time>2025-02-02T11:15:55.619Z</time>
      </trkpt>
      <trkpt lat="48.03501" lon="4.78898">
        <ele>214.22</ele>
        <time>2025-02-02T11:15:58.826Z</time>
      </trkpt>
      <trkpt lat="48.03512" lon="4.78867">
        <ele>213.84</ele>
        <time>2025-02-02T11:16:02.037Z</time>
      </trkpt>
      <trkpt lat="48.03521" lon="4.78854">
        <ele>213.49</ele>
        <time>2025-02-02T11:16:05.250Z</time>
      </trkpt>
      <trkpt lat="48.0353" lon="4.78845">
        <ele>213.13</ele>
        <time>2025-02-02T11:16:08.465Z</time>
      </trkpt>
      <trkpt lat="48.03554" lon="4.7883">
        <ele>212.81</ele>
        <time>2025-02-02T11:16:11.684Z</time>
      </trkpt>
      <trkpt lat="48.03578" lon="4.78815">
        <ele>212.45</ele>
        <time>2025-02-02T11:16:14.907Z</time>
      </trkpt>
      <trkpt lat="48.03602" lon="4.788">
        <ele>212.1</ele>
        <time>2025-02-02T11:16:18.134Z</time>
      </trkpt>
      <trkpt lat="48.03615" lon="4.78781">
        <ele>211.75</ele>
        <time>2025-02-02T11:16:21.364Z</time>
      </trkpt>
      <trkpt lat="48.03628" lon="4.78749">
        <ele>211.33</ele>
        <time>2025-02-02T11:16:24.598Z</time>
      </trkpt>
      <trkpt lat="48.03637" lon="4.78708">
        <ele>210.99</ele>
        <time>2025-02-02T11:16:27.837Z</time>
      </trkpt>
      <trkpt lat="48.03651" lon="4.78679">
        <ele>210.76</ele>
        <time>2025-02-02T11:16:31.080Z</time>
      </trkpt>
      <trkpt lat="48.03665" lon="4.7865">
        <ele>210.53</ele>
        <time>2025-02-02T11:16:34.327Z</time>
      </trkpt>
      <trkpt lat="48.03677" lon="4.7861">
        <ele>210.25</ele>
        <time>2025-02-02T11:16:37.578Z</time>
      </trkpt>
      <trkpt lat="48.03689" lon="4.78571">
        <ele>209.95</ele>
        <time>2025-02-02T11:16:40.834Z</time>
      </trkpt>
      <trkpt lat="48.03702" lon="4.78531">
        <ele>209.71</ele>
        <time>2025-02-02T11:16:44.095Z</time>
      </trkpt>
      <trkpt lat="48.03714" lon="4.78492">
        <ele>209.55</ele>
        <time>2025-02-02T11:16:47.360Z</time>
      </trkpt>
      <trkpt lat="48.03727" lon="4.78452">
        <ele>209.42</ele>
        <time>2025-02-02T11:16:50.630Z</time>
      </trkpt>
      <trkpt lat="48.03739" lon="4.78413">
        <ele>209.25</ele>
        <time>2025-02-02T11:16:53.905Z</time>
      </trkpt>
      <trkpt lat="48.03751" lon="4.78373">
        <ele>209.09</ele>
        <time>2025-02-02T11:16:57.184Z</time>
      </trkpt>
      <trkpt lat="48.03763" lon="4.78334">
        <ele>209.05</ele>
        <time>2025-02-02T11:17:00.468Z</time>
      </trkpt>
      <trkpt lat="48.03772" lon="4.78311">
        <ele>209.02</ele>
        <time>2025-02-02T11:17:03.755Z</time>
      </trkpt>
      <trkpt lat="48.03781" lon="4.78287">
        <ele>208.93</ele>
        <time>2025-02-02T11:17:07.045Z</time>
      </trkpt>
      <trkpt lat="48.03781" lon="4.78287">
        <ele>208.84</ele>
        <time>2025-02-02T11:17:10.335Z</time>
      </trkpt>
      <trkpt lat="48.03792" lon="4.78246">
        <ele>208.81</ele>
        <time>2025-02-02T11:17:13.630Z</time>
      </trkpt>
      <trkpt lat="48.03804" lon="4.78205">
        <ele>208.73</ele>
        <time>2025-02-02T11:17:16.929Z</time>
      </trkpt>
      <trkpt lat="48.03816" lon="4.78165">
        <ele>208.6</ele>
        <time>2025-02-02T11:17:20.233Z</time>
      </trkpt>
      <trkpt lat="48.03828" lon="4.78124">
        <ele>208.54</ele>
        <time>2025-02-02T11:17:23.542Z</time>
      </trkpt>
      <trkpt lat="48.03859" lon="4.78121">
        <ele>208.42</ele>
        <time>2025-02-02T11:17:26.856Z</time>
      </trkpt>
      <trkpt lat="48.0389" lon="4.78117">
        <ele>208.41</ele>
        <time>2025-02-02T11:17:30.175Z</time>
      </trkpt>
      <trkpt lat="48.03922" lon="4.78114">
        <ele>208.38</ele>
        <time>2025-02-02T11:17:33.499Z</time>
      </trkpt>
      <trkpt lat="48.03953" lon="4.7811">
        <ele>208.35</ele>
        <time>2025-02-02T11:17:36.828Z</time>
      </trkpt>
      <trkpt lat="48.03984" lon="4.78107">
        <ele>208.29</ele>
        <time>2025-02-02T11:17:40.162Z</time>
      </trkpt>
      <trkpt lat="48.04013" lon="4.78104">
        <ele>208.24</ele>
        <time>2025-02-02T11:17:43.501Z</time>
      </trkpt>
      <trkpt lat="48.04042" lon="4.78101">
        <ele>208.26</ele>
        <time>2025-02-02T11:17:46.844Z</time>
      </trkpt>
      <trkpt lat="48.0407" lon="4.78098">
        <ele>208.31</ele>
        <time>2025-02-02T11:17:50.192Z</time>
      </trkpt>
      <trkpt lat="48.04099" lon="4.78096">
        <ele>208.3</ele>
        <time>2025-02-02T11:17:53.544Z</time>
      </trkpt>
      <trkpt lat="48.04127" lon="4.78093">
        <ele>208.23</ele>
        <time>2025-02-02T11:17:56.901Z</time>
      </trkpt>
      <trkpt lat="48.04156" lon="4.7809">
        <ele>208.28</ele>
        <time>2025-02-02T11:18:00.263Z</time>
      </trkpt>
      <trkpt lat="48.04187" lon="4.78087">
        <ele>208.31</ele>
        <time>2025-02-02T11:18:03.629Z</time>
      </trkpt>
      <trkpt lat="48.04218" lon="4.78084">
        <ele>208.3</ele>
        <time>2025-02-02T11:18:07.000Z</time>
      </trkpt>
      <trkpt lat="48.04249" lon="4.78081">
        <ele>208.41</ele>
        <time>2025-02-02T11:18:10.376Z</time>
      </trkpt>
      <trkpt lat="48.04279" lon="4.78078">
        <ele>208.57</ele>
        <time>2025-02-02T11:18:13.757Z</time>
      </trkpt>
      <trkpt lat="48.0431" lon="4.78075">
        <ele>208.77</ele>
        <time>2025-02-02T11:18:17.143Z</time>
      </trkpt>
      <trkpt lat="48.04341" lon="4.78072">
        <ele>208.95</ele>
        <time>2025-02-02T11:18:20.534Z</time>
      </trkpt>
      <trkpt lat="48.04372" lon="4.78068">
        <ele>209.12</ele>
        <time>2025-02-02T11:18:23.930Z</time>
      </trkpt>
      <trkpt lat="48.04403" lon="4.78065">
        <ele>209.36</ele>
        <time>2025-02-02T11:18:27.331Z</time>
      </trkpt>
      <trkpt lat="48.04433" lon="4.78062">
        <ele>209.57</ele>
        <time>2025-02-02T11:18:30.737Z</time>
      </trkpt>
      <trkpt lat="48.04464" lon="4.78059">
        <ele>209.78</ele>
        <time>2025-02-02T11:18:34.148Z</time>
      </trkpt>
      <trkpt lat="48.04495" lon="4.78056">
        <ele>210</ele>
        <time>2025-02-02T11:18:37.564Z</time>
      </trkpt>
      <trkpt lat="48.04526" lon="4.78053">
        <ele>210.2</ele>
        <time>2025-02-02T11:18:40.985Z</time>
      </trkpt>
      <trkpt lat="48.04557" lon="4.7805">
        <ele>210.41</ele>
        <time>2025-02-02T11:18:44.411Z</time>
      </trkpt>
      <trkpt lat="48.04588" lon="4.78047">
        <ele>210.59</ele>
        <time>2025-02-02T11:18:47.842Z</time>
      </trkpt>
      <trkpt lat="48.04618" lon="4.78044">
        <ele>210.81</ele>
        <time>2025-02-02T11:18:51.278Z</time>
      </trkpt>
      <trkpt lat="48.04649" lon="4.78041">
        <ele>211.07</ele>
        <time>2025-02-02T11:18:54.719Z</time>
      </trkpt>
      <trkpt lat="48.0468" lon="4.78038">
        <ele>211.33</ele>
        <time>2025-02-02T11:18:58.165Z</time>
      </trkpt>
      <trkpt lat="48.04711" lon="4.78035">
        <ele>211.63</ele>
        <time>2025-02-02T11:19:01.616Z</time>
      </trkpt>
      <trkpt lat="48.04742" lon="4.78032">
        <ele>211.91</ele>
        <time>2025-02-02T11:19:05.072Z</time>
      </trkpt>
      <trkpt lat="48.04768" lon="4.78029">
        <ele>212.09</ele>
        <time>2025-02-02T11:19:08.532Z</time>
      </trkpt>
      <trkpt lat="48.04794" lon="4.78026">
        <ele>212.22</ele>
        <time>2025-02-02T11:19:11.996Z</time>
      </trkpt>
      <trkpt lat="48.0482" lon="4.78023">
        <ele>212.24</ele>
        <time>2025-02-02T11:19:15.464Z</time>
      </trkpt>
      <trkpt lat="48.04847" lon="4.7802">
        <ele>212.19</ele>
        <time>2025-02-02T11:19:18.936Z</time>
      </trkpt>
      <trkpt lat="48.04873" lon="4.78017">
        <ele>212.12</ele>
        <time>2025-02-02T11:19:22.413Z</time>
      </trkpt>
      <trkpt lat="48.04873" lon="4.78017">
        <ele>212.05</ele>
        <time>2025-02-02T11:19:25.890Z</time>
      </trkpt>
      <trkpt lat="48.04904" lon="4.78013">
        <ele>211.89</ele>
        <time>2025-02-02T11:19:29.372Z</time>
      </trkpt>
      <trkpt lat="48.04935" lon="4.78008">
        <ele>211.68</ele>
        <time>2025-02-02T11:19:32.859Z</time>
      </trkpt>
      <trkpt lat="48.04966" lon="4.78005">
        <ele>211.54</ele>
        <time>2025-02-02T11:19:36.350Z</time>
      </trkpt>
      <trkpt lat="48.04996" lon="4.78002">
        <ele>211.38</ele>
        <time>2025-02-02T11:19:39.846Z</time>
      </trkpt>
      <trkpt lat="48.05027" lon="4.77999">
        <ele>211.09</ele>
        <time>2025-02-02T11:19:43.347Z</time>
      </trkpt>
      <trkpt lat="48.05057" lon="4.77996">
        <ele>210.78</ele>
        <time>2025-02-02T11:19:46.853Z</time>
      </trkpt>
      <trkpt lat="48.05088" lon="4.77992">
        <ele>210.47</ele>
        <time>2025-02-02T11:19:50.364Z</time>
      </trkpt>
      <trkpt lat="48.05119" lon="4.77989">
        <ele>210.2</ele>
        <time>2025-02-02T11:19:53.880Z</time>
      </trkpt>
      <trkpt lat="48.05149" lon="4.77986">
        <ele>209.92</ele>
        <time>2025-02-02T11:19:57.401Z</time>
      </trkpt>
      <trkpt lat="48.0518" lon="4.77983">
        <ele>209.65</ele>
        <time>2025-02-02T11:20:00.927Z</time>
      </trkpt>
      <trkpt lat="48.05211" lon="4.7798">
        <ele>209.3</ele>
        <time>2025-02-02T11:20:04.458Z</time>
      </trkpt>
      <trkpt lat="48.05241" lon="4.77977">
        <ele>209.01</ele>
        <time>2025-02-02T11:20:07.994Z</time>
      </trkpt>
      <trkpt lat="48.05272" lon="4.77974">
        <ele>208.77</ele>
        <time>2025-02-02T11:20:11.535Z</time>
      </trkpt>
      <trkpt lat="48.05303" lon="4.7797">
        <ele>208.42</ele>
        <time>2025-02-02T11:20:15.081Z</time>
      </trkpt>
      <trkpt lat="48.05333" lon="4.77967">
        <ele>208.04</ele>
        <time>2025-02-02T11:20:18.631Z</time>
      </trkpt>
      <trkpt lat="48.05364" lon="4.77964">
        <ele>207.7</ele>
        <time>2025-02-02T11:20:22.186Z</time>
      </trkpt>
      <trkpt lat="48.05394" lon="4.77961">
        <ele>207.43</ele>
        <time>2025-02-02T11:20:25.746Z</time>
      </trkpt>
      <trkpt lat="48.05425" lon="4.77958">
        <ele>207.15</ele>
        <time>2025-02-02T11:20:29.311Z</time>
      </trkpt>
      <trkpt lat="48.05456" lon="4.77955">
        <ele>206.89</ele>
        <time>2025-02-02T11:20:32.881Z</time>
      </trkpt>
      <trkpt lat="48.05486" lon="4.77951">
        <ele>206.65</ele>
        <time>2025-02-02T11:20:36.456Z</time>
      </trkpt>
      <trkpt lat="48.05517" lon="4.77948">
        <ele>206.42</ele>
        <time>2025-02-02T11:20:40.036Z</time>
      </trkpt>
      <trkpt lat="48.05548" lon="4.77945">
        <ele>206.18</ele>
        <time>2025-02-02T11:20:43.621Z</time>
      </trkpt>
      <trkpt lat="48.05578" lon="4.77942">
        <ele>206.04</ele>
        <time>2025-02-02T11:20:47.211Z</time>
      </trkpt>
      <trkpt lat="48.05609" lon="4.77939">
        <ele>205.88</ele>
        <time>2025-02-02T11:20:50.806Z</time>
      </trkpt>
      <trkpt lat="48.05639" lon="4.77936">
        <ele>205.7</ele>
        <time>2025-02-02T11:20:54.406Z</time>
      </trkpt>
      <trkpt lat="48.0567" lon="4.77932">
        <ele>205.46</ele>
        <time>2025-02-02T11:20:58.011Z</time>
      </trkpt>
      <trkpt lat="48.05701" lon="4.77929">
        <ele>205.33</ele>
        <time>2025-02-02T11:21:01.620Z</time>
      </trkpt>
      <trkpt lat="48.05731" lon="4.77926">
        <ele>205.27</ele>
        <time>2025-02-02T11:21:05.234Z</time>
      </trkpt>
      <trkpt lat="48.05762" lon="4.77923">
        <ele>205.24</ele>
        <time>2025-02-02T11:21:08.853Z</time>
      </trkpt>
      <trkpt lat="48.05793" lon="4.7792">
        <ele>205.13</ele>
        <time>2025-02-02T11:21:12.477Z</time>
      </trkpt>
      <trkpt lat="48.05823" lon="4.77917">
        <ele>205.07</ele>
        <time>2025-02-02T11:21:16.106Z</time>
      </trkpt>
      <trkpt lat="48.05854" lon="4.77914">
        <ele>205.02</ele>
        <time>2025-02-02T11:21:19.740Z</time>
      </trkpt>
      <trkpt lat="48.05884" lon="4.7791">
        <ele>204.99</ele>
        <time>2025-02-02T11:21:23.379Z</time>
      </trkpt>
      <trkpt lat="48.05915" lon="4.77907">
        <ele>204.99</ele>
        <time>2025-02-02T11:21:27.023Z</time>
      </trkpt>
      <trkpt lat="48.05946" lon="4.77904">
        <ele>205.04</ele>
        <time>2025-02-02T11:21:30.672Z</time>
      </trkpt>
      <trkpt lat="48.05976" lon="4.77901">
        <ele>205.09</ele>
        <time>2025-02-02T11:21:34.326Z</time>
      </trkpt>
      <trkpt lat="48.06007" lon="4.77898">
        <ele>205.05</ele>
        <time>2025-02-02T11:21:37.985Z</time>
      </trkpt>
      <trkpt lat="48.06038" lon="4.77895">
        <ele>205.07</ele>
        <time>2025-02-02T11:21:41.649Z</time>
      </trkpt>
      <trkpt lat="48.06038" lon="4.77895">
        <ele>205.06</ele>
        <time>2025-02-02T11:21:45.313Z</time>
      </trkpt>
      <trkpt lat="48.06068" lon="4.77891">
        <ele>205.02</ele>
        <time>2025-02-02T11:21:48.981Z</time>
      </trkpt>
      <trkpt lat="48.06098" lon="4.77888">
        <ele>204.9</ele>
        <time>2025-02-02T11:21:52.654Z</time>
      </trkpt>
      <trkpt lat="48.06129" lon="4.77885">
        <ele>204.87</ele>
        <time>2025-02-02T11:21:56.332Z</time>
      </trkpt>
      <trkpt lat="48.06159" lon="4.77882">
        <ele>204.89</ele>
        <time>2025-02-02T11:22:00.015Z</time>
      </trkpt>
      <trkpt lat="48.06189" lon="4.77879">
        <ele>204.89</ele>
        <time>2025-02-02T11:22:03.703Z</time>
      </trkpt>
      <trkpt lat="48.0622" lon="4.77875">
        <ele>204.9</ele>
        <time>2025-02-02T11:22:07.396Z</time>
      </trkpt>
      <trkpt lat="48.0625" lon="4.77872">
        <ele>204.95</ele>
        <time>2025-02-02T11:22:11.094Z</time>
      </trkpt>
      <trkpt lat="48.0628" lon="4.77869">
        <ele>204.94</ele>
        <time>2025-02-02T11:22:14.796Z</time>
      </trkpt>
      <trkpt lat="48.0631" lon="4.77866">
        <ele>204.89</ele>
        <time>2025-02-02T11:22:18.503Z</time>
      </trkpt>
      <trkpt lat="48.06341" lon="4.77863">
        <ele>204.93</ele>
        <time>2025-02-02T11:22:22.215Z</time>
      </trkpt>
      <trkpt lat="48.06371" lon="4.7786">
        <ele>205.01</ele>
        <time>2025-02-02T11:22:25.932Z</time>
      </trkpt>
      <trkpt lat="48.06401" lon="4.77856">
        <ele>205.09</ele>
        <time>2025-02-02T11:22:29.654Z</time>
      </trkpt>
      <trkpt lat="48.06431" lon="4.77853">
        <ele>205.12</ele>
        <time>2025-02-02T11:22:33.381Z</time>
      </trkpt>
      <trkpt lat="48.06462" lon="4.7785">
        <ele>205.11</ele>
        <time>2025-02-02T11:22:37.113Z</time>
      </trkpt>
      <trkpt lat="48.06492" lon="4.77847">
        <ele>205.09</ele>
        <time>2025-02-02T11:22:40.849Z</time>
      </trkpt>
      <trkpt lat="48.06522" lon="4.77844">
        <ele>205.09</ele>
        <time>2025-02-02T11:22:44.590Z</time>
      </trkpt>
      <trkpt lat="48.06552" lon="4.77841">
        <ele>205.14</ele>
        <time>2025-02-02T11:22:48.336Z</time>
      </trkpt>
      <trkpt lat="48.06583" lon="4.77837">
        <ele>205.25</ele>
        <time>2025-02-02T11:22:52.087Z</time>
      </trkpt>
      <trkpt lat="48.06613" lon="4.77834">
        <ele>205.42</ele>
        <time>2025-02-02T11:22:55.843Z</time>
      </trkpt>
      <trkpt lat="48.06643" lon="4.77831">
        <ele>205.58</ele>
        <time>2025-02-02T11:22:59.604Z</time>
      </trkpt>
      <trkpt lat="48.06674" lon="4.77828">
        <ele>205.66</ele>
        <time>2025-02-02T11:23:03.370Z</time>
      </trkpt>
      <trkpt lat="48.06704" lon="4.77825">
        <ele>205.65</ele>
        <time>2025-02-02T11:23:07.140Z</time>
      </trkpt>
      <trkpt lat="48.06734" lon="4.77821">
        <ele>205.63</ele>
        <time>2025-02-02T11:23:10.915Z</time>
      </trkpt>
      <trkpt lat="48.06764" lon="4.77818">
        <ele>205.72</ele>
        <time>2025-02-02T11:23:14.695Z</time>
      </trkpt>
      <trkpt lat="48.06795" lon="4.77815">
        <ele>205.96</ele>
        <time>2025-02-02T11:23:18.480Z</time>
      </trkpt>
      <trkpt lat="48.06825" lon="4.77812">
        <ele>206.16</ele>
        <time>2025-02-02T11:23:22.270Z</time>
      </trkpt>
      <trkpt lat="48.06855" lon="4.77809">
        <ele>206.3</ele>
        <time>2025-02-02T11:23:26.065Z</time>
      </trkpt>
      <trkpt lat="48.06879" lon="4.77809">
        <ele>206.45</ele>
        <time>2025-02-02T11:23:29.864Z</time>
      </trkpt>
      <trkpt lat="48.06903" lon="4.7781">
        <ele>206.71</ele>
        <time>2025-02-02T11:23:33.666Z</time>
      </trkpt>
      <trkpt lat="48.06926" lon="4.77811">
        <ele>206.99</ele>
        <time>2025-02-02T11:23:37.472Z</time>
      </trkpt>
      <trkpt lat="48.06957" lon="4.77816">
        <ele>207.21</ele>
        <time>2025-02-02T11:23:41.283Z</time>
      </trkpt>
      <trkpt lat="48.06988" lon="4.77821">
        <ele>207.37</ele>
        <time>2025-02-02T11:23:45.099Z</time>
      </trkpt>
      <trkpt lat="48.07019" lon="4.77827">
        <ele>207.57</ele>
        <time>2025-02-02T11:23:48.920Z</time>
      </trkpt>
      <trkpt lat="48.07049" lon="4.77832">
        <ele>207.84</ele>
        <time>2025-02-02T11:23:52.746Z</time>
      </trkpt>
      <trkpt lat="48.0708" lon="4.77837">
        <ele>208.1</ele>
        <time>2025-02-02T11:23:56.577Z</time>
      </trkpt>
      <trkpt lat="48.07111" lon="4.77842">
        <ele>208.33</ele>
        <time>2025-02-02T11:24:00.413Z</time>
      </trkpt>
      <trkpt lat="48.07142" lon="4.77848">
        <ele>208.46</ele>
        <time>2025-02-02T11:24:04.254Z</time>
      </trkpt>
      <trkpt lat="48.07173" lon="4.77853">
        <ele>208.61</ele>
        <time>2025-02-02T11:24:08.100Z</time>
      </trkpt>
      <trkpt lat="48.07204" lon="4.77858">
        <ele>208.8</ele>
        <time>2025-02-02T11:24:11.951Z</time>
      </trkpt>
      <trkpt lat="48.07234" lon="4.77864">
        <ele>209.05</ele>
        <time>2025-02-02T11:24:15.807Z</time>
      </trkpt>
      <trkpt lat="48.07265" lon="4.77869">
        <ele>209.32</ele>
        <time>2025-02-02T11:24:19.668Z</time>
      </trkpt>
      <trkpt lat="48.07269" lon="4.77843">
        <ele>209.57</ele>
        <time>2025-02-02T11:24:23.532Z</time>
      </trkpt>
      <trkpt lat="48.07272" lon="4.77817">
        <ele>209.82</ele>
        <time>2025-02-02T11:24:27.398Z</time>
      </trkpt>
      <trkpt lat="48.07278" lon="4.77772">
        <ele>210.07</ele>
        <time>2025-02-02T11:24:31.269Z</time>
      </trkpt>
      <trkpt lat="48.07285" lon="4.77727">
        <ele>210.33</ele>
        <time>2025-02-02T11:24:35.145Z</time>
      </trkpt>
      <trkpt lat="48.07291" lon="4.77682">
        <ele>210.64</ele>
        <time>2025-02-02T11:24:39.026Z</time>
      </trkpt>
      <trkpt lat="48.07297" lon="4.77641">
        <ele>210.94</ele>
        <time>2025-02-02T11:24:42.912Z</time>
      </trkpt>
      <trkpt lat="48.07303" lon="4.77599">
        <ele>211.32</ele>
        <time>2025-02-02T11:24:46.802Z</time>
      </trkpt>
      <trkpt lat="48.07309" lon="4.77558">
        <ele>211.7</ele>
        <time>2025-02-02T11:24:50.697Z</time>
      </trkpt>
      <trkpt lat="48.07314" lon="4.77516">
        <ele>212.04</ele>
        <time>2025-02-02T11:24:54.596Z</time>
      </trkpt>
      <trkpt lat="48.0732" lon="4.77475">
        <ele>212.47</ele>
        <time>2025-02-02T11:24:58.500Z</time>
      </trkpt>
      <trkpt lat="48.07326" lon="4.77433">
        <ele>212.87</ele>
        <time>2025-02-02T11:25:02.409Z</time>
      </trkpt>
      <trkpt lat="48.07332" lon="4.77392">
        <ele>213.21</ele>
        <time>2025-02-02T11:25:06.322Z</time>
      </trkpt>
      <trkpt lat="48.07335" lon="4.77347">
        <ele>213.66</ele>
        <time>2025-02-02T11:25:10.240Z</time>
      </trkpt>
      <trkpt lat="48.07338" lon="4.77302">
        <ele>213.92</ele>
        <time>2025-02-02T11:25:14.163Z</time>
      </trkpt>
      <trkpt lat="48.0734" lon="4.77256">
        <ele>214.13</ele>
        <time>2025-02-02T11:25:18.091Z</time>
      </trkpt>
      <trkpt lat="48.07341" lon="4.7721">
        <ele>214.44</ele>
        <time>2025-02-02T11:25:22.024Z</time>
      </trkpt>
      <trkpt lat="48.07343" lon="4.77164">
        <ele>214.7</ele>
        <time>2025-02-02T11:25:25.962Z</time>
      </trkpt>
      <trkpt lat="48.07345" lon="4.77118">
        <ele>214.92</ele>
        <time>2025-02-02T11:25:29.905Z</time>
      </trkpt>
      <trkpt lat="48.07347" lon="4.77079">
        <ele>215.19</ele>
        <time>2025-02-02T11:25:33.852Z</time>
      </trkpt>
      <trkpt lat="48.07345" lon="4.77033">
        <ele>215.42</ele>
        <time>2025-02-02T11:25:37.804Z</time>
      </trkpt>
      <trkpt lat="48.07343" lon="4.76988">
        <ele>215.56</ele>
        <time>2025-02-02T11:25:41.761Z</time>
      </trkpt>
      <trkpt lat="48.0734" lon="4.76942">
        <ele>215.66</ele>
        <time>2025-02-02T11:25:45.722Z</time>
      </trkpt>
      <trkpt lat="48.07338" lon="4.76896">
        <ele>215.77</ele>
        <time>2025-02-02T11:25:49.688Z</time>
      </trkpt>
      <trkpt lat="48.07336" lon="4.76851">
        <ele>215.89</ele>
        <time>2025-02-02T11:25:53.659Z</time>
      </trkpt>
      <trkpt lat="48.07334" lon="4.76805">
        <ele>216.05</ele>
        <time>2025-02-02T11:25:57.635Z</time>
      </trkpt>
      <trkpt lat="48.07332" lon="4.76759">
        <ele>216.22</ele>
        <time>2025-02-02T11:26:01.616Z</time>
      </trkpt>
      <trkpt lat="48.0733" lon="4.76714">
        <ele>216.31</ele>
        <time>2025-02-02T11:26:05.602Z</time>
      </trkpt>
      <trkpt lat="48.07328" lon="4.76693">
        <ele>216.41</ele>
        <time>2025-02-02T11:26:09.590Z</time>
      </trkpt>
      <trkpt lat="48.07315" lon="4.76654">
        <ele>216.49</ele>
        <time>2025-02-02T11:26:13.583Z</time>
      </trkpt>
      <trkpt lat="48.07303" lon="4.76613">
        <ele>216.64</ele>
        <time>2025-02-02T11:26:17.581Z</time>
      </trkpt>
      <trkpt lat="48.07292" lon="4.76571">
        <ele>216.89</ele>
        <time>2025-02-02T11:26:21.584Z</time>
      </trkpt>
      <trkpt lat="48.0728" lon="4.7653">
        <ele>217.09</ele>
        <time>2025-02-02T11:26:25.591Z</time>
      </trkpt>
      <trkpt lat="48.07278" lon="4.76521">
        <ele>217.29</ele>
        <time>2025-02-02T11:26:29.599Z</time>
      </trkpt>
      <trkpt lat="48.07276" lon="4.76513">
        <ele>217.51</ele>
        <time>2025-02-02T11:26:33.608Z</time>
      </trkpt>
      <trkpt lat="48.07264" lon="4.7647">
        <ele>217.74</ele>
        <time>2025-02-02T11:26:37.622Z</time>
      </trkpt>
      <trkpt lat="48.07252" lon="4.76427">
        <ele>218.05</ele>
        <time>2025-02-02T11:26:41.641Z</time>
      </trkpt>
      <trkpt lat="48.0724" lon="4.76384">
        <ele>218.4</ele>
        <time>2025-02-02T11:26:45.665Z</time>
      </trkpt>
      <trkpt lat="48.07228" lon="4.76341">
        <ele>218.73</ele>
        <time>2025-02-02T11:26:49.694Z</time>
      </trkpt>
      <trkpt lat="48.07216" lon="4.76299">
        <ele>219.05</ele>
        <time>2025-02-02T11:26:53.728Z</time>
      </trkpt>
      <trkpt lat="48.07204" lon="4.76256">
        <ele>219.45</ele>
        <time>2025-02-02T11:26:57.767Z</time>
      </trkpt>
      <trkpt lat="48.07192" lon="4.76214">
        <ele>219.82</ele>
        <time>2025-02-02T11:27:01.811Z</time>
      </trkpt>
      <trkpt lat="48.0718" lon="4.76171">
        <ele>220.16</ele>
        <time>2025-02-02T11:27:05.860Z</time>
      </trkpt>
      <trkpt lat="48.07168" lon="4.76129">
        <ele>220.59</ele>
        <time>2025-02-02T11:27:09.914Z</time>
      </trkpt>
      <trkpt lat="48.07156" lon="4.76086">
        <ele>221.02</ele>
        <time>2025-02-02T11:27:13.973Z</time>
      </trkpt>
      <trkpt lat="48.07144" lon="4.76044">
        <ele>221.41</ele>
        <time>2025-02-02T11:27:18.037Z</time>
      </trkpt>
      <trkpt lat="48.07132" lon="4.76001">
        <ele>221.88</ele>
        <time>2025-02-02T11:27:22.106Z</time>
      </trkpt>
      <trkpt lat="48.0712" lon="4.75959">
        <ele>222.35</ele>
        <time>2025-02-02T11:27:26.180Z</time>
      </trkpt>
      <trkpt lat="48.07109" lon="4.75916">
        <ele>222.83</ele>
        <time>2025-02-02T11:27:30.259Z</time>
      </trkpt>
      <trkpt lat="48.07097" lon="4.75874">
        <ele>223.27</ele>
        <time>2025-02-02T11:27:34.343Z</time>
      </trkpt>
      <trkpt lat="48.07085" lon="4.75832">
        <ele>223.75</ele>
        <time>2025-02-02T11:27:38.431Z</time>
      </trkpt>
      <trkpt lat="48.07083" lon="4.75822">
        <ele>224.2</ele>
        <time>2025-02-02T11:27:42.521Z</time>
      </trkpt>
      <trkpt lat="48.07071" lon="4.75781">
        <ele>224.64</ele>
        <time>2025-02-02T11:27:46.615Z</time>
      </trkpt>
      <trkpt lat="48.0706" lon="4.7574">
        <ele>225.13</ele>
        <time>2025-02-02T11:27:50.714Z</time>
      </trkpt>
      <trkpt lat="48.07048" lon="4.75699">
        <ele>225.63</ele>
        <time>2025-02-02T11:27:54.818Z</time>
      </trkpt>
      <trkpt lat="48.07037" lon="4.75658">
        <ele>226.12</ele>
        <time>2025-02-02T11:27:58.927Z</time>
      </trkpt>
      <trkpt lat="48.07026" lon="4.75617">
        <ele>226.54</ele>
        <time>2025-02-02T11:28:03.040Z</time>
      </trkpt>
      <trkpt lat="48.07014" lon="4.75575">
        <ele>226.94</ele>
        <time>2025-02-02T11:28:07.158Z</time>
      </trkpt>
      <trkpt lat="48.07003" lon="4.75534">
        <ele>227.34</ele>
        <time>2025-02-02T11:28:11.281Z</time>
      </trkpt>
      <trkpt lat="48.06991" lon="4.75493">
        <ele>227.79</ele>
        <time>2025-02-02T11:28:15.409Z</time>
      </trkpt>
      <trkpt lat="48.0698" lon="4.75452">
        <ele>228.26</ele>
        <time>2025-02-02T11:28:19.542Z</time>
      </trkpt>
      <trkpt lat="48.06968" lon="4.75411">
        <ele>228.79</ele>
        <time>2025-02-02T11:28:23.679Z</time>
      </trkpt>
      <trkpt lat="48.06957" lon="4.7537">
        <ele>229.36</ele>
        <time>2025-02-02T11:28:27.821Z</time>
      </trkpt>
      <trkpt lat="48.06946" lon="4.7533">
        <ele>229.83</ele>
        <time>2025-02-02T11:28:31.968Z</time>
      </trkpt>
      <trkpt lat="48.06935" lon="4.75292">
        <ele>230.32</ele>
        <time>2025-02-02T11:28:36.119Z</time>
      </trkpt>
      <trkpt lat="48.06924" lon="4.75253">
        <ele>230.81</ele>
        <time>2025-02-02T11:28:40.275Z</time>
      </trkpt>
      <trkpt lat="48.06913" lon="4.75214">
        <ele>231.29</ele>
        <time>2025-02-02T11:28:44.435Z</time>
      </trkpt>
      <trkpt lat="48.06903" lon="4.75176">
        <ele>231.72</ele>
        <time>2025-02-02T11:28:48.600Z</time>
      </trkpt>
      <trkpt lat="48.06892" lon="4.75137">
        <ele>232.08</ele>
        <time>2025-02-02T11:28:52.769Z</time>
      </trkpt>
      <trkpt lat="48.06881" lon="4.75098">
        <ele>232.45</ele>
        <time>2025-02-02T11:28:56.943Z</time>
      </trkpt>
      <trkpt lat="48.0687" lon="4.75059">
        <ele>232.82</ele>
        <time>2025-02-02T11:29:01.121Z</time>
      </trkpt>
      <trkpt lat="48.0686" lon="4.75021">
        <ele>233.05</ele>
        <time>2025-02-02T11:29:05.304Z</time>
      </trkpt>
      <trkpt lat="48.06849" lon="4.74983">
        <ele>233.31</ele>
        <time>2025-02-02T11:29:09.491Z</time>
      </trkpt>
      <trkpt lat="48.06849" lon="4.74978">
        <ele>233.54</ele>
        <time>2025-02-02T11:29:13.679Z</time>
      </trkpt>
      <trkpt lat="48.06847" lon="4.74974">
        <ele>233.77</ele>
        <time>2025-02-02T11:29:17.867Z</time>
      </trkpt>
      <trkpt lat="48.06835" lon="4.74933">
        <ele>234</ele>
        <time>2025-02-02T11:29:22.060Z</time>
      </trkpt>
      <trkpt lat="48.06823" lon="4.74891">
        <ele>234.15</ele>
        <time>2025-02-02T11:29:26.258Z</time>
      </trkpt>
      <trkpt lat="48.06811" lon="4.7485">
        <ele>234.24</ele>
        <time>2025-02-02T11:29:30.461Z</time>
      </trkpt>
      <trkpt lat="48.068" lon="4.74809">
        <ele>234.38</ele>
        <time>2025-02-02T11:29:34.668Z</time>
      </trkpt>
      <trkpt lat="48.06793" lon="4.74787">
        <ele>234.51</ele>
        <time>2025-02-02T11:29:38.878Z</time>
      </trkpt>
      <trkpt lat="48.06787" lon="4.74766">
        <ele>234.6</ele>
        <time>2025-02-02T11:29:43.091Z</time>
      </trkpt>
      <trkpt lat="48.06778" lon="4.74737">
        <ele>234.66</ele>
        <time>2025-02-02T11:29:47.307Z</time>
      </trkpt>
      <trkpt lat="48.0677" lon="4.74708">
        <ele>234.75</ele>
        <time>2025-02-02T11:29:51.526Z</time>
      </trkpt>
      <trkpt lat="48.06765" lon="4.74667">
        <ele>234.75</ele>
        <time>2025-02-02T11:29:55.750Z</time>
      </trkpt>
      <trkpt lat="48.06765" lon="4.74625">
        <ele>234.69</ele>
        <time>2025-02-02T11:29:59.978Z</time>
      </trkpt>
      <trkpt lat="48.06765" lon="4.74625">
        <ele>234.7</ele>
        <time>2025-02-02T11:30:04.206Z</time>
      </trkpt>
      <trkpt lat="48.06765" lon="4.74625">
        <ele>234.69</ele>
        <time>2025-02-02T11:30:08.434Z</time>
      </trkpt>
      <trkpt lat="48.06765" lon="4.74667">
        <ele>234.75</ele>
        <time>2025-02-02T11:30:12.667Z</time>
      </trkpt>
      <trkpt lat="48.0677" lon="4.74708">
        <ele>234.75</ele>
        <time>2025-02-02T11:30:16.904Z</time>
      </trkpt>
      <trkpt lat="48.06778" lon="4.74737">
        <ele>234.66</ele>
        <time>2025-02-02T11:30:21.145Z</time>
      </trkpt>
      <trkpt lat="48.06787" lon="4.74766">
        <ele>234.6</ele>
        <time>2025-02-02T11:30:25.389Z</time>
      </trkpt>
      <trkpt lat="48.06793" lon="4.74788">
        <ele>234.51</ele>
        <time>2025-02-02T11:30:29.636Z</time>
      </trkpt>
      <trkpt lat="48.068" lon="4.74809">
        <ele>234.38</ele>
        <time>2025-02-02T11:30:33.885Z</time>
      </trkpt>
      <trkpt lat="48.06811" lon="4.7485">
        <ele>234.24</ele>
        <time>2025-02-02T11:30:38.139Z</time>
      </trkpt>
      <trkpt lat="48.06823" lon="4.74892">
        <ele>234.15</ele>
        <time>2025-02-02T11:30:42.398Z</time>
      </trkpt>
      <trkpt lat="48.06835" lon="4.74933">
        <ele>234</ele>
        <time>2025-02-02T11:30:46.662Z</time>
      </trkpt>
      <trkpt lat="48.06847" lon="4.74974">
        <ele>233.77</ele>
        <time>2025-02-02T11:30:50.930Z</time>
      </trkpt>
      <trkpt lat="48.06849" lon="4.74978">
        <ele>233.54</ele>
        <time>2025-02-02T11:30:55.199Z</time>
      </trkpt>
      <trkpt lat="48.06849" lon="4.74983">
        <ele>233.31</ele>
        <time>2025-02-02T11:30:59.468Z</time>
      </trkpt>
      <trkpt lat="48.0686" lon="4.75021">
        <ele>233.05</ele>
        <time>2025-02-02T11:31:03.742Z</time>
      </trkpt>
      <trkpt lat="48.06871" lon="4.7506">
        <ele>232.81</ele>
        <time>2025-02-02T11:31:08.020Z</time>
      </trkpt>
      <trkpt lat="48.06881" lon="4.75099">
        <ele>232.44</ele>
        <time>2025-02-02T11:31:12.303Z</time>
      </trkpt>
      <trkpt lat="48.06892" lon="4.75138">
        <ele>232.07</ele>
        <time>2025-02-02T11:31:16.590Z</time>
      </trkpt>
      <trkpt lat="48.06903" lon="4.75176">
        <ele>231.71</ele>
        <time>2025-02-02T11:31:20.882Z</time>
      </trkpt>
      <trkpt lat="48.06914" lon="4.75215">
        <ele>231.28</ele>
        <time>2025-02-02T11:31:25.178Z</time>
      </trkpt>
      <trkpt lat="48.06924" lon="4.75254">
        <ele>230.8</ele>
        <time>2025-02-02T11:31:29.479Z</time>
      </trkpt>
      <trkpt lat="48.06935" lon="4.75292">
        <ele>230.31</ele>
        <time>2025-02-02T11:31:33.784Z</time>
      </trkpt>
      <trkpt lat="48.06946" lon="4.7533">
        <ele>229.83</ele>
        <time>2025-02-02T11:31:38.094Z</time>
      </trkpt>
      <trkpt lat="48.06957" lon="4.75371">
        <ele>229.35</ele>
        <time>2025-02-02T11:31:42.409Z</time>
      </trkpt>
      <trkpt lat="48.06969" lon="4.75412">
        <ele>228.77</ele>
        <time>2025-02-02T11:31:46.728Z</time>
      </trkpt>
      <trkpt lat="48.0698" lon="4.75453">
        <ele>228.25</ele>
        <time>2025-02-02T11:31:51.052Z</time>
      </trkpt>
      <trkpt lat="48.06991" lon="4.75495">
        <ele>227.79</ele>
        <time>2025-02-02T11:31:55.381Z</time>
      </trkpt>
      <trkpt lat="48.07003" lon="4.75536">
        <ele>227.33</ele>
        <time>2025-02-02T11:31:59.715Z</time>
      </trkpt>
      <trkpt lat="48.07014" lon="4.75577">
        <ele>226.93</ele>
        <time>2025-02-02T11:32:04.053Z</time>
      </trkpt>
      <trkpt lat="48.07026" lon="4.75618">
        <ele>226.53</ele>
        <time>2025-02-02T11:32:08.396Z</time>
      </trkpt>
      <trkpt lat="48.07037" lon="4.75659">
        <ele>226.11</ele>
        <time>2025-02-02T11:32:12.744Z</time>
      </trkpt>
      <trkpt lat="48.07049" lon="4.757">
        <ele>225.62</ele>
        <time>2025-02-02T11:32:17.097Z</time>
      </trkpt>
      <trkpt lat="48.0706" lon="4.75741">
        <ele>225.12</ele>
        <time>2025-02-02T11:32:21.454Z</time>
      </trkpt>
      <trkpt lat="48.07072" lon="4.75782">
        <ele>224.63</ele>
        <time>2025-02-02T11:32:25.816Z</time>
      </trkpt>
      <trkpt lat="48.07083" lon="4.75822">
        <ele>224.2</ele>
        <time>2025-02-02T11:32:30.183Z</time>
      </trkpt>
      <trkpt lat="48.07085" lon="4.75832">
        <ele>223.75</ele>
        <time>2025-02-02T11:32:34.551Z</time>
      </trkpt>
      <trkpt lat="48.07097" lon="4.75875">
        <ele>223.26</ele>
        <time>2025-02-02T11:32:38.924Z</time>
      </trkpt>
      <trkpt lat="48.07109" lon="4.75917">
        <ele>222.82</ele>
        <time>2025-02-02T11:32:43.302Z</time>
      </trkpt>
      <trkpt lat="48.07121" lon="4.7596">
        <ele>222.34</ele>
        <time>2025-02-02T11:32:47.685Z</time>
      </trkpt>
      <trkpt lat="48.07133" lon="4.76003">
        <ele>221.86</ele>
        <time>2025-02-02T11:32:52.073Z</time>
      </trkpt>
      <trkpt lat="48.07145" lon="4.76045">
        <ele>221.4</ele>
        <time>2025-02-02T11:32:56.466Z</time>
      </trkpt>
      <trkpt lat="48.07157" lon="4.76088">
        <ele>221.01</ele>
        <time>2025-02-02T11:33:00.864Z</time>
      </trkpt>
      <trkpt lat="48.07168" lon="4.7613">
        <ele>220.58</ele>
        <time>2025-02-02T11:33:05.267Z</time>
      </trkpt>
      <trkpt lat="48.0718" lon="4.76173">
        <ele>220.15</ele>
        <time>2025-02-02T11:33:09.675Z</time>
      </trkpt>
      <trkpt lat="48.07192" lon="4.76215">
        <ele>219.81</ele>
        <time>2025-02-02T11:33:14.088Z</time>
      </trkpt>
      <trkpt lat="48.07204" lon="4.76258">
        <ele>219.44</ele>
        <time>2025-02-02T11:33:18.506Z</time>
      </trkpt>
      <trkpt lat="48.07216" lon="4.763">
        <ele>219.04</ele>
        <time>2025-02-02T11:33:22.928Z</time>
      </trkpt>
      <trkpt lat="48.07228" lon="4.76343">
        <ele>218.73</ele>
        <time>2025-02-02T11:33:27.355Z</time>
      </trkpt>
      <trkpt lat="48.0724" lon="4.76384">
        <ele>218.4</ele>
        <time>2025-02-02T11:33:31.787Z</time>
      </trkpt>
      <trkpt lat="48.07252" lon="4.76427">
        <ele>218.04</ele>
        <time>2025-02-02T11:33:36.224Z</time>
      </trkpt>
      <trkpt lat="48.07264" lon="4.7647">
        <ele>217.74</ele>
        <time>2025-02-02T11:33:40.666Z</time>
      </trkpt>
      <trkpt lat="48.07276" lon="4.76513">
        <ele>217.51</ele>
        <time>2025-02-02T11:33:45.113Z</time>
      </trkpt>
      <trkpt lat="48.07278" lon="4.76521">
        <ele>217.29</ele>
        <time>2025-02-02T11:33:49.561Z</time>
      </trkpt>
      <trkpt lat="48.0728" lon="4.7653">
        <ele>217.09</ele>
        <time>2025-02-02T11:33:54.010Z</time>
      </trkpt>
      <trkpt lat="48.07292" lon="4.76571">
        <ele>216.88</ele>
        <time>2025-02-02T11:33:58.464Z</time>
      </trkpt>
      <trkpt lat="48.07303" lon="4.76613">
        <ele>216.63</ele>
        <time>2025-02-02T11:34:02.923Z</time>
      </trkpt>
      <trkpt lat="48.07315" lon="4.76654">
        <ele>216.49</ele>
        <time>2025-02-02T11:34:07.387Z</time>
      </trkpt>
      <trkpt lat="48.07328" lon="4.76693">
        <ele>216.41</ele>
        <time>2025-02-02T11:34:11.855Z</time>
      </trkpt>
      <trkpt lat="48.0733" lon="4.76714">
        <ele>216.31</ele>
        <time>2025-02-02T11:34:16.326Z</time>
      </trkpt>
      <trkpt lat="48.07332" lon="4.7676">
        <ele>216.22</ele>
        <time>2025-02-02T11:34:20.802Z</time>
      </trkpt>
      <trkpt lat="48.07334" lon="4.76806">
        <ele>216.04</ele>
        <time>2025-02-02T11:34:25.282Z</time>
      </trkpt>
      <trkpt lat="48.07336" lon="4.76852">
        <ele>215.89</ele>
        <time>2025-02-02T11:34:29.767Z</time>
      </trkpt>
      <trkpt lat="48.07338" lon="4.76897">
        <ele>215.77</ele>
        <time>2025-02-02T11:34:34.257Z</time>
      </trkpt>
      <trkpt lat="48.0734" lon="4.76943">
        <ele>215.66</ele>
        <time>2025-02-02T11:34:38.752Z</time>
      </trkpt>
      <trkpt lat="48.07343" lon="4.76989">
        <ele>215.55</ele>
        <time>2025-02-02T11:34:43.252Z</time>
      </trkpt>
      <trkpt lat="48.07345" lon="4.77034">
        <ele>215.42</ele>
        <time>2025-02-02T11:34:47.757Z</time>
      </trkpt>
      <trkpt lat="48.07347" lon="4.77079">
        <ele>215.19</ele>
        <time>2025-02-02T11:34:52.267Z</time>
      </trkpt>
      <trkpt lat="48.07345" lon="4.77118">
        <ele>214.92</ele>
        <time>2025-02-02T11:34:56.781Z</time>
      </trkpt>
      <trkpt lat="48.07343" lon="4.77164">
        <ele>214.7</ele>
        <time>2025-02-02T11:35:01.300Z</time>
      </trkpt>
      <trkpt lat="48.07341" lon="4.7721">
        <ele>214.43</ele>
        <time>2025-02-02T11:35:05.824Z</time>
      </trkpt>
      <trkpt lat="48.0734" lon="4.77257">
        <ele>214.13</ele>
        <time>2025-02-02T11:35:10.353Z</time>
      </trkpt>
      <trkpt lat="48.07338" lon="4.77302">
        <ele>213.92</ele>
        <time>2025-02-02T11:35:14.887Z</time>
      </trkpt>
      <trkpt lat="48.07335" lon="4.77347">
        <ele>213.65</ele>
        <time>2025-02-02T11:35:19.426Z</time>
      </trkpt>
      <trkpt lat="48.07332" lon="4.77392">
        <ele>213.21</ele>
        <time>2025-02-02T11:35:23.970Z</time>
      </trkpt>
      <trkpt lat="48.07326" lon="4.77434">
        <ele>212.86</ele>
        <time>2025-02-02T11:35:28.518Z</time>
      </trkpt>
      <trkpt lat="48.0732" lon="4.77475">
        <ele>212.46</ele>
        <time>2025-02-02T11:35:33.071Z</time>
      </trkpt>
      <trkpt lat="48.07314" lon="4.77517">
        <ele>212.03</ele>
        <time>2025-02-02T11:35:37.628Z</time>
      </trkpt>
      <trkpt lat="48.07308" lon="4.77558">
        <ele>211.69</ele>
        <time>2025-02-02T11:35:42.190Z</time>
      </trkpt>
      <trkpt lat="48.07303" lon="4.776">
        <ele>211.31</ele>
        <time>2025-02-02T11:35:46.756Z</time>
      </trkpt>
      <trkpt lat="48.07297" lon="4.77641">
        <ele>210.94</ele>
        <time>2025-02-02T11:35:51.327Z</time>
      </trkpt>
      <trkpt lat="48.07291" lon="4.77682">
        <ele>210.64</ele>
        <time>2025-02-02T11:35:55.902Z</time>
      </trkpt>
      <trkpt lat="48.07285" lon="4.77727">
        <ele>210.33</ele>
        <time>2025-02-02T11:36:00.482Z</time>
      </trkpt>
      <trkpt lat="48.07278" lon="4.77772">
        <ele>210.06</ele>
        <time>2025-02-02T11:36:05.067Z</time>
      </trkpt>
      <trkpt lat="48.07272" lon="4.77817">
        <ele>209.82</ele>
        <time>2025-02-02T11:36:09.657Z</time>
      </trkpt>
      <trkpt lat="48.07268" lon="4.77843">
        <ele>209.56</ele>
        <time>2025-02-02T11:36:14.250Z</time>
      </trkpt>
      <trkpt lat="48.07265" lon="4.77869">
        <ele>209.32</ele>
        <time>2025-02-02T11:36:18.846Z</time>
      </trkpt>
      <trkpt lat="48.07234" lon="4.77864">
        <ele>209.05</ele>
        <time>2025-02-02T11:36:23.447Z</time>
      </trkpt>
      <trkpt lat="48.07204" lon="4.77858">
        <ele>208.8</ele>
        <time>2025-02-02T11:36:28.053Z</time>
      </trkpt>
      <trkpt lat="48.07173" lon="4.77853">
        <ele>208.61</ele>
        <time>2025-02-02T11:36:32.664Z</time>
      </trkpt>
      <trkpt lat="48.07142" lon="4.77848">
        <ele>208.46</ele>
        <time>2025-02-02T11:36:37.280Z</time>
      </trkpt>
      <trkpt lat="48.07111" lon="4.77842">
        <ele>208.32</ele>
        <time>2025-02-02T11:36:41.901Z</time>
      </trkpt>
      <trkpt lat="48.0708" lon="4.77837">
        <ele>208.09</ele>
        <time>2025-02-02T11:36:46.527Z</time>
      </trkpt>
      <trkpt lat="48.0705" lon="4.77832">
        <ele>207.84</ele>
        <time>2025-02-02T11:36:51.158Z</time>
      </trkpt>
      <trkpt lat="48.07019" lon="4.77827">
        <ele>207.57</ele>
        <time>2025-02-02T11:36:55.793Z</time>
      </trkpt>
      <trkpt lat="48.06988" lon="4.77821">
        <ele>207.37</ele>
        <time>2025-02-02T11:37:00.433Z</time>
      </trkpt>
      <trkpt lat="48.06957" lon="4.77816">
        <ele>207.21</ele>
        <time>2025-02-02T11:37:05.078Z</time>
      </trkpt>
      <trkpt lat="48.06926" lon="4.77811">
        <ele>206.99</ele>
        <time>2025-02-02T11:37:09.728Z</time>
      </trkpt>
      <trkpt lat="48.06903" lon="4.7781">
        <ele>206.71</ele>
        <time>2025-02-02T11:37:14.382Z</time>
      </trkpt>
      <trkpt lat="48.06879" lon="4.77809">
        <ele>206.45</ele>
        <time>2025-02-02T11:37:19.040Z</time>
      </trkpt>
      <trkpt lat="48.06855" lon="4.77809">
        <ele>206.3</ele>
        <time>2025-02-02T11:37:23.702Z</time>
      </trkpt>
      <trkpt lat="48.06825" lon="4.77812">
        <ele>206.16</ele>
        <time>2025-02-02T11:37:28.369Z</time>
      </trkpt>
      <trkpt lat="48.06795" lon="4.77815">
        <ele>205.96</ele>
        <time>2025-02-02T11:37:33.040Z</time>
      </trkpt>
      <trkpt lat="48.06765" lon="4.77818">
        <ele>205.72</ele>
        <time>2025-02-02T11:37:37.716Z</time>
      </trkpt>
      <trkpt lat="48.06734" lon="4.77821">
        <ele>205.63</ele>
        <time>2025-02-02T11:37:42.397Z</time>
      </trkpt>
      <trkpt lat="48.06704" lon="4.77825">
        <ele>205.65</ele>
        <time>2025-02-02T11:37:47.083Z</time>
      </trkpt>
      <trkpt lat="48.06674" lon="4.77828">
        <ele>205.66</ele>
        <time>2025-02-02T11:37:51.774Z</time>
      </trkpt>
      <trkpt lat="48.06644" lon="4.77831">
        <ele>205.58</ele>
        <time>2025-02-02T11:37:56.470Z</time>
      </trkpt>
      <trkpt lat="48.06613" lon="4.77834">
        <ele>205.42</ele>
        <time>2025-02-02T11:38:01.171Z</time>
      </trkpt>
      <trkpt lat="48.06583" lon="4.77837">
        <ele>205.25</ele>
        <time>2025-02-02T11:38:05.876Z</time>
      </trkpt>
      <trkpt lat="48.06553" lon="4.7784">
        <ele>205.14</ele>
        <time>2025-02-02T11:38:10.586Z</time>
      </trkpt>
      <trkpt lat="48.06522" lon="4.77844">
        <ele>205.09</ele>
        <time>2025-02-02T11:38:15.301Z</time>
      </trkpt>
      <trkpt lat="48.06492" lon="4.77847">
        <ele>205.09</ele>
        <time>2025-02-02T11:38:20.021Z</time>
      </trkpt>
      <trkpt lat="48.06462" lon="4.7785">
        <ele>205.11</ele>
        <time>2025-02-02T11:38:24.746Z</time>
      </trkpt>
      <trkpt lat="48.06432" lon="4.77853">
        <ele>205.12</ele>
        <time>2025-02-02T11:38:29.476Z</time>
      </trkpt>
      <trkpt lat="48.06401" lon="4.77856">
        <ele>205.09</ele>
        <time>2025-02-02T11:38:34.211Z</time>
      </trkpt>
      <trkpt lat="48.06371" lon="4.7786">
        <ele>205.01</ele>
        <time>2025-02-02T11:38:38.950Z</time>
      </trkpt>
      <trkpt lat="48.06341" lon="4.77863">
        <ele>204.93</ele>
        <time>2025-02-02T11:38:43.694Z</time>
      </trkpt>
      <trkpt lat="48.06311" lon="4.77866">
        <ele>204.89</ele>
        <time>2025-02-02T11:38:48.443Z</time>
      </trkpt>
      <trkpt lat="48.0628" lon="4.77869">
        <ele>204.94</ele>
        <time>2025-02-02T11:38:53.197Z</time>
      </trkpt>
      <trkpt lat="48.0625" lon="4.77872">
        <ele>204.96</ele>
        <time>2025-02-02T11:38:57.956Z</time>
      </trkpt>
      <trkpt lat="48.0622" lon="4.77875">
        <ele>204.9</ele>
        <time>2025-02-02T11:39:02.720Z</time>
      </trkpt>
      <trkpt lat="48.06189" lon="4.77879">
        <ele>204.89</ele>
        <time>2025-02-02T11:39:07.489Z</time>
      </trkpt>
      <trkpt lat="48.06159" lon="4.77882">
        <ele>204.89</ele>
        <time>2025-02-02T11:39:12.262Z</time>
      </trkpt>
      <trkpt lat="48.06129" lon="4.77885">
        <ele>204.87</ele>
        <time>2025-02-02T11:39:17.040Z</time>
      </trkpt>
      <trkpt lat="48.06099" lon="4.77888">
        <ele>204.9</ele>
        <time>2025-02-02T11:39:21.823Z</time>
      </trkpt>
      <trkpt lat="48.06068" lon="4.77891">
        <ele>205.02</ele>
        <time>2025-02-02T11:39:26.611Z</time>
      </trkpt>
      <trkpt lat="48.06038" lon="4.77895">
        <ele>205.06</ele>
        <time>2025-02-02T11:39:31.404Z</time>
      </trkpt>
      <trkpt lat="48.06038" lon="4.77895">
        <ele>205.07</ele>
        <time>2025-02-02T11:39:36.197Z</time>
      </trkpt>
      <trkpt lat="48.06007" lon="4.77898">
        <ele>205.05</ele>
        <time>2025-02-02T11:39:40.995Z</time>
      </trkpt>
      <trkpt lat="48.05977" lon="4.77901">
        <ele>205.09</ele>
        <time>2025-02-02T11:39:45.798Z</time>
      </trkpt>
      <trkpt lat="48.05946" lon="4.77904">
        <ele>205.04</ele>
        <time>2025-02-02T11:39:50.606Z</time>
      </trkpt>
      <trkpt lat="48.05915" lon="4.77907">
        <ele>204.99</ele>
        <time>2025-02-02T11:39:55.419Z</time>
      </trkpt>
      <trkpt lat="48.05885" lon="4.7791">
        <ele>204.99</ele>
        <time>2025-02-02T11:40:00.237Z</time>
      </trkpt>
      <trkpt lat="48.05854" lon="4.77913">
        <ele>205.03</ele>
        <time>2025-02-02T11:40:05.059Z</time>
      </trkpt>
      <trkpt lat="48.05824" lon="4.77917">
        <ele>205.07</ele>
        <time>2025-02-02T11:40:09.886Z</time>
      </trkpt>
      <trkpt lat="48.05793" lon="4.7792">
        <ele>205.13</ele>
        <time>2025-02-02T11:40:14.718Z</time>
      </trkpt>
      <trkpt lat="48.05762" lon="4.77923">
        <ele>205.24</ele>
        <time>2025-02-02T11:40:19.555Z</time>
      </trkpt>
      <trkpt lat="48.05732" lon="4.77926">
        <ele>205.27</ele>
        <time>2025-02-02T11:40:24.397Z</time>
      </trkpt>
      <trkpt lat="48.05701" lon="4.77929">
        <ele>205.33</ele>
        <time>2025-02-02T11:40:29.244Z</time>
      </trkpt>
      <trkpt lat="48.0567" lon="4.77932">
        <ele>205.46</ele>
        <time>2025-02-02T11:40:34.096Z</time>
      </trkpt>
      <trkpt lat="48.0564" lon="4.77936">
        <ele>205.7</ele>
        <time>2025-02-02T11:40:38.953Z</time>
      </trkpt>
      <trkpt lat="48.05609" lon="4.77939">
        <ele>205.87</ele>
        <time>2025-02-02T11:40:43.815Z</time>
      </trkpt>
      <trkpt lat="48.05578" lon="4.77942">
        <ele>206.04</ele>
        <time>2025-02-02T11:40:48.682Z</time>
      </trkpt>
      <trkpt lat="48.05548" lon="4.77945">
        <ele>206.18</ele>
        <time>2025-02-02T11:40:53.554Z</time>
      </trkpt>
      <trkpt lat="48.05517" lon="4.77948">
        <ele>206.42</ele>
        <time>2025-02-02T11:40:58.431Z</time>
      </trkpt>
      <trkpt lat="48.05487" lon="4.77951">
        <ele>206.64</ele>
        <time>2025-02-02T11:41:03.312Z</time>
      </trkpt>
      <trkpt lat="48.05456" lon="4.77955">
        <ele>206.89</ele>
        <time>2025-02-02T11:41:08.198Z</time>
      </trkpt>
      <trkpt lat="48.05425" lon="4.77958">
        <ele>207.15</ele>
        <time>2025-02-02T11:41:13.089Z</time>
      </trkpt>
      <trkpt lat="48.05395" lon="4.77961">
        <ele>207.43</ele>
        <time>2025-02-02T11:41:17.985Z</time>
      </trkpt>
      <trkpt lat="48.05364" lon="4.77964">
        <ele>207.69</ele>
        <time>2025-02-02T11:41:22.886Z</time>
      </trkpt>
      <trkpt lat="48.05333" lon="4.77967">
        <ele>208.04</ele>
        <time>2025-02-02T11:41:27.792Z</time>
      </trkpt>
      <trkpt lat="48.05303" lon="4.7797">
        <ele>208.42</ele>
        <time>2025-02-02T11:41:32.703Z</time>
      </trkpt>
      <trkpt lat="48.05272" lon="4.77974">
        <ele>208.77</ele>
        <time>2025-02-02T11:41:37.619Z</time>
      </trkpt>
      <trkpt lat="48.05242" lon="4.77977">
        <ele>209.01</ele>
        <time>2025-02-02T11:41:42.540Z</time>
      </trkpt>
      <trkpt lat="48.05211" lon="4.7798">
        <ele>209.3</ele>
        <time>2025-02-02T11:41:47.466Z</time>
      </trkpt>
      <trkpt lat="48.0518" lon="4.77983">
        <ele>209.65</ele>
        <time>2025-02-02T11:41:52.397Z</time>
      </trkpt>
      <trkpt lat="48.0515" lon="4.77986">
        <ele>209.92</ele>
        <time>2025-02-02T11:41:57.333Z</time>
      </trkpt>
      <trkpt lat="48.05119" lon="4.77989">
        <ele>210.19</ele>
        <time>2025-02-02T11:42:02.273Z</time>
      </trkpt>
      <trkpt lat="48.05088" lon="4.77992">
        <ele>210.47</ele>
        <time>2025-02-02T11:42:07.218Z</time>
      </trkpt>
      <trkpt lat="48.05058" lon="4.77996">
        <ele>210.78</ele>
        <time>2025-02-02T11:42:12.168Z</time>
      </trkpt>
      <trkpt lat="48.05027" lon="4.77999">
        <ele>211.09</ele>
        <time>2025-02-02T11:42:17.123Z</time>
      </trkpt>
      <trkpt lat="48.04997" lon="4.78002">
        <ele>211.38</ele>
        <time>2025-02-02T11:42:22.083Z</time>
      </trkpt>
      <trkpt lat="48.04966" lon="4.78005">
        <ele>211.54</ele>
        <time>2025-02-02T11:42:27.048Z</time>
      </trkpt>
      <trkpt lat="48.04935" lon="4.78008">
        <ele>211.68</ele>
        <time>2025-02-02T11:42:32.018Z</time>
      </trkpt>
      <trkpt lat="48.04904" lon="4.78013">
        <ele>211.89</ele>
        <time>2025-02-02T11:42:36.993Z</time>
      </trkpt>
      <trkpt lat="48.04873" lon="4.78017">
        <ele>212.05</ele>
        <time>2025-02-02T11:42:41.973Z</time>
      </trkpt>
      <trkpt lat="48.04873" lon="4.78017">
        <ele>212.12</ele>
        <time>2025-02-02T11:42:46.953Z</time>
      </trkpt>
      <trkpt lat="48.04847" lon="4.7802">
        <ele>212.19</ele>
        <time>2025-02-02T11:42:51.937Z</time>
      </trkpt>
      <trkpt lat="48.0482" lon="4.78023">
        <ele>212.24</ele>
        <time>2025-02-02T11:42:56.925Z</time>
      </trkpt>
      <trkpt lat="48.04794" lon="4.78026">
        <ele>212.22</ele>
        <time>2025-02-02T11:43:01.918Z</time>
      </trkpt>
      <trkpt lat="48.04768" lon="4.78029">
        <ele>212.09</ele>
        <time>2025-02-02T11:43:06.915Z</time>
      </trkpt>
      <trkpt lat="48.04742" lon="4.78032">
        <ele>211.91</ele>
        <time>2025-02-02T11:43:11.916Z</time>
      </trkpt>
      <trkpt lat="48.04711" lon="4.78035">
        <ele>211.63</ele>
        <time>2025-02-02T11:43:16.922Z</time>
      </trkpt>
      <trkpt lat="48.0468" lon="4.78038">
        <ele>211.33</ele>
        <time>2025-02-02T11:43:21.933Z</time>
      </trkpt>
      <trkpt lat="48.04649" lon="4.78041">
        <ele>211.07</ele>
        <time>2025-02-02T11:43:26.949Z</time>
      </trkpt>
      <trkpt lat="48.04619" lon="4.78044">
        <ele>210.81</ele>
        <time>2025-02-02T11:43:31.970Z</time>
      </trkpt>
      <trkpt lat="48.04588" lon="4.78047">
        <ele>210.59</ele>
        <time>2025-02-02T11:43:36.996Z</time>
      </trkpt>
      <trkpt lat="48.04557" lon="4.7805">
        <ele>210.41</ele>
        <time>2025-02-02T11:43:42.027Z</time>
      </trkpt>
      <trkpt lat="48.04526" lon="4.78053">
        <ele>210.2</ele>
        <time>2025-02-02T11:43:47.063Z</time>
      </trkpt>
      <trkpt lat="48.04495" lon="4.78056">
        <ele>210</ele>
        <time>2025-02-02T11:43:52.104Z</time>
      </trkpt>
      <trkpt lat="48.04464" lon="4.78059">
        <ele>209.78</ele>
        <time>2025-02-02T11:43:57.150Z</time>
      </trkpt>
      <trkpt lat="48.04434" lon="4.78062">
        <ele>209.57</ele>
        <time>2025-02-02T11:44:02.200Z</time>
      </trkpt>
      <trkpt lat="48.04403" lon="4.78065">
        <ele>209.36</ele>
        <time>2025-02-02T11:44:07.255Z</time>
      </trkpt>
      <trkpt lat="48.04372" lon="4.78068">
        <ele>209.12</ele>
        <time>2025-02-02T11:44:12.315Z</time>
      </trkpt>
      <trkpt lat="48.04341" lon="4.78072">
        <ele>208.95</ele>
        <time>2025-02-02T11:44:17.380Z</time>
      </trkpt>
      <trkpt lat="48.0431" lon="4.78075">
        <ele>208.77</ele>
        <time>2025-02-02T11:44:22.450Z</time>
      </trkpt>
      <trkpt lat="48.0428" lon="4.78078">
        <ele>208.57</ele>
        <time>2025-02-02T11:44:27.525Z</time>
      </trkpt>
      <trkpt lat="48.04249" lon="4.78081">
        <ele>208.41</ele>
        <time>2025-02-02T11:44:32.605Z</time>
      </trkpt>
      <trkpt lat="48.04218" lon="4.78084">
        <ele>208.3</ele>
        <time>2025-02-02T11:44:37.690Z</time>
      </trkpt>
      <trkpt lat="48.04187" lon="4.78087">
        <ele>208.31</ele>
        <time>2025-02-02T11:44:42.780Z</time>
      </trkpt>
      <trkpt lat="48.04156" lon="4.7809">
        <ele>208.28</ele>
        <time>2025-02-02T11:44:47.875Z</time>
      </trkpt>
      <trkpt lat="48.04127" lon="4.78093">
        <ele>208.24</ele>
        <time>2025-02-02T11:44:52.975Z</time>
      </trkpt>
      <trkpt lat="48.04099" lon="4.78096">
        <ele>208.3</ele>
        <time>2025-02-02T11:44:58.079Z</time>
      </trkpt>
      <trkpt lat="48.0407" lon="4.78098">
        <ele>208.32</ele>
        <time>2025-02-02T11:45:03.188Z</time>
      </trkpt>
      <trkpt lat="48.04042" lon="4.78101">
        <ele>208.27</ele>
        <time>2025-02-02T11:45:08.301Z</time>
      </trkpt>
      <trkpt lat="48.04013" lon="4.78104">
        <ele>208.25</ele>
        <time>2025-02-02T11:45:13.419Z</time>
      </trkpt>
      <trkpt lat="48.03984" lon="4.78107">
        <ele>208.29</ele>
        <time>2025-02-02T11:45:18.542Z</time>
      </trkpt>
      <trkpt lat="48.03953" lon="4.7811">
        <ele>208.35</ele>
        <time>2025-02-02T11:45:23.670Z</time>
      </trkpt>
      <trkpt lat="48.03922" lon="4.78114">
        <ele>208.39</ele>
        <time>2025-02-02T11:45:28.803Z</time>
      </trkpt>
      <trkpt lat="48.0389" lon="4.78117">
        <ele>208.42</ele>
        <time>2025-02-02T11:45:33.941Z</time>
      </trkpt>
      <trkpt lat="48.03859" lon="4.78121">
        <ele>208.43</ele>
        <time>2025-02-02T11:45:39.084Z</time>
      </trkpt>
      <trkpt lat="48.03828" lon="4.78124">
        <ele>208.55</ele>
        <time>2025-02-02T11:45:44.232Z</time>
      </trkpt>
      <trkpt lat="48.03816" lon="4.78165">
        <ele>208.61</ele>
        <time>2025-02-02T11:45:49.384Z</time>
      </trkpt>
      <trkpt lat="48.03804" lon="4.78206">
        <ele>208.75</ele>
        <time>2025-02-02T11:45:54.541Z</time>
      </trkpt>
      <trkpt lat="48.03792" lon="4.78247">
        <ele>208.83</ele>
        <time>2025-02-02T11:45:59.703Z</time>
      </trkpt>
      <trkpt lat="48.03781" lon="4.78287">
        <ele>208.84</ele>
        <time>2025-02-02T11:46:04.870Z</time>
      </trkpt>
      <trkpt lat="48.03781" lon="4.78287">
        <ele>208.93</ele>
        <time>2025-02-02T11:46:10.037Z</time>
      </trkpt>
      <trkpt lat="48.03772" lon="4.78311">
        <ele>209.04</ele>
        <time>2025-02-02T11:46:15.207Z</time>
      </trkpt>
      <trkpt lat="48.03763" lon="4.78334">
        <ele>209.05</ele>
        <time>2025-02-02T11:46:20.380Z</time>
      </trkpt>
      <trkpt lat="48.03751" lon="4.78374">
        <ele>209.11</ele>
        <time>2025-02-02T11:46:25.557Z</time>
      </trkpt>
      <trkpt lat="48.03739" lon="4.78413">
        <ele>209.27</ele>
        <time>2025-02-02T11:46:30.739Z</time>
      </trkpt>
      <trkpt lat="48.03726" lon="4.78453">
        <ele>209.45</ele>
        <time>2025-02-02T11:46:35.926Z</time>
      </trkpt>
      <trkpt lat="48.03714" lon="4.78492">
        <ele>209.57</ele>
        <time>2025-02-02T11:46:41.117Z</time>
      </trkpt>
      <trkpt lat="48.03702" lon="4.78532">
        <ele>209.74</ele>
        <time>2025-02-02T11:46:46.313Z</time>
      </trkpt>
      <trkpt lat="48.03689" lon="4.78572">
        <ele>209.98</ele>
        <time>2025-02-02T11:46:51.514Z</time>
      </trkpt>
      <trkpt lat="48.03677" lon="4.78611">
        <ele>210.28</ele>
        <time>2025-02-02T11:46:56.719Z</time>
      </trkpt>
      <trkpt lat="48.03665" lon="4.7865">
        <ele>210.53</ele>
        <time>2025-02-02T11:47:01.929Z</time>
      </trkpt>
      <trkpt lat="48.03651" lon="4.78679">
        <ele>210.78</ele>
        <time>2025-02-02T11:47:07.143Z</time>
      </trkpt>
      <trkpt lat="48.03637" lon="4.78708">
        <ele>210.99</ele>
        <time>2025-02-02T11:47:12.361Z</time>
      </trkpt>
      <trkpt lat="48.03628" lon="4.78749">
        <ele>211.33</ele>
        <time>2025-02-02T11:47:17.583Z</time>
      </trkpt>
      <trkpt lat="48.03615" lon="4.78781">
        <ele>211.75</ele>
        <time>2025-02-02T11:47:22.809Z</time>
      </trkpt>
      <trkpt lat="48.03602" lon="4.788">
        <ele>212.1</ele>
        <time>2025-02-02T11:47:28.038Z</time>
      </trkpt>
      <trkpt lat="48.03578" lon="4.78815">
        <ele>212.47</ele>
        <time>2025-02-02T11:47:33.271Z</time>
      </trkpt>
      <trkpt lat="48.03554" lon="4.7883">
        <ele>212.83</ele>
        <time>2025-02-02T11:47:38.509Z</time>
      </trkpt>
      <trkpt lat="48.0353" lon="4.78845">
        <ele>213.13</ele>
        <time>2025-02-02T11:47:43.751Z</time>
      </trkpt>
      <trkpt lat="48.03521" lon="4.78854">
        <ele>213.49</ele>
        <time>2025-02-02T11:47:48.994Z</time>
      </trkpt>
      <trkpt lat="48.03512" lon="4.78867">
        <ele>213.84</ele>
        <time>2025-02-02T11:47:54.239Z</time>
      </trkpt>
      <trkpt lat="48.03501" lon="4.78898">
        <ele>214.22</ele>
        <time>2025-02-02T11:47:59.488Z</time>
      </trkpt>
      <trkpt lat="48.03489" lon="4.78929">
        <ele>214.59</ele>
        <time>2025-02-02T11:48:04.741Z</time>
      </trkpt>
      <trkpt lat="48.03476" lon="4.78957">
        <ele>214.88</ele>
        <time>2025-02-02T11:48:09.998Z</time>
      </trkpt>
      <trkpt lat="48.03463" lon="4.78985">
        <ele>215.19</ele>
        <time>2025-02-02T11:48:15.258Z</time>
      </trkpt>
      <trkpt lat="48.0345" lon="4.79">
        <ele>215.43</ele>
        <time>2025-02-02T11:48:20.521Z</time>
      </trkpt>
      <trkpt lat="48.03437" lon="4.79015">
        <ele>215.69</ele>
        <time>2025-02-02T11:48:25.787Z</time>
      </trkpt>
      <trkpt lat="48.03414" lon="4.79032">
        <ele>215.93</ele>
        <time>2025-02-02T11:48:31.057Z</time>
      </trkpt>
      <trkpt lat="48.0339" lon="4.7905">
        <ele>216.16</ele>
        <time>2025-02-02T11:48:36.331Z</time>
      </trkpt>
      <trkpt lat="48.03366" lon="4.79068">
        <ele>216.35</ele>
        <time>2025-02-02T11:48:41.609Z</time>
      </trkpt>
      <trkpt lat="48.03343" lon="4.79085">
        <ele>216.59</ele>
        <time>2025-02-02T11:48:46.891Z</time>
      </trkpt>
      <trkpt lat="48.03329" lon="4.791">
        <ele>216.74</ele>
        <time>2025-02-02T11:48:52.176Z</time>
      </trkpt>
      <trkpt lat="48.03315" lon="4.79115">
        <ele>217.04</ele>
        <time>2025-02-02T11:48:57.464Z</time>
      </trkpt>
      <trkpt lat="48.03296" lon="4.79143">
        <ele>217.27</ele>
        <time>2025-02-02T11:49:02.756Z</time>
      </trkpt>
      <trkpt lat="48.03275" lon="4.79177">
        <ele>217.39</ele>
        <time>2025-02-02T11:49:08.053Z</time>
      </trkpt>
      <trkpt lat="48.03254" lon="4.7921">
        <ele>217.62</ele>
        <time>2025-02-02T11:49:13.355Z</time>
      </trkpt>
      <trkpt lat="48.03234" lon="4.79244">
        <ele>217.86</ele>
        <time>2025-02-02T11:49:18.662Z</time>
      </trkpt>
      <trkpt lat="48.03213" lon="4.79277">
        <ele>218.06</ele>
        <time>2025-02-02T11:49:23.974Z</time>
      </trkpt>
      <trkpt lat="48.03193" lon="4.79311">
        <ele>218.45</ele>
        <time>2025-02-02T11:49:29.291Z</time>
      </trkpt>
      <trkpt lat="48.03171" lon="4.79341">
        <ele>218.73</ele>
        <time>2025-02-02T11:49:34.612Z</time>
      </trkpt>
      <trkpt lat="48.03158" lon="4.79356">
        <ele>218.82</ele>
        <time>2025-02-02T11:49:39.936Z</time>
      </trkpt>
      <trkpt lat="48.03145" lon="4.79371">
        <ele>219.12</ele>
        <time>2025-02-02T11:49:45.263Z</time>
      </trkpt>
      <trkpt lat="48.03139" lon="4.7939">
        <ele>219.32</ele>
        <time>2025-02-02T11:49:50.592Z</time>
      </trkpt>
      <trkpt lat="48.03135" lon="4.79388">
        <ele>219.38</ele>
        <time>2025-02-02T11:49:55.922Z</time>
      </trkpt>
      <trkpt lat="48.0313" lon="4.79388">
        <ele>219.59</ele>
        <time>2025-02-02T11:50:01.252Z</time>
      </trkpt>
      <trkpt lat="48.03128" lon="4.79388">
        <ele>219.8</ele>
        <time>2025-02-02T11:50:06.583Z</time>
      </trkpt>
      <trkpt lat="48.03105" lon="4.79402">
        <ele>220.06</ele>
        <time>2025-02-02T11:50:11.918Z</time>
      </trkpt>
      <trkpt lat="48.03081" lon="4.79417">
        <ele>220.31</ele>
        <time>2025-02-02T11:50:17.257Z</time>
      </trkpt>
      <trkpt lat="48.03057" lon="4.79431">
        <ele>220.59</ele>
        <time>2025-02-02T11:50:22.600Z</time>
      </trkpt>
      <trkpt lat="48.03042" lon="4.79431">
        <ele>220.83</ele>
        <time>2025-02-02T11:50:27.945Z</time>
      </trkpt>
      <trkpt lat="48.03034" lon="4.79422">
        <ele>221.05</ele>
        <time>2025-02-02T11:50:33.292Z</time>
      </trkpt>
      <trkpt lat="48.03025" lon="4.79403">
        <ele>221.28</ele>
        <time>2025-02-02T11:50:38.641Z</time>
      </trkpt>
      <trkpt lat="48.03017" lon="4.79371">
        <ele>221.5</ele>
        <time>2025-02-02T11:50:43.994Z</time>
      </trkpt>
      <trkpt lat="48.03009" lon="4.7934">
        <ele>221.69</ele>
        <time>2025-02-02T11:50:49.351Z</time>
      </trkpt>
      <trkpt lat="48.03002" lon="4.79309">
        <ele>221.83</ele>
        <time>2025-02-02T11:50:54.711Z</time>
      </trkpt>
      <trkpt lat="48.02994" lon="4.79287">
        <ele>222.01</ele>
        <time>2025-02-02T11:51:00.074Z</time>
      </trkpt>
      <trkpt lat="48.02987" lon="4.79266">
        <ele>222.16</ele>
        <time>2025-02-02T11:51:05.440Z</time>
      </trkpt>
      <trkpt lat="48.02977" lon="4.79244">
        <ele>222.37</ele>
        <time>2025-02-02T11:51:10.808Z</time>
      </trkpt>
      <trkpt lat="48.02967" lon="4.79223">
        <ele>222.59</ele>
        <time>2025-02-02T11:51:16.179Z</time>
      </trkpt>
      <trkpt lat="48.02946" lon="4.79191">
        <ele>222.8</ele>
        <time>2025-02-02T11:51:21.555Z</time>
      </trkpt>
      <trkpt lat="48.02919" lon="4.79171">
        <ele>223.01</ele>
        <time>2025-02-02T11:51:26.936Z</time>
      </trkpt>
      <trkpt lat="48.02893" lon="4.79151">
        <ele>223.2</ele>
        <time>2025-02-02T11:51:32.321Z</time>
      </trkpt>
      <trkpt lat="48.02866" lon="4.79131">
        <ele>223.36</ele>
        <time>2025-02-02T11:51:37.711Z</time>
      </trkpt>
      <trkpt lat="48.0285" lon="4.79116">
        <ele>223.51</ele>
        <time>2025-02-02T11:51:43.104Z</time>
      </trkpt>
      <trkpt lat="48.0285" lon="4.79116">
        <ele>223.61</ele>
        <time>2025-02-02T11:51:48.497Z</time>
      </trkpt>
      <trkpt lat="48.0285" lon="4.79116">
        <ele>223.69</ele>
        <time>2025-02-02T11:51:53.890Z</time>
      </trkpt>
      <trkpt lat="48.02843" lon="4.7911">
        <ele>223.75</ele>
        <time>2025-02-02T11:51:59.285Z</time>
      </trkpt>
      <trkpt lat="48.0282" lon="4.79089">
        <ele>223.8</ele>
        <time>2025-02-02T11:52:04.684Z</time>
      </trkpt>
      <trkpt lat="48.02797" lon="4.79069">
        <ele>223.79</ele>
        <time>2025-02-02T11:52:10.087Z</time>
      </trkpt>
      <trkpt lat="48.02774" lon="4.79048">
        <ele>223.79</ele>
        <time>2025-02-02T11:52:15.494Z</time>
      </trkpt>
      <trkpt lat="48.02751" lon="4.79028">
        <ele>223.75</ele>
        <time>2025-02-02T11:52:20.906Z</time>
      </trkpt>
      <trkpt lat="48.0273" lon="4.79015">
        <ele>223.68</ele>
        <time>2025-02-02T11:52:26.321Z</time>
      </trkpt>
      <trkpt lat="48.0271" lon="4.79002">
        <ele>223.58</ele>
        <time>2025-02-02T11:52:31.740Z</time>
      </trkpt>
      <trkpt lat="48.02692" lon="4.78996">
        <ele>223.56</ele>
        <time>2025-02-02T11:52:37.162Z</time>
      </trkpt>
      <trkpt lat="48.02673" lon="4.78991">
        <ele>223.53</ele>
        <time>2025-02-02T11:52:42.587Z</time>
      </trkpt>
      <trkpt lat="48.02643" lon="4.78991">
        <ele>223.54</ele>
        <time>2025-02-02T11:52:48.017Z</time>
      </trkpt>
      <trkpt lat="48.02614" lon="4.78997">
        <ele>223.45</ele>
        <time>2025-02-02T11:52:53.451Z</time>
      </trkpt>
      <trkpt lat="48.02585" lon="4.79002">
        <ele>223.31</ele>
        <time>2025-02-02T11:52:58.890Z</time>
      </trkpt>
      <trkpt lat="48.02555" lon="4.79008">
        <ele>223.16</ele>
        <time>2025-02-02T11:53:04.334Z</time>
      </trkpt>
      <trkpt lat="48.02525" lon="4.79008">
        <ele>223.05</ele>
        <time>2025-02-02T11:53:09.783Z</time>
      </trkpt>
      <trkpt lat="48.02509" lon="4.79003">
        <ele>222.95</ele>
        <time>2025-02-02T11:53:15.234Z</time>
      </trkpt>
      <trkpt lat="48.02493" lon="4.78997">
        <ele>222.87</ele>
        <time>2025-02-02T11:53:20.688Z</time>
      </trkpt>
      <trkpt lat="48.02464" lon="4.78984">
        <ele>222.81</ele>
        <time>2025-02-02T11:53:26.147Z</time>
      </trkpt>
      <trkpt lat="48.02434" lon="4.78971">
        <ele>222.72</ele>
        <time>2025-02-02T11:53:31.611Z</time>
      </trkpt>
      <trkpt lat="48.02405" lon="4.78957">
        <ele>222.53</ele>
        <time>2025-02-02T11:53:37.080Z</time>
      </trkpt>
      <trkpt lat="48.02375" lon="4.78944">
        <ele>222.28</ele>
        <time>2025-02-02T11:53:42.554Z</time>
      </trkpt>
      <trkpt lat="48.02349" lon="4.78935">
        <ele>222.27</ele>
        <time>2025-02-02T11:53:48.032Z</time>
      </trkpt>
      <trkpt lat="48.02324" lon="4.78927">
        <ele>222.28</ele>
        <time>2025-02-02T11:53:53.514Z</time>
      </trkpt>
      <trkpt lat="48.02303" lon="4.78922">
        <ele>222.23</ele>
        <time>2025-02-02T11:53:58.999Z</time>
      </trkpt>
      <trkpt lat="48.02283" lon="4.78918">
        <ele>222.15</ele>
        <time>2025-02-02T11:54:04.488Z</time>
      </trkpt>
      <trkpt lat="48.02255" lon="4.78918">
        <ele>222.05</ele>
        <time>2025-02-02T11:54:09.981Z</time>
      </trkpt>
      <trkpt lat="48.02227" lon="4.78918">
        <ele>221.95</ele>
        <time>2025-02-02T11:54:15.479Z</time>
      </trkpt>
      <trkpt lat="48.02198" lon="4.78927">
        <ele>221.78</ele>
        <time>2025-02-02T11:54:20.981Z</time>
      </trkpt>
      <trkpt lat="48.02169" lon="4.78935">
        <ele>221.56</ele>
        <time>2025-02-02T11:54:26.488Z</time>
      </trkpt>
      <trkpt lat="48.02143" lon="4.78949">
        <ele>221.37</ele>
        <time>2025-02-02T11:54:32.000Z</time>
      </trkpt>
      <trkpt lat="48.02117" lon="4.78962">
        <ele>221.16</ele>
        <time>2025-02-02T11:54:37.516Z</time>
      </trkpt>
      <trkpt lat="48.02091" lon="4.78976">
        <ele>220.98</ele>
        <time>2025-02-02T11:54:43.036Z</time>
      </trkpt>
      <trkpt lat="48.02065" lon="4.7899">
        <ele>220.77</ele>
        <time>2025-02-02T11:54:48.561Z</time>
      </trkpt>
      <trkpt lat="48.02039" lon="4.79003">
        <ele>220.51</ele>
        <time>2025-02-02T11:54:54.090Z</time>
      </trkpt>
      <trkpt lat="48.02012" lon="4.79017">
        <ele>220.31</ele>
        <time>2025-02-02T11:54:59.624Z</time>
      </trkpt>
      <trkpt lat="48.01991" lon="4.79037">
        <ele>220.08</ele>
        <time>2025-02-02T11:55:05.162Z</time>
      </trkpt>
      <trkpt lat="48.0197" lon="4.79058">
        <ele>219.84</ele>
        <time>2025-02-02T11:55:10.704Z</time>
      </trkpt>
      <trkpt lat="48.01948" lon="4.79085">
        <ele>219.66</ele>
        <time>2025-02-02T11:55:16.250Z</time>
      </trkpt>
      <trkpt lat="48.01927" lon="4.79112">
        <ele>219.52</ele>
        <time>2025-02-02T11:55:21.801Z</time>
      </trkpt>
      <trkpt lat="48.01905" lon="4.79139">
        <ele>219.39</ele>
        <time>2025-02-02T11:55:27.356Z</time>
      </trkpt>
      <trkpt lat="48.01884" lon="4.79166">
        <ele>219.27</ele>
        <time>2025-02-02T11:55:32.916Z</time>
      </trkpt>
      <trkpt lat="48.01862" lon="4.79193">
        <ele>219.12</ele>
        <time>2025-02-02T11:55:38.480Z</time>
      </trkpt>
      <trkpt lat="48.01847" lon="4.79199">
        <ele>218.98</ele>
        <time>2025-02-02T11:55:44.047Z</time>
      </trkpt>
      <trkpt lat="48.01829" lon="4.79209">
        <ele>218.9</ele>
        <time>2025-02-02T11:55:49.617Z</time>
      </trkpt>
      <trkpt lat="48.01811" lon="4.79218">
        <ele>218.83</ele>
        <time>2025-02-02T11:55:55.190Z</time>
      </trkpt>
      <trkpt lat="48.01786" lon="4.79231">
        <ele>218.84</ele>
        <time>2025-02-02T11:56:00.767Z</time>
      </trkpt>
      <trkpt lat="48.01761" lon="4.79243">
        <ele>218.8</ele>
        <time>2025-02-02T11:56:06.348Z</time>
      </trkpt>
      <trkpt lat="48.01736" lon="4.79255">
        <ele>218.72</ele>
        <time>2025-02-02T11:56:11.934Z</time>
      </trkpt>
      <trkpt lat="48.01706" lon="4.79266">
        <ele>218.66</ele>
        <time>2025-02-02T11:56:17.525Z</time>
      </trkpt>
      <trkpt lat="48.01676" lon="4.79278">
        <ele>218.65</ele>
        <time>2025-02-02T11:56:23.121Z</time>
      </trkpt>
      <trkpt lat="48.01646" lon="4.79289">
        <ele>218.71</ele>
        <time>2025-02-02T11:56:28.722Z</time>
      </trkpt>
      <trkpt lat="48.01614" lon="4.79295">
        <ele>218.72</ele>
        <time>2025-02-02T11:56:34.328Z</time>
      </trkpt>
      <trkpt lat="48.01583" lon="4.793">
        <ele>218.68</ele>
        <time>2025-02-02T11:56:39.939Z</time>
      </trkpt>
      <trkpt lat="48.01553" lon="4.79303">
        <ele>218.71</ele>
        <time>2025-02-02T11:56:45.555Z</time>
      </trkpt>
      <trkpt lat="48.01522" lon="4.79306">
        <ele>218.76</ele>
        <time>2025-02-02T11:56:51.175Z</time>
      </trkpt>
      <trkpt lat="48.01491" lon="4.79309">
        <ele>218.78</ele>
        <time>2025-02-02T11:56:56.800Z</time>
      </trkpt>
      <trkpt lat="48.01461" lon="4.79307">
        <ele>218.81</ele>
        <time>2025-02-02T11:57:02.430Z</time>
      </trkpt>
      <trkpt lat="48.01431" lon="4.79306">
        <ele>218.87</ele>
        <time>2025-02-02T11:57:08.065Z</time>
      </trkpt>
      <trkpt lat="48.01401" lon="4.79304">
        <ele>218.9</ele>
        <time>2025-02-02T11:57:13.705Z</time>
      </trkpt>
      <trkpt lat="48.01371" lon="4.79305">
        <ele>218.96</ele>
        <time>2025-02-02T11:57:19.350Z</time>
      </trkpt>
      <trkpt lat="48.01341" lon="4.79306">
        <ele>219.07</ele>
        <time>2025-02-02T11:57:24.999Z</time>
      </trkpt>
      <trkpt lat="48.01329" lon="4.79309">
        <ele>219.22</ele>
        <time>2025-02-02T11:57:30.650Z</time>
      </trkpt>
      <trkpt lat="48.01329" lon="4.79309">
        <ele>219.38</ele>
        <time>2025-02-02T11:57:36.301Z</time>
      </trkpt>
      <trkpt lat="48.01329" lon="4.79309">
        <ele>219.56</ele>
        <time>2025-02-02T11:57:41.952Z</time>
      </trkpt>
      <trkpt lat="48.01298" lon="4.79315">
        <ele>219.78</ele>
        <time>2025-02-02T11:57:47.608Z</time>
      </trkpt>
      <trkpt lat="48.01267" lon="4.79322">
        <ele>220.08</ele>
        <time>2025-02-02T11:57:53.269Z</time>
      </trkpt>
      <trkpt lat="48.01236" lon="4.79328">
        <ele>220.3</ele>
        <time>2025-02-02T11:57:58.935Z</time>
      </trkpt>
      <trkpt lat="48.01208" lon="4.79336">
        <ele>220.59</ele>
        <time>2025-02-02T11:58:04.606Z</time>
      </trkpt>
      <trkpt lat="48.01181" lon="4.79343">
        <ele>220.9</ele>
        <time>2025-02-02T11:58:10.281Z</time>
      </trkpt>
      <trkpt lat="48.01153" lon="4.79351">
        <ele>221.23</ele>
        <time>2025-02-02T11:58:15.961Z</time>
      </trkpt>
      <trkpt lat="48.01126" lon="4.79359">
        <ele>221.52</ele>
        <time>2025-02-02T11:58:21.645Z</time>
      </trkpt>
      <trkpt lat="48.01098" lon="4.79367">
        <ele>221.78</ele>
        <time>2025-02-02T11:58:27.334Z</time>
      </trkpt>
      <trkpt lat="48.01078" lon="4.79378">
        <ele>222.16</ele>
        <time>2025-02-02T11:58:33.026Z</time>
      </trkpt>
      <trkpt lat="48.01058" lon="4.7939">
        <ele>222.54</ele>
        <time>2025-02-02T11:58:38.722Z</time>
      </trkpt>
      <trkpt lat="48.01032" lon="4.79414">
        <ele>223</ele>
        <time>2025-02-02T11:58:44.423Z</time>
      </trkpt>
      <trkpt lat="48.01006" lon="4.79438">
        <ele>223.46</ele>
        <time>2025-02-02T11:58:50.129Z</time>
      </trkpt>
      <trkpt lat="48.0098" lon="4.79463">
        <ele>223.83</ele>
        <time>2025-02-02T11:58:55.839Z</time>
      </trkpt>
      <trkpt lat="48.00955" lon="4.79487">
        <ele>224.23</ele>
        <time>2025-02-02T11:59:01.554Z</time>
      </trkpt>
      <trkpt lat="48.00955" lon="4.79487">
        <ele>224.59</ele>
        <time>2025-02-02T11:59:07.269Z</time>
      </trkpt>
      <trkpt lat="48.0093" lon="4.7951">
        <ele>224.94</ele>
        <time>2025-02-02T11:59:12.989Z</time>
      </trkpt>
      <trkpt lat="48.00906" lon="4.79533">
        <ele>225.28</ele>
        <time>2025-02-02T11:59:18.713Z</time>
      </trkpt>
      <trkpt lat="48.00882" lon="4.79556">
        <ele>225.6</ele>
        <time>2025-02-02T11:59:24.442Z</time>
      </trkpt>
      <trkpt lat="48.00858" lon="4.79579">
        <ele>225.91</ele>
        <time>2025-02-02T11:59:30.176Z</time>
      </trkpt>
      <trkpt lat="48.00834" lon="4.79602">
        <ele>226.22</ele>
        <time>2025-02-02T11:59:35.914Z</time>
      </trkpt>
      <trkpt lat="48.0081" lon="4.79626">
        <ele>226.53</ele>
        <time>2025-02-02T11:59:41.657Z</time>
      </trkpt>
      <trkpt lat="48.00786" lon="4.79649">
        <ele>226.82</ele>
        <time>2025-02-02T11:59:47.404Z</time>
      </trkpt>
      <trkpt lat="48.00762" lon="4.79672">
        <ele>227.13</ele>
        <time>2025-02-02T11:59:53.156Z</time>
      </trkpt>
      <trkpt lat="48.00738" lon="4.79695">
        <ele>227.38</ele>
        <time>2025-02-02T11:59:58.913Z</time>
      </trkpt>
      <trkpt lat="48.00719" lon="4.79726">
        <ele>227.68</ele>
        <time>2025-02-02T12:00:04.674Z</time>
      </trkpt>
      <trkpt lat="48.00701" lon="4.79758">
        <ele>227.92</ele>
        <time>2025-02-02T12:00:10.440Z</time>
      </trkpt>
      <trkpt lat="48.00682" lon="4.79789">
        <ele>228.05</ele>
        <time>2025-02-02T12:00:16.210Z</time>
      </trkpt>
      <trkpt lat="48.00666" lon="4.79829">
        <ele>228.26</ele>
        <time>2025-02-02T12:00:21.985Z</time>
      </trkpt>
      <trkpt lat="48.0065" lon="4.79869">
        <ele>228.45</ele>
        <time>2025-02-02T12:00:27.765Z</time>
      </trkpt>
      <trkpt lat="48.00641" lon="4.79907">
        <ele>228.65</ele>
        <time>2025-02-02T12:00:33.549Z</time>
      </trkpt>
      <trkpt lat="48.00633" lon="4.79945">
        <ele>228.8</ele>
        <time>2025-02-02T12:00:39.338Z</time>
      </trkpt>
      <trkpt lat="48.00624" lon="4.79982">
        <ele>228.84</ele>
        <time>2025-02-02T12:00:45.131Z</time>
      </trkpt>
      <trkpt lat="48.00616" lon="4.80023">
        <ele>229</ele>
        <time>2025-02-02T12:00:50.929Z</time>
      </trkpt>
      <trkpt lat="48.00608" lon="4.80064">
        <ele>229.09</ele>
        <time>2025-02-02T12:00:56.731Z</time>
      </trkpt>
      <trkpt lat="48.00601" lon="4.80105">
        <ele>229.03</ele>
        <time>2025-02-02T12:01:02.538Z</time>
      </trkpt>
      <trkpt lat="48.00596" lon="4.80146">
        <ele>229.04</ele>
        <time>2025-02-02T12:01:08.349Z</time>
      </trkpt>
      <trkpt lat="48.00592" lon="4.80188">
        <ele>229.1</ele>
        <time>2025-02-02T12:01:14.165Z</time>
      </trkpt>
      <trkpt lat="48.00588" lon="4.80229">
        <ele>229</ele>
        <time>2025-02-02T12:01:19.985Z</time>
      </trkpt>
      <trkpt lat="48.00585" lon="4.80266">
        <ele>228.92</ele>
        <time>2025-02-02T12:01:25.809Z</time>
      </trkpt>
      <trkpt lat="48.00583" lon="4.80302">
        <ele>228.83</ele>
        <time>2025-02-02T12:01:31.637Z</time>
      </trkpt>
      <trkpt lat="48.00581" lon="4.80339">
        <ele>228.74</ele>
        <time>2025-02-02T12:01:37.469Z</time>
      </trkpt>
      <trkpt lat="48.00582" lon="4.80371">
        <ele>228.69</ele>
        <time>2025-02-02T12:01:43.304Z</time>
      </trkpt>
      <trkpt lat="48.00583" lon="4.80403">
        <ele>228.65</ele>
        <time>2025-02-02T12:01:49.143Z</time>
      </trkpt>
      <trkpt lat="48.00585" lon="4.80449">
        <ele>228.56</ele>
        <time>2025-02-02T12:01:54.987Z</time>
      </trkpt>
      <trkpt lat="48.00587" lon="4.80495">
        <ele>228.46</ele>
        <time>2025-02-02T12:02:00.836Z</time>
      </trkpt>
      <trkpt lat="48.00588" lon="4.80542">
        <ele>228.35</ele>
        <time>2025-02-02T12:02:06.690Z</time>
      </trkpt>
      <trkpt lat="48.0059" lon="4.80587">
        <ele>228.28</ele>
        <time>2025-02-02T12:02:12.549Z</time>
      </trkpt>
      <trkpt lat="48.00586" lon="4.80633">
        <ele>228.1</ele>
        <time>2025-02-02T12:02:18.413Z</time>
      </trkpt>
      <trkpt lat="48.00566" lon="4.80662">
        <ele>227.82</ele>
        <time>2025-02-02T12:02:24.281Z</time>
      </trkpt>
      <trkpt lat="48.00546" lon="4.80691">
        <ele>227.66</ele>
        <time>2025-02-02T12:02:30.154Z</time>
      </trkpt>
      <trkpt lat="48.00526" lon="4.80721">
        <ele>227.54</ele>
        <time>2025-02-02T12:02:36.031Z</time>
      </trkpt>
      <trkpt lat="48.00506" lon="4.8075">
        <ele>227.43</ele>
        <time>2025-02-02T12:02:41.913Z</time>
      </trkpt>
      <trkpt lat="48.00486" lon="4.8078">
        <ele>227.34</ele>
        <time>2025-02-02T12:02:47.799Z</time>
      </trkpt>
      <trkpt lat="48.00466" lon="4.80809">
        <ele>227.31</ele>
        <time>2025-02-02T12:02:53.690Z</time>
      </trkpt>
      <trkpt lat="48.00446" lon="4.80839">
        <ele>227.3</ele>
        <time>2025-02-02T12:02:59.585Z</time>
      </trkpt>
      <trkpt lat="48.00446" lon="4.80839">
        <ele>227.33</ele>
        <time>2025-02-02T12:03:05.480Z</time>
      </trkpt>
      <trkpt lat="48.00429" lon="4.80865">
        <ele>227.44</ele>
        <time>2025-02-02T12:03:11.379Z</time>
      </trkpt>
      <trkpt lat="48.00412" lon="4.80892">
        <ele>227.51</ele>
        <time>2025-02-02T12:03:17.282Z</time>
      </trkpt>
      <trkpt lat="48.00405" lon="4.80922">
        <ele>227.64</ele>
        <time>2025-02-02T12:03:23.188Z</time>
      </trkpt>
      <trkpt lat="48.00399" lon="4.80952">
        <ele>227.8</ele>
        <time>2025-02-02T12:03:29.098Z</time>
      </trkpt>
      <trkpt lat="48.00392" lon="4.80982">
        <ele>227.99</ele>
        <time>2025-02-02T12:03:35.011Z</time>
      </trkpt>
      <trkpt lat="48.00384" lon="4.81004">
        <ele>228.2</ele>
        <time>2025-02-02T12:03:40.927Z</time>
      </trkpt>
      <trkpt lat="48.0037" lon="4.8103">
        <ele>228.45</ele>
        <time>2025-02-02T12:03:46.846Z</time>
      </trkpt>
      <trkpt lat="48.00356" lon="4.81055">
        <ele>228.67</ele>
        <time>2025-02-02T12:03:52.769Z</time>
      </trkpt>
      <trkpt lat="48.00344" lon="4.81096">
        <ele>228.87</ele>
        <time>2025-02-02T12:03:58.697Z</time>
      </trkpt>
      <trkpt lat="48.00333" lon="4.81136">
        <ele>229.17</ele>
        <time>2025-02-02T12:04:04.629Z</time>
      </trkpt>
      <trkpt lat="48.00322" lon="4.81177">
        <ele>229.6</ele>
        <time>2025-02-02T12:04:10.566Z</time>
      </trkpt>
      <trkpt lat="48.0031" lon="4.81217">
        <ele>229.93</ele>
        <time>2025-02-02T12:04:16.508Z</time>
      </trkpt>
      <trkpt lat="48.00299" lon="4.81258">
        <ele>230.19</ele>
        <time>2025-02-02T12:04:22.455Z</time>
      </trkpt>
      <trkpt lat="48.00287" lon="4.81298">
        <ele>230.43</ele>
        <time>2025-02-02T12:04:28.406Z</time>
      </trkpt>
      <trkpt lat="48.00279" lon="4.81328">
        <ele>230.68</ele>
        <time>2025-02-02T12:04:34.361Z</time>
      </trkpt>
      <trkpt lat="48.00273" lon="4.81364">
        <ele>230.92</ele>
        <time>2025-02-02T12:04:40.320Z</time>
      </trkpt>
      <trkpt lat="48.00267" lon="4.81399">
        <ele>231.16</ele>
        <time>2025-02-02T12:04:46.283Z</time>
      </trkpt>
      <trkpt lat="48.00262" lon="4.81435">
        <ele>231.36</ele>
        <time>2025-02-02T12:04:52.250Z</time>
      </trkpt>
      <trkpt lat="48.00257" lon="4.81468">
        <ele>231.52</ele>
        <time>2025-02-02T12:04:58.220Z</time>
      </trkpt>
      <trkpt lat="48.00253" lon="4.81502">
        <ele>231.62</ele>
        <time>2025-02-02T12:05:04.194Z</time>
      </trkpt>
      <trkpt lat="48.00251" lon="4.81512">
        <ele>231.68</ele>
        <time>2025-02-02T12:05:10.169Z</time>
      </trkpt>
      <trkpt lat="48.00253" lon="4.8154">
        <ele>231.72</ele>
        <time>2025-02-02T12:05:16.147Z</time>
      </trkpt>
      <trkpt lat="48.00255" lon="4.81568">
        <ele>231.72</ele>
        <time>2025-02-02T12:05:22.128Z</time>
      </trkpt>
      <trkpt lat="48.00253" lon="4.81613">
        <ele>231.7</ele>
        <time>2025-02-02T12:05:28.114Z</time>
      </trkpt>
      <trkpt lat="48.00246" lon="4.81626">
        <ele>231.64</ele>
        <time>2025-02-02T12:05:34.102Z</time>
      </trkpt>
      <trkpt lat="48.00236" lon="4.81637">
        <ele>231.54</ele>
        <time>2025-02-02T12:05:40.092Z</time>
      </trkpt>
      <trkpt lat="48.00214" lon="4.81645">
        <ele>231.4</ele>
        <time>2025-02-02T12:05:46.085Z</time>
      </trkpt>
      <trkpt lat="48.00189" lon="4.8165">
        <ele>231.19</ele>
        <time>2025-02-02T12:05:52.083Z</time>
      </trkpt>
      <trkpt lat="48.00163" lon="4.81654">
        <ele>230.91</ele>
        <time>2025-02-02T12:05:58.085Z</time>
      </trkpt>
      <trkpt lat="48.00135" lon="4.81654">
        <ele>230.67</ele>
        <time>2025-02-02T12:06:04.091Z</time>
      </trkpt>
      <trkpt lat="48.00107" lon="4.81654">
        <ele>230.36</ele>
        <time>2025-02-02T12:06:10.102Z</time>
      </trkpt>
      <trkpt lat="48.00079" lon="4.81654">
        <ele>229.99</ele>
        <time>2025-02-02T12:06:16.117Z</time>
      </trkpt>
      <trkpt lat="48.0006" lon="4.81658">
        <ele>229.65</ele>
        <time>2025-02-02T12:06:22.135Z</time>
      </trkpt>
      <trkpt lat="48.00036" lon="4.81675">
        <ele>229.34</ele>
        <time>2025-02-02T12:06:28.157Z</time>
      </trkpt>
      <trkpt lat="48.00017" lon="4.81697">
        <ele>229.05</ele>
        <time>2025-02-02T12:06:34.183Z</time>
      </trkpt>
      <trkpt lat="47.99998" lon="4.81729">
        <ele>228.8</ele>
        <time>2025-02-02T12:06:40.214Z</time>
      </trkpt>
      <trkpt lat="47.9998" lon="4.81761">
        <ele>228.64</ele>
        <time>2025-02-02T12:06:46.249Z</time>
      </trkpt>
      <trkpt lat="47.99961" lon="4.81793">
        <ele>228.49</ele>
        <time>2025-02-02T12:06:52.289Z</time>
      </trkpt>
      <trkpt lat="47.9995" lon="4.81819">
        <ele>228.3</ele>
        <time>2025-02-02T12:06:58.332Z</time>
      </trkpt>
      <trkpt lat="47.9994" lon="4.81845">
        <ele>228.14</ele>
        <time>2025-02-02T12:07:04.378Z</time>
      </trkpt>
      <trkpt lat="47.99931" lon="4.81876">
        <ele>228.02</ele>
        <time>2025-02-02T12:07:10.428Z</time>
      </trkpt>
      <trkpt lat="47.99922" lon="4.81907">
        <ele>227.9</ele>
        <time>2025-02-02T12:07:16.482Z</time>
      </trkpt>
      <trkpt lat="47.99914" lon="4.81937">
        <ele>227.9</ele>
        <time>2025-02-02T12:07:22.539Z</time>
      </trkpt>
      <trkpt lat="47.99901" lon="4.81967">
        <ele>227.92</ele>
        <time>2025-02-02T12:07:28.600Z</time>
      </trkpt>
      <trkpt lat="47.99901" lon="4.81967">
        <ele>228</ele>
        <time>2025-02-02T12:07:34.661Z</time>
      </trkpt>
      <trkpt lat="47.99882" lon="4.81995">
        <ele>228.14</ele>
        <time>2025-02-02T12:07:40.726Z</time>
      </trkpt>
      <trkpt lat="47.9986" lon="4.82017">
        <ele>228.39</ele>
        <time>2025-02-02T12:07:46.796Z</time>
      </trkpt>
      <trkpt lat="47.99837" lon="4.82039">
        <ele>228.66</ele>
        <time>2025-02-02T12:07:52.870Z</time>
      </trkpt>
      <trkpt lat="47.99815" lon="4.82062">
        <ele>228.99</ele>
        <time>2025-02-02T12:07:58.948Z</time>
      </trkpt>
      <trkpt lat="47.99788" lon="4.82084">
        <ele>229.3</ele>
        <time>2025-02-02T12:08:05.031Z</time>
      </trkpt>
      <trkpt lat="47.99762" lon="4.82107">
        <ele>229.6</ele>
        <time>2025-02-02T12:08:11.119Z</time>
      </trkpt>
      <trkpt lat="47.99749" lon="4.82125">
        <ele>229.97</ele>
        <time>2025-02-02T12:08:17.210Z</time>
      </trkpt>
      <trkpt lat="47.99736" lon="4.82143">
        <ele>230.43</ele>
        <time>2025-02-02T12:08:23.304Z</time>
      </trkpt>
      <trkpt lat="47.99725" lon="4.82168">
        <ele>230.91</ele>
        <time>2025-02-02T12:08:29.401Z</time>
      </trkpt>
      <trkpt lat="47.99714" lon="4.82193">
        <ele>231.42</ele>
        <time>2025-02-02T12:08:35.501Z</time>
      </trkpt>
      <trkpt lat="47.99706" lon="4.82218">
        <ele>232</ele>
        <time>2025-02-02T12:08:41.604Z</time>
      </trkpt>
      <trkpt lat="47.99697" lon="4.82244">
        <ele>232.64</ele>
        <time>2025-02-02T12:08:47.710Z</time>
      </trkpt>
      <trkpt lat="47.9968" lon="4.8228">
        <ele>233.36</ele>
        <time>2025-02-02T12:08:53.821Z</time>
      </trkpt>
      <trkpt lat="47.99655" lon="4.82297">
        <ele>234</ele>
        <time>2025-02-02T12:08:59.936Z</time>
      </trkpt>
      <trkpt lat="47.99631" lon="4.82313">
        <ele>234.68</ele>
        <time>2025-02-02T12:09:06.056Z</time>
      </trkpt>
      <trkpt lat="47.99606" lon="4.82329">
        <ele>235.43</ele>
        <time>2025-02-02T12:09:12.180Z</time>
      </trkpt>
      <trkpt lat="47.99581" lon="4.82345">
        <ele>236.13</ele>
        <time>2025-02-02T12:09:18.308Z</time>
      </trkpt>
      <trkpt lat="47.99555" lon="4.82369">
        <ele>236.82</ele>
        <time>2025-02-02T12:09:24.441Z</time>
      </trkpt>
      <trkpt lat="47.99529" lon="4.82393">
        <ele>237.47</ele>
        <time>2025-02-02T12:09:30.579Z</time>
      </trkpt>
      <trkpt lat="47.99503" lon="4.82417">
        <ele>238.11</ele>
        <time>2025-02-02T12:09:36.722Z</time>
      </trkpt>
      <trkpt lat="47.99477" lon="4.82441">
        <ele>238.79</ele>
        <time>2025-02-02T12:09:42.870Z</time>
      </trkpt>
      <trkpt lat="47.9945" lon="4.82465">
        <ele>239.31</ele>
        <time>2025-02-02T12:09:49.023Z</time>
      </trkpt>
      <trkpt lat="47.9943" lon="4.82491">
        <ele>239.84</ele>
        <time>2025-02-02T12:09:55.180Z</time>
      </trkpt>
      <trkpt lat="47.9941" lon="4.82517">
        <ele>240.36</ele>
        <time>2025-02-02T12:10:01.341Z</time>
      </trkpt>
      <trkpt lat="47.99392" lon="4.82544">
        <ele>240.89</ele>
        <time>2025-02-02T12:10:07.507Z</time>
      </trkpt>
      <trkpt lat="47.99375" lon="4.82572">
        <ele>241.31</ele>
        <time>2025-02-02T12:10:13.677Z</time>
      </trkpt>
      <trkpt lat="47.99358" lon="4.8261">
        <ele>241.81</ele>
        <time>2025-02-02T12:10:19.851Z</time>
      </trkpt>
      <trkpt lat="47.99341" lon="4.82647">
        <ele>242.32</ele>
        <time>2025-02-02T12:10:26.030Z</time>
      </trkpt>
      <trkpt lat="47.9933" lon="4.82675">
        <ele>242.89</ele>
        <time>2025-02-02T12:10:32.213Z</time>
      </trkpt>
      <trkpt lat="47.99319" lon="4.82703">
        <ele>243.42</ele>
        <time>2025-02-02T12:10:38.399Z</time>
      </trkpt>
      <trkpt lat="47.99309" lon="4.82731">
        <ele>243.9</ele>
        <time>2025-02-02T12:10:44.589Z</time>
      </trkpt>
      <trkpt lat="47.99303" lon="4.82754">
        <ele>244.42</ele>
        <time>2025-02-02T12:10:50.781Z</time>
      </trkpt>
      <trkpt lat="47.99298" lon="4.82776">
        <ele>244.93</ele>
        <time>2025-02-02T12:10:56.976Z</time>
      </trkpt>
      <trkpt lat="47.99293" lon="4.82807">
        <ele>245.44</ele>
        <time>2025-02-02T12:11:03.174Z</time>
      </trkpt>
      <trkpt lat="47.99287" lon="4.82838">
        <ele>245.87</ele>
        <time>2025-02-02T12:11:09.376Z</time>
      </trkpt>
      <trkpt lat="47.99279" lon="4.8286">
        <ele>246.28</ele>
        <time>2025-02-02T12:11:15.580Z</time>
      </trkpt>
      <trkpt lat="47.9927" lon="4.82886">
        <ele>246.72</ele>
        <time>2025-02-02T12:11:21.788Z</time>
      </trkpt>
      <trkpt lat="47.99251" lon="4.82901">
        <ele>247.19</ele>
        <time>2025-02-02T12:11:27.999Z</time>
      </trkpt>
      <trkpt lat="47.99232" lon="4.82916">
        <ele>247.74</ele>
        <time>2025-02-02T12:11:34.214Z</time>
      </trkpt>
      <trkpt lat="47.99215" lon="4.82922">
        <ele>248.24</ele>
        <time>2025-02-02T12:11:40.431Z</time>
      </trkpt>
      <trkpt lat="47.99199" lon="4.82929">
        <ele>248.71</ele>
        <time>2025-02-02T12:11:46.651Z</time>
      </trkpt>
      <trkpt lat="47.99179" lon="4.82942">
        <ele>249.19</ele>
        <time>2025-02-02T12:11:52.874Z</time>
      </trkpt>
      <trkpt lat="47.99159" lon="4.82956">
        <ele>249.61</ele>
        <time>2025-02-02T12:11:59.101Z</time>
      </trkpt>
      <trkpt lat="47.99139" lon="4.82969">
        <ele>250.06</ele>
        <time>2025-02-02T12:12:05.331Z</time>
      </trkpt>
      <trkpt lat="47.99115" lon="4.82989">
        <ele>250.62</ele>
        <time>2025-02-02T12:12:11.566Z</time>
      </trkpt>
      <trkpt lat="47.99091" lon="4.83008">
        <ele>251.18</ele>
        <time>2025-02-02T12:12:17.805Z</time>
      </trkpt>
      <trkpt lat="47.99066" lon="4.83027">
        <ele>251.67</ele>
        <time>2025-02-02T12:12:24.049Z</time>
      </trkpt>
      <trkpt lat="47.99043" lon="4.83049">
        <ele>252.07</ele>
        <time>2025-02-02T12:12:30.297Z</time>
      </trkpt>
      <trkpt lat="47.99019" lon="4.8307">
        <ele>252.58</ele>
        <time>2025-02-02T12:12:36.550Z</time>
      </trkpt>
      <trkpt lat="47.98995" lon="4.83092">
        <ele>252.99</ele>
        <time>2025-02-02T12:12:42.807Z</time>
      </trkpt>
      <trkpt lat="47.98972" lon="4.83113">
        <ele>253.4</ele>
        <time>2025-02-02T12:12:49.068Z</time>
      </trkpt>
      <trkpt lat="47.98955" lon="4.83137">
        <ele>253.81</ele>
        <time>2025-02-02T12:12:55.333Z</time>
      </trkpt>
      <trkpt lat="47.98939" lon="4.8316">
        <ele>254.15</ele>
        <time>2025-02-02T12:13:01.602Z</time>
      </trkpt>
      <trkpt lat="47.98923" lon="4.83184">
        <ele>254.41</ele>
        <time>2025-02-02T12:13:07.874Z</time>
      </trkpt>
      <trkpt lat="47.98905" lon="4.83213">
        <ele>254.75</ele>
        <time>2025-02-02T12:13:14.151Z</time>
      </trkpt>
      <trkpt lat="47.98887" lon="4.83243">
        <ele>255.03</ele>
        <time>2025-02-02T12:13:20.432Z</time>
      </trkpt>
      <trkpt lat="47.98869" lon="4.83272">
        <ele>255.13</ele>
        <time>2025-02-02T12:13:26.717Z</time>
      </trkpt>
      <trkpt lat="47.98853" lon="4.83305">
        <ele>255.22</ele>
        <time>2025-02-02T12:13:33.006Z</time>
      </trkpt>
      <trkpt lat="47.98838" lon="4.83337">
        <ele>255.23</ele>
        <time>2025-02-02T12:13:39.300Z</time>
      </trkpt>
      <trkpt lat="47.98822" lon="4.8337">
        <ele>255.15</ele>
        <time>2025-02-02T12:13:45.598Z</time>
      </trkpt>
      <trkpt lat="47.98807" lon="4.83403">
        <ele>255.15</ele>
        <time>2025-02-02T12:13:51.900Z</time>
      </trkpt>
      <trkpt lat="47.98792" lon="4.83439">
        <ele>255.13</ele>
        <time>2025-02-02T12:13:58.207Z</time>
      </trkpt>
      <trkpt lat="47.98777" lon="4.83474">
        <ele>255.02</ele>
        <time>2025-02-02T12:14:04.518Z</time>
      </trkpt>
      <trkpt lat="47.98762" lon="4.8351">
        <ele>254.86</ele>
        <time>2025-02-02T12:14:10.834Z</time>
      </trkpt>
      <trkpt lat="47.98754" lon="4.83534">
        <ele>254.74</ele>
        <time>2025-02-02T12:14:17.153Z</time>
      </trkpt>
      <trkpt lat="47.98747" lon="4.83557">
        <ele>254.6</ele>
        <time>2025-02-02T12:14:23.475Z</time>
      </trkpt>
      <trkpt lat="47.98737" lon="4.83601">
        <ele>254.47</ele>
        <time>2025-02-02T12:14:29.801Z</time>
      </trkpt>
      <trkpt lat="47.98728" lon="4.83644">
        <ele>254.28</ele>
        <time>2025-02-02T12:14:36.132Z</time>
      </trkpt>
      <trkpt lat="47.98719" lon="4.83687">
        <ele>254.05</ele>
        <time>2025-02-02T12:14:42.468Z</time>
      </trkpt>
      <trkpt lat="47.98709" lon="4.83731">
        <ele>253.86</ele>
        <time>2025-02-02T12:14:48.809Z</time>
      </trkpt>
      <trkpt lat="47.987" lon="4.83774">
        <ele>253.66</ele>
        <time>2025-02-02T12:14:55.155Z</time>
      </trkpt>
      <trkpt lat="47.98691" lon="4.83817">
        <ele>253.4</ele>
        <time>2025-02-02T12:15:01.506Z</time>
      </trkpt>
      <trkpt lat="47.98684" lon="4.83853">
        <ele>253.1</ele>
        <time>2025-02-02T12:15:07.861Z</time>
      </trkpt>
      <trkpt lat="47.98678" lon="4.8389">
        <ele>252.82</ele>
        <time>2025-02-02T12:15:14.220Z</time>
      </trkpt>
      <trkpt lat="47.98678" lon="4.83933">
        <ele>252.59</ele>
        <time>2025-02-02T12:15:20.584Z</time>
      </trkpt>
      <trkpt lat="47.98678" lon="4.83976">
        <ele>252.26</ele>
        <time>2025-02-02T12:15:26.952Z</time>
      </trkpt>
      <trkpt lat="47.98679" lon="4.84014">
        <ele>251.97</ele>
        <time>2025-02-02T12:15:33.324Z</time>
      </trkpt>
      <trkpt lat="47.98681" lon="4.84052">
        <ele>251.67</ele>
        <time>2025-02-02T12:15:39.700Z</time>
      </trkpt>
      <trkpt lat="47.98682" lon="4.84091">
        <ele>251.36</ele>
        <time>2025-02-02T12:15:46.081Z</time>
      </trkpt>
      <trkpt lat="47.98683" lon="4.84129">
        <ele>251.06</ele>
        <time>2025-02-02T12:15:52.466Z</time>
      </trkpt>
      <trkpt lat="47.98684" lon="4.84167">
        <ele>250.75</ele>
        <time>2025-02-02T12:15:58.855Z</time>
      </trkpt>
      <trkpt lat="47.98684" lon="4.84205">
        <ele>250.37</ele>
        <time>2025-02-02T12:16:05.248Z</time>
      </trkpt>
      <trkpt lat="47.98684" lon="4.84243">
        <ele>250.06</ele>
        <time>2025-02-02T12:16:11.645Z</time>
      </trkpt>
      <trkpt lat="47.98684" lon="4.8428">
        <ele>249.77</ele>
        <time>2025-02-02T12:16:18.046Z</time>
      </trkpt>
      <trkpt lat="47.98682" lon="4.84309">
        <ele>249.42</ele>
        <time>2025-02-02T12:16:24.450Z</time>
      </trkpt>
      <trkpt lat="47.9868" lon="4.84338">
        <ele>249.06</ele>
        <time>2025-02-02T12:16:30.857Z</time>
      </trkpt>
      <trkpt lat="47.98674" lon="4.8436">
        <ele>248.72</ele>
        <time>2025-02-02T12:16:37.267Z</time>
      </trkpt>
      <trkpt lat="47.98667" lon="4.84381">
        <ele>248.43</ele>
        <time>2025-02-02T12:16:43.679Z</time>
      </trkpt>
      <trkpt lat="47.98652" lon="4.84417">
        <ele>248.12</ele>
        <time>2025-02-02T12:16:50.096Z</time>
      </trkpt>
      <trkpt lat="47.98637" lon="4.84453">
        <ele>247.91</ele>
        <time>2025-02-02T12:16:56.517Z</time>
      </trkpt>
      <trkpt lat="47.98622" lon="4.84489">
        <ele>247.73</ele>
        <time>2025-02-02T12:17:02.943Z</time>
      </trkpt>
      <trkpt lat="47.98607" lon="4.84525">
        <ele>247.56</ele>
        <time>2025-02-02T12:17:09.374Z</time>
      </trkpt>
      <trkpt lat="47.98592" lon="4.84561">
        <ele>247.37</ele>
        <time>2025-02-02T12:17:15.809Z</time>
      </trkpt>
      <trkpt lat="47.98577" lon="4.84597">
        <ele>247.22</ele>
        <time>2025-02-02T12:17:22.249Z</time>
      </trkpt>
      <trkpt lat="47.98562" lon="4.84632">
        <ele>247.15</ele>
        <time>2025-02-02T12:17:28.693Z</time>
      </trkpt>
      <trkpt lat="47.98545" lon="4.84671">
        <ele>247.05</ele>
        <time>2025-02-02T12:17:35.142Z</time>
      </trkpt>
      <trkpt lat="47.98528" lon="4.8471">
        <ele>247.04</ele>
        <time>2025-02-02T12:17:41.596Z</time>
      </trkpt>
      <trkpt lat="47.9851" lon="4.84749">
        <ele>247.07</ele>
        <time>2025-02-02T12:17:48.055Z</time>
      </trkpt>
      <trkpt lat="47.98493" lon="4.84788">
        <ele>247.02</ele>
        <time>2025-02-02T12:17:54.519Z</time>
      </trkpt>
      <trkpt lat="47.98476" lon="4.84827">
        <ele>247.02</ele>
        <time>2025-02-02T12:18:00.988Z</time>
      </trkpt>
      <trkpt lat="47.98459" lon="4.84866">
        <ele>247.2</ele>
        <time>2025-02-02T12:18:07.462Z</time>
      </trkpt>
      <trkpt lat="47.98442" lon="4.84905">
        <ele>247.46</ele>
        <time>2025-02-02T12:18:13.941Z</time>
      </trkpt>
      <trkpt lat="47.98431" lon="4.84938">
        <ele>247.72</ele>
        <time>2025-02-02T12:18:20.424Z</time>
      </trkpt>
      <trkpt lat="47.9842" lon="4.84971">
        <ele>248.01</ele>
        <time>2025-02-02T12:18:26.911Z</time>
      </trkpt>
      <trkpt lat="47.9841" lon="4.85014">
        <ele>248.33</ele>
        <time>2025-02-02T12:18:33.403Z</time>
      </trkpt>
      <trkpt lat="47.98399" lon="4.85057">
        <ele>248.68</ele>
        <time>2025-02-02T12:18:39.900Z</time>
      </trkpt>
      <trkpt lat="47.98394" lon="4.85096">
        <ele>249.09</ele>
        <time>2025-02-02T12:18:46.401Z</time>
      </trkpt>
      <trkpt lat="47.98388" lon="4.85134">
        <ele>249.52</ele>
        <time>2025-02-02T12:18:52.906Z</time>
      </trkpt>
      <trkpt lat="47.98388" lon="4.85167">
        <ele>249.96</ele>
        <time>2025-02-02T12:18:59.415Z</time>
      </trkpt>
      <trkpt lat="47.98388" lon="4.85199">
        <ele>250.46</ele>
        <time>2025-02-02T12:19:05.927Z</time>
      </trkpt>
      <trkpt lat="47.98386" lon="4.85228">
        <ele>250.98</ele>
        <time>2025-02-02T12:19:12.442Z</time>
      </trkpt>
      <trkpt lat="47.98384" lon="4.85257">
        <ele>251.51</ele>
        <time>2025-02-02T12:19:18.961Z</time>
      </trkpt>
      <trkpt lat="47.9838" lon="4.85287">
        <ele>252.08</ele>
        <time>2025-02-02T12:19:25.483Z</time>
      </trkpt>
      <trkpt lat="47.98375" lon="4.85317">
        <ele>252.71</ele>
        <time>2025-02-02T12:19:32.008Z</time>
      </trkpt>
      <trkpt lat="47.98373" lon="4.85343">
        <ele>253.29</ele>
        <time>2025-02-02T12:19:38.536Z</time>
      </trkpt>
      <trkpt lat="47.98371" lon="4.85368">
        <ele>253.88</ele>
        <time>2025-02-02T12:19:45.067Z</time>
      </trkpt>
      <trkpt lat="47.98366" lon="4.85393">
        <ele>254.38</ele>
        <time>2025-02-02T12:19:51.601Z</time>
      </trkpt>
      <trkpt lat="47.9836" lon="4.85418">
        <ele>254.92</ele>
        <time>2025-02-02T12:19:58.137Z</time>
      </trkpt>
      <trkpt lat="47.98352" lon="4.85448">
        <ele>255.48</ele>
        <time>2025-02-02T12:20:04.677Z</time>
      </trkpt>
      <trkpt lat="47.98345" lon="4.85478">
        <ele>256.06</ele>
        <time>2025-02-02T12:20:11.220Z</time>
      </trkpt>
      <trkpt lat="47.98337" lon="4.85508">
        <ele>256.63</ele>
        <time>2025-02-02T12:20:17.767Z</time>
      </trkpt>
      <trkpt lat="47.9833" lon="4.85538">
        <ele>257.15</ele>
        <time>2025-02-02T12:20:24.317Z</time>
      </trkpt>
      <trkpt lat="47.98323" lon="4.85568">
        <ele>257.67</ele>
        <time>2025-02-02T12:20:30.871Z</time>
      </trkpt>
      <trkpt lat="47.98314" lon="4.85606">
        <ele>258.21</ele>
        <time>2025-02-02T12:20:37.429Z</time>
      </trkpt>
      <trkpt lat="47.98305" lon="4.85644">
        <ele>258.77</ele>
        <time>2025-02-02T12:20:43.991Z</time>
      </trkpt>
      <trkpt lat="47.98296" lon="4.85682">
        <ele>259.39</ele>
        <time>2025-02-02T12:20:50.558Z</time>
      </trkpt>
      <trkpt lat="47.98325" lon="4.85677">
        <ele>259.95</ele>
        <time>2025-02-02T12:20:57.129Z</time>
      </trkpt>
      <trkpt lat="47.98354" lon="4.85673">
        <ele>260.5</ele>
        <time>2025-02-02T12:21:03.705Z</time>
      </trkpt>
      <trkpt lat="47.98369" lon="4.85663">
        <ele>261.06</ele>
        <time>2025-02-02T12:21:10.284Z</time>
      </trkpt>
      <trkpt lat="47.98384" lon="4.85653">
        <ele>261.66</ele>
        <time>2025-02-02T12:21:16.865Z</time>
      </trkpt>
      <trkpt lat="47.98393" lon="4.85647">
        <ele>262.22</ele>
        <time>2025-02-02T12:21:23.448Z</time>
      </trkpt>
      <trkpt lat="47.9842" lon="4.85645">
        <ele>262.86</ele>
        <time>2025-02-02T12:21:30.035Z</time>
      </trkpt>
      <trkpt lat="47.98439" lon="4.85651">
        <ele>263.48</ele>
        <time>2025-02-02T12:21:36.625Z</time>
      </trkpt>
      <trkpt lat="47.98457" lon="4.85658">
        <ele>264.11</ele>
        <time>2025-02-02T12:21:43.218Z</time>
      </trkpt>
      <trkpt lat="47.98461" lon="4.85677">
        <ele>264.6</ele>
        <time>2025-02-02T12:21:49.813Z</time>
      </trkpt>
      <trkpt lat="47.98476" lon="4.85677">
        <ele>265.16</ele>
        <time>2025-02-02T12:21:56.411Z</time>
      </trkpt>
      <trkpt lat="47.98476" lon="4.85722">
        <ele>265.56</ele>
        <time>2025-02-02T12:22:03.014Z</time>
      </trkpt>
      <trkpt lat="47.98478" lon="4.85731">
        <ele>265.99</ele>
        <time>2025-02-02T12:22:09.618Z</time>
      </trkpt>
      <trkpt lat="47.98496" lon="4.85739">
        <ele>266.46</ele>
        <time>2025-02-02T12:22:16.224Z</time>
      </trkpt>
      <trkpt lat="47.98496" lon="4.85748">
        <ele>266.85</ele>
        <time>2025-02-02T12:22:22.831Z</time>
      </trkpt>
      <trkpt lat="47.98519" lon="4.85752">
        <ele>267.3</ele>
        <time>2025-02-02T12:22:29.442Z</time>
      </trkpt>
      <trkpt lat="47.98543" lon="4.85757">
        <ele>267.74</ele>
        <time>2025-02-02T12:22:36.057Z</time>
      </trkpt>
      <trkpt lat="47.98566" lon="4.85761">
        <ele>268.14</ele>
        <time>2025-02-02T12:22:42.676Z</time>
      </trkpt>
      <trkpt lat="47.98566" lon="4.85761">
        <ele>268.35</ele>
        <time>2025-02-02T12:22:49.295Z</time>
      </trkpt>
      <trkpt lat="47.98566" lon="4.85782">
        <ele>268.51</ele>
        <time>2025-02-02T12:22:55.916Z</time>
      </trkpt>
      <trkpt lat="47.98566" lon="4.85782">
        <ele>268.62</ele>
        <time>2025-02-02T12:23:02.537Z</time>
      </trkpt>
      <trkpt lat="47.98568" lon="4.85782">
        <ele>268.69</ele>
        <time>2025-02-02T12:23:09.158Z</time>
      </trkpt>
      <trkpt lat="47.98568" lon="4.85768">
        <ele>268.69</ele>
        <time>2025-02-02T12:23:15.781Z</time>
      </trkpt>
      <trkpt lat="47.98562" lon="4.85766">
        <ele>268.61</ele>
        <time>2025-02-02T12:23:22.405Z</time>
      </trkpt>
      <trkpt lat="47.98554" lon="4.85766">
        <ele>268.47</ele>
        <time>2025-02-02T12:23:29.030Z</time>
      </trkpt>
      <trkpt lat="47.98536" lon="4.85769">
        <ele>268.24</ele>
        <time>2025-02-02T12:23:35.658Z</time>
      </trkpt>
      <trkpt lat="47.98524" lon="4.85777">
        <ele>268</ele>
        <time>2025-02-02T12:23:42.288Z</time>
      </trkpt>
      <trkpt lat="47.98516" lon="4.85776">
        <ele>267.76</ele>
        <time>2025-02-02T12:23:48.919Z</time>
      </trkpt>
      <trkpt lat="47.98502" lon="4.85769">
        <ele>267.46</ele>
        <time>2025-02-02T12:23:55.553Z</time>
      </trkpt>
      <trkpt lat="47.98494" lon="4.85767">
        <ele>267.16</ele>
        <time>2025-02-02T12:24:02.188Z</time>
      </trkpt>
      <trkpt lat="47.98484" lon="4.85767">
        <ele>266.82</ele>
        <time>2025-02-02T12:24:08.825Z</time>
      </trkpt>
      <trkpt lat="47.98485" lon="4.85774">
        <ele>266.53</ele>
        <time>2025-02-02T12:24:15.462Z</time>
      </trkpt>
      <trkpt lat="47.98483" lon="4.85794">
        <ele>266.22</ele>
        <time>2025-02-02T12:24:22.102Z</time>
      </trkpt>
      <trkpt lat="47.9848" lon="4.8583">
        <ele>265.95</ele>
        <time>2025-02-02T12:24:28.746Z</time>
      </trkpt>
      <trkpt lat="47.9847" lon="4.85838">
        <ele>265.6</ele>
        <time>2025-02-02T12:24:35.391Z</time>
      </trkpt>
      <trkpt lat="47.98465" lon="4.85843">
        <ele>265.26</ele>
        <time>2025-02-02T12:24:42.037Z</time>
      </trkpt>
      <trkpt lat="47.9845" lon="4.85878">
        <ele>264.94</ele>
        <time>2025-02-02T12:24:48.688Z</time>
      </trkpt>
      <trkpt lat="47.98449" lon="4.85879">
        <ele>264.6</ele>
        <time>2025-02-02T12:24:55.339Z</time>
      </trkpt>
      <trkpt lat="47.98449" lon="4.85879">
        <ele>264.26</ele>
        <time>2025-02-02T12:25:01.990Z</time>
      </trkpt>
      <trkpt lat="47.98441" lon="4.85893">
        <ele>263.96</ele>
        <time>2025-02-02T12:25:08.643Z</time>
      </trkpt>
      <trkpt lat="47.98436" lon="4.85909">
        <ele>263.65</ele>
        <time>2025-02-02T12:25:15.298Z</time>
      </trkpt>
      <trkpt lat="47.98406" lon="4.85897">
        <ele>263.26</ele>
        <time>2025-02-02T12:25:21.958Z</time>
      </trkpt>
      <trkpt lat="47.98404" lon="4.85896">
        <ele>262.93</ele>
        <time>2025-02-02T12:25:28.618Z</time>
      </trkpt>
      <trkpt lat="47.98385" lon="4.85884">
        <ele>262.55</ele>
        <time>2025-02-02T12:25:35.281Z</time>
      </trkpt>
      <trkpt lat="47.98369" lon="4.85871">
        <ele>262.2</ele>
        <time>2025-02-02T12:25:41.947Z</time>
      </trkpt>
      <trkpt lat="47.98342" lon="4.85847">
        <ele>261.9</ele>
        <time>2025-02-02T12:25:48.618Z</time>
      </trkpt>
      <trkpt lat="47.98325" lon="4.85833">
        <ele>261.62</ele>
        <time>2025-02-02T12:25:55.293Z</time>
      </trkpt>
      <trkpt lat="47.98316" lon="4.85829">
        <ele>261.34</ele>
        <time>2025-02-02T12:26:01.969Z</time>
      </trkpt>
      <trkpt lat="47.98311" lon="4.8583">
        <ele>261.07</ele>
        <time>2025-02-02T12:26:08.646Z</time>
      </trkpt>
      <trkpt lat="47.98312" lon="4.85839">
        <ele>260.85</ele>
        <time>2025-02-02T12:26:15.324Z</time>
      </trkpt>
      <trkpt lat="47.9831" lon="4.85869">
        <ele>260.64</ele>
        <time>2025-02-02T12:26:22.005Z</time>
      </trkpt>
      <trkpt lat="47.98303" lon="4.85915">
        <ele>260.44</ele>
        <time>2025-02-02T12:26:28.691Z</time>
      </trkpt>
      <trkpt lat="47.98303" lon="4.85917">
        <ele>260.27</ele>
        <time>2025-02-02T12:26:35.377Z</time>
      </trkpt>
      <trkpt lat="47.98301" lon="4.85962">
        <ele>260.12</ele>
        <time>2025-02-02T12:26:42.068Z</time>
      </trkpt>
      <trkpt lat="47.98299" lon="4.85996">
        <ele>259.99</ele>
        <time>2025-02-02T12:26:48.763Z</time>
      </trkpt>
      <trkpt lat="47.98291" lon="4.86041">
        <ele>259.88</ele>
        <time>2025-02-02T12:26:55.463Z</time>
      </trkpt>
      <trkpt lat="47.98287" lon="4.86062">
        <ele>259.8</ele>
        <time>2025-02-02T12:27:02.165Z</time>
      </trkpt>
      <trkpt lat="47.98278" lon="4.86107">
        <ele>259.73</ele>
        <time>2025-02-02T12:27:08.872Z</time>
      </trkpt>
      <trkpt lat="47.98272" lon="4.86137">
        <ele>259.68</ele>
        <time>2025-02-02T12:27:15.583Z</time>
      </trkpt>
      <trkpt lat="47.98263" lon="4.86182">
        <ele>259.64</ele>
        <time>2025-02-02T12:27:22.299Z</time>
      </trkpt>
      <trkpt lat="47.98254" lon="4.86227">
        <ele>259.64</ele>
        <time>2025-02-02T12:27:29.020Z</time>
      </trkpt>
      <trkpt lat="47.98245" lon="4.86272">
        <ele>259.71</ele>
        <time>2025-02-02T12:27:35.746Z</time>
      </trkpt>
      <trkpt lat="47.98236" lon="4.86317">
        <ele>259.89</ele>
        <time>2025-02-02T12:27:42.477Z</time>
      </trkpt>
      <trkpt lat="47.98227" lon="4.86362">
        <ele>260.04</ele>
        <time>2025-02-02T12:27:49.213Z</time>
      </trkpt>
      <trkpt lat="47.98222" lon="4.86386">
        <ele>260.2</ele>
        <time>2025-02-02T12:27:55.952Z</time>
      </trkpt>
      <trkpt lat="47.98214" lon="4.86431">
        <ele>260.39</ele>
        <time>2025-02-02T12:28:02.696Z</time>
      </trkpt>
      <trkpt lat="47.98205" lon="4.86476">
        <ele>260.59</ele>
        <time>2025-02-02T12:28:09.445Z</time>
      </trkpt>
      <trkpt lat="47.98197" lon="4.86522">
        <ele>260.81</ele>
        <time>2025-02-02T12:28:16.199Z</time>
      </trkpt>
      <trkpt lat="47.98189" lon="4.86567">
        <ele>261.08</ele>
        <time>2025-02-02T12:28:22.958Z</time>
      </trkpt>
      <trkpt lat="47.9818" lon="4.86612">
        <ele>261.36</ele>
        <time>2025-02-02T12:28:29.722Z</time>
      </trkpt>
      <trkpt lat="47.98172" lon="4.86657">
        <ele>261.59</ele>
        <time>2025-02-02T12:28:36.491Z</time>
      </trkpt>
      <trkpt lat="47.98169" lon="4.86673">
        <ele>261.85</ele>
        <time>2025-02-02T12:28:43.262Z</time>
      </trkpt>
      <trkpt lat="47.98161" lon="4.86719">
        <ele>262.15</ele>
        <time>2025-02-02T12:28:50.038Z</time>
      </trkpt>
      <trkpt lat="47.98156" lon="4.86751">
        <ele>262.47</ele>
        <time>2025-02-02T12:28:56.817Z</time>
      </trkpt>
      <trkpt lat="47.98148" lon="4.86796">
        <ele>262.77</ele>
        <time>2025-02-02T12:29:03.601Z</time>
      </trkpt>
      <trkpt lat="47.98141" lon="4.8684">
        <ele>263.04</ele>
        <time>2025-02-02T12:29:10.390Z</time>
      </trkpt>
      <trkpt lat="47.98133" lon="4.86883">
        <ele>263.31</ele>
        <time>2025-02-02T12:29:17.184Z</time>
      </trkpt>
      <trkpt lat="47.98126" lon="4.86912">
        <ele>263.6</ele>
        <time>2025-02-02T12:29:23.981Z</time>
      </trkpt>
      <trkpt lat="47.98111" lon="4.86953">
        <ele>263.88</ele>
        <time>2025-02-02T12:29:30.783Z</time>
      </trkpt>
      <trkpt lat="47.98111" lon="4.86954">
        <ele>264.19</ele>
        <time>2025-02-02T12:29:37.585Z</time>
      </trkpt>
      <trkpt lat="47.98102" lon="4.86977">
        <ele>264.54</ele>
        <time>2025-02-02T12:29:44.390Z</time>
      </trkpt>
      <trkpt lat="47.98089" lon="4.87007">
        <ele>264.89</ele>
        <time>2025-02-02T12:29:51.199Z</time>
      </trkpt>
      <trkpt lat="47.98081" lon="4.87034">
        <ele>265.26</ele>
        <time>2025-02-02T12:29:58.011Z</time>
      </trkpt>
      <trkpt lat="47.98078" lon="4.87065">
        <ele>265.65</ele>
        <time>2025-02-02T12:30:04.826Z</time>
      </trkpt>
      <trkpt lat="47.98077" lon="4.87112">
        <ele>266.03</ele>
        <time>2025-02-02T12:30:11.647Z</time>
      </trkpt>
      <trkpt lat="47.98076" lon="4.8713">
        <ele>266.4</ele>
        <time>2025-02-02T12:30:18.469Z</time>
      </trkpt>
      <trkpt lat="47.98075" lon="4.87177">
        <ele>266.77</ele>
        <time>2025-02-02T12:30:25.297Z</time>
      </trkpt>
      <trkpt lat="47.98075" lon="4.87206">
        <ele>267.17</ele>
        <time>2025-02-02T12:30:32.128Z</time>
      </trkpt>
      <trkpt lat="47.98074" lon="4.87253">
        <ele>267.65</ele>
        <time>2025-02-02T12:30:38.964Z</time>
      </trkpt>
      <trkpt lat="47.98074" lon="4.873">
        <ele>268.17</ele>
        <time>2025-02-02T12:30:45.805Z</time>
      </trkpt>
      <trkpt lat="47.98073" lon="4.87347">
        <ele>268.67</ele>
        <time>2025-02-02T12:30:52.651Z</time>
      </trkpt>
      <trkpt lat="47.98073" lon="4.87368">
        <ele>269.13</ele>
        <time>2025-02-02T12:30:59.499Z</time>
      </trkpt>
      <trkpt lat="47.98071" lon="4.87415">
        <ele>269.66</ele>
        <time>2025-02-02T12:31:06.352Z</time>
      </trkpt>
      <trkpt lat="47.98069" lon="4.87462">
        <ele>270.25</ele>
        <time>2025-02-02T12:31:13.210Z</time>
      </trkpt>
      <trkpt lat="47.98067" lon="4.87508">
        <ele>270.82</ele>
        <time>2025-02-02T12:31:20.073Z</time>
      </trkpt>
      <trkpt lat="47.98066" lon="4.87555">
        <ele>271.3</ele>
        <time>2025-02-02T12:31:26.941Z</time>
      </trkpt>
      <trkpt lat="47.98064" lon="4.87602">
        <ele>271.7</ele>
        <time>2025-02-02T12:31:33.814Z</time>
      </trkpt>
      <trkpt lat="47.98062" lon="4.87649">
        <ele>272.2</ele>
        <time>2025-02-02T12:31:40.692Z</time>
      </trkpt>
      <trkpt lat="47.9806" lon="4.87696">
        <ele>272.7</ele>
        <time>2025-02-02T12:31:47.575Z</time>
      </trkpt>
      <trkpt lat="47.98058" lon="4.87742">
        <ele>273.16</ele>
        <time>2025-02-02T12:31:54.463Z</time>
      </trkpt>
      <trkpt lat="47.98056" lon="4.87789">
        <ele>273.61</ele>
        <time>2025-02-02T12:32:01.356Z</time>
      </trkpt>
      <trkpt lat="47.98056" lon="4.878">
        <ele>274.06</ele>
        <time>2025-02-02T12:32:08.251Z</time>
      </trkpt>
      <trkpt lat="47.98055" lon="4.87847">
        <ele>274.53</ele>
        <time>2025-02-02T12:32:15.151Z</time>
      </trkpt>
      <trkpt lat="47.98053" lon="4.87894">
        <ele>275.01</ele>
        <time>2025-02-02T12:32:22.056Z</time>
      </trkpt>
      <trkpt lat="47.98052" lon="4.8794">
        <ele>275.42</ele>
        <time>2025-02-02T12:32:28.966Z</time>
      </trkpt>
      <trkpt lat="47.9805" lon="4.87987">
        <ele>275.8</ele>
        <time>2025-02-02T12:32:35.881Z</time>
      </trkpt>
      <trkpt lat="47.98049" lon="4.88034">
        <ele>276.21</ele>
        <time>2025-02-02T12:32:42.801Z</time>
      </trkpt>
      <trkpt lat="47.98048" lon="4.88051">
        <ele>276.59</ele>
        <time>2025-02-02T12:32:49.723Z</time>
      </trkpt>
      <trkpt lat="47.98047" lon="4.88098">
        <ele>277.02</ele>
        <time>2025-02-02T12:32:56.650Z</time>
      </trkpt>
      <trkpt lat="47.98046" lon="4.88145">
        <ele>277.36</ele>
        <time>2025-02-02T12:33:03.582Z</time>
      </trkpt>
      <trkpt lat="47.98045" lon="4.88192">
        <ele>277.64</ele>
        <time>2025-02-02T12:33:10.519Z</time>
      </trkpt>
      <trkpt lat="47.98044" lon="4.88238">
        <ele>277.95</ele>
        <time>2025-02-02T12:33:17.461Z</time>
      </trkpt>
      <trkpt lat="47.98044" lon="4.88263">
        <ele>278.25</ele>
        <time>2025-02-02T12:33:24.405Z</time>
      </trkpt>
      <trkpt lat="47.98045" lon="4.8831">
        <ele>278.52</ele>
        <time>2025-02-02T12:33:31.354Z</time>
      </trkpt>
      <trkpt lat="47.98046" lon="4.88329">
        <ele>278.8</ele>
        <time>2025-02-02T12:33:38.306Z</time>
      </trkpt>
      <trkpt lat="47.98049" lon="4.88376">
        <ele>279.13</ele>
        <time>2025-02-02T12:33:45.263Z</time>
      </trkpt>
      <trkpt lat="47.98053" lon="4.88422">
        <ele>279.42</ele>
        <time>2025-02-02T12:33:52.225Z</time>
      </trkpt>
      <trkpt lat="47.98053" lon="4.88428">
        <ele>279.7</ele>
        <time>2025-02-02T12:33:59.187Z</time>
      </trkpt>
      <trkpt lat="47.98059" lon="4.88474">
        <ele>280.03</ele>
        <time>2025-02-02T12:34:06.154Z</time>
      </trkpt>
      <trkpt lat="47.98065" lon="4.8852">
        <ele>280.36</ele>
        <time>2025-02-02T12:34:13.126Z</time>
      </trkpt>
      <trkpt lat="47.98068" lon="4.88542">
        <ele>280.64</ele>
        <time>2025-02-02T12:34:20.101Z</time>
      </trkpt>
      <trkpt lat="47.98076" lon="4.88587">
        <ele>280.92</ele>
        <time>2025-02-02T12:34:27.081Z</time>
      </trkpt>
      <trkpt lat="47.98085" lon="4.88632">
        <ele>281.17</ele>
        <time>2025-02-02T12:34:34.066Z</time>
      </trkpt>
      <trkpt lat="47.98093" lon="4.88678">
        <ele>281.46</ele>
        <time>2025-02-02T12:34:41.056Z</time>
      </trkpt>
      <trkpt lat="47.98102" lon="4.88723">
        <ele>281.79</ele>
        <time>2025-02-02T12:34:48.051Z</time>
      </trkpt>
      <trkpt lat="47.98106" lon="4.88746">
        <ele>282.08</ele>
        <time>2025-02-02T12:34:55.048Z</time>
      </trkpt>
      <trkpt lat="47.98114" lon="4.88791">
        <ele>282.45</ele>
        <time>2025-02-02T12:35:02.051Z</time>
      </trkpt>
      <trkpt lat="47.98123" lon="4.88836">
        <ele>282.73</ele>
        <time>2025-02-02T12:35:09.059Z</time>
      </trkpt>
      <trkpt lat="47.98127" lon="4.88859">
        <ele>282.99</ele>
        <time>2025-02-02T12:35:16.069Z</time>
      </trkpt>
      <trkpt lat="47.98134" lon="4.88905">
        <ele>283.25</ele>
        <time>2025-02-02T12:35:23.084Z</time>
      </trkpt>
      <trkpt lat="47.98138" lon="4.88933">
        <ele>283.52</ele>
        <time>2025-02-02T12:35:30.102Z</time>
      </trkpt>
      <trkpt lat="47.98139" lon="4.88963">
        <ele>283.79</ele>
        <time>2025-02-02T12:35:37.123Z</time>
      </trkpt>
      <trkpt lat="47.98138" lon="4.88993">
        <ele>284.04</ele>
        <time>2025-02-02T12:35:44.148Z</time>
      </trkpt>
      <trkpt lat="47.98134" lon="4.89039">
        <ele>284.28</ele>
        <time>2025-02-02T12:35:51.178Z</time>
      </trkpt>
      <trkpt lat="47.98129" lon="4.89086">
        <ele>284.47</ele>
        <time>2025-02-02T12:35:58.213Z</time>
      </trkpt>
      <trkpt lat="47.98129" lon="4.89091">
        <ele>284.7</ele>
        <time>2025-02-02T12:36:05.248Z</time>
      </trkpt>
      <trkpt lat="47.98124" lon="4.89137">
        <ele>284.87</ele>
        <time>2025-02-02T12:36:12.288Z</time>
      </trkpt>
      <trkpt lat="47.98118" lon="4.89183">
        <ele>285.12</ele>
        <time>2025-02-02T12:36:19.333Z</time>
      </trkpt>
      <trkpt lat="47.98113" lon="4.8923">
        <ele>285.44</ele>
        <time>2025-02-02T12:36:26.383Z</time>
      </trkpt>
      <trkpt lat="47.98113" lon="4.8923">
        <ele>285.68</ele>
        <time>2025-02-02T12:36:33.433Z</time>
      </trkpt>
      <trkpt lat="47.98107" lon="4.89276">
        <ele>285.96</ele>
        <time>2025-02-02T12:36:40.489Z</time>
      </trkpt>
      <trkpt lat="47.98107" lon="4.8928">
        <ele>286.21</ele>
        <time>2025-02-02T12:36:47.545Z</time>
      </trkpt>
      <trkpt lat="47.98105" lon="4.89327">
        <ele>286.41</ele>
        <time>2025-02-02T12:36:54.606Z</time>
      </trkpt>
      <trkpt lat="47.98104" lon="4.89337">
        <ele>286.68</ele>
        <time>2025-02-02T12:37:01.668Z</time>
      </trkpt>
      <trkpt lat="47.98102" lon="4.89384">
        <ele>287.04</ele>
        <time>2025-02-02T12:37:08.735Z</time>
      </trkpt>
      <trkpt lat="47.98102" lon="4.89391">
        <ele>287.34</ele>
        <time>2025-02-02T12:37:15.803Z</time>
      </trkpt>
      <trkpt lat="47.9809" lon="4.89386">
        <ele>287.65</ele>
        <time>2025-02-02T12:37:22.873Z</time>
      </trkpt>
      <trkpt lat="47.98102" lon="4.89391">
        <ele>287.34</ele>
        <time>2025-02-02T12:37:29.945Z</time>
      </trkpt>
      <trkpt lat="47.98096" lon="4.89437">
        <ele>288.38</ele>
        <time>2025-02-02T12:37:37.022Z</time>
      </trkpt>
      <trkpt lat="47.98095" lon="4.89443">
        <ele>288.72</ele>
        <time>2025-02-02T12:37:44.100Z</time>
      </trkpt>
      <trkpt lat="47.98093" lon="4.8947">
        <ele>289.09</ele>
        <time>2025-02-02T12:37:51.180Z</time>
      </trkpt>
      <trkpt lat="47.98094" lon="4.89517">
        <ele>289.5</ele>
        <time>2025-02-02T12:37:58.266Z</time>
      </trkpt>
      <trkpt lat="47.98094" lon="4.89535">
        <ele>289.86</ele>
        <time>2025-02-02T12:38:05.353Z</time>
      </trkpt>
      <trkpt lat="47.98093" lon="4.89582">
        <ele>290.24</ele>
        <time>2025-02-02T12:38:12.446Z</time>
      </trkpt>
      <trkpt lat="47.98092" lon="4.89629">
        <ele>290.63</ele>
        <time>2025-02-02T12:38:19.544Z</time>
      </trkpt>
      <trkpt lat="47.98092" lon="4.89631">
        <ele>291.03</ele>
        <time>2025-02-02T12:38:26.642Z</time>
      </trkpt>
      <trkpt lat="47.98088" lon="4.89677">
        <ele>291.47</ele>
        <time>2025-02-02T12:38:33.745Z</time>
      </trkpt>
      <trkpt lat="47.98085" lon="4.89711">
        <ele>291.91</ele>
        <time>2025-02-02T12:38:40.851Z</time>
      </trkpt>
      <trkpt lat="47.98081" lon="4.89757">
        <ele>292.31</ele>
        <time>2025-02-02T12:38:47.963Z</time>
      </trkpt>
      <trkpt lat="47.98077" lon="4.89804">
        <ele>292.68</ele>
        <time>2025-02-02T12:38:55.080Z</time>
      </trkpt>
      <trkpt lat="47.98073" lon="4.89844">
        <ele>293.17</ele>
        <time>2025-02-02T12:39:02.201Z</time>
      </trkpt>
      <trkpt lat="47.98068" lon="4.8989">
        <ele>293.7</ele>
        <time>2025-02-02T12:39:09.327Z</time>
      </trkpt>
      <trkpt lat="47.98062" lon="4.89936">
        <ele>294.25</ele>
        <time>2025-02-02T12:39:16.458Z</time>
      </trkpt>
      <trkpt lat="47.98061" lon="4.89949">
        <ele>294.73</ele>
        <time>2025-02-02T12:39:23.590Z</time>
      </trkpt>
      <trkpt lat="47.98055" lon="4.89995">
        <ele>295.34</ele>
        <time>2025-02-02T12:39:30.727Z</time>
      </trkpt>
      <trkpt lat="47.98049" lon="4.90041">
        <ele>295.85</ele>
        <time>2025-02-02T12:39:37.869Z</time>
      </trkpt>
      <trkpt lat="47.98043" lon="4.90087">
        <ele>296.42</ele>
        <time>2025-02-02T12:39:45.016Z</time>
      </trkpt>
      <trkpt lat="47.98038" lon="4.90133">
        <ele>296.88</ele>
        <time>2025-02-02T12:39:52.169Z</time>
      </trkpt>
      <trkpt lat="47.98032" lon="4.90179">
        <ele>297.32</ele>
        <time>2025-02-02T12:39:59.327Z</time>
      </trkpt>
      <trkpt lat="47.98026" lon="4.90225">
        <ele>297.72</ele>
        <time>2025-02-02T12:40:06.490Z</time>
      </trkpt>
      <trkpt lat="47.98024" lon="4.9024">
        <ele>298.16</ele>
        <time>2025-02-02T12:40:13.654Z</time>
      </trkpt>
      <trkpt lat="47.98017" lon="4.90286">
        <ele>298.63</ele>
        <time>2025-02-02T12:40:20.823Z</time>
      </trkpt>
      <trkpt lat="47.98011" lon="4.90332">
        <ele>299.13</ele>
        <time>2025-02-02T12:40:27.997Z</time>
      </trkpt>
      <trkpt lat="47.98007" lon="4.90358">
        <ele>299.57</ele>
        <time>2025-02-02T12:40:35.174Z</time>
      </trkpt>
      <trkpt lat="47.97999" lon="4.90403">
        <ele>300.01</ele>
        <time>2025-02-02T12:40:42.356Z</time>
      </trkpt>
      <trkpt lat="47.97991" lon="4.90449">
        <ele>300.39</ele>
        <time>2025-02-02T12:40:49.543Z</time>
      </trkpt>
      <trkpt lat="47.97983" lon="4.90494">
        <ele>300.74</ele>
        <time>2025-02-02T12:40:56.735Z</time>
      </trkpt>
      <trkpt lat="47.97976" lon="4.9054">
        <ele>301.25</ele>
        <time>2025-02-02T12:41:03.932Z</time>
      </trkpt>
      <trkpt lat="47.97973" lon="4.90554">
        <ele>301.62</ele>
        <time>2025-02-02T12:41:11.131Z</time>
      </trkpt>
      <trkpt lat="47.97965" lon="4.90599">
        <ele>302.01</ele>
        <time>2025-02-02T12:41:18.335Z</time>
      </trkpt>
      <trkpt lat="47.97957" lon="4.90645">
        <ele>302.29</ele>
        <time>2025-02-02T12:41:25.544Z</time>
      </trkpt>
      <trkpt lat="47.9795" lon="4.9069">
        <ele>302.47</ele>
        <time>2025-02-02T12:41:32.758Z</time>
      </trkpt>
      <trkpt lat="47.97942" lon="4.90736">
        <ele>302.67</ele>
        <time>2025-02-02T12:41:39.977Z</time>
      </trkpt>
      <trkpt lat="47.97934" lon="4.90781">
        <ele>302.86</ele>
        <time>2025-02-02T12:41:47.201Z</time>
      </trkpt>
      <trkpt lat="47.97926" lon="4.90827">
        <ele>302.99</ele>
        <time>2025-02-02T12:41:54.430Z</time>
      </trkpt>
      <trkpt lat="47.97918" lon="4.90872">
        <ele>302.99</ele>
        <time>2025-02-02T12:42:01.664Z</time>
      </trkpt>
      <trkpt lat="47.97911" lon="4.90917">
        <ele>303.11</ele>
        <time>2025-02-02T12:42:08.903Z</time>
      </trkpt>
      <trkpt lat="47.97903" lon="4.90963">
        <ele>303.13</ele>
        <time>2025-02-02T12:42:16.147Z</time>
      </trkpt>
      <trkpt lat="47.97895" lon="4.91008">
        <ele>303.02</ele>
        <time>2025-02-02T12:42:23.396Z</time>
      </trkpt>
      <trkpt lat="47.97894" lon="4.91014">
        <ele>302.98</ele>
        <time>2025-02-02T12:42:30.646Z</time>
      </trkpt>
      <trkpt lat="47.97886" lon="4.91059">
        <ele>302.91</ele>
        <time>2025-02-02T12:42:37.901Z</time>
      </trkpt>
      <trkpt lat="47.97877" lon="4.91104">
        <ele>302.75</ele>
        <time>2025-02-02T12:42:45.161Z</time>
      </trkpt>
      <trkpt lat="47.97869" lon="4.9115">
        <ele>302.56</ele>
        <time>2025-02-02T12:42:52.426Z</time>
      </trkpt>
      <trkpt lat="47.97861" lon="4.91195">
        <ele>302.48</ele>
        <time>2025-02-02T12:42:59.696Z</time>
      </trkpt>
      <trkpt lat="47.97853" lon="4.9124">
        <ele>302.5</ele>
        <time>2025-02-02T12:43:06.971Z</time>
      </trkpt>
      <trkpt lat="47.97845" lon="4.91285">
        <ele>302.45</ele>
        <time>2025-02-02T12:43:14.251Z</time>
      </trkpt>
      <trkpt lat="47.97836" lon="4.91331">
        <ele>302.32</ele>
        <time>2025-02-02T12:43:21.536Z</time>
      </trkpt>
      <trkpt lat="47.97828" lon="4.91376">
        <ele>302.24</ele>
        <time>2025-02-02T12:43:28.826Z</time>
      </trkpt>
      <trkpt lat="47.97828" lon="4.91376">
        <ele>302.12</ele>
        <time>2025-02-02T12:43:36.116Z</time>
      </trkpt>
      <trkpt lat="47.97818" lon="4.91421">
        <ele>301.97</ele>
        <time>2025-02-02T12:43:43.411Z</time>
      </trkpt>
      <trkpt lat="47.97809" lon="4.91465">
        <ele>301.76</ele>
        <time>2025-02-02T12:43:50.711Z</time>
      </trkpt>
      <trkpt lat="47.97799" lon="4.9151">
        <ele>301.54</ele>
        <time>2025-02-02T12:43:58.016Z</time>
      </trkpt>
      <trkpt lat="47.97798" lon="4.91516">
        <ele>301.45</ele>
        <time>2025-02-02T12:44:05.322Z</time>
      </trkpt>
      <trkpt lat="47.97787" lon="4.9156">
        <ele>301.24</ele>
        <time>2025-02-02T12:44:12.633Z</time>
      </trkpt>
      <trkpt lat="47.97777" lon="4.91604">
        <ele>301.28</ele>
        <time>2025-02-02T12:44:19.949Z</time>
      </trkpt>
      <trkpt lat="47.97766" lon="4.91649">
        <ele>301.28</ele>
        <time>2025-02-02T12:44:27.270Z</time>
      </trkpt>
      <trkpt lat="47.97761" lon="4.91671">
        <ele>301.29</ele>
        <time>2025-02-02T12:44:34.594Z</time>
      </trkpt>
      <trkpt lat="47.9775" lon="4.91715">
        <ele>301.33</ele>
        <time>2025-02-02T12:44:41.923Z</time>
      </trkpt>
      <trkpt lat="47.97739" lon="4.91759">
        <ele>301.48</ele>
        <time>2025-02-02T12:44:49.257Z</time>
      </trkpt>
      <trkpt lat="47.97729" lon="4.91803">
        <ele>301.7</ele>
        <time>2025-02-02T12:44:56.596Z</time>
      </trkpt>
      <trkpt lat="47.97718" lon="4.91847">
        <ele>301.98</ele>
        <time>2025-02-02T12:45:03.940Z</time>
      </trkpt>
      <trkpt lat="47.97707" lon="4.91891">
        <ele>302.26</ele>
        <time>2025-02-02T12:45:11.289Z</time>
      </trkpt>
      <trkpt lat="47.97696" lon="4.91935">
        <ele>302.55</ele>
        <time>2025-02-02T12:45:18.643Z</time>
      </trkpt>
      <trkpt lat="47.97686" lon="4.91979">
        <ele>302.78</ele>
        <time>2025-02-02T12:45:26.002Z</time>
      </trkpt>
      <trkpt lat="47.97675" lon="4.92023">
        <ele>303.06</ele>
        <time>2025-02-02T12:45:33.366Z</time>
      </trkpt>
      <trkpt lat="47.97664" lon="4.92068">
        <ele>303.27</ele>
        <time>2025-02-02T12:45:40.735Z</time>
      </trkpt>
      <trkpt lat="47.97653" lon="4.92112">
        <ele>303.48</ele>
        <time>2025-02-02T12:45:48.109Z</time>
      </trkpt>
      <trkpt lat="47.97643" lon="4.92156">
        <ele>303.69</ele>
        <time>2025-02-02T12:45:55.488Z</time>
      </trkpt>
      <trkpt lat="47.97632" lon="4.922">
        <ele>303.94</ele>
        <time>2025-02-02T12:46:02.872Z</time>
      </trkpt>
      <trkpt lat="47.97626" lon="4.92224">
        <ele>304.14</ele>
        <time>2025-02-02T12:46:10.259Z</time>
      </trkpt>
      <trkpt lat="47.97615" lon="4.92268">
        <ele>304.33</ele>
        <time>2025-02-02T12:46:17.651Z</time>
      </trkpt>
      <trkpt lat="47.97604" lon="4.92312">
        <ele>304.4</ele>
        <time>2025-02-02T12:46:25.048Z</time>
      </trkpt>
      <trkpt lat="47.97594" lon="4.92356">
        <ele>304.45</ele>
        <time>2025-02-02T12:46:32.450Z</time>
      </trkpt>
      <trkpt lat="47.97583" lon="4.924">
        <ele>304.46</ele>
        <time>2025-02-02T12:46:39.857Z</time>
      </trkpt>
      <trkpt lat="47.97572" lon="4.92444">
        <ele>304.38</ele>
        <time>2025-02-02T12:46:47.269Z</time>
      </trkpt>
      <trkpt lat="47.97561" lon="4.92488">
        <ele>304.23</ele>
        <time>2025-02-02T12:46:54.686Z</time>
      </trkpt>
      <trkpt lat="47.97551" lon="4.92532">
        <ele>304.01</ele>
        <time>2025-02-02T12:47:02.108Z</time>
      </trkpt>
      <trkpt lat="47.9754" lon="4.92576">
        <ele>303.72</ele>
        <time>2025-02-02T12:47:09.535Z</time>
      </trkpt>
      <trkpt lat="47.97529" lon="4.9262">
        <ele>303.41</ele>
        <time>2025-02-02T12:47:16.967Z</time>
      </trkpt>
      <trkpt lat="47.97518" lon="4.92664">
        <ele>303.06</ele>
        <time>2025-02-02T12:47:24.404Z</time>
      </trkpt>
      <trkpt lat="47.97507" lon="4.92708">
        <ele>302.6</ele>
        <time>2025-02-02T12:47:31.846Z</time>
      </trkpt>
      <trkpt lat="47.97497" lon="4.92751">
        <ele>302.07</ele>
        <time>2025-02-02T12:47:39.293Z</time>
      </trkpt>
      <trkpt lat="47.97492" lon="4.92781">
        <ele>301.51</ele>
        <time>2025-02-02T12:47:46.744Z</time>
      </trkpt>
      <trkpt lat="47.97487" lon="4.92827">
        <ele>300.89</ele>
        <time>2025-02-02T12:47:54.200Z</time>
      </trkpt>
      <trkpt lat="47.97483" lon="4.92862">
        <ele>300.25</ele>
        <time>2025-02-02T12:48:01.660Z</time>
      </trkpt>
      <trkpt lat="47.9748" lon="4.92909">
        <ele>299.45</ele>
        <time>2025-02-02T12:48:09.125Z</time>
      </trkpt>
      <trkpt lat="47.97479" lon="4.92921">
        <ele>298.58</ele>
        <time>2025-02-02T12:48:16.591Z</time>
      </trkpt>
      <trkpt lat="47.9748" lon="4.92966">
        <ele>297.48</ele>
        <time>2025-02-02T12:48:24.062Z</time>
      </trkpt>
      <trkpt lat="47.9748" lon="4.93002">
        <ele>296.39</ele>
        <time>2025-02-02T12:48:31.537Z</time>
      </trkpt>
      <trkpt lat="47.9748" lon="4.93049">
        <ele>295.3</ele>
        <time>2025-02-02T12:48:39.017Z</time>
      </trkpt>
      <trkpt lat="47.9748" lon="4.93056">
        <ele>294.12</ele>
        <time>2025-02-02T12:48:46.497Z</time>
      </trkpt>
      <trkpt lat="47.97482" lon="4.93102">
        <ele>292.78</ele>
        <time>2025-02-02T12:48:53.982Z</time>
      </trkpt>
      <trkpt lat="47.97488" lon="4.93148">
        <ele>291.29</ele>
        <time>2025-02-02T12:49:01.472Z</time>
      </trkpt>
      <trkpt lat="47.97493" lon="4.93181">
        <ele>289.81</ele>
        <time>2025-02-02T12:49:08.966Z</time>
      </trkpt>
      <trkpt lat="47.97504" lon="4.93225">
        <ele>288.21</ele>
        <time>2025-02-02T12:49:16.465Z</time>
      </trkpt>
      <trkpt lat="47.97507" lon="4.93239">
        <ele>286.69</ele>
        <time>2025-02-02T12:49:23.966Z</time>
      </trkpt>
      <trkpt lat="47.97521" lon="4.93281">
        <ele>285.07</ele>
        <time>2025-02-02T12:49:31.472Z</time>
      </trkpt>
      <trkpt lat="47.97535" lon="4.93323">
        <ele>283.38</ele>
        <time>2025-02-02T12:49:38.983Z</time>
      </trkpt>
      <trkpt lat="47.97548" lon="4.93365">
        <ele>281.73</ele>
        <time>2025-02-02T12:49:46.499Z</time>
      </trkpt>
      <trkpt lat="47.97557" lon="4.93392">
        <ele>280.15</ele>
        <time>2025-02-02T12:49:54.018Z</time>
      </trkpt>
      <trkpt lat="47.97572" lon="4.93433">
        <ele>278.53</ele>
        <time>2025-02-02T12:50:01.542Z</time>
      </trkpt>
      <trkpt lat="47.97584" lon="4.93468">
        <ele>276.84</ele>
        <time>2025-02-02T12:50:09.070Z</time>
      </trkpt>
      <trkpt lat="47.97601" lon="4.93507">
        <ele>275.19</ele>
        <time>2025-02-02T12:50:16.603Z</time>
      </trkpt>
      <trkpt lat="47.97609" lon="4.93525">
        <ele>273.62</ele>
        <time>2025-02-02T12:50:24.139Z</time>
      </trkpt>
      <trkpt lat="47.97614" lon="4.93534">
        <ele>272.07</ele>
        <time>2025-02-02T12:50:31.676Z</time>
      </trkpt>
      <trkpt lat="47.97614" lon="4.93534">
        <ele>270.55</ele>
        <time>2025-02-02T12:50:39.213Z</time>
      </trkpt>
      <trkpt lat="47.97612" lon="4.9354">
        <ele>269.01</ele>
        <time>2025-02-02T12:50:46.750Z</time>
      </trkpt>
      <trkpt lat="47.97634" lon="4.93568">
        <ele>267.55</ele>
        <time>2025-02-02T12:50:54.292Z</time>
      </trkpt>
      <trkpt lat="47.97655" lon="4.93597">
        <ele>266.02</ele>
        <time>2025-02-02T12:51:01.839Z</time>
      </trkpt>
      <trkpt lat="47.97675" lon="4.93617">
        <ele>264.51</ele>
        <time>2025-02-02T12:51:09.390Z</time>
      </trkpt>
      <trkpt lat="47.97695" lon="4.93636">
        <ele>263.06</ele>
        <time>2025-02-02T12:51:16.944Z</time>
      </trkpt>
      <trkpt lat="47.9772" lon="4.93657">
        <ele>261.7</ele>
        <time>2025-02-02T12:51:24.503Z</time>
      </trkpt>
      <trkpt lat="47.97745" lon="4.93677">
        <ele>260.4</ele>
        <time>2025-02-02T12:51:32.067Z</time>
      </trkpt>
      <trkpt lat="47.97754" lon="4.93687">
        <ele>259.15</ele>
        <time>2025-02-02T12:51:39.632Z</time>
      </trkpt>
      <trkpt lat="47.97772" lon="4.93707">
        <ele>257.89</ele>
        <time>2025-02-02T12:51:47.201Z</time>
      </trkpt>
      <trkpt lat="47.9779" lon="4.93728">
        <ele>256.63</ele>
        <time>2025-02-02T12:51:54.773Z</time>
      </trkpt>
      <trkpt lat="47.97803" lon="4.93754">
        <ele>255.46</ele>
        <time>2025-02-02T12:52:02.349Z</time>
      </trkpt>
      <trkpt lat="47.97817" lon="4.93781">
        <ele>254.42</ele>
        <time>2025-02-02T12:52:09.929Z</time>
      </trkpt>
      <trkpt lat="47.97829" lon="4.93819">
        <ele>253.52</ele>
        <time>2025-02-02T12:52:17.513Z</time>
      </trkpt>
      <trkpt lat="47.97842" lon="4.93857">
        <ele>252.72</ele>
        <time>2025-02-02T12:52:25.102Z</time>
      </trkpt>
      <trkpt lat="47.9785" lon="4.93885">
        <ele>251.99</ele>
        <time>2025-02-02T12:52:32.694Z</time>
      </trkpt>
      <trkpt lat="47.97851" lon="4.93898">
        <ele>251.36</ele>
        <time>2025-02-02T12:52:40.287Z</time>
      </trkpt>
      <trkpt lat="47.97854" lon="4.93925">
        <ele>250.84</ele>
        <time>2025-02-02T12:52:47.883Z</time>
      </trkpt>
      <trkpt lat="47.97857" lon="4.93951">
        <ele>250.43</ele>
        <time>2025-02-02T12:52:55.482Z</time>
      </trkpt>
      <trkpt lat="47.97849" lon="4.93974">
        <ele>250.18</ele>
        <time>2025-02-02T12:53:03.084Z</time>
      </trkpt>
      <trkpt lat="47.97841" lon="4.93997">
        <ele>249.95</ele>
        <time>2025-02-02T12:53:10.689Z</time>
      </trkpt>
      <trkpt lat="47.97831" lon="4.94026">
        <ele>249.79</ele>
        <time>2025-02-02T12:53:18.297Z</time>
      </trkpt>
      <trkpt lat="47.97821" lon="4.94056">
        <ele>249.66</ele>
        <time>2025-02-02T12:53:25.909Z</time>
      </trkpt>
      <trkpt lat="47.97809" lon="4.94082">
        <ele>249.66</ele>
        <time>2025-02-02T12:53:33.524Z</time>
      </trkpt>
      <trkpt lat="47.97797" lon="4.94107">
        <ele>249.68</ele>
        <time>2025-02-02T12:53:41.143Z</time>
      </trkpt>
      <trkpt lat="47.97784" lon="4.94137">
        <ele>249.72</ele>
        <time>2025-02-02T12:53:48.765Z</time>
      </trkpt>
      <trkpt lat="47.97771" lon="4.94166">
        <ele>249.87</ele>
        <time>2025-02-02T12:53:56.391Z</time>
      </trkpt>
      <trkpt lat="47.97756" lon="4.94197">
        <ele>250.14</ele>
        <time>2025-02-02T12:54:04.021Z</time>
      </trkpt>
      <trkpt lat="47.97741" lon="4.94229">
        <ele>250.51</ele>
        <time>2025-02-02T12:54:11.655Z</time>
      </trkpt>
      <trkpt lat="47.97733" lon="4.9425">
        <ele>250.88</ele>
        <time>2025-02-02T12:54:19.292Z</time>
      </trkpt>
      <trkpt lat="47.97724" lon="4.94272">
        <ele>251.28</ele>
        <time>2025-02-02T12:54:26.932Z</time>
      </trkpt>
      <trkpt lat="47.97723" lon="4.94279">
        <ele>251.73</ele>
        <time>2025-02-02T12:54:34.572Z</time>
      </trkpt>
      <trkpt lat="47.97721" lon="4.94296">
        <ele>252.23</ele>
        <time>2025-02-02T12:54:42.214Z</time>
      </trkpt>
      <trkpt lat="47.97712" lon="4.94299">
        <ele>252.75</ele>
        <time>2025-02-02T12:54:49.858Z</time>
      </trkpt>
      <trkpt lat="47.97708" lon="4.94299">
        <ele>253.28</ele>
        <time>2025-02-02T12:54:57.503Z</time>
      </trkpt>
      <trkpt lat="47.977" lon="4.94295">
        <ele>253.84</ele>
        <time>2025-02-02T12:55:05.149Z</time>
      </trkpt>
      <trkpt lat="47.97683" lon="4.94287">
        <ele>254.41</ele>
        <time>2025-02-02T12:55:12.798Z</time>
      </trkpt>
      <trkpt lat="47.97666" lon="4.94279">
        <ele>255.03</ele>
        <time>2025-02-02T12:55:20.450Z</time>
      </trkpt>
      <trkpt lat="47.9764" lon="4.94261">
        <ele>255.69</ele>
        <time>2025-02-02T12:55:28.106Z</time>
      </trkpt>
      <trkpt lat="47.97633" lon="4.94254">
        <ele>256.27</ele>
        <time>2025-02-02T12:55:35.764Z</time>
      </trkpt>
      <trkpt lat="47.97621" lon="4.94243">
        <ele>256.83</ele>
        <time>2025-02-02T12:55:43.424Z</time>
      </trkpt>
      <trkpt lat="47.97618" lon="4.94242">
        <ele>257.36</ele>
        <time>2025-02-02T12:55:51.084Z</time>
      </trkpt>
      <trkpt lat="47.97595" lon="4.94242">
        <ele>257.91</ele>
        <time>2025-02-02T12:55:58.748Z</time>
      </trkpt>
      <trkpt lat="47.97587" lon="4.94259">
        <ele>258.43</ele>
        <time>2025-02-02T12:56:06.414Z</time>
      </trkpt>
      <trkpt lat="47.97573" lon="4.94283">
        <ele>258.93</ele>
        <time>2025-02-02T12:56:14.084Z</time>
      </trkpt>
      <trkpt lat="47.97564" lon="4.94293">
        <ele>259.35</ele>
        <time>2025-02-02T12:56:21.755Z</time>
      </trkpt>
      <trkpt lat="47.9756" lon="4.94299">
        <ele>259.7</ele>
        <time>2025-02-02T12:56:29.427Z</time>
      </trkpt>
      <trkpt lat="47.97558" lon="4.94301">
        <ele>260.01</ele>
        <time>2025-02-02T12:56:37.100Z</time>
      </trkpt>
      <trkpt lat="47.97556" lon="4.94302">
        <ele>260.26</ele>
        <time>2025-02-02T12:56:44.773Z</time>
      </trkpt>
      <trkpt lat="47.97554" lon="4.94305">
        <ele>260.47</ele>
        <time>2025-02-02T12:56:52.446Z</time>
      </trkpt>
      <trkpt lat="47.97544" lon="4.94315">
        <ele>260.66</ele>
        <time>2025-02-02T12:57:00.121Z</time>
      </trkpt>
      <trkpt lat="47.97532" lon="4.94327">
        <ele>260.75</ele>
        <time>2025-02-02T12:57:07.799Z</time>
      </trkpt>
      <trkpt lat="47.97529" lon="4.94335">
        <ele>260.8</ele>
        <time>2025-02-02T12:57:15.478Z</time>
      </trkpt>
      <trkpt lat="47.9753" lon="4.94339">
        <ele>260.81</ele>
        <time>2025-02-02T12:57:23.157Z</time>
      </trkpt>
      <trkpt lat="47.97541" lon="4.94344">
        <ele>260.77</ele>
        <time>2025-02-02T12:57:30.838Z</time>
      </trkpt>
      <trkpt lat="47.97555" lon="4.94351">
        <ele>260.64</ele>
        <time>2025-02-02T12:57:38.521Z</time>
      </trkpt>
      <trkpt lat="47.97565" lon="4.94356">
        <ele>260.48</ele>
        <time>2025-02-02T12:57:46.206Z</time>
      </trkpt>
      <trkpt lat="47.97575" lon="4.94361">
        <ele>260.27</ele>
        <time>2025-02-02T12:57:53.893Z</time>
      </trkpt>
      <trkpt lat="47.97591" lon="4.9437">
        <ele>259.98</ele>
        <time>2025-02-02T12:58:01.583Z</time>
      </trkpt>
      <trkpt lat="47.97607" lon="4.94379">
        <ele>259.68</ele>
        <time>2025-02-02T12:58:09.275Z</time>
      </trkpt>
      <trkpt lat="47.97614" lon="4.94394">
        <ele>259.37</ele>
        <time>2025-02-02T12:58:16.969Z</time>
      </trkpt>
      <trkpt lat="47.97621" lon="4.94406">
        <ele>259.05</ele>
        <time>2025-02-02T12:58:24.665Z</time>
      </trkpt>
      <trkpt lat="47.97622" lon="4.94408">
        <ele>258.75</ele>
        <time>2025-02-02T12:58:32.361Z</time>
      </trkpt>
      <trkpt lat="47.97616" lon="4.94397">
        <ele>258.5</ele>
        <time>2025-02-02T12:58:40.059Z</time>
      </trkpt>
      <trkpt lat="47.97617" lon="4.94399">
        <ele>258.2</ele>
        <time>2025-02-02T12:58:47.757Z</time>
      </trkpt>
      <trkpt lat="47.97622" lon="4.94408">
        <ele>257.86</ele>
        <time>2025-02-02T12:58:55.456Z</time>
      </trkpt>
      <trkpt lat="47.97623" lon="4.94409">
        <ele>257.55</ele>
        <time>2025-02-02T12:59:03.155Z</time>
      </trkpt>
      <trkpt lat="47.97618" lon="4.944">
        <ele>257.29</ele>
        <time>2025-02-02T12:59:10.856Z</time>
      </trkpt>
      <trkpt lat="47.97617" lon="4.94398">
        <ele>257</ele>
        <time>2025-02-02T12:59:18.557Z</time>
      </trkpt>
      <trkpt lat="47.97614" lon="4.94383">
        <ele>256.74</ele>
        <time>2025-02-02T12:59:26.260Z</time>
      </trkpt>
      <trkpt lat="47.97618" lon="4.94366">
        <ele>256.46</ele>
        <time>2025-02-02T12:59:33.964Z</time>
      </trkpt>
      <trkpt lat="47.97624" lon="4.94342">
        <ele>256.19</ele>
        <time>2025-02-02T12:59:41.671Z</time>
      </trkpt>
      <trkpt lat="47.97627" lon="4.94335">
        <ele>255.91</ele>
        <time>2025-02-02T12:59:49.379Z</time>
      </trkpt>
      <trkpt lat="47.9763" lon="4.94327">
        <ele>255.64</ele>
        <time>2025-02-02T12:59:57.088Z</time>
      </trkpt>
      <trkpt lat="47.97644" lon="4.94294">
        <ele>255.33</ele>
        <time>2025-02-02T13:00:04.801Z</time>
      </trkpt>
      <trkpt lat="47.9765" lon="4.9428">
        <ele>255.04</ele>
        <time>2025-02-02T13:00:12.516Z</time>
      </trkpt>
      <trkpt lat="47.9765" lon="4.94279">
        <ele>254.78</ele>
        <time>2025-02-02T13:00:20.231Z</time>
      </trkpt>
      <trkpt lat="47.97652" lon="4.94273">
        <ele>254.53</ele>
        <time>2025-02-02T13:00:27.947Z</time>
      </trkpt>
      <trkpt lat="47.97652" lon="4.94273">
        <ele>254.3</ele>
        <time>2025-02-02T13:00:35.663Z</time>
      </trkpt>
      <trkpt lat="47.97643" lon="4.94295">
        <ele>254.11</ele>
        <time>2025-02-02T13:00:43.382Z</time>
      </trkpt>
      <trkpt lat="47.97631" lon="4.94326">
        <ele>253.94</ele>
        <time>2025-02-02T13:00:51.105Z</time>
      </trkpt>
      <trkpt lat="47.97621" lon="4.94353">
        <ele>253.74</ele>
        <time>2025-02-02T13:00:58.831Z</time>
      </trkpt>
      <trkpt lat="47.97614" lon="4.94389">
        <ele>253.53</ele>
        <time>2025-02-02T13:01:06.561Z</time>
      </trkpt>
      <trkpt lat="47.97621" lon="4.94405">
        <ele>253.33</ele>
        <time>2025-02-02T13:01:14.293Z</time>
      </trkpt>
      <trkpt lat="47.97633" lon="4.94419">
        <ele>253.15</ele>
        <time>2025-02-02T13:01:22.028Z</time>
      </trkpt>
      <trkpt lat="47.9765" lon="4.94429">
        <ele>253.01</ele>
        <time>2025-02-02T13:01:29.765Z</time>
      </trkpt>
      <trkpt lat="47.97662" lon="4.94437">
        <ele>252.96</ele>
        <time>2025-02-02T13:01:37.505Z</time>
      </trkpt>
      <trkpt lat="47.97671" lon="4.94442">
        <ele>252.95</ele>
        <time>2025-02-02T13:01:45.246Z</time>
      </trkpt>
      <trkpt lat="47.97689" lon="4.94458">
        <ele>252.97</ele>
        <time>2025-02-02T13:01:52.990Z</time>
      </trkpt>
      <trkpt lat="47.97703" lon="4.9448">
        <ele>253.04</ele>
        <time>2025-02-02T13:02:00.738Z</time>
      </trkpt>
      <trkpt lat="47.97711" lon="4.94493">
        <ele>253.13</ele>
        <time>2025-02-02T13:02:08.488Z</time>
      </trkpt>
      <trkpt lat="47.9771" lon="4.94491">
        <ele>253.26</ele>
        <time>2025-02-02T13:02:16.238Z</time>
      </trkpt>
      <trkpt lat="47.97702" lon="4.94479">
        <ele>253.42</ele>
        <time>2025-02-02T13:02:23.990Z</time>
      </trkpt>
      <trkpt lat="47.97689" lon="4.94458">
        <ele>253.62</ele>
        <time>2025-02-02T13:02:31.745Z</time>
      </trkpt>
      <trkpt lat="47.97678" lon="4.94447">
        <ele>253.87</ele>
        <time>2025-02-02T13:02:39.502Z</time>
      </trkpt>
      <trkpt lat="47.97677" lon="4.94446">
        <ele>254.16</ele>
        <time>2025-02-02T13:02:47.259Z</time>
      </trkpt>
      <trkpt lat="47.97674" lon="4.94444">
        <ele>254.49</ele>
        <time>2025-02-02T13:02:55.016Z</time>
      </trkpt>
      <trkpt lat="47.97672" lon="4.94443">
        <ele>254.87</ele>
        <time>2025-02-02T13:03:02.774Z</time>
      </trkpt>
      <trkpt lat="47.97658" lon="4.94434">
        <ele>255.27</ele>
        <time>2025-02-02T13:03:10.534Z</time>
      </trkpt>
      <trkpt lat="47.97646" lon="4.94427">
        <ele>255.73</ele>
        <time>2025-02-02T13:03:18.296Z</time>
      </trkpt>
      <trkpt lat="47.97634" lon="4.94419">
        <ele>256.24</ele>
        <time>2025-02-02T13:03:26.060Z</time>
      </trkpt>
      <trkpt lat="47.97617" lon="4.94398">
        <ele>256.84</ele>
        <time>2025-02-02T13:03:33.828Z</time>
      </trkpt>
      <trkpt lat="47.97614" lon="4.94388">
        <ele>257.41</ele>
        <time>2025-02-02T13:03:41.597Z</time>
      </trkpt>
      <trkpt lat="47.97611" lon="4.94381">
        <ele>257.99</ele>
        <time>2025-02-02T13:03:49.367Z</time>
      </trkpt>
      <trkpt lat="47.97596" lon="4.94373">
        <ele>258.63</ele>
        <time>2025-02-02T13:03:57.140Z</time>
      </trkpt>
      <trkpt lat="47.97572" lon="4.9436">
        <ele>259.31</ele>
        <time>2025-02-02T13:04:04.917Z</time>
      </trkpt>
      <trkpt lat="47.97554" lon="4.94351">
        <ele>259.94</ele>
        <time>2025-02-02T13:04:12.697Z</time>
      </trkpt>
      <trkpt lat="47.97536" lon="4.94342">
        <ele>260.53</ele>
        <time>2025-02-02T13:04:20.480Z</time>
      </trkpt>
      <trkpt lat="47.97523" lon="4.94335">
        <ele>261.07</ele>
        <time>2025-02-02T13:04:28.265Z</time>
      </trkpt>
      <trkpt lat="47.97512" lon="4.94353">
        <ele>261.64</ele>
        <time>2025-02-02T13:04:36.052Z</time>
      </trkpt>
      <trkpt lat="47.9751" lon="4.94357">
        <ele>262.15</ele>
        <time>2025-02-02T13:04:43.840Z</time>
      </trkpt>
      <trkpt lat="47.97509" lon="4.94358">
        <ele>262.64</ele>
        <time>2025-02-02T13:04:51.628Z</time>
      </trkpt>
      <trkpt lat="47.97501" lon="4.94369">
        <ele>263.11</ele>
        <time>2025-02-02T13:04:59.418Z</time>
      </trkpt>
      <trkpt lat="47.97487" lon="4.9439">
        <ele>263.54</ele>
        <time>2025-02-02T13:05:07.211Z</time>
      </trkpt>
      <trkpt lat="47.97469" lon="4.94413">
        <ele>263.92</ele>
        <time>2025-02-02T13:05:15.008Z</time>
      </trkpt>
      <trkpt lat="47.97454" lon="4.94433">
        <ele>264.27</ele>
        <time>2025-02-02T13:05:22.808Z</time>
      </trkpt>
      <trkpt lat="47.97439" lon="4.94462">
        <ele>264.59</ele>
        <time>2025-02-02T13:05:30.612Z</time>
      </trkpt>
      <trkpt lat="47.9743" lon="4.94482">
        <ele>264.85</ele>
        <time>2025-02-02T13:05:38.419Z</time>
      </trkpt>
      <trkpt lat="47.9742" lon="4.94501">
        <ele>265.06</ele>
        <time>2025-02-02T13:05:46.228Z</time>
      </trkpt>
      <trkpt lat="47.9741" lon="4.94527">
        <ele>265.24</ele>
        <time>2025-02-02T13:05:54.040Z</time>
      </trkpt>
      <trkpt lat="47.97409" lon="4.94533">
        <ele>265.34</ele>
        <time>2025-02-02T13:06:01.853Z</time>
      </trkpt>
      <trkpt lat="47.97399" lon="4.94562">
        <ele>265.45</ele>
        <time>2025-02-02T13:06:09.670Z</time>
      </trkpt>
      <trkpt lat="47.97395" lon="4.94576">
        <ele>265.44</ele>
        <time>2025-02-02T13:06:17.488Z</time>
      </trkpt>
      <trkpt lat="47.97394" lon="4.94576">
        <ele>265.37</ele>
        <time>2025-02-02T13:06:25.306Z</time>
      </trkpt>
      <trkpt lat="47.97401" lon="4.94557">
        <ele>265.21</ele>
        <time>2025-02-02T13:06:33.127Z</time>
      </trkpt>
      <trkpt lat="47.9741" lon="4.94529">
        <ele>264.95</ele>
        <time>2025-02-02T13:06:40.951Z</time>
      </trkpt>
      <trkpt lat="47.97418" lon="4.94505">
        <ele>264.68</ele>
        <time>2025-02-02T13:06:48.778Z</time>
      </trkpt>
      <trkpt lat="47.97424" lon="4.94494">
        <ele>264.39</ele>
        <time>2025-02-02T13:06:56.606Z</time>
      </trkpt>
      <trkpt lat="47.97441" lon="4.94457">
        <ele>264.04</ele>
        <time>2025-02-02T13:07:04.439Z</time>
      </trkpt>
      <trkpt lat="47.97461" lon="4.94423">
        <ele>263.65</ele>
        <time>2025-02-02T13:07:12.277Z</time>
      </trkpt>
      <trkpt lat="47.97481" lon="4.94397">
        <ele>263.25</ele>
        <time>2025-02-02T13:07:20.119Z</time>
      </trkpt>
      <trkpt lat="47.97499" lon="4.94372">
        <ele>262.85</ele>
        <time>2025-02-02T13:07:27.965Z</time>
      </trkpt>
      <trkpt lat="47.97521" lon="4.9434">
        <ele>262.36</ele>
        <time>2025-02-02T13:07:35.816Z</time>
      </trkpt>
      <trkpt lat="47.97523" lon="4.94337">
        <ele>261.91</ele>
        <time>2025-02-02T13:07:43.668Z</time>
      </trkpt>
      <trkpt lat="47.97531" lon="4.94339">
        <ele>261.45</ele>
        <time>2025-02-02T13:07:51.521Z</time>
      </trkpt>
      <trkpt lat="47.9755" lon="4.94349">
        <ele>260.98</ele>
        <time>2025-02-02T13:07:59.377Z</time>
      </trkpt>
      <trkpt lat="47.97561" lon="4.94354">
        <ele>260.48</ele>
        <time>2025-02-02T13:08:07.235Z</time>
      </trkpt>
      <trkpt lat="47.97581" lon="4.94365">
        <ele>259.95</ele>
        <time>2025-02-02T13:08:15.097Z</time>
      </trkpt>
      <trkpt lat="47.97586" lon="4.94367">
        <ele>259.48</ele>
        <time>2025-02-02T13:08:22.959Z</time>
      </trkpt>
      <trkpt lat="47.97608" lon="4.94379">
        <ele>258.95</ele>
        <time>2025-02-02T13:08:30.825Z</time>
      </trkpt>
      <trkpt lat="47.97614" lon="4.9439">
        <ele>258.51</ele>
        <time>2025-02-02T13:08:38.693Z</time>
      </trkpt>
      <trkpt lat="47.97626" lon="4.94415">
        <ele>258.05</ele>
        <time>2025-02-02T13:08:46.564Z</time>
      </trkpt>
      <trkpt lat="47.97648" lon="4.94428">
        <ele>257.65</ele>
        <time>2025-02-02T13:08:54.439Z</time>
      </trkpt>
      <trkpt lat="47.97673" lon="4.94443">
        <ele>257.37</ele>
        <time>2025-02-02T13:09:02.318Z</time>
      </trkpt>
      <trkpt lat="47.97688" lon="4.94457">
        <ele>257.12</ele>
        <time>2025-02-02T13:09:10.200Z</time>
      </trkpt>
      <trkpt lat="47.97708" lon="4.94488">
        <ele>256.92</ele>
        <time>2025-02-02T13:09:18.086Z</time>
      </trkpt>
      <trkpt lat="47.97714" lon="4.94498">
        <ele>256.76</ele>
        <time>2025-02-02T13:09:25.974Z</time>
      </trkpt>
      <trkpt lat="47.97713" lon="4.94503">
        <ele>256.62</ele>
        <time>2025-02-02T13:09:33.862Z</time>
      </trkpt>
      <trkpt lat="47.97706" lon="4.94536">
        <ele>256.5</ele>
        <time>2025-02-02T13:09:41.754Z</time>
      </trkpt>
      <trkpt lat="47.97706" lon="4.9457">
        <ele>256.5</ele>
        <time>2025-02-02T13:09:49.650Z</time>
      </trkpt>
      <trkpt lat="47.97706" lon="4.94578">
        <ele>256.49</ele>
        <time>2025-02-02T13:09:57.547Z</time>
      </trkpt>
      <trkpt lat="47.97707" lon="4.94605">
        <ele>256.56</ele>
        <time>2025-02-02T13:10:05.447Z</time>
      </trkpt>
      <trkpt lat="47.97708" lon="4.94633">
        <ele>256.62</ele>
        <time>2025-02-02T13:10:13.350Z</time>
      </trkpt>
      <trkpt lat="47.97709" lon="4.94656">
        <ele>256.7</ele>
        <time>2025-02-02T13:10:21.255Z</time>
      </trkpt>
      <trkpt lat="47.97711" lon="4.94679">
        <ele>256.75</ele>
        <time>2025-02-02T13:10:29.163Z</time>
      </trkpt>
      <trkpt lat="47.97711" lon="4.94704">
        <ele>256.8</ele>
        <time>2025-02-02T13:10:37.073Z</time>
      </trkpt>
      <trkpt lat="47.97711" lon="4.94729">
        <ele>256.8</ele>
        <time>2025-02-02T13:10:44.986Z</time>
      </trkpt>
      <trkpt lat="47.97705" lon="4.94759">
        <ele>256.78</ele>
        <time>2025-02-02T13:10:52.902Z</time>
      </trkpt>
      <trkpt lat="47.977" lon="4.94789">
        <ele>256.84</ele>
        <time>2025-02-02T13:11:00.822Z</time>
      </trkpt>
      <trkpt lat="47.97692" lon="4.94812">
        <ele>256.97</ele>
        <time>2025-02-02T13:11:08.744Z</time>
      </trkpt>
      <trkpt lat="47.97685" lon="4.94836">
        <ele>257.1</ele>
        <time>2025-02-02T13:11:16.669Z</time>
      </trkpt>
      <trkpt lat="47.97665" lon="4.94868">
        <ele>257.16</ele>
        <time>2025-02-02T13:11:24.599Z</time>
      </trkpt>
      <trkpt lat="47.97659" lon="4.94876">
        <ele>257.12</ele>
        <time>2025-02-02T13:11:32.530Z</time>
      </trkpt>
      <trkpt lat="47.97654" lon="4.94883">
        <ele>257.1</ele>
        <time>2025-02-02T13:11:40.462Z</time>
      </trkpt>
      <trkpt lat="47.9763" lon="4.94907">
        <ele>256.97</ele>
        <time>2025-02-02T13:11:48.399Z</time>
      </trkpt>
      <trkpt lat="47.97607" lon="4.94929">
        <ele>256.81</ele>
        <time>2025-02-02T13:11:56.340Z</time>
      </trkpt>
      <trkpt lat="47.97583" lon="4.9495">
        <ele>256.66</ele>
        <time>2025-02-02T13:12:04.286Z</time>
      </trkpt>
      <trkpt lat="47.97559" lon="4.94973">
        <ele>256.64</ele>
        <time>2025-02-02T13:12:12.236Z</time>
      </trkpt>
      <trkpt lat="47.97535" lon="4.94995">
        <ele>256.62</ele>
        <time>2025-02-02T13:12:20.191Z</time>
      </trkpt>
      <trkpt lat="47.9751" lon="4.95017">
        <ele>256.59</ele>
        <time>2025-02-02T13:12:28.151Z</time>
      </trkpt>
      <trkpt lat="47.97496" lon="4.9503">
        <ele>256.58</ele>
        <time>2025-02-02T13:12:36.113Z</time>
      </trkpt>
      <trkpt lat="47.9747" lon="4.95049">
        <ele>256.61</ele>
        <time>2025-02-02T13:12:44.080Z</time>
      </trkpt>
      <trkpt lat="47.97445" lon="4.95068">
        <ele>256.58</ele>
        <time>2025-02-02T13:12:52.051Z</time>
      </trkpt>
      <trkpt lat="47.9744" lon="4.95072">
        <ele>256.59</ele>
        <time>2025-02-02T13:13:00.023Z</time>
      </trkpt>
      <trkpt lat="47.97415" lon="4.9509">
        <ele>256.61</ele>
        <time>2025-02-02T13:13:08.000Z</time>
      </trkpt>
      <trkpt lat="47.97391" lon="4.95108">
        <ele>256.6</ele>
        <time>2025-02-02T13:13:15.981Z</time>
      </trkpt>
      <trkpt lat="47.97366" lon="4.95126">
        <ele>256.65</ele>
        <time>2025-02-02T13:13:23.966Z</time>
      </trkpt>
      <trkpt lat="47.97341" lon="4.95145">
        <ele>256.74</ele>
        <time>2025-02-02T13:13:31.956Z</time>
      </trkpt>
      <trkpt lat="47.97321" lon="4.95165">
        <ele>256.82</ele>
        <time>2025-02-02T13:13:39.950Z</time>
      </trkpt>
      <trkpt lat="47.97301" lon="4.95184">
        <ele>256.98</ele>
        <time>2025-02-02T13:13:47.948Z</time>
      </trkpt>
      <trkpt lat="47.97284" lon="4.95204">
        <ele>257.22</ele>
        <time>2025-02-02T13:13:55.949Z</time>
      </trkpt>
      <trkpt lat="47.97267" lon="4.95224">
        <ele>257.44</ele>
        <time>2025-02-02T13:14:03.953Z</time>
      </trkpt>
      <trkpt lat="47.97252" lon="4.95249">
        <ele>257.64</ele>
        <time>2025-02-02T13:14:11.961Z</time>
      </trkpt>
      <trkpt lat="47.97238" lon="4.95274">
        <ele>257.83</ele>
        <time>2025-02-02T13:14:19.973Z</time>
      </trkpt>
      <trkpt lat="47.97222" lon="4.95312">
        <ele>258.07</ele>
        <time>2025-02-02T13:14:27.989Z</time>
      </trkpt>
      <trkpt lat="47.97207" lon="4.9535">
        <ele>258.38</ele>
        <time>2025-02-02T13:14:36.010Z</time>
      </trkpt>
      <trkpt lat="47.97194" lon="4.95391">
        <ele>258.69</ele>
        <time>2025-02-02T13:14:44.036Z</time>
      </trkpt>
      <trkpt lat="47.97181" lon="4.95431">
        <ele>258.99</ele>
        <time>2025-02-02T13:14:52.067Z</time>
      </trkpt>
      <trkpt lat="47.97171" lon="4.95465">
        <ele>259.36</ele>
        <time>2025-02-02T13:15:00.102Z</time>
      </trkpt>
      <trkpt lat="47.9716" lon="4.95499">
        <ele>259.67</ele>
        <time>2025-02-02T13:15:08.141Z</time>
      </trkpt>
      <trkpt lat="47.9715" lon="4.95537">
        <ele>259.97</ele>
        <time>2025-02-02T13:15:16.184Z</time>
      </trkpt>
      <trkpt lat="47.9714" lon="4.95575">
        <ele>260.42</ele>
        <time>2025-02-02T13:15:24.232Z</time>
      </trkpt>
      <trkpt lat="47.97135" lon="4.95603">
        <ele>260.83</ele>
        <time>2025-02-02T13:15:32.283Z</time>
      </trkpt>
      <trkpt lat="47.9713" lon="4.9563">
        <ele>261.26</ele>
        <time>2025-02-02T13:15:40.337Z</time>
      </trkpt>
      <trkpt lat="47.97125" lon="4.95669">
        <ele>261.62</ele>
        <time>2025-02-02T13:15:48.395Z</time>
      </trkpt>
      <trkpt lat="47.97127" lon="4.9571">
        <ele>262.08</ele>
        <time>2025-02-02T13:15:56.457Z</time>
      </trkpt>
      <trkpt lat="47.97129" lon="4.95735">
        <ele>262.51</ele>
        <time>2025-02-02T13:16:04.522Z</time>
      </trkpt>
      <trkpt lat="47.97131" lon="4.95755">
        <ele>262.9</ele>
        <time>2025-02-02T13:16:12.589Z</time>
      </trkpt>
      <trkpt lat="47.97133" lon="4.95781">
        <ele>263.27</ele>
        <time>2025-02-02T13:16:20.659Z</time>
      </trkpt>
      <trkpt lat="47.97136" lon="4.95807">
        <ele>263.61</ele>
        <time>2025-02-02T13:16:28.732Z</time>
      </trkpt>
      <trkpt lat="47.97141" lon="4.95843">
        <ele>263.91</ele>
        <time>2025-02-02T13:16:36.809Z</time>
      </trkpt>
      <trkpt lat="47.97146" lon="4.95878">
        <ele>264.2</ele>
        <time>2025-02-02T13:16:44.890Z</time>
      </trkpt>
      <trkpt lat="47.97152" lon="4.9591">
        <ele>264.45</ele>
        <time>2025-02-02T13:16:52.974Z</time>
      </trkpt>
      <trkpt lat="47.97157" lon="4.95941">
        <ele>264.7</ele>
        <time>2025-02-02T13:17:01.062Z</time>
      </trkpt>
      <trkpt lat="47.97163" lon="4.9597">
        <ele>264.93</ele>
        <time>2025-02-02T13:17:09.153Z</time>
      </trkpt>
      <trkpt lat="47.9717" lon="4.96">
        <ele>265.17</ele>
        <time>2025-02-02T13:17:17.247Z</time>
      </trkpt>
      <trkpt lat="47.97178" lon="4.96031">
        <ele>265.41</ele>
        <time>2025-02-02T13:17:25.345Z</time>
      </trkpt>
      <trkpt lat="47.97186" lon="4.96062">
        <ele>265.53</ele>
        <time>2025-02-02T13:17:33.447Z</time>
      </trkpt>
      <trkpt lat="47.97194" lon="4.96095">
        <ele>265.62</ele>
        <time>2025-02-02T13:17:41.552Z</time>
      </trkpt>
      <trkpt lat="47.97202" lon="4.96127">
        <ele>265.72</ele>
        <time>2025-02-02T13:17:49.661Z</time>
      </trkpt>
      <trkpt lat="47.97206" lon="4.96152">
        <ele>265.78</ele>
        <time>2025-02-02T13:17:57.773Z</time>
      </trkpt>
      <trkpt lat="47.97209" lon="4.96178">
        <ele>265.78</ele>
        <time>2025-02-02T13:18:05.888Z</time>
      </trkpt>
      <trkpt lat="47.97215" lon="4.96221">
        <ele>265.83</ele>
        <time>2025-02-02T13:18:14.007Z</time>
      </trkpt>
      <trkpt lat="47.9722" lon="4.96263">
        <ele>265.91</ele>
        <time>2025-02-02T13:18:22.131Z</time>
      </trkpt>
      <trkpt lat="47.97227" lon="4.96296">
        <ele>265.96</ele>
        <time>2025-02-02T13:18:30.259Z</time>
      </trkpt>
      <trkpt lat="47.97235" lon="4.96329">
        <ele>266.03</ele>
        <time>2025-02-02T13:18:38.390Z</time>
      </trkpt>
      <trkpt lat="47.97247" lon="4.96363">
        <ele>266.19</ele>
        <time>2025-02-02T13:18:46.526Z</time>
      </trkpt>
      <trkpt lat="47.97259" lon="4.96397">
        <ele>266.38</ele>
        <time>2025-02-02T13:18:54.666Z</time>
      </trkpt>
      <trkpt lat="47.97269" lon="4.96427">
        <ele>266.58</ele>
        <time>2025-02-02T13:19:02.809Z</time>
      </trkpt>
      <trkpt lat="47.97279" lon="4.96456">
        <ele>266.82</ele>
        <time>2025-02-02T13:19:10.956Z</time>
      </trkpt>
      <trkpt lat="47.97289" lon="4.96491">
        <ele>267</ele>
        <time>2025-02-02T13:19:19.107Z</time>
      </trkpt>
      <trkpt lat="47.97298" lon="4.96525">
        <ele>267.1</ele>
        <time>2025-02-02T13:19:27.262Z</time>
      </trkpt>
      <trkpt lat="47.97305" lon="4.96559">
        <ele>267.16</ele>
        <time>2025-02-02T13:19:35.421Z</time>
      </trkpt>
      <trkpt lat="47.97313" lon="4.96592">
        <ele>267.22</ele>
        <time>2025-02-02T13:19:43.583Z</time>
      </trkpt>
      <trkpt lat="47.97317" lon="4.96622">
        <ele>267.24</ele>
        <time>2025-02-02T13:19:51.749Z</time>
      </trkpt>
      <trkpt lat="47.97321" lon="4.96652">
        <ele>267.19</ele>
        <time>2025-02-02T13:19:59.918Z</time>
      </trkpt>
      <trkpt lat="47.97323" lon="4.96693">
        <ele>267.04</ele>
        <time>2025-02-02T13:20:08.091Z</time>
      </trkpt>
      <trkpt lat="47.97324" lon="4.96732">
        <ele>266.98</ele>
        <time>2025-02-02T13:20:16.269Z</time>
      </trkpt>
      <trkpt lat="47.97321" lon="4.9676">
        <ele>266.92</ele>
        <time>2025-02-02T13:20:24.450Z</time>
      </trkpt>
      <trkpt lat="47.97318" lon="4.96788">
        <ele>266.8</ele>
        <time>2025-02-02T13:20:32.634Z</time>
      </trkpt>
      <trkpt lat="47.97312" lon="4.96815">
        <ele>266.68</ele>
        <time>2025-02-02T13:20:40.821Z</time>
      </trkpt>
      <trkpt lat="47.97306" lon="4.96842">
        <ele>266.57</ele>
        <time>2025-02-02T13:20:49.011Z</time>
      </trkpt>
      <trkpt lat="47.97296" lon="4.96867">
        <ele>266.45</ele>
        <time>2025-02-02T13:20:57.204Z</time>
      </trkpt>
      <trkpt lat="47.97286" lon="4.96891">
        <ele>266.35</ele>
        <time>2025-02-02T13:21:05.400Z</time>
      </trkpt>
      <trkpt lat="47.97273" lon="4.96916">
        <ele>266.26</ele>
        <time>2025-02-02T13:21:13.599Z</time>
      </trkpt>
      <trkpt lat="47.9726" lon="4.9694">
        <ele>266.08</ele>
        <time>2025-02-02T13:21:21.802Z</time>
      </trkpt>
      <trkpt lat="47.97256" lon="4.96947">
        <ele>265.95</ele>
        <time>2025-02-02T13:21:30.006Z</time>
      </trkpt>
      <trkpt lat="47.97241" lon="4.96971">
        <ele>265.76</ele>
        <time>2025-02-02T13:21:38.213Z</time>
      </trkpt>
      <trkpt lat="47.97227" lon="4.96995">
        <ele>265.65</ele>
        <time>2025-02-02T13:21:46.424Z</time>
      </trkpt>
      <trkpt lat="47.97213" lon="4.97015">
        <ele>265.49</ele>
        <time>2025-02-02T13:21:54.638Z</time>
      </trkpt>
      <trkpt lat="47.972" lon="4.97035">
        <ele>265.36</ele>
        <time>2025-02-02T13:22:02.855Z</time>
      </trkpt>
      <trkpt lat="47.97184" lon="4.97056">
        <ele>265.31</ele>
        <time>2025-02-02T13:22:11.075Z</time>
      </trkpt>
      <trkpt lat="47.97169" lon="4.97078">
        <ele>265.3</ele>
        <time>2025-02-02T13:22:19.299Z</time>
      </trkpt>
      <trkpt lat="47.97155" lon="4.97092">
        <ele>265.26</ele>
        <time>2025-02-02T13:22:27.525Z</time>
      </trkpt>
      <trkpt lat="47.97141" lon="4.97106">
        <ele>265.21</ele>
        <time>2025-02-02T13:22:35.754Z</time>
      </trkpt>
      <trkpt lat="47.97121" lon="4.97117">
        <ele>265.15</ele>
        <time>2025-02-02T13:22:43.986Z</time>
      </trkpt>
      <trkpt lat="47.97101" lon="4.97128">
        <ele>265.03</ele>
        <time>2025-02-02T13:22:52.222Z</time>
      </trkpt>
      <trkpt lat="47.97077" lon="4.97142">
        <ele>265.02</ele>
        <time>2025-02-02T13:23:00.462Z</time>
      </trkpt>
      <trkpt lat="47.97052" lon="4.97156">
        <ele>265.04</ele>
        <time>2025-02-02T13:23:08.706Z</time>
      </trkpt>
      <trkpt lat="47.97036" lon="4.97165">
        <ele>265.1</ele>
        <time>2025-02-02T13:23:16.953Z</time>
      </trkpt>
      <trkpt lat="47.9702" lon="4.97174">
        <ele>265.16</ele>
        <time>2025-02-02T13:23:25.203Z</time>
      </trkpt>
      <trkpt lat="47.97" lon="4.97188">
        <ele>265.33</ele>
        <time>2025-02-02T13:23:33.456Z</time>
      </trkpt>
      <trkpt lat="47.9698" lon="4.97201">
        <ele>265.52</ele>
        <time>2025-02-02T13:23:41.713Z</time>
      </trkpt>
      <trkpt lat="47.96953" lon="4.97222">
        <ele>265.81</ele>
        <time>2025-02-02T13:23:49.974Z</time>
      </trkpt>
      <trkpt lat="47.96931" lon="4.97238">
        <ele>266.07</ele>
        <time>2025-02-02T13:23:58.239Z</time>
      </trkpt>
      <trkpt lat="47.96909" lon="4.97255">
        <ele>266.31</ele>
        <time>2025-02-02T13:24:06.508Z</time>
      </trkpt>
      <trkpt lat="47.96891" lon="4.97269">
        <ele>266.53</ele>
        <time>2025-02-02T13:24:14.781Z</time>
      </trkpt>
      <trkpt lat="47.96873" lon="4.97282">
        <ele>266.76</ele>
        <time>2025-02-02T13:24:23.057Z</time>
      </trkpt>
      <trkpt lat="47.96853" lon="4.97297">
        <ele>266.98</ele>
        <time>2025-02-02T13:24:31.337Z</time>
      </trkpt>
      <trkpt lat="47.96832" lon="4.97312">
        <ele>267.31</ele>
        <time>2025-02-02T13:24:39.620Z</time>
      </trkpt>
      <trkpt lat="47.96816" lon="4.97325">
        <ele>267.58</ele>
        <time>2025-02-02T13:24:47.906Z</time>
      </trkpt>
      <trkpt lat="47.968" lon="4.97337">
        <ele>267.86</ele>
        <time>2025-02-02T13:24:56.195Z</time>
      </trkpt>
      <trkpt lat="47.96778" lon="4.97358">
        <ele>268.15</ele>
        <time>2025-02-02T13:25:04.488Z</time>
      </trkpt>
      <trkpt lat="47.96762" lon="4.97379">
        <ele>268.37</ele>
        <time>2025-02-02T13:25:12.785Z</time>
      </trkpt>
      <trkpt lat="47.96759" lon="4.97383">
        <ele>268.55</ele>
        <time>2025-02-02T13:25:21.082Z</time>
      </trkpt>
      <trkpt lat="47.96749" lon="4.97403">
        <ele>268.68</ele>
        <time>2025-02-02T13:25:29.382Z</time>
      </trkpt>
      <trkpt lat="47.96739" lon="4.97422">
        <ele>268.76</ele>
        <time>2025-02-02T13:25:37.685Z</time>
      </trkpt>
      <trkpt lat="47.96731" lon="4.97446">
        <ele>268.85</ele>
        <time>2025-02-02T13:25:45.990Z</time>
      </trkpt>
      <trkpt lat="47.96722" lon="4.9747">
        <ele>268.9</ele>
        <time>2025-02-02T13:25:54.298Z</time>
      </trkpt>
      <trkpt lat="47.96718" lon="4.97494">
        <ele>268.91</ele>
        <time>2025-02-02T13:26:02.609Z</time>
      </trkpt>
      <trkpt lat="47.96713" lon="4.97517">
        <ele>268.88</ele>
        <time>2025-02-02T13:26:10.923Z</time>
      </trkpt>
      <trkpt lat="47.96711" lon="4.97542">
        <ele>268.79</ele>
        <time>2025-02-02T13:26:19.239Z</time>
      </trkpt>
      <trkpt lat="47.96708" lon="4.97567">
        <ele>268.6</ele>
        <time>2025-02-02T13:26:27.558Z</time>
      </trkpt>
      <trkpt lat="47.96706" lon="4.97588">
        <ele>268.3</ele>
        <time>2025-02-02T13:26:35.879Z</time>
      </trkpt>
      <trkpt lat="47.96697" lon="4.9759">
        <ele>267.99</ele>
        <time>2025-02-02T13:26:44.202Z</time>
      </trkpt>
      <trkpt lat="47.96692" lon="4.97591">
        <ele>267.66</ele>
        <time>2025-02-02T13:26:52.525Z</time>
      </trkpt>
      <trkpt lat="47.96682" lon="4.97593">
        <ele>267.27</ele>
        <time>2025-02-02T13:27:00.850Z</time>
      </trkpt>
      <trkpt lat="47.96663" lon="4.97597">
        <ele>266.82</ele>
        <time>2025-02-02T13:27:09.178Z</time>
      </trkpt>
      <trkpt lat="47.96654" lon="4.97597">
        <ele>266.39</ele>
        <time>2025-02-02T13:27:17.508Z</time>
      </trkpt>
      <trkpt lat="47.96641" lon="4.97598">
        <ele>265.93</ele>
        <time>2025-02-02T13:27:25.840Z</time>
      </trkpt>
      <trkpt lat="47.96619" lon="4.97599">
        <ele>265.43</ele>
        <time>2025-02-02T13:27:34.175Z</time>
      </trkpt>
      <trkpt lat="47.96615" lon="4.97599">
        <ele>265</ele>
        <time>2025-02-02T13:27:42.511Z</time>
      </trkpt>
      <trkpt lat="47.96611" lon="4.97601">
        <ele>264.57</ele>
        <time>2025-02-02T13:27:50.848Z</time>
      </trkpt>
      <trkpt lat="47.96599" lon="4.97607">
        <ele>264.11</ele>
        <time>2025-02-02T13:27:59.187Z</time>
      </trkpt>
      <trkpt lat="47.96595" lon="4.9761">
        <ele>263.71</ele>
        <time>2025-02-02T13:28:07.526Z</time>
      </trkpt>
      <trkpt lat="47.96577" lon="4.97623">
        <ele>263.28</ele>
        <time>2025-02-02T13:28:15.868Z</time>
      </trkpt>
      <trkpt lat="47.96576" lon="4.97634">
        <ele>262.96</ele>
        <time>2025-02-02T13:28:24.212Z</time>
      </trkpt>
      <trkpt lat="47.96572" lon="4.97645">
        <ele>262.68</ele>
        <time>2025-02-02T13:28:32.557Z</time>
      </trkpt>
      <trkpt lat="47.96569" lon="4.97667">
        <ele>262.45</ele>
        <time>2025-02-02T13:28:40.904Z</time>
      </trkpt>
      <trkpt lat="47.96571" lon="4.97685">
        <ele>262.27</ele>
        <time>2025-02-02T13:28:49.253Z</time>
      </trkpt>
      <trkpt lat="47.96571" lon="4.97689">
        <ele>262.13</ele>
        <time>2025-02-02T13:28:57.603Z</time>
      </trkpt>
      <trkpt lat="47.96571" lon="4.97695">
        <ele>262.04</ele>
        <time>2025-02-02T13:29:05.953Z</time>
      </trkpt>
      <trkpt lat="47.96572" lon="4.977">
        <ele>262</ele>
        <time>2025-02-02T13:29:14.304Z</time>
      </trkpt>
      <trkpt lat="47.9656" lon="4.97705">
        <ele>262</ele>
        <time>2025-02-02T13:29:22.657Z</time>
      </trkpt>
      <trkpt lat="47.96564" lon="4.97709">
        <ele>262.04</ele>
        <time>2025-02-02T13:29:31.011Z</time>
      </trkpt>
      <trkpt lat="47.96579" lon="4.97725">
        <ele>262.16</ele>
        <time>2025-02-02T13:29:39.368Z</time>
      </trkpt>
      <trkpt lat="47.96591" lon="4.97743">
        <ele>262.31</ele>
        <time>2025-02-02T13:29:47.727Z</time>
      </trkpt>
      <trkpt lat="47.96595" lon="4.97745">
        <ele>262.48</ele>
        <time>2025-02-02T13:29:56.087Z</time>
      </trkpt>
      <trkpt lat="47.96616" lon="4.97753">
        <ele>262.74</ele>
        <time>2025-02-02T13:30:04.450Z</time>
      </trkpt>
      <trkpt lat="47.9662" lon="4.97754">
        <ele>262.97</ele>
        <time>2025-02-02T13:30:12.814Z</time>
      </trkpt>
      <trkpt lat="47.96634" lon="4.9776">
        <ele>263.2</ele>
        <time>2025-02-02T13:30:21.180Z</time>
      </trkpt>
      <trkpt lat="47.96645" lon="4.9777">
        <ele>263.46</ele>
        <time>2025-02-02T13:30:29.549Z</time>
      </trkpt>
      <trkpt lat="47.96643" lon="4.97786">
        <ele>263.77</ele>
        <time>2025-02-02T13:30:37.919Z</time>
      </trkpt>
      <trkpt lat="47.96642" lon="4.97809">
        <ele>264.09</ele>
        <time>2025-02-02T13:30:46.292Z</time>
      </trkpt>
      <trkpt lat="47.9664" lon="4.97833">
        <ele>264.44</ele>
        <time>2025-02-02T13:30:54.667Z</time>
      </trkpt>
      <trkpt lat="47.96631" lon="4.97866">
        <ele>264.8</ele>
        <time>2025-02-02T13:31:03.046Z</time>
      </trkpt>
      <trkpt lat="47.96625" lon="4.97892">
        <ele>265.11</ele>
        <time>2025-02-02T13:31:11.428Z</time>
      </trkpt>
      <trkpt lat="47.96618" lon="4.97918">
        <ele>265.39</ele>
        <time>2025-02-02T13:31:19.813Z</time>
      </trkpt>
      <trkpt lat="47.9661" lon="4.97948">
        <ele>265.7</ele>
        <time>2025-02-02T13:31:28.202Z</time>
      </trkpt>
      <trkpt lat="47.96602" lon="4.97978">
        <ele>266.01</ele>
        <time>2025-02-02T13:31:36.594Z</time>
      </trkpt>
      <trkpt lat="47.96596" lon="4.98001">
        <ele>266.31</ele>
        <time>2025-02-02T13:31:44.989Z</time>
      </trkpt>
      <trkpt lat="47.9659" lon="4.98023">
        <ele>266.64</ele>
        <time>2025-02-02T13:31:53.386Z</time>
      </trkpt>
      <trkpt lat="47.96581" lon="4.98047">
        <ele>266.92</ele>
        <time>2025-02-02T13:32:01.786Z</time>
      </trkpt>
      <trkpt lat="47.96572" lon="4.98071">
        <ele>267.18</ele>
        <time>2025-02-02T13:32:10.189Z</time>
      </trkpt>
      <trkpt lat="47.96561" lon="4.98099">
        <ele>267.4</ele>
        <time>2025-02-02T13:32:18.596Z</time>
      </trkpt>
      <trkpt lat="47.96549" lon="4.98127">
        <ele>267.58</ele>
        <time>2025-02-02T13:32:27.006Z</time>
      </trkpt>
      <trkpt lat="47.96542" lon="4.98155">
        <ele>267.76</ele>
        <time>2025-02-02T13:32:35.420Z</time>
      </trkpt>
      <trkpt lat="47.96534" lon="4.98184">
        <ele>268</ele>
        <time>2025-02-02T13:32:43.837Z</time>
      </trkpt>
      <trkpt lat="47.96527" lon="4.98215">
        <ele>268.24</ele>
        <time>2025-02-02T13:32:52.257Z</time>
      </trkpt>
      <trkpt lat="47.96522" lon="4.98258">
        <ele>268.48</ele>
        <time>2025-02-02T13:33:00.682Z</time>
      </trkpt>
      <trkpt lat="47.96522" lon="4.98304">
        <ele>268.63</ele>
        <time>2025-02-02T13:33:09.112Z</time>
      </trkpt>
      <trkpt lat="47.96523" lon="4.98347">
        <ele>268.82</ele>
        <time>2025-02-02T13:33:17.547Z</time>
      </trkpt>
      <trkpt lat="47.96523" lon="4.9839">
        <ele>269.12</ele>
        <time>2025-02-02T13:33:25.986Z</time>
      </trkpt>
      <trkpt lat="47.96522" lon="4.98419">
        <ele>269.32</ele>
        <time>2025-02-02T13:33:34.428Z</time>
      </trkpt>
      <trkpt lat="47.9652" lon="4.98448">
        <ele>269.5</ele>
        <time>2025-02-02T13:33:42.874Z</time>
      </trkpt>
      <trkpt lat="47.96512" lon="4.98476">
        <ele>269.53</ele>
        <time>2025-02-02T13:33:51.323Z</time>
      </trkpt>
      <trkpt lat="47.96504" lon="4.98505">
        <ele>269.67</ele>
        <time>2025-02-02T13:33:59.775Z</time>
      </trkpt>
      <trkpt lat="47.96496" lon="4.98528">
        <ele>269.71</ele>
        <time>2025-02-02T13:34:08.230Z</time>
      </trkpt>
      <trkpt lat="47.96488" lon="4.98551">
        <ele>269.76</ele>
        <time>2025-02-02T13:34:16.688Z</time>
      </trkpt>
      <trkpt lat="47.96479" lon="4.98571">
        <ele>269.78</ele>
        <time>2025-02-02T13:34:25.148Z</time>
      </trkpt>
      <trkpt lat="47.96469" lon="4.98592">
        <ele>269.77</ele>
        <time>2025-02-02T13:34:33.611Z</time>
      </trkpt>
      <trkpt lat="47.96464" lon="4.98601">
        <ele>269.74</ele>
        <time>2025-02-02T13:34:42.075Z</time>
      </trkpt>
      <trkpt lat="47.96448" lon="4.98623">
        <ele>269.68</ele>
        <time>2025-02-02T13:34:50.543Z</time>
      </trkpt>
      <trkpt lat="47.96431" lon="4.98644">
        <ele>269.61</ele>
        <time>2025-02-02T13:34:59.014Z</time>
      </trkpt>
      <trkpt lat="47.96416" lon="4.98656">
        <ele>269.49</ele>
        <time>2025-02-02T13:35:07.488Z</time>
      </trkpt>
      <trkpt lat="47.964" lon="4.98667">
        <ele>269.36</ele>
        <time>2025-02-02T13:35:15.965Z</time>
      </trkpt>
      <trkpt lat="47.96382" lon="4.98676">
        <ele>269.24</ele>
        <time>2025-02-02T13:35:24.445Z</time>
      </trkpt>
      <trkpt lat="47.96363" lon="4.98685">
        <ele>269.1</ele>
        <time>2025-02-02T13:35:32.928Z</time>
      </trkpt>
      <trkpt lat="47.96345" lon="4.98694">
        <ele>268.91</ele>
        <time>2025-02-02T13:35:41.414Z</time>
      </trkpt>
      <trkpt lat="47.96326" lon="4.98703">
        <ele>268.71</ele>
        <time>2025-02-02T13:35:49.903Z</time>
      </trkpt>
      <trkpt lat="47.96301" lon="4.9872">
        <ele>268.48</ele>
        <time>2025-02-02T13:35:58.397Z</time>
      </trkpt>
      <trkpt lat="47.96276" lon="4.98736">
        <ele>268.36</ele>
        <time>2025-02-02T13:36:06.895Z</time>
      </trkpt>
      <trkpt lat="47.96261" lon="4.98746">
        <ele>268.3</ele>
        <time>2025-02-02T13:36:15.396Z</time>
      </trkpt>
      <trkpt lat="47.96246" lon="4.98755">
        <ele>268.24</ele>
        <time>2025-02-02T13:36:23.899Z</time>
      </trkpt>
      <trkpt lat="47.96224" lon="4.98772">
        <ele>268.16</ele>
        <time>2025-02-02T13:36:32.406Z</time>
      </trkpt>
      <trkpt lat="47.96202" lon="4.98789">
        <ele>268.14</ele>
        <time>2025-02-02T13:36:40.917Z</time>
      </trkpt>
      <trkpt lat="47.9618" lon="4.98809">
        <ele>268.17</ele>
        <time>2025-02-02T13:36:49.432Z</time>
      </trkpt>
      <trkpt lat="47.96159" lon="4.9883">
        <ele>268.15</ele>
        <time>2025-02-02T13:36:57.951Z</time>
      </trkpt>
      <trkpt lat="47.96138" lon="4.9885">
        <ele>268.1</ele>
        <time>2025-02-02T13:37:06.475Z</time>
      </trkpt>
      <trkpt lat="47.96117" lon="4.9887">
        <ele>268.09</ele>
        <time>2025-02-02T13:37:15.003Z</time>
      </trkpt>
      <trkpt lat="47.96093" lon="4.98892">
        <ele>268.04</ele>
        <time>2025-02-02T13:37:23.535Z</time>
      </trkpt>
      <trkpt lat="47.96069" lon="4.98915">
        <ele>268.02</ele>
        <time>2025-02-02T13:37:32.072Z</time>
      </trkpt>
      <trkpt lat="47.96049" lon="4.98934">
        <ele>268.07</ele>
        <time>2025-02-02T13:37:40.612Z</time>
      </trkpt>
      <trkpt lat="47.96029" lon="4.98953">
        <ele>268.18</ele>
        <time>2025-02-02T13:37:49.156Z</time>
      </trkpt>
      <trkpt lat="47.9601" lon="4.98974">
        <ele>268.28</ele>
        <time>2025-02-02T13:37:57.704Z</time>
      </trkpt>
      <trkpt lat="47.95992" lon="4.98996">
        <ele>268.36</ele>
        <time>2025-02-02T13:38:06.256Z</time>
      </trkpt>
      <trkpt lat="47.95975" lon="4.99019">
        <ele>268.39</ele>
        <time>2025-02-02T13:38:14.811Z</time>
      </trkpt>
      <trkpt lat="47.95958" lon="4.99043">
        <ele>268.36</ele>
        <time>2025-02-02T13:38:23.370Z</time>
      </trkpt>
      <trkpt lat="47.95939" lon="4.99075">
        <ele>268.28</ele>
        <time>2025-02-02T13:38:31.934Z</time>
      </trkpt>
      <trkpt lat="47.9592" lon="4.99106">
        <ele>268.28</ele>
        <time>2025-02-02T13:38:40.502Z</time>
      </trkpt>
      <trkpt lat="47.95915" lon="4.99115">
        <ele>268.33</ele>
        <time>2025-02-02T13:38:49.071Z</time>
      </trkpt>
      <trkpt lat="47.95901" lon="4.99139">
        <ele>268.38</ele>
        <time>2025-02-02T13:38:57.644Z</time>
      </trkpt>
      <trkpt lat="47.95887" lon="4.99162">
        <ele>268.46</ele>
        <time>2025-02-02T13:39:06.220Z</time>
      </trkpt>
      <trkpt lat="47.95873" lon="4.99192">
        <ele>268.44</ele>
        <time>2025-02-02T13:39:14.800Z</time>
      </trkpt>
      <trkpt lat="47.95858" lon="4.99221">
        <ele>268.4</ele>
        <time>2025-02-02T13:39:23.384Z</time>
      </trkpt>
      <trkpt lat="47.95845" lon="4.99253">
        <ele>268.46</ele>
        <time>2025-02-02T13:39:31.972Z</time>
      </trkpt>
      <trkpt lat="47.95832" lon="4.99284">
        <ele>268.47</ele>
        <time>2025-02-02T13:39:40.564Z</time>
      </trkpt>
      <trkpt lat="47.95825" lon="4.99301">
        <ele>268.47</ele>
        <time>2025-02-02T13:39:49.158Z</time>
      </trkpt>
      <trkpt lat="47.95814" lon="4.99327">
        <ele>268.47</ele>
        <time>2025-02-02T13:39:57.755Z</time>
      </trkpt>
      <trkpt lat="47.95803" lon="4.99357">
        <ele>268.49</ele>
        <time>2025-02-02T13:40:06.356Z</time>
      </trkpt>
      <trkpt lat="47.95791" lon="4.99387">
        <ele>268.43</ele>
        <time>2025-02-02T13:40:14.961Z</time>
      </trkpt>
      <trkpt lat="47.95784" lon="4.99409">
        <ele>268.39</ele>
        <time>2025-02-02T13:40:23.569Z</time>
      </trkpt>
      <trkpt lat="47.95777" lon="4.99431">
        <ele>268.35</ele>
        <time>2025-02-02T13:40:32.179Z</time>
      </trkpt>
      <trkpt lat="47.95772" lon="4.99456">
        <ele>268.34</ele>
        <time>2025-02-02T13:40:40.792Z</time>
      </trkpt>
      <trkpt lat="47.95768" lon="4.9948">
        <ele>268.32</ele>
        <time>2025-02-02T13:40:49.408Z</time>
      </trkpt>
      <trkpt lat="47.95763" lon="4.99516">
        <ele>268.35</ele>
        <time>2025-02-02T13:40:58.028Z</time>
      </trkpt>
      <trkpt lat="47.95759" lon="4.99553">
        <ele>268.35</ele>
        <time>2025-02-02T13:41:06.652Z</time>
      </trkpt>
      <trkpt lat="47.95758" lon="4.99583">
        <ele>268.36</ele>
        <time>2025-02-02T13:41:15.279Z</time>
      </trkpt>
      <trkpt lat="47.95757" lon="4.99613">
        <ele>268.45</ele>
        <time>2025-02-02T13:41:23.909Z</time>
      </trkpt>
      <trkpt lat="47.95756" lon="4.99653">
        <ele>268.6</ele>
        <time>2025-02-02T13:41:32.543Z</time>
      </trkpt>
      <trkpt lat="47.95755" lon="4.99694">
        <ele>268.82</ele>
        <time>2025-02-02T13:41:41.182Z</time>
      </trkpt>
      <trkpt lat="47.95753" lon="4.99719">
        <ele>268.96</ele>
        <time>2025-02-02T13:41:49.823Z</time>
      </trkpt>
      <trkpt lat="47.95751" lon="4.99744">
        <ele>269.07</ele>
        <time>2025-02-02T13:41:58.467Z</time>
      </trkpt>
      <trkpt lat="47.9575" lon="4.99754">
        <ele>269.19</ele>
        <time>2025-02-02T13:42:07.112Z</time>
      </trkpt>
      <trkpt lat="47.95744" lon="4.99789">
        <ele>269.25</ele>
        <time>2025-02-02T13:42:15.761Z</time>
      </trkpt>
      <trkpt lat="47.95737" lon="4.99823">
        <ele>269.35</ele>
        <time>2025-02-02T13:42:24.414Z</time>
      </trkpt>
      <trkpt lat="47.9573" lon="4.9985">
        <ele>269.46</ele>
        <time>2025-02-02T13:42:33.070Z</time>
      </trkpt>
      <trkpt lat="47.95722" lon="4.99878">
        <ele>269.62</ele>
        <time>2025-02-02T13:42:41.729Z</time>
      </trkpt>
      <trkpt lat="47.95714" lon="4.99905">
        <ele>269.8</ele>
        <time>2025-02-02T13:42:50.392Z</time>
      </trkpt>
      <trkpt lat="47.95706" lon="4.99932">
        <ele>269.94</ele>
        <time>2025-02-02T13:42:59.058Z</time>
      </trkpt>
      <trkpt lat="47.95696" lon="4.99959">
        <ele>270.06</ele>
        <time>2025-02-02T13:43:07.727Z</time>
      </trkpt>
      <trkpt lat="47.95686" lon="4.99986">
        <ele>270.19</ele>
        <time>2025-02-02T13:43:16.399Z</time>
      </trkpt>
      <trkpt lat="47.95675" lon="5.00016">
        <ele>270.48</ele>
        <time>2025-02-02T13:43:25.075Z</time>
      </trkpt>
      <trkpt lat="47.95663" lon="5.00045">
        <ele>270.65</ele>
        <time>2025-02-02T13:43:33.755Z</time>
      </trkpt>
      <trkpt lat="47.95652" lon="5.00077">
        <ele>270.95</ele>
        <time>2025-02-02T13:43:42.439Z</time>
      </trkpt>
      <trkpt lat="47.95636" lon="5.00116">
        <ele>271.19</ele>
        <time>2025-02-02T13:43:51.127Z</time>
      </trkpt>
      <trkpt lat="47.95626" lon="5.00143">
        <ele>271.35</ele>
        <time>2025-02-02T13:43:59.819Z</time>
      </trkpt>
      <trkpt lat="47.95616" lon="5.0017">
        <ele>271.47</ele>
        <time>2025-02-02T13:44:08.514Z</time>
      </trkpt>
      <trkpt lat="47.95611" lon="5.00183">
        <ele>271.62</ele>
        <time>2025-02-02T13:44:17.211Z</time>
      </trkpt>
      <trkpt lat="47.956" lon="5.00212">
        <ele>271.83</ele>
        <time>2025-02-02T13:44:25.911Z</time>
      </trkpt>
      <trkpt lat="47.95589" lon="5.00232">
        <ele>272.05</ele>
        <time>2025-02-02T13:44:34.614Z</time>
      </trkpt>
      <trkpt lat="47.95577" lon="5.00253">
        <ele>272.22</ele>
        <time>2025-02-02T13:44:43.320Z</time>
      </trkpt>
      <trkpt lat="47.95565" lon="5.00274">
        <ele>272.4</ele>
        <time>2025-02-02T13:44:52.029Z</time>
      </trkpt>
      <trkpt lat="47.95553" lon="5.00295">
        <ele>272.57</ele>
        <time>2025-02-02T13:45:00.741Z</time>
      </trkpt>
      <trkpt lat="47.95545" lon="5.00317">
        <ele>272.75</ele>
        <time>2025-02-02T13:45:09.456Z</time>
      </trkpt>
      <trkpt lat="47.95536" lon="5.00338">
        <ele>272.92</ele>
        <time>2025-02-02T13:45:18.173Z</time>
      </trkpt>
      <trkpt lat="47.95524" lon="5.00367">
        <ele>273.06</ele>
        <time>2025-02-02T13:45:26.894Z</time>
      </trkpt>
      <trkpt lat="47.95513" lon="5.00397">
        <ele>273.22</ele>
        <time>2025-02-02T13:45:35.619Z</time>
      </trkpt>
      <trkpt lat="47.955" lon="5.00424">
        <ele>273.5</ele>
        <time>2025-02-02T13:45:44.347Z</time>
      </trkpt>
      <trkpt lat="47.95488" lon="5.00452">
        <ele>273.78</ele>
        <time>2025-02-02T13:45:53.079Z</time>
      </trkpt>
      <trkpt lat="47.95476" lon="5.00472">
        <ele>274.01</ele>
        <time>2025-02-02T13:46:01.814Z</time>
      </trkpt>
      <trkpt lat="47.95464" lon="5.00492">
        <ele>274.17</ele>
        <time>2025-02-02T13:46:10.552Z</time>
      </trkpt>
      <trkpt lat="47.9545" lon="5.00509">
        <ele>274.33</ele>
        <time>2025-02-02T13:46:19.293Z</time>
      </trkpt>
      <trkpt lat="47.95435" lon="5.00526">
        <ele>274.5</ele>
        <time>2025-02-02T13:46:28.036Z</time>
      </trkpt>
      <trkpt lat="47.95417" lon="5.00537">
        <ele>274.61</ele>
        <time>2025-02-02T13:46:36.783Z</time>
      </trkpt>
      <trkpt lat="47.95399" lon="5.00549">
        <ele>274.71</ele>
        <time>2025-02-02T13:46:45.533Z</time>
      </trkpt>
      <trkpt lat="47.95372" lon="5.00557">
        <ele>274.74</ele>
        <time>2025-02-02T13:46:54.287Z</time>
      </trkpt>
      <trkpt lat="47.95356" lon="5.00563">
        <ele>274.79</ele>
        <time>2025-02-02T13:47:03.044Z</time>
      </trkpt>
      <trkpt lat="47.95339" lon="5.00568">
        <ele>274.8</ele>
        <time>2025-02-02T13:47:11.804Z</time>
      </trkpt>
      <trkpt lat="47.9533" lon="5.00573">
        <ele>274.81</ele>
        <time>2025-02-02T13:47:20.565Z</time>
      </trkpt>
      <trkpt lat="47.95312" lon="5.00585">
        <ele>274.82</ele>
        <time>2025-02-02T13:47:29.329Z</time>
      </trkpt>
      <trkpt lat="47.95287" lon="5.00609">
        <ele>274.81</ele>
        <time>2025-02-02T13:47:38.098Z</time>
      </trkpt>
      <trkpt lat="47.95267" lon="5.00628">
        <ele>274.87</ele>
        <time>2025-02-02T13:47:46.871Z</time>
      </trkpt>
      <trkpt lat="47.95263" lon="5.00631">
        <ele>274.83</ele>
        <time>2025-02-02T13:47:55.645Z</time>
      </trkpt>
      <trkpt lat="47.95255" lon="5.00635">
        <ele>274.78</ele>
        <time>2025-02-02T13:48:04.420Z</time>
      </trkpt>
      <trkpt lat="47.95243" lon="5.00639">
        <ele>274.71</ele>
        <time>2025-02-02T13:48:13.197Z</time>
      </trkpt>
      <trkpt lat="47.95225" lon="5.00637">
        <ele>274.64</ele>
        <time>2025-02-02T13:48:21.977Z</time>
      </trkpt>
      <trkpt lat="47.95219" lon="5.00642">
        <ele>274.54</ele>
        <time>2025-02-02T13:48:30.758Z</time>
      </trkpt>
      <trkpt lat="47.95216" lon="5.00634">
        <ele>274.4</ele>
        <time>2025-02-02T13:48:39.540Z</time>
      </trkpt>
      <trkpt lat="47.95217" lon="5.00634">
        <ele>274.25</ele>
        <time>2025-02-02T13:48:48.322Z</time>
      </trkpt>
      <trkpt lat="47.95213" lon="5.00633">
        <ele>274.09</ele>
        <time>2025-02-02T13:48:57.104Z</time>
      </trkpt>
      <trkpt lat="47.95209" lon="5.00631">
        <ele>273.91</ele>
        <time>2025-02-02T13:49:05.887Z</time>
      </trkpt>
      <trkpt lat="47.95207" lon="5.00631">
        <ele>273.71</ele>
        <time>2025-02-02T13:49:14.670Z</time>
      </trkpt>
      <trkpt lat="47.95204" lon="5.00629">
        <ele>273.49</ele>
        <time>2025-02-02T13:49:23.454Z</time>
      </trkpt>
      <trkpt lat="47.95198" lon="5.00627">
        <ele>273.25</ele>
        <time>2025-02-02T13:49:32.239Z</time>
      </trkpt>
      <trkpt lat="47.95195" lon="5.00626">
        <ele>273.01</ele>
        <time>2025-02-02T13:49:41.025Z</time>
      </trkpt>
      <trkpt lat="47.95166" lon="5.00615">
        <ele>272.7</ele>
        <time>2025-02-02T13:49:49.815Z</time>
      </trkpt>
      <trkpt lat="47.95149" lon="5.00609">
        <ele>272.46</ele>
        <time>2025-02-02T13:49:58.608Z</time>
      </trkpt>
      <trkpt lat="47.95133" lon="5.00602">
        <ele>272.18</ele>
        <time>2025-02-02T13:50:07.404Z</time>
      </trkpt>
      <trkpt lat="47.95111" lon="5.00596">
        <ele>271.9</ele>
        <time>2025-02-02T13:50:16.203Z</time>
      </trkpt>
      <trkpt lat="47.95089" lon="5.00589">
        <ele>271.63</ele>
        <time>2025-02-02T13:50:25.006Z</time>
      </trkpt>
      <trkpt lat="47.95071" lon="5.00586">
        <ele>271.42</ele>
        <time>2025-02-02T13:50:33.812Z</time>
      </trkpt>
      <trkpt lat="47.95057" lon="5.00591">
        <ele>271.22</ele>
        <time>2025-02-02T13:50:42.620Z</time>
      </trkpt>
      <trkpt lat="47.95034" lon="5.00599">
        <ele>271.01</ele>
        <time>2025-02-02T13:50:51.432Z</time>
      </trkpt>
      <trkpt lat="47.95013" lon="5.00612">
        <ele>270.82</ele>
        <time>2025-02-02T13:51:00.248Z</time>
      </trkpt>
      <trkpt lat="47.94992" lon="5.00625">
        <ele>270.65</ele>
        <time>2025-02-02T13:51:09.067Z</time>
      </trkpt>
      <trkpt lat="47.94986" lon="5.00629">
        <ele>270.54</ele>
        <time>2025-02-02T13:51:17.887Z</time>
      </trkpt>
      <trkpt lat="47.94972" lon="5.00647">
        <ele>270.47</ele>
        <time>2025-02-02T13:51:26.710Z</time>
      </trkpt>
      <trkpt lat="47.94959" lon="5.00667">
        <ele>270.46</ele>
        <time>2025-02-02T13:51:35.536Z</time>
      </trkpt>
      <trkpt lat="47.94945" lon="5.00688">
        <ele>270.47</ele>
        <time>2025-02-02T13:51:44.365Z</time>
      </trkpt>
      <trkpt lat="47.94929" lon="5.00711">
        <ele>270.49</ele>
        <time>2025-02-02T13:51:53.198Z</time>
      </trkpt>
      <trkpt lat="47.94914" lon="5.00735">
        <ele>270.55</ele>
        <time>2025-02-02T13:52:02.034Z</time>
      </trkpt>
      <trkpt lat="47.94902" lon="5.00755">
        <ele>270.61</ele>
        <time>2025-02-02T13:52:10.873Z</time>
      </trkpt>
      <trkpt lat="47.94891" lon="5.00775">
        <ele>270.7</ele>
        <time>2025-02-02T13:52:19.715Z</time>
      </trkpt>
      <trkpt lat="47.9488" lon="5.00797">
        <ele>270.82</ele>
        <time>2025-02-02T13:52:28.560Z</time>
      </trkpt>
      <trkpt lat="47.94869" lon="5.00818">
        <ele>270.96</ele>
        <time>2025-02-02T13:52:37.408Z</time>
      </trkpt>
      <trkpt lat="47.94858" lon="5.00843">
        <ele>271.09</ele>
        <time>2025-02-02T13:52:46.259Z</time>
      </trkpt>
      <trkpt lat="47.94847" lon="5.00868">
        <ele>271.22</ele>
        <time>2025-02-02T13:52:55.113Z</time>
      </trkpt>
      <trkpt lat="47.94839" lon="5.0089">
        <ele>271.39</ele>
        <time>2025-02-02T13:53:03.970Z</time>
      </trkpt>
      <trkpt lat="47.9483" lon="5.00912">
        <ele>271.56</ele>
        <time>2025-02-02T13:53:12.830Z</time>
      </trkpt>
      <trkpt lat="47.94828" lon="5.00918">
        <ele>271.7</ele>
        <time>2025-02-02T13:53:21.691Z</time>
      </trkpt>
      <trkpt lat="47.94821" lon="5.00953">
        <ele>271.85</ele>
        <time>2025-02-02T13:53:30.556Z</time>
      </trkpt>
      <trkpt lat="47.94817" lon="5.00983">
        <ele>271.93</ele>
        <time>2025-02-02T13:53:39.424Z</time>
      </trkpt>
      <trkpt lat="47.94813" lon="5.01012">
        <ele>272.06</ele>
        <time>2025-02-02T13:53:48.295Z</time>
      </trkpt>
      <trkpt lat="47.9481" lon="5.01044">
        <ele>272.19</ele>
        <time>2025-02-02T13:53:57.169Z</time>
      </trkpt>
      <trkpt lat="47.94807" lon="5.01075">
        <ele>272.31</ele>
        <time>2025-02-02T13:54:06.047Z</time>
      </trkpt>
      <trkpt lat="47.94805" lon="5.01101">
        <ele>272.47</ele>
        <time>2025-02-02T13:54:14.928Z</time>
      </trkpt>
      <trkpt lat="47.94803" lon="5.01127">
        <ele>272.69</ele>
        <time>2025-02-02T13:54:23.811Z</time>
      </trkpt>
      <trkpt lat="47.94801" lon="5.01146">
        <ele>272.94</ele>
        <time>2025-02-02T13:54:32.696Z</time>
      </trkpt>
      <trkpt lat="47.94801" lon="5.01146">
        <ele>273.16</ele>
        <time>2025-02-02T13:54:41.581Z</time>
      </trkpt>
      <trkpt lat="47.94801" lon="5.01152">
        <ele>273.42</ele>
        <time>2025-02-02T13:54:50.467Z</time>
      </trkpt>
      <trkpt lat="47.94797" lon="5.01183">
        <ele>273.71</ele>
        <time>2025-02-02T13:54:59.357Z</time>
      </trkpt>
      <trkpt lat="47.94794" lon="5.01214">
        <ele>274</ele>
        <time>2025-02-02T13:55:08.250Z</time>
      </trkpt>
      <trkpt lat="47.94792" lon="5.01245">
        <ele>274.37</ele>
        <time>2025-02-02T13:55:17.146Z</time>
      </trkpt>
      <trkpt lat="47.94793" lon="5.01282">
        <ele>274.78</ele>
        <time>2025-02-02T13:55:26.046Z</time>
      </trkpt>
      <trkpt lat="47.94794" lon="5.0132">
        <ele>275.27</ele>
        <time>2025-02-02T13:55:34.950Z</time>
      </trkpt>
      <trkpt lat="47.94798" lon="5.01339">
        <ele>275.7</ele>
        <time>2025-02-02T13:55:43.857Z</time>
      </trkpt>
      <trkpt lat="47.94826" lon="5.0134">
        <ele>276.1</ele>
        <time>2025-02-02T13:55:52.768Z</time>
      </trkpt>
      <trkpt lat="47.94853" lon="5.01342">
        <ele>276.52</ele>
        <time>2025-02-02T13:56:01.683Z</time>
      </trkpt>
      <trkpt lat="47.94881" lon="5.01343">
        <ele>276.97</ele>
        <time>2025-02-02T13:56:10.603Z</time>
      </trkpt>
      <trkpt lat="47.94908" lon="5.01344">
        <ele>277.53</ele>
        <time>2025-02-02T13:56:19.527Z</time>
      </trkpt>
      <trkpt lat="47.94936" lon="5.01346">
        <ele>278.22</ele>
        <time>2025-02-02T13:56:28.456Z</time>
      </trkpt>
      <trkpt lat="47.94951" lon="5.0135">
        <ele>278.95</ele>
        <time>2025-02-02T13:56:37.387Z</time>
      </trkpt>
      <trkpt lat="47.9497" lon="5.01362">
        <ele>279.75</ele>
        <time>2025-02-02T13:56:46.321Z</time>
      </trkpt>
      <trkpt lat="47.94989" lon="5.01374">
        <ele>280.62</ele>
        <time>2025-02-02T13:56:55.259Z</time>
      </trkpt>
      <trkpt lat="47.95017" lon="5.01391">
        <ele>281.61</ele>
        <time>2025-02-02T13:57:04.201Z</time>
      </trkpt>
      <trkpt lat="47.95045" lon="5.01408">
        <ele>282.65</ele>
        <time>2025-02-02T13:57:13.148Z</time>
      </trkpt>
      <trkpt lat="47.95073" lon="5.01425">
        <ele>283.71</ele>
        <time>2025-02-02T13:57:22.100Z</time>
      </trkpt>
      <trkpt lat="47.95101" lon="5.01442">
        <ele>284.89</ele>
        <time>2025-02-02T13:57:31.057Z</time>
      </trkpt>
      <trkpt lat="47.95123" lon="5.01462">
        <ele>286.07</ele>
        <time>2025-02-02T13:57:40.018Z</time>
      </trkpt>
      <trkpt lat="47.95145" lon="5.01482">
        <ele>287.32</ele>
        <time>2025-02-02T13:57:48.983Z</time>
      </trkpt>
      <trkpt lat="47.95167" lon="5.01502">
        <ele>288.66</ele>
        <time>2025-02-02T13:57:57.952Z</time>
      </trkpt>
      <trkpt lat="47.95193" lon="5.01527">
        <ele>290.08</ele>
        <time>2025-02-02T13:58:06.926Z</time>
      </trkpt>
      <trkpt lat="47.95218" lon="5.01553">
        <ele>291.56</ele>
        <time>2025-02-02T13:58:15.905Z</time>
      </trkpt>
      <trkpt lat="47.95243" lon="5.01578">
        <ele>293.06</ele>
        <time>2025-02-02T13:58:24.889Z</time>
      </trkpt>
      <trkpt lat="47.95268" lon="5.01603">
        <ele>294.59</ele>
        <time>2025-02-02T13:58:33.878Z</time>
      </trkpt>
      <trkpt lat="47.95279" lon="5.01612">
        <ele>296.12</ele>
        <time>2025-02-02T13:58:42.869Z</time>
      </trkpt>
      <trkpt lat="47.95295" lon="5.01625">
        <ele>297.7</ele>
        <time>2025-02-02T13:58:51.863Z</time>
      </trkpt>
      <trkpt lat="47.95311" lon="5.01637">
        <ele>299.3</ele>
        <time>2025-02-02T13:59:00.860Z</time>
      </trkpt>
      <trkpt lat="47.95333" lon="5.01649">
        <ele>300.94</ele>
        <time>2025-02-02T13:59:09.860Z</time>
      </trkpt>
      <trkpt lat="47.95354" lon="5.01661">
        <ele>302.6</ele>
        <time>2025-02-02T13:59:18.864Z</time>
      </trkpt>
      <trkpt lat="47.95375" lon="5.01669">
        <ele>304.29</ele>
        <time>2025-02-02T13:59:27.871Z</time>
      </trkpt>
      <trkpt lat="47.95395" lon="5.01676">
        <ele>306.01</ele>
        <time>2025-02-02T13:59:36.882Z</time>
      </trkpt>
      <trkpt lat="47.95424" lon="5.01684">
        <ele>307.82</ele>
        <time>2025-02-02T13:59:45.897Z</time>
      </trkpt>
      <trkpt lat="47.95453" lon="5.01692">
        <ele>309.66</ele>
        <time>2025-02-02T13:59:54.917Z</time>
      </trkpt>
      <trkpt lat="47.95482" lon="5.017">
        <ele>311.48</ele>
        <time>2025-02-02T14:00:03.942Z</time>
      </trkpt>
      <trkpt lat="47.95511" lon="5.01708">
        <ele>313.31</ele>
        <time>2025-02-02T14:00:12.972Z</time>
      </trkpt>
      <trkpt lat="47.9554" lon="5.01715">
        <ele>315.18</ele>
        <time>2025-02-02T14:00:22.006Z</time>
      </trkpt>
      <trkpt lat="47.95569" lon="5.01723">
        <ele>316.97</ele>
        <time>2025-02-02T14:00:31.045Z</time>
      </trkpt>
      <trkpt lat="47.95594" lon="5.01739">
        <ele>318.72</ele>
        <time>2025-02-02T14:00:40.089Z</time>
      </trkpt>
      <trkpt lat="47.9562" lon="5.01755">
        <ele>320.56</ele>
        <time>2025-02-02T14:00:49.137Z</time>
      </trkpt>
      <trkpt lat="47.9562" lon="5.01755">
        <ele>322.25</ele>
        <time>2025-02-02T14:00:58.185Z</time>
      </trkpt>
      <trkpt lat="47.9564" lon="5.01775">
        <ele>324.04</ele>
        <time>2025-02-02T14:01:07.237Z</time>
      </trkpt>
      <trkpt lat="47.95659" lon="5.01794">
        <ele>325.8</ele>
        <time>2025-02-02T14:01:16.292Z</time>
      </trkpt>
      <trkpt lat="47.9568" lon="5.01824">
        <ele>327.45</ele>
        <time>2025-02-02T14:01:25.352Z</time>
      </trkpt>
      <trkpt lat="47.95701" lon="5.01855">
        <ele>329.18</ele>
        <time>2025-02-02T14:01:34.417Z</time>
      </trkpt>
      <trkpt lat="47.95722" lon="5.01885">
        <ele>330.9</ele>
        <time>2025-02-02T14:01:43.486Z</time>
      </trkpt>
      <trkpt lat="47.95743" lon="5.01915">
        <ele>332.49</ele>
        <time>2025-02-02T14:01:52.560Z</time>
      </trkpt>
      <trkpt lat="47.95764" lon="5.01945">
        <ele>333.99</ele>
        <time>2025-02-02T14:02:01.639Z</time>
      </trkpt>
      <trkpt lat="47.95785" lon="5.01976">
        <ele>335.6</ele>
        <time>2025-02-02T14:02:10.723Z</time>
      </trkpt>
      <trkpt lat="47.95806" lon="5.02006">
        <ele>337.1</ele>
        <time>2025-02-02T14:02:19.811Z</time>
      </trkpt>
      <trkpt lat="47.95828" lon="5.02036">
        <ele>338.55</ele>
        <time>2025-02-02T14:02:28.904Z</time>
      </trkpt>
      <trkpt lat="47.95849" lon="5.02067">
        <ele>339.9</ele>
        <time>2025-02-02T14:02:38.002Z</time>
      </trkpt>
      <trkpt lat="47.9587" lon="5.02097">
        <ele>341.3</ele>
        <time>2025-02-02T14:02:47.104Z</time>
      </trkpt>
      <trkpt lat="47.95891" lon="5.02127">
        <ele>342.64</ele>
        <time>2025-02-02T14:02:56.211Z</time>
      </trkpt>
      <trkpt lat="47.95912" lon="5.02151">
        <ele>343.9</ele>
        <time>2025-02-02T14:03:05.322Z</time>
      </trkpt>
      <trkpt lat="47.95934" lon="5.02176">
        <ele>345.13</ele>
        <time>2025-02-02T14:03:14.438Z</time>
      </trkpt>
      <trkpt lat="47.95955" lon="5.02201">
        <ele>346.27</ele>
        <time>2025-02-02T14:03:23.558Z</time>
      </trkpt>
      <trkpt lat="47.95976" lon="5.02225">
        <ele>347.33</ele>
        <time>2025-02-02T14:03:32.682Z</time>
      </trkpt>
      <trkpt lat="47.95993" lon="5.02242">
        <ele>348.33</ele>
        <time>2025-02-02T14:03:41.809Z</time>
      </trkpt>
      <trkpt lat="47.96009" lon="5.02258">
        <ele>349.29</ele>
        <time>2025-02-02T14:03:50.940Z</time>
      </trkpt>
      <trkpt lat="47.96031" lon="5.02275">
        <ele>350.21</ele>
        <time>2025-02-02T14:04:00.075Z</time>
      </trkpt>
      <trkpt lat="47.96054" lon="5.02292">
        <ele>351.07</ele>
        <time>2025-02-02T14:04:09.214Z</time>
      </trkpt>
      <trkpt lat="47.96077" lon="5.02303">
        <ele>351.87</ele>
        <time>2025-02-02T14:04:18.357Z</time>
      </trkpt>
      <trkpt lat="47.96101" lon="5.02313">
        <ele>352.62</ele>
        <time>2025-02-02T14:04:27.504Z</time>
      </trkpt>
      <trkpt lat="47.96128" lon="5.02321">
        <ele>353.34</ele>
        <time>2025-02-02T14:04:36.655Z</time>
      </trkpt>
      <trkpt lat="47.96155" lon="5.02328">
        <ele>353.97</ele>
        <time>2025-02-02T14:04:45.810Z</time>
      </trkpt>
      <trkpt lat="47.96179" lon="5.02335">
        <ele>354.52</ele>
        <time>2025-02-02T14:04:54.969Z</time>
      </trkpt>
      <trkpt lat="47.96204" lon="5.02341">
        <ele>354.92</ele>
        <time>2025-02-02T14:05:04.132Z</time>
      </trkpt>
      <trkpt lat="47.96229" lon="5.02348">
        <ele>355.32</ele>
        <time>2025-02-02T14:05:13.299Z</time>
      </trkpt>
      <trkpt lat="47.96253" lon="5.02354">
        <ele>355.65</ele>
        <time>2025-02-02T14:05:22.470Z</time>
      </trkpt>
      <trkpt lat="47.96283" lon="5.02367">
        <ele>355.91</ele>
        <time>2025-02-02T14:05:31.646Z</time>
      </trkpt>
      <trkpt lat="47.96313" lon="5.0238">
        <ele>356.05</ele>
        <time>2025-02-02T14:05:40.827Z</time>
      </trkpt>
      <trkpt lat="47.96333" lon="5.02394">
        <ele>356.12</ele>
        <time>2025-02-02T14:05:50.012Z</time>
      </trkpt>
      <trkpt lat="47.96352" lon="5.02408">
        <ele>356.14</ele>
        <time>2025-02-02T14:05:59.200Z</time>
      </trkpt>
      <trkpt lat="47.96368" lon="5.02424">
        <ele>356.11</ele>
        <time>2025-02-02T14:06:08.391Z</time>
      </trkpt>
      <trkpt lat="47.96384" lon="5.0244">
        <ele>356.02</ele>
        <time>2025-02-02T14:06:17.585Z</time>
      </trkpt>
      <trkpt lat="47.96406" lon="5.02464">
        <ele>355.85</ele>
        <time>2025-02-02T14:06:26.784Z</time>
      </trkpt>
      <trkpt lat="47.96428" lon="5.02488">
        <ele>355.59</ele>
        <time>2025-02-02T14:06:35.987Z</time>
      </trkpt>
      <trkpt lat="47.9645" lon="5.02512">
        <ele>355.31</ele>
        <time>2025-02-02T14:06:45.195Z</time>
      </trkpt>
      <trkpt lat="47.96472" lon="5.02537">
        <ele>355</ele>
        <time>2025-02-02T14:06:54.407Z</time>
      </trkpt>
      <trkpt lat="47.96472" lon="5.02537">
        <ele>354.59</ele>
        <time>2025-02-02T14:07:03.619Z</time>
      </trkpt>
      <trkpt lat="47.96495" lon="5.02561">
        <ele>354.12</ele>
        <time>2025-02-02T14:07:12.835Z</time>
      </trkpt>
      <trkpt lat="47.96517" lon="5.02586">
        <ele>353.57</ele>
        <time>2025-02-02T14:07:22.056Z</time>
      </trkpt>
      <trkpt lat="47.9654" lon="5.02611">
        <ele>352.96</ele>
        <time>2025-02-02T14:07:31.281Z</time>
      </trkpt>
      <trkpt lat="47.96562" lon="5.02636">
        <ele>352.2</ele>
        <time>2025-02-02T14:07:40.511Z</time>
      </trkpt>
      <trkpt lat="47.96585" lon="5.02661">
        <ele>351.44</ele>
        <time>2025-02-02T14:07:49.745Z</time>
      </trkpt>
      <trkpt lat="47.96607" lon="5.02686">
        <ele>350.67</ele>
        <time>2025-02-02T14:07:58.984Z</time>
      </trkpt>
      <trkpt lat="47.9663" lon="5.02711">
        <ele>349.79</ele>
        <time>2025-02-02T14:08:08.227Z</time>
      </trkpt>
      <trkpt lat="47.96652" lon="5.02736">
        <ele>348.81</ele>
        <time>2025-02-02T14:08:17.475Z</time>
      </trkpt>
      <trkpt lat="47.96674" lon="5.02754">
        <ele>347.74</ele>
        <time>2025-02-02T14:08:26.727Z</time>
      </trkpt>
      <trkpt lat="47.96695" lon="5.02772">
        <ele>346.59</ele>
        <time>2025-02-02T14:08:35.983Z</time>
      </trkpt>
      <trkpt lat="47.96717" lon="5.0279">
        <ele>345.4</ele>
        <time>2025-02-02T14:08:45.243Z</time>
      </trkpt>
      <trkpt lat="47.96744" lon="5.02804">
        <ele>344.2</ele>
        <time>2025-02-02T14:08:54.507Z</time>
      </trkpt>
      <trkpt lat="47.96771" lon="5.02819">
        <ele>342.96</ele>
        <time>2025-02-02T14:09:03.776Z</time>
      </trkpt>
      <trkpt lat="47.96798" lon="5.02834">
        <ele>341.7</ele>
        <time>2025-02-02T14:09:13.050Z</time>
      </trkpt>
      <trkpt lat="47.96825" lon="5.02848">
        <ele>340.38</ele>
        <time>2025-02-02T14:09:22.328Z</time>
      </trkpt>
      <trkpt lat="47.96852" lon="5.02863">
        <ele>339.08</ele>
        <time>2025-02-02T14:09:31.611Z</time>
      </trkpt>
      <trkpt lat="47.9688" lon="5.02882">
        <ele>337.75</ele>
        <time>2025-02-02T14:09:40.899Z</time>
      </trkpt>
      <trkpt lat="47.96908" lon="5.02901">
        <ele>336.39</ele>
        <time>2025-02-02T14:09:50.192Z</time>
      </trkpt>
      <trkpt lat="47.96927" lon="5.02917">
        <ele>335.02</ele>
        <time>2025-02-02T14:09:59.488Z</time>
      </trkpt>
      <trkpt lat="47.96946" lon="5.02933">
        <ele>333.69</ele>
        <time>2025-02-02T14:10:08.788Z</time>
      </trkpt>
      <trkpt lat="47.96966" lon="5.02949">
        <ele>332.35</ele>
        <time>2025-02-02T14:10:18.091Z</time>
      </trkpt>
      <trkpt lat="47.96988" lon="5.02961">
        <ele>331.03</ele>
        <time>2025-02-02T14:10:27.398Z</time>
      </trkpt>
      <trkpt lat="47.97011" lon="5.02974">
        <ele>329.66</ele>
        <time>2025-02-02T14:10:36.709Z</time>
      </trkpt>
      <trkpt lat="47.97033" lon="5.02981">
        <ele>328.35</ele>
        <time>2025-02-02T14:10:46.024Z</time>
      </trkpt>
      <trkpt lat="47.97056" lon="5.02987">
        <ele>327.02</ele>
        <time>2025-02-02T14:10:55.342Z</time>
      </trkpt>
      <trkpt lat="47.97081" lon="5.02988">
        <ele>325.78</ele>
        <time>2025-02-02T14:11:04.664Z</time>
      </trkpt>
      <trkpt lat="47.97107" lon="5.02989">
        <ele>324.61</ele>
        <time>2025-02-02T14:11:13.990Z</time>
      </trkpt>
      <trkpt lat="47.97133" lon="5.02986">
        <ele>323.43</ele>
        <time>2025-02-02T14:11:23.321Z</time>
      </trkpt>
      <trkpt lat="47.97159" lon="5.02982">
        <ele>322.37</ele>
        <time>2025-02-02T14:11:32.656Z</time>
      </trkpt>
      <trkpt lat="47.97184" lon="5.02979">
        <ele>321.46</ele>
        <time>2025-02-02T14:11:41.995Z</time>
      </trkpt>
      <trkpt lat="47.97207" lon="5.02981">
        <ele>320.61</ele>
        <time>2025-02-02T14:11:51.338Z</time>
      </trkpt>
      <trkpt lat="47.9723" lon="5.02983">
        <ele>319.83</ele>
        <time>2025-02-02T14:12:00.684Z</time>
      </trkpt>
      <trkpt lat="47.97252" lon="5.0299">
        <ele>319.18</ele>
        <time>2025-02-02T14:12:10.034Z</time>
      </trkpt>
      <trkpt lat="47.97275" lon="5.02998">
        <ele>318.62</ele>
        <time>2025-02-02T14:12:19.388Z</time>
      </trkpt>
      <trkpt lat="47.97299" lon="5.03013">
        <ele>318.13</ele>
        <time>2025-02-02T14:12:28.746Z</time>
      </trkpt>
      <trkpt lat="47.97324" lon="5.03028">
        <ele>317.79</ele>
        <time>2025-02-02T14:12:38.108Z</time>
      </trkpt>
      <trkpt lat="47.97348" lon="5.03052">
        <ele>317.76</ele>
        <time>2025-02-02T14:12:47.475Z</time>
      </trkpt>
      <trkpt lat="47.97371" lon="5.03075">
        <ele>318.09</ele>
        <time>2025-02-02T14:12:56.846Z</time>
      </trkpt>
      <trkpt lat="47.97371" lon="5.03075">
        <ele>318.46</ele>
        <time>2025-02-02T14:13:06.217Z</time>
      </trkpt>
      <trkpt lat="47.97378" lon="5.03084">
        <ele>319.04</ele>
        <time>2025-02-02T14:13:15.590Z</time>
      </trkpt>
      <trkpt lat="47.97378" lon="5.03084">
        <ele>319.75</ele>
        <time>2025-02-02T14:13:24.963Z</time>
      </trkpt>
      <trkpt lat="47.97392" lon="5.03109">
        <ele>320.71</ele>
        <time>2025-02-02T14:13:34.339Z</time>
      </trkpt>
      <trkpt lat="47.97406" lon="5.03134">
        <ele>321.85</ele>
        <time>2025-02-02T14:13:43.719Z</time>
      </trkpt>
      <trkpt lat="47.97421" lon="5.03159">
        <ele>323.15</ele>
        <time>2025-02-02T14:13:53.102Z</time>
      </trkpt>
      <trkpt lat="47.97436" lon="5.03198">
        <ele>324.64</ele>
        <time>2025-02-02T14:14:02.490Z</time>
      </trkpt>
      <trkpt lat="47.97451" lon="5.03238">
        <ele>326.2</ele>
        <time>2025-02-02T14:14:11.883Z</time>
      </trkpt>
      <trkpt lat="47.97467" lon="5.03277">
        <ele>327.8</ele>
        <time>2025-02-02T14:14:21.281Z</time>
      </trkpt>
      <trkpt lat="47.97482" lon="5.03317">
        <ele>329.43</ele>
        <time>2025-02-02T14:14:30.684Z</time>
      </trkpt>
      <trkpt lat="47.97498" lon="5.03356">
        <ele>331.27</ele>
        <time>2025-02-02T14:14:40.092Z</time>
      </trkpt>
      <trkpt lat="47.97512" lon="5.03381">
        <ele>333.08</ele>
        <time>2025-02-02T14:14:49.503Z</time>
      </trkpt>
      <trkpt lat="47.97526" lon="5.03406">
        <ele>334.87</ele>
        <time>2025-02-02T14:14:58.918Z</time>
      </trkpt>
      <trkpt lat="47.97546" lon="5.0343">
        <ele>336.63</ele>
        <time>2025-02-02T14:15:08.337Z</time>
      </trkpt>
      <trkpt lat="47.97566" lon="5.03455">
        <ele>338.37</ele>
        <time>2025-02-02T14:15:17.760Z</time>
      </trkpt>
      <trkpt lat="47.97587" lon="5.0348">
        <ele>340.15</ele>
        <time>2025-02-02T14:15:27.187Z</time>
      </trkpt>
      <trkpt lat="47.97607" lon="5.03504">
        <ele>341.99</ele>
        <time>2025-02-02T14:15:36.618Z</time>
      </trkpt>
      <trkpt lat="47.97625" lon="5.0353">
        <ele>343.8</ele>
        <time>2025-02-02T14:15:46.053Z</time>
      </trkpt>
      <trkpt lat="47.97644" lon="5.03556">
        <ele>345.55</ele>
        <time>2025-02-02T14:15:55.493Z</time>
      </trkpt>
      <trkpt lat="47.97662" lon="5.03591">
        <ele>347.26</ele>
        <time>2025-02-02T14:16:04.937Z</time>
      </trkpt>
      <trkpt lat="47.97681" lon="5.03626">
        <ele>348.92</ele>
        <time>2025-02-02T14:16:14.386Z</time>
      </trkpt>
      <trkpt lat="47.977" lon="5.03661">
        <ele>350.44</ele>
        <time>2025-02-02T14:16:23.840Z</time>
      </trkpt>
      <trkpt lat="47.97718" lon="5.03697">
        <ele>351.96</ele>
        <time>2025-02-02T14:16:33.299Z</time>
      </trkpt>
      <trkpt lat="47.97737" lon="5.03732">
        <ele>353.41</ele>
        <time>2025-02-02T14:16:42.763Z</time>
      </trkpt>
      <trkpt lat="47.97756" lon="5.03767">
        <ele>354.69</ele>
        <time>2025-02-02T14:16:52.231Z</time>
      </trkpt>
      <trkpt lat="47.97775" lon="5.03802">
        <ele>355.98</ele>
        <time>2025-02-02T14:17:01.704Z</time>
      </trkpt>
      <trkpt lat="47.97793" lon="5.03838">
        <ele>357.19</ele>
        <time>2025-02-02T14:17:11.182Z</time>
      </trkpt>
      <trkpt lat="47.97812" lon="5.03873">
        <ele>358.38</ele>
        <time>2025-02-02T14:17:20.665Z</time>
      </trkpt>
      <trkpt lat="47.9783" lon="5.03908">
        <ele>359.56</ele>
        <time>2025-02-02T14:17:30.153Z</time>
      </trkpt>
      <trkpt lat="47.97843" lon="5.03924">
        <ele>360.56</ele>
        <time>2025-02-02T14:17:39.643Z</time>
      </trkpt>
      <trkpt lat="47.97856" lon="5.0394">
        <ele>361.56</ele>
        <time>2025-02-02T14:17:49.136Z</time>
      </trkpt>
      <trkpt lat="47.9788" lon="5.03963">
        <ele>362.53</ele>
        <time>2025-02-02T14:17:58.634Z</time>
      </trkpt>
      <trkpt lat="47.97897" lon="5.03976">
        <ele>363.44</ele>
        <time>2025-02-02T14:18:08.135Z</time>
      </trkpt>
      <trkpt lat="47.97914" lon="5.03989">
        <ele>364.26</ele>
        <time>2025-02-02T14:18:17.639Z</time>
      </trkpt>
      <trkpt lat="47.97933" lon="5.04">
        <ele>365.03</ele>
        <time>2025-02-02T14:18:27.146Z</time>
      </trkpt>
      <trkpt lat="47.97953" lon="5.04011">
        <ele>365.82</ele>
        <time>2025-02-02T14:18:36.656Z</time>
      </trkpt>
      <trkpt lat="47.97978" lon="5.04019">
        <ele>366.62</ele>
        <time>2025-02-02T14:18:46.171Z</time>
      </trkpt>
      <trkpt lat="47.98003" lon="5.04027">
        <ele>367.38</ele>
        <time>2025-02-02T14:18:55.690Z</time>
      </trkpt>
      <trkpt lat="47.98028" lon="5.04035">
        <ele>368.11</ele>
        <time>2025-02-02T14:19:05.213Z</time>
      </trkpt>
      <trkpt lat="47.98054" lon="5.04043">
        <ele>368.78</ele>
        <time>2025-02-02T14:19:14.740Z</time>
      </trkpt>
      <trkpt lat="47.98074" lon="5.04055">
        <ele>369.36</ele>
        <time>2025-02-02T14:19:24.270Z</time>
      </trkpt>
      <trkpt lat="47.98094" lon="5.04067">
        <ele>369.91</ele>
        <time>2025-02-02T14:19:33.804Z</time>
      </trkpt>
      <trkpt lat="47.98114" lon="5.04079">
        <ele>370.36</ele>
        <time>2025-02-02T14:19:43.341Z</time>
      </trkpt>
      <trkpt lat="47.98138" lon="5.04097">
        <ele>370.76</ele>
        <time>2025-02-02T14:19:52.883Z</time>
      </trkpt>
      <trkpt lat="47.98162" lon="5.04115">
        <ele>371.19</ele>
        <time>2025-02-02T14:20:02.429Z</time>
      </trkpt>
      <trkpt lat="47.98186" lon="5.04132">
        <ele>371.65</ele>
        <time>2025-02-02T14:20:11.979Z</time>
      </trkpt>
      <trkpt lat="47.9821" lon="5.0415">
        <ele>372.15</ele>
        <time>2025-02-02T14:20:21.534Z</time>
      </trkpt>
      <trkpt lat="47.98229" lon="5.04168">
        <ele>372.46</ele>
        <time>2025-02-02T14:20:31.092Z</time>
      </trkpt>
      <trkpt lat="47.98247" lon="5.04186">
        <ele>372.72</ele>
        <time>2025-02-02T14:20:40.654Z</time>
      </trkpt>
      <trkpt lat="47.98266" lon="5.04204">
        <ele>372.98</ele>
        <time>2025-02-02T14:20:50.219Z</time>
      </trkpt>
      <trkpt lat="47.98288" lon="5.04232">
        <ele>373.32</ele>
        <time>2025-02-02T14:20:59.789Z</time>
      </trkpt>
      <trkpt lat="47.9831" lon="5.0426">
        <ele>373.45</ele>
        <time>2025-02-02T14:21:09.364Z</time>
      </trkpt>
      <trkpt lat="47.98333" lon="5.04288">
        <ele>373.44</ele>
        <time>2025-02-02T14:21:18.943Z</time>
      </trkpt>
      <trkpt lat="47.98355" lon="5.04315">
        <ele>373.49</ele>
        <time>2025-02-02T14:21:28.527Z</time>
      </trkpt>
      <trkpt lat="47.98377" lon="5.04343">
        <ele>373.52</ele>
        <time>2025-02-02T14:21:38.115Z</time>
      </trkpt>
      <trkpt lat="47.98399" lon="5.04371">
        <ele>373.45</ele>
        <time>2025-02-02T14:21:47.708Z</time>
      </trkpt>
      <trkpt lat="47.98422" lon="5.04399">
        <ele>373.4</ele>
        <time>2025-02-02T14:21:57.306Z</time>
      </trkpt>
      <trkpt lat="47.98444" lon="5.04427">
        <ele>373.26</ele>
        <time>2025-02-02T14:22:06.908Z</time>
      </trkpt>
      <trkpt lat="47.98466" lon="5.04455">
        <ele>372.98</ele>
        <time>2025-02-02T14:22:16.515Z</time>
      </trkpt>
      <trkpt lat="47.98489" lon="5.04483">
        <ele>372.53</ele>
        <time>2025-02-02T14:22:26.127Z</time>
      </trkpt>
      <trkpt lat="47.98511" lon="5.04511">
        <ele>372.03</ele>
        <time>2025-02-02T14:22:35.743Z</time>
      </trkpt>
      <trkpt lat="47.9853" lon="5.04528">
        <ele>371.74</ele>
        <time>2025-02-02T14:22:45.363Z</time>
      </trkpt>
      <trkpt lat="47.98549" lon="5.04545">
        <ele>371.51</ele>
        <time>2025-02-02T14:22:54.987Z</time>
      </trkpt>
      <trkpt lat="47.98574" lon="5.04561">
        <ele>371.39</ele>
        <time>2025-02-02T14:23:04.615Z</time>
      </trkpt>
      <trkpt lat="47.98599" lon="5.04578">
        <ele>371.14</ele>
        <time>2025-02-02T14:23:14.247Z</time>
      </trkpt>
      <trkpt lat="47.98624" lon="5.04594">
        <ele>370.84</ele>
        <time>2025-02-02T14:23:23.884Z</time>
      </trkpt>
      <trkpt lat="47.98649" lon="5.0461">
        <ele>370.48</ele>
        <time>2025-02-02T14:23:33.525Z</time>
      </trkpt>
      <trkpt lat="47.98674" lon="5.04627">
        <ele>370.11</ele>
        <time>2025-02-02T14:23:43.170Z</time>
      </trkpt>
      <trkpt lat="47.98694" lon="5.04641">
        <ele>369.83</ele>
        <time>2025-02-02T14:23:52.819Z</time>
      </trkpt>
      <trkpt lat="47.98714" lon="5.04655">
        <ele>369.62</ele>
        <time>2025-02-02T14:24:02.471Z</time>
      </trkpt>
      <trkpt lat="47.98734" lon="5.04669">
        <ele>369.52</ele>
        <time>2025-02-02T14:24:12.127Z</time>
      </trkpt>
      <trkpt lat="47.98758" lon="5.04694">
        <ele>369.54</ele>
        <time>2025-02-02T14:24:21.788Z</time>
      </trkpt>
      <trkpt lat="47.98783" lon="5.04719">
        <ele>369.64</ele>
        <time>2025-02-02T14:24:31.454Z</time>
      </trkpt>
      <trkpt lat="47.98807" lon="5.04743">
        <ele>369.77</ele>
        <time>2025-02-02T14:24:41.124Z</time>
      </trkpt>
      <trkpt lat="47.98832" lon="5.04768">
        <ele>369.93</ele>
        <time>2025-02-02T14:24:50.799Z</time>
      </trkpt>
      <trkpt lat="47.98856" lon="5.04793">
        <ele>370.14</ele>
        <time>2025-02-02T14:25:00.479Z</time>
      </trkpt>
      <trkpt lat="47.98881" lon="5.04818">
        <ele>370.33</ele>
        <time>2025-02-02T14:25:10.163Z</time>
      </trkpt>
      <trkpt lat="47.98905" lon="5.04842">
        <ele>370.49</ele>
        <time>2025-02-02T14:25:19.852Z</time>
      </trkpt>
      <trkpt lat="47.9893" lon="5.04867">
        <ele>370.57</ele>
        <time>2025-02-02T14:25:29.546Z</time>
      </trkpt>
      <trkpt lat="47.98954" lon="5.04892">
        <ele>370.67</ele>
        <time>2025-02-02T14:25:39.245Z</time>
      </trkpt>
      <trkpt lat="47.98979" lon="5.04916">
        <ele>370.77</ele>
        <time>2025-02-02T14:25:48.948Z</time>
      </trkpt>
      <trkpt lat="47.99003" lon="5.04941">
        <ele>370.92</ele>
        <time>2025-02-02T14:25:58.656Z</time>
      </trkpt>
      <trkpt lat="47.99028" lon="5.04966">
        <ele>371.06</ele>
        <time>2025-02-02T14:26:08.369Z</time>
      </trkpt>
      <trkpt lat="47.9905" lon="5.04984">
        <ele>371.15</ele>
        <time>2025-02-02T14:26:18.086Z</time>
      </trkpt>
      <trkpt lat="47.99072" lon="5.05002">
        <ele>371.22</ele>
        <time>2025-02-02T14:26:27.807Z</time>
      </trkpt>
      <trkpt lat="47.99095" lon="5.05021">
        <ele>371.22</ele>
        <time>2025-02-02T14:26:37.532Z</time>
      </trkpt>
      <trkpt lat="47.99117" lon="5.05039">
        <ele>371.24</ele>
        <time>2025-02-02T14:26:47.261Z</time>
      </trkpt>
      <trkpt lat="47.99139" lon="5.05058">
        <ele>371.26</ele>
        <time>2025-02-02T14:26:56.994Z</time>
      </trkpt>
      <trkpt lat="47.99167" lon="5.05073">
        <ele>371.29</ele>
        <time>2025-02-02T14:27:06.732Z</time>
      </trkpt>
      <trkpt lat="47.99195" lon="5.05088">
        <ele>371.22</ele>
        <time>2025-02-02T14:27:16.475Z</time>
      </trkpt>
      <trkpt lat="47.99222" lon="5.05104">
        <ele>371.05</ele>
        <time>2025-02-02T14:27:26.222Z</time>
      </trkpt>
      <trkpt lat="47.9925" lon="5.05119">
        <ele>370.83</ele>
        <time>2025-02-02T14:27:35.974Z</time>
      </trkpt>
      <trkpt lat="47.99278" lon="5.05134">
        <ele>370.6</ele>
        <time>2025-02-02T14:27:45.731Z</time>
      </trkpt>
      <trkpt lat="47.99305" lon="5.05149">
        <ele>370.37</ele>
        <time>2025-02-02T14:27:55.493Z</time>
      </trkpt>
      <trkpt lat="47.99333" lon="5.05165">
        <ele>370.08</ele>
        <time>2025-02-02T14:28:05.259Z</time>
      </trkpt>
      <trkpt lat="47.99361" lon="5.0518">
        <ele>369.71</ele>
        <time>2025-02-02T14:28:15.030Z</time>
      </trkpt>
      <trkpt lat="47.99388" lon="5.05195">
        <ele>369.3</ele>
        <time>2025-02-02T14:28:24.806Z</time>
      </trkpt>
      <trkpt lat="47.99418" lon="5.05212">
        <ele>368.92</ele>
        <time>2025-02-02T14:28:34.587Z</time>
      </trkpt>
      <trkpt lat="47.99447" lon="5.05228">
        <ele>368.55</ele>
        <time>2025-02-02T14:28:44.373Z</time>
      </trkpt>
      <trkpt lat="47.99476" lon="5.05245">
        <ele>368.18</ele>
        <time>2025-02-02T14:28:54.164Z</time>
      </trkpt>
      <trkpt lat="47.99506" lon="5.05261">
        <ele>367.8</ele>
        <time>2025-02-02T14:29:03.960Z</time>
      </trkpt>
      <trkpt lat="47.99535" lon="5.05278">
        <ele>367.45</ele>
        <time>2025-02-02T14:29:13.761Z</time>
      </trkpt>
      <trkpt lat="47.99565" lon="5.05294">
        <ele>367.12</ele>
        <time>2025-02-02T14:29:23.567Z</time>
      </trkpt>
      <trkpt lat="47.99594" lon="5.05311">
        <ele>366.73</ele>
        <time>2025-02-02T14:29:33.378Z</time>
      </trkpt>
      <trkpt lat="47.99623" lon="5.05327">
        <ele>366.39</ele>
        <time>2025-02-02T14:29:43.194Z</time>
      </trkpt>
      <trkpt lat="47.99653" lon="5.05344">
        <ele>366</ele>
        <time>2025-02-02T14:29:53.015Z</time>
      </trkpt>
      <trkpt lat="47.99682" lon="5.0536">
        <ele>365.62</ele>
        <time>2025-02-02T14:30:02.841Z</time>
      </trkpt>
      <trkpt lat="47.99682" lon="5.0536">
        <ele>365.25</ele>
        <time>2025-02-02T14:30:12.667Z</time>
      </trkpt>
      <trkpt lat="47.99711" lon="5.05376">
        <ele>364.91</ele>
        <time>2025-02-02T14:30:22.498Z</time>
      </trkpt>
      <trkpt lat="47.99741" lon="5.05393">
        <ele>364.58</ele>
        <time>2025-02-02T14:30:32.334Z</time>
      </trkpt>
      <trkpt lat="47.9977" lon="5.05409">
        <ele>364.13</ele>
        <time>2025-02-02T14:30:42.175Z</time>
      </trkpt>
      <trkpt lat="47.99799" lon="5.05425">
        <ele>363.66</ele>
        <time>2025-02-02T14:30:52.021Z</time>
      </trkpt>
      <trkpt lat="47.99829" lon="5.05441">
        <ele>363.33</ele>
        <time>2025-02-02T14:31:01.872Z</time>
      </trkpt>
      <trkpt lat="47.99858" lon="5.05457">
        <ele>362.96</ele>
        <time>2025-02-02T14:31:11.728Z</time>
      </trkpt>
      <trkpt lat="47.99883" lon="5.05465">
        <ele>362.4</ele>
        <time>2025-02-02T14:31:21.588Z</time>
      </trkpt>
      <trkpt lat="47.99908" lon="5.05474">
        <ele>361.81</ele>
        <time>2025-02-02T14:31:31.452Z</time>
      </trkpt>
      <trkpt lat="47.99933" lon="5.05483">
        <ele>361.29</ele>
        <time>2025-02-02T14:31:41.320Z</time>
      </trkpt>
      <trkpt lat="47.99963" lon="5.05489">
        <ele>360.88</ele>
        <time>2025-02-02T14:31:51.193Z</time>
      </trkpt>
      <trkpt lat="47.99994" lon="5.05495">
        <ele>360.47</ele>
        <time>2025-02-02T14:32:01.071Z</time>
      </trkpt>
      <trkpt lat="48.00024" lon="5.05502">
        <ele>360.2</ele>
        <time>2025-02-02T14:32:10.954Z</time>
      </trkpt>
      <trkpt lat="48.00054" lon="5.05508">
        <ele>359.84</ele>
        <time>2025-02-02T14:32:20.842Z</time>
      </trkpt>
      <trkpt lat="48.00084" lon="5.05514">
        <ele>359.44</ele>
        <time>2025-02-02T14:32:30.735Z</time>
      </trkpt>
      <trkpt lat="48.00114" lon="5.0552">
        <ele>359.05</ele>
        <time>2025-02-02T14:32:40.633Z</time>
      </trkpt>
      <trkpt lat="48.00144" lon="5.05527">
        <ele>358.76</ele>
        <time>2025-02-02T14:32:50.536Z</time>
      </trkpt>
      <trkpt lat="48.00175" lon="5.05533">
        <ele>358.51</ele>
        <time>2025-02-02T14:33:00.443Z</time>
      </trkpt>
      <trkpt lat="48.00205" lon="5.05539">
        <ele>358.25</ele>
        <time>2025-02-02T14:33:10.355Z</time>
      </trkpt>
      <trkpt lat="48.00235" lon="5.05545">
        <ele>358.04</ele>
        <time>2025-02-02T14:33:20.272Z</time>
      </trkpt>
      <trkpt lat="48.00265" lon="5.05552">
        <ele>357.88</ele>
        <time>2025-02-02T14:33:30.194Z</time>
      </trkpt>
      <trkpt lat="48.00295" lon="5.05558">
        <ele>357.57</ele>
        <time>2025-02-02T14:33:40.121Z</time>
      </trkpt>
      <trkpt lat="48.00326" lon="5.05564">
        <ele>357.25</ele>
        <time>2025-02-02T14:33:50.053Z</time>
      </trkpt>
      <trkpt lat="48.00356" lon="5.05571">
        <ele>356.95</ele>
        <time>2025-02-02T14:33:59.990Z</time>
      </trkpt>
      <trkpt lat="48.00386" lon="5.05577">
        <ele>356.66</ele>
        <time>2025-02-02T14:34:09.932Z</time>
      </trkpt>
      <trkpt lat="48.00416" lon="5.05583">
        <ele>356.37</ele>
        <time>2025-02-02T14:34:19.879Z</time>
      </trkpt>
      <trkpt lat="48.00446" lon="5.05589">
        <ele>356.03</ele>
        <time>2025-02-02T14:34:29.830Z</time>
      </trkpt>
      <trkpt lat="48.00477" lon="5.05596">
        <ele>355.77</ele>
        <time>2025-02-02T14:34:39.786Z</time>
      </trkpt>
      <trkpt lat="48.00507" lon="5.05602">
        <ele>355.46</ele>
        <time>2025-02-02T14:34:49.747Z</time>
      </trkpt>
      <trkpt lat="48.00537" lon="5.05608">
        <ele>355.14</ele>
        <time>2025-02-02T14:34:59.713Z</time>
      </trkpt>
      <trkpt lat="48.00567" lon="5.05615">
        <ele>354.82</ele>
        <time>2025-02-02T14:35:09.684Z</time>
      </trkpt>
      <trkpt lat="48.00597" lon="5.05621">
        <ele>354.53</ele>
        <time>2025-02-02T14:35:19.660Z</time>
      </trkpt>
      <trkpt lat="48.00627" lon="5.05627">
        <ele>354.18</ele>
        <time>2025-02-02T14:35:29.641Z</time>
      </trkpt>
      <trkpt lat="48.00658" lon="5.05633">
        <ele>353.88</ele>
        <time>2025-02-02T14:35:39.627Z</time>
      </trkpt>
      <trkpt lat="48.00688" lon="5.0564">
        <ele>353.61</ele>
        <time>2025-02-02T14:35:49.617Z</time>
      </trkpt>
      <trkpt lat="48.00718" lon="5.05646">
        <ele>353.28</ele>
        <time>2025-02-02T14:35:59.612Z</time>
      </trkpt>
      <trkpt lat="48.00748" lon="5.05652">
        <ele>352.94</ele>
        <time>2025-02-02T14:36:09.612Z</time>
      </trkpt>
      <trkpt lat="48.00779" lon="5.05659">
        <ele>352.57</ele>
        <time>2025-02-02T14:36:19.617Z</time>
      </trkpt>
      <trkpt lat="48.00809" lon="5.05669">
        <ele>352.19</ele>
        <time>2025-02-02T14:36:29.627Z</time>
      </trkpt>
      <trkpt lat="48.00839" lon="5.0568">
        <ele>351.91</ele>
        <time>2025-02-02T14:36:39.642Z</time>
      </trkpt>
      <trkpt lat="48.00867" lon="5.05692">
        <ele>351.65</ele>
        <time>2025-02-02T14:36:49.662Z</time>
      </trkpt>
      <trkpt lat="48.00894" lon="5.05704">
        <ele>351.36</ele>
        <time>2025-02-02T14:36:59.686Z</time>
      </trkpt>
      <trkpt lat="48.00922" lon="5.05718">
        <ele>351.08</ele>
        <time>2025-02-02T14:37:09.715Z</time>
      </trkpt>
      <trkpt lat="48.0095" lon="5.05733">
        <ele>350.79</ele>
        <time>2025-02-02T14:37:19.749Z</time>
      </trkpt>
      <trkpt lat="48.00977" lon="5.05748">
        <ele>350.57</ele>
        <time>2025-02-02T14:37:29.787Z</time>
      </trkpt>
      <trkpt lat="48.01005" lon="5.05763">
        <ele>350.28</ele>
        <time>2025-02-02T14:37:39.830Z</time>
      </trkpt>
      <trkpt lat="48.01032" lon="5.05777">
        <ele>349.86</ele>
        <time>2025-02-02T14:37:49.878Z</time>
      </trkpt>
      <trkpt lat="48.0106" lon="5.05792">
        <ele>349.45</ele>
        <time>2025-02-02T14:37:59.930Z</time>
      </trkpt>
      <trkpt lat="48.01088" lon="5.05807">
        <ele>349.16</ele>
        <time>2025-02-02T14:38:09.987Z</time>
      </trkpt>
      <trkpt lat="48.01107" lon="5.0581">
        <ele>348.89</ele>
        <time>2025-02-02T14:38:20.047Z</time>
      </trkpt>
      <trkpt lat="48.01126" lon="5.05813">
        <ele>348.63</ele>
        <time>2025-02-02T14:38:30.110Z</time>
      </trkpt>
      <trkpt lat="48.01153" lon="5.05814">
        <ele>348.37</ele>
        <time>2025-02-02T14:38:40.178Z</time>
      </trkpt>
      <trkpt lat="48.0118" lon="5.05815">
        <ele>348.14</ele>
        <time>2025-02-02T14:38:50.250Z</time>
      </trkpt>
      <trkpt lat="48.0121" lon="5.05813">
        <ele>347.85</ele>
        <time>2025-02-02T14:39:00.327Z</time>
      </trkpt>
      <trkpt lat="48.0124" lon="5.05811">
        <ele>347.62</ele>
        <time>2025-02-02T14:39:10.409Z</time>
      </trkpt>
      <trkpt lat="48.01269" lon="5.05808">
        <ele>347.42</ele>
        <time>2025-02-02T14:39:20.495Z</time>
      </trkpt>
      <trkpt lat="48.01299" lon="5.05806">
        <ele>347.21</ele>
        <time>2025-02-02T14:39:30.586Z</time>
      </trkpt>
      <trkpt lat="48.01329" lon="5.05804">
        <ele>347.08</ele>
        <time>2025-02-02T14:39:40.682Z</time>
      </trkpt>
      <trkpt lat="48.01359" lon="5.05801">
        <ele>346.94</ele>
        <time>2025-02-02T14:39:50.783Z</time>
      </trkpt>
      <trkpt lat="48.01389" lon="5.05799">
        <ele>346.83</ele>
        <time>2025-02-02T14:40:00.888Z</time>
      </trkpt>
      <trkpt lat="48.01419" lon="5.05797">
        <ele>346.81</ele>
        <time>2025-02-02T14:40:10.998Z</time>
      </trkpt>
      <trkpt lat="48.01449" lon="5.05794">
        <ele>346.8</ele>
        <time>2025-02-02T14:40:21.113Z</time>
      </trkpt>
      <trkpt lat="48.01479" lon="5.05792">
        <ele>346.78</ele>
        <time>2025-02-02T14:40:31.233Z</time>
      </trkpt>
      <trkpt lat="48.01508" lon="5.0579">
        <ele>346.81</ele>
        <time>2025-02-02T14:40:41.358Z</time>
      </trkpt>
      <trkpt lat="48.01538" lon="5.05788">
        <ele>346.81</ele>
        <time>2025-02-02T14:40:51.487Z</time>
      </trkpt>
      <trkpt lat="48.01568" lon="5.05785">
        <ele>346.8</ele>
        <time>2025-02-02T14:41:01.621Z</time>
      </trkpt>
      <trkpt lat="48.0159" lon="5.05781">
        <ele>346.78</ele>
        <time>2025-02-02T14:41:11.759Z</time>
      </trkpt>
      <trkpt lat="48.01611" lon="5.05777">
        <ele>346.83</ele>
        <time>2025-02-02T14:41:21.900Z</time>
      </trkpt>
      <trkpt lat="48.01633" lon="5.05767">
        <ele>346.85</ele>
        <time>2025-02-02T14:41:32.045Z</time>
      </trkpt>
      <trkpt lat="48.01654" lon="5.05757">
        <ele>346.91</ele>
        <time>2025-02-02T14:41:42.193Z</time>
      </trkpt>
      <trkpt lat="48.01674" lon="5.05747">
        <ele>347.01</ele>
        <time>2025-02-02T14:41:52.345Z</time>
      </trkpt>
      <trkpt lat="48.01695" lon="5.05736">
        <ele>347.15</ele>
        <time>2025-02-02T14:42:02.500Z</time>
      </trkpt>
      <trkpt lat="48.01722" lon="5.05721">
        <ele>347.43</ele>
        <time>2025-02-02T14:42:12.660Z</time>
      </trkpt>
      <trkpt lat="48.01749" lon="5.05706">
        <ele>347.73</ele>
        <time>2025-02-02T14:42:22.824Z</time>
      </trkpt>
      <trkpt lat="48.01775" lon="5.05691">
        <ele>347.84</ele>
        <time>2025-02-02T14:42:32.993Z</time>
      </trkpt>
      <trkpt lat="48.01802" lon="5.05676">
        <ele>347.76</ele>
        <time>2025-02-02T14:42:43.167Z</time>
      </trkpt>
      <trkpt lat="48.0183" lon="5.05676">
        <ele>347.65</ele>
        <time>2025-02-02T14:42:53.345Z</time>
      </trkpt>
      <trkpt lat="48.01843" lon="5.0568">
        <ele>347.57</ele>
        <time>2025-02-02T14:43:03.525Z</time>
      </trkpt>
      <trkpt lat="48.01856" lon="5.05687">
        <ele>347.47</ele>
        <time>2025-02-02T14:43:13.707Z</time>
      </trkpt>
      <trkpt lat="48.01877" lon="5.05703">
        <ele>347.36</ele>
        <time>2025-02-02T14:43:23.893Z</time>
      </trkpt>
      <trkpt lat="48.01899" lon="5.05719">
        <ele>347.22</ele>
        <time>2025-02-02T14:43:34.083Z</time>
      </trkpt>
      <trkpt lat="48.01914" lon="5.05726">
        <ele>347.01</ele>
        <time>2025-02-02T14:43:44.276Z</time>
      </trkpt>
      <trkpt lat="48.01929" lon="5.05734">
        <ele>346.74</ele>
        <time>2025-02-02T14:43:54.471Z</time>
      </trkpt>
      <trkpt lat="48.01959" lon="5.05741">
        <ele>346.38</ele>
        <time>2025-02-02T14:44:04.671Z</time>
      </trkpt>
      <trkpt lat="48.01989" lon="5.05748">
        <ele>346.04</ele>
        <time>2025-02-02T14:44:14.876Z</time>
      </trkpt>
      <trkpt lat="48.02019" lon="5.05755">
        <ele>345.66</ele>
        <time>2025-02-02T14:44:25.086Z</time>
      </trkpt>
      <trkpt lat="48.02036" lon="5.05759">
        <ele>345.38</ele>
        <time>2025-02-02T14:44:35.299Z</time>
      </trkpt>
      <trkpt lat="48.02053" lon="5.05764">
        <ele>345.14</ele>
        <time>2025-02-02T14:44:45.514Z</time>
      </trkpt>
      <trkpt lat="48.02077" lon="5.05777">
        <ele>344.91</ele>
        <time>2025-02-02T14:44:55.733Z</time>
      </trkpt>
      <trkpt lat="48.02092" lon="5.0579">
        <ele>344.68</ele>
        <time>2025-02-02T14:45:05.955Z</time>
      </trkpt>
      <trkpt lat="48.02107" lon="5.05802">
        <ele>344.43</ele>
        <time>2025-02-02T14:45:16.180Z</time>
      </trkpt>
      <trkpt lat="48.02113" lon="5.05809">
        <ele>344.21</ele>
        <time>2025-02-02T14:45:26.406Z</time>
      </trkpt>
      <trkpt lat="48.0213" lon="5.05833">
        <ele>344.01</ele>
        <time>2025-02-02T14:45:36.636Z</time>
      </trkpt>
      <trkpt lat="48.02148" lon="5.05858">
        <ele>343.88</ele>
        <time>2025-02-02T14:45:46.870Z</time>
      </trkpt>
      <trkpt lat="48.02165" lon="5.05882">
        <ele>343.78</ele>
        <time>2025-02-02T14:45:57.108Z</time>
      </trkpt>
      <trkpt lat="48.02183" lon="5.05909">
        <ele>343.71</ele>
        <time>2025-02-02T14:46:07.350Z</time>
      </trkpt>
      <trkpt lat="48.02201" lon="5.05935">
        <ele>343.67</ele>
        <time>2025-02-02T14:46:17.596Z</time>
      </trkpt>
      <trkpt lat="48.0221" lon="5.05944">
        <ele>343.6</ele>
        <time>2025-02-02T14:46:27.843Z</time>
      </trkpt>
      <trkpt lat="48.02227" lon="5.05952">
        <ele>343.56</ele>
        <time>2025-02-02T14:46:38.093Z</time>
      </trkpt>
    </trkseg>
  </trk>
</gpx>